<?xml version="1.0" encoding="UTF-8" standalone="no" ?>
<gpx xmlns="http://www.topografix.com/GPX/1/1" xmlns:xsi="http://www.w3.org/2001/XMLSchema-instance" xsi:schemaLocation="http://www.topografix.com/GPX/1/1 http://www.topografix.com/GPX/1/1/gpx.xsd" version="1.1" creator="VisuGPX - https://www.visugpx.com">
  <metadata>
    <name>[16/09/2018] Translovérienne - 60 km</name>
    <desc><![CDATA[Rando organisée par l'UVL le 16 septembre 2018]]></desc>
  </metadata>
  <trk>
    <name><![CDATA[[16/09/2018] Translovérienne - 60 km_1]]></name>
    <trkseg>
      <trkpt lat="49.21023" lon="1.17182">
        <ele>18.898468</ele>
        <time>2018-09-16T06:09:39Z</time>
      </trkpt>
      <trkpt lat="49.21023" lon="1.17182">
        <ele>18.898468</ele>
        <time>2018-09-16T06:09:40Z</time>
      </trkpt>
      <trkpt lat="49.21021" lon="1.17166">
        <ele>19.4</ele>
        <time>2018-09-16T06:10:32Z</time>
      </trkpt>
      <trkpt lat="49.21022" lon="1.1715">
        <ele>19.7</ele>
        <time>2018-09-16T06:10:38Z</time>
      </trkpt>
      <trkpt lat="49.2102" lon="1.17134">
        <ele>19.9</ele>
        <time>2018-09-16T06:10:43Z</time>
      </trkpt>
      <trkpt lat="49.21018" lon="1.17118">
        <ele>20.1</ele>
        <time>2018-09-16T06:10:48Z</time>
      </trkpt>
      <trkpt lat="49.21023" lon="1.17106">
        <ele>20.2</ele>
        <time>2018-09-16T06:10:53Z</time>
      </trkpt>
      <trkpt lat="49.21025" lon="1.17088">
        <ele>20.2</ele>
        <time>2018-09-16T06:10:58Z</time>
      </trkpt>
      <trkpt lat="49.21025" lon="1.17074">
        <ele>20.3</ele>
        <time>2018-09-16T06:11:01Z</time>
      </trkpt>
      <trkpt lat="49.21023" lon="1.1706">
        <ele>20.4</ele>
        <time>2018-09-16T06:11:04Z</time>
      </trkpt>
      <trkpt lat="49.21022" lon="1.17046">
        <ele>20.8</ele>
        <time>2018-09-16T06:11:07Z</time>
      </trkpt>
      <trkpt lat="49.21018" lon="1.17029">
        <ele>21.2</ele>
        <time>2018-09-16T06:11:11Z</time>
      </trkpt>
      <trkpt lat="49.21016" lon="1.17013">
        <ele>21.5</ele>
        <time>2018-09-16T06:11:14Z</time>
      </trkpt>
      <trkpt lat="49.21015" lon="1.16997">
        <ele>21.9</ele>
        <time>2018-09-16T06:11:17Z</time>
      </trkpt>
      <trkpt lat="49.21014" lon="1.16981">
        <ele>22.2</ele>
        <time>2018-09-16T06:11:20Z</time>
      </trkpt>
      <trkpt lat="49.21014" lon="1.16965">
        <ele>22.6</ele>
        <time>2018-09-16T06:11:23Z</time>
      </trkpt>
      <trkpt lat="49.21013" lon="1.1695">
        <ele>23.2</ele>
        <time>2018-09-16T06:11:26Z</time>
      </trkpt>
      <trkpt lat="49.21012" lon="1.16935">
        <ele>23.5</ele>
        <time>2018-09-16T06:11:29Z</time>
      </trkpt>
      <trkpt lat="49.21012" lon="1.1692">
        <ele>23.8</ele>
        <time>2018-09-16T06:11:32Z</time>
      </trkpt>
      <trkpt lat="49.21011" lon="1.16905">
        <ele>24.1</ele>
        <time>2018-09-16T06:11:35Z</time>
      </trkpt>
      <trkpt lat="49.21011" lon="1.16888">
        <ele>24.4</ele>
        <time>2018-09-16T06:11:38Z</time>
      </trkpt>
      <trkpt lat="49.21011" lon="1.16871">
        <ele>24.7</ele>
        <time>2018-09-16T06:11:41Z</time>
      </trkpt>
      <trkpt lat="49.2101" lon="1.16855">
        <ele>25</ele>
        <time>2018-09-16T06:11:44Z</time>
      </trkpt>
      <trkpt lat="49.2101" lon="1.16838">
        <ele>25.2</ele>
        <time>2018-09-16T06:11:47Z</time>
      </trkpt>
      <trkpt lat="49.21009" lon="1.16821">
        <ele>25.5</ele>
        <time>2018-09-16T06:11:50Z</time>
      </trkpt>
      <trkpt lat="49.21009" lon="1.16803">
        <ele>25.6</ele>
        <time>2018-09-16T06:11:53Z</time>
      </trkpt>
      <trkpt lat="49.21008" lon="1.16785">
        <ele>25.7</ele>
        <time>2018-09-16T06:11:56Z</time>
      </trkpt>
      <trkpt lat="49.21007" lon="1.16766">
        <ele>25.8</ele>
        <time>2018-09-16T06:11:59Z</time>
      </trkpt>
      <trkpt lat="49.21006" lon="1.16747">
        <ele>25.8</ele>
        <time>2018-09-16T06:12:02Z</time>
      </trkpt>
      <trkpt lat="49.21005" lon="1.16734">
        <ele>25.6</ele>
        <time>2018-09-16T06:12:04Z</time>
      </trkpt>
      <trkpt lat="49.21005" lon="1.1672">
        <ele>25.7</ele>
        <time>2018-09-16T06:12:06Z</time>
      </trkpt>
      <trkpt lat="49.21004" lon="1.16705">
        <ele>25.5</ele>
        <time>2018-09-16T06:12:08Z</time>
      </trkpt>
      <trkpt lat="49.21004" lon="1.1669">
        <ele>25.4</ele>
        <time>2018-09-16T06:12:10Z</time>
      </trkpt>
      <trkpt lat="49.21004" lon="1.16676">
        <ele>25.3</ele>
        <time>2018-09-16T06:12:12Z</time>
      </trkpt>
      <trkpt lat="49.21005" lon="1.16656">
        <ele>25.3</ele>
        <time>2018-09-16T06:12:15Z</time>
      </trkpt>
      <trkpt lat="49.21006" lon="1.16641">
        <ele>25.2</ele>
        <time>2018-09-16T06:12:17Z</time>
      </trkpt>
      <trkpt lat="49.21009" lon="1.16621">
        <ele>25.1</ele>
        <time>2018-09-16T06:12:20Z</time>
      </trkpt>
      <trkpt lat="49.21012" lon="1.16607">
        <ele>24.9</ele>
        <time>2018-09-16T06:12:22Z</time>
      </trkpt>
      <trkpt lat="49.21019" lon="1.1659">
        <ele>24.7</ele>
        <time>2018-09-16T06:12:25Z</time>
      </trkpt>
      <trkpt lat="49.2103" lon="1.1658">
        <ele>24.2</ele>
        <time>2018-09-16T06:12:28Z</time>
      </trkpt>
      <trkpt lat="49.21043" lon="1.16572">
        <ele>24.1</ele>
        <time>2018-09-16T06:12:31Z</time>
      </trkpt>
      <trkpt lat="49.21054" lon="1.16566">
        <ele>24.1</ele>
        <time>2018-09-16T06:12:34Z</time>
      </trkpt>
      <trkpt lat="49.21066" lon="1.16563">
        <ele>24.4</ele>
        <time>2018-09-16T06:12:37Z</time>
      </trkpt>
      <trkpt lat="49.21077" lon="1.16557">
        <ele>24.5</ele>
        <time>2018-09-16T06:12:40Z</time>
      </trkpt>
      <trkpt lat="49.21089" lon="1.16551">
        <ele>24.7</ele>
        <time>2018-09-16T06:12:43Z</time>
      </trkpt>
      <trkpt lat="49.211" lon="1.16547">
        <ele>24.9</ele>
        <time>2018-09-16T06:12:46Z</time>
      </trkpt>
      <trkpt lat="49.21112" lon="1.16542">
        <ele>25.2</ele>
        <time>2018-09-16T06:12:49Z</time>
      </trkpt>
      <trkpt lat="49.21124" lon="1.16537">
        <ele>25.3</ele>
        <time>2018-09-16T06:12:52Z</time>
      </trkpt>
      <trkpt lat="49.21135" lon="1.16531">
        <ele>25.4</ele>
        <time>2018-09-16T06:12:55Z</time>
      </trkpt>
      <trkpt lat="49.21147" lon="1.16526">
        <ele>25.2</ele>
        <time>2018-09-16T06:12:58Z</time>
      </trkpt>
      <trkpt lat="49.21154" lon="1.16512">
        <ele>25.3</ele>
        <time>2018-09-16T06:13:01Z</time>
      </trkpt>
      <trkpt lat="49.21155" lon="1.16499">
        <ele>25.2</ele>
        <time>2018-09-16T06:13:03Z</time>
      </trkpt>
      <trkpt lat="49.21152" lon="1.16485">
        <ele>25.2</ele>
        <time>2018-09-16T06:13:05Z</time>
      </trkpt>
      <trkpt lat="49.2115" lon="1.16471">
        <ele>25.2</ele>
        <time>2018-09-16T06:13:07Z</time>
      </trkpt>
      <trkpt lat="49.21147" lon="1.16453">
        <ele>25.2</ele>
        <time>2018-09-16T06:13:10Z</time>
      </trkpt>
      <trkpt lat="49.21145" lon="1.16435">
        <ele>25.2</ele>
        <time>2018-09-16T06:13:13Z</time>
      </trkpt>
      <trkpt lat="49.21142" lon="1.16417">
        <ele>25.4</ele>
        <time>2018-09-16T06:13:16Z</time>
      </trkpt>
      <trkpt lat="49.21139" lon="1.164">
        <ele>25.3</ele>
        <time>2018-09-16T06:13:19Z</time>
      </trkpt>
      <trkpt lat="49.21136" lon="1.16381">
        <ele>25.4</ele>
        <time>2018-09-16T06:13:22Z</time>
      </trkpt>
      <trkpt lat="49.21133" lon="1.16362">
        <ele>25.5</ele>
        <time>2018-09-16T06:13:25Z</time>
      </trkpt>
      <trkpt lat="49.21131" lon="1.16345">
        <ele>25.8</ele>
        <time>2018-09-16T06:13:28Z</time>
      </trkpt>
      <trkpt lat="49.21128" lon="1.16326">
        <ele>26</ele>
        <time>2018-09-16T06:13:31Z</time>
      </trkpt>
      <trkpt lat="49.21125" lon="1.16306">
        <ele>26.1</ele>
        <time>2018-09-16T06:13:34Z</time>
      </trkpt>
      <trkpt lat="49.21122" lon="1.16287">
        <ele>26.3</ele>
        <time>2018-09-16T06:13:37Z</time>
      </trkpt>
      <trkpt lat="49.21119" lon="1.16268">
        <ele>26.4</ele>
        <time>2018-09-16T06:13:40Z</time>
      </trkpt>
      <trkpt lat="49.21116" lon="1.16249">
        <ele>26.4</ele>
        <time>2018-09-16T06:13:43Z</time>
      </trkpt>
      <trkpt lat="49.21113" lon="1.1623">
        <ele>26.4</ele>
        <time>2018-09-16T06:13:46Z</time>
      </trkpt>
      <trkpt lat="49.21109" lon="1.16211">
        <ele>26.6</ele>
        <time>2018-09-16T06:13:49Z</time>
      </trkpt>
      <trkpt lat="49.21106" lon="1.16198">
        <ele>26.7</ele>
        <time>2018-09-16T06:13:51Z</time>
      </trkpt>
      <trkpt lat="49.21104" lon="1.16184">
        <ele>26.8</ele>
        <time>2018-09-16T06:13:53Z</time>
      </trkpt>
      <trkpt lat="49.21101" lon="1.16164">
        <ele>27</ele>
        <time>2018-09-16T06:13:56Z</time>
      </trkpt>
      <trkpt lat="49.21101" lon="1.16151">
        <ele>27</ele>
        <time>2018-09-16T06:13:58Z</time>
      </trkpt>
      <trkpt lat="49.21102" lon="1.16137">
        <ele>27.1</ele>
        <time>2018-09-16T06:14:00Z</time>
      </trkpt>
      <trkpt lat="49.21103" lon="1.16117">
        <ele>27.5</ele>
        <time>2018-09-16T06:14:03Z</time>
      </trkpt>
      <trkpt lat="49.21104" lon="1.16098">
        <ele>27.5</ele>
        <time>2018-09-16T06:14:06Z</time>
      </trkpt>
      <trkpt lat="49.21105" lon="1.16078">
        <ele>27.3</ele>
        <time>2018-09-16T06:14:09Z</time>
      </trkpt>
      <trkpt lat="49.21106" lon="1.16063">
        <ele>27.3</ele>
        <time>2018-09-16T06:14:11Z</time>
      </trkpt>
      <trkpt lat="49.21107" lon="1.16044">
        <ele>27.4</ele>
        <time>2018-09-16T06:14:14Z</time>
      </trkpt>
      <trkpt lat="49.21108" lon="1.16023">
        <ele>27.7</ele>
        <time>2018-09-16T06:14:17Z</time>
      </trkpt>
      <trkpt lat="49.21109" lon="1.16009">
        <ele>27.6</ele>
        <time>2018-09-16T06:14:19Z</time>
      </trkpt>
      <trkpt lat="49.21109" lon="1.15995">
        <ele>27.7</ele>
        <time>2018-09-16T06:14:21Z</time>
      </trkpt>
      <trkpt lat="49.21111" lon="1.15976">
        <ele>27.9</ele>
        <time>2018-09-16T06:14:24Z</time>
      </trkpt>
      <trkpt lat="49.21112" lon="1.15961">
        <ele>28.1</ele>
        <time>2018-09-16T06:14:26Z</time>
      </trkpt>
      <trkpt lat="49.21114" lon="1.15941">
        <ele>28.2</ele>
        <time>2018-09-16T06:14:29Z</time>
      </trkpt>
      <trkpt lat="49.21116" lon="1.15923">
        <ele>28.3</ele>
        <time>2018-09-16T06:14:32Z</time>
      </trkpt>
      <trkpt lat="49.21117" lon="1.15903">
        <ele>28.4</ele>
        <time>2018-09-16T06:14:35Z</time>
      </trkpt>
      <trkpt lat="49.21118" lon="1.15889">
        <ele>28.4</ele>
        <time>2018-09-16T06:14:37Z</time>
      </trkpt>
      <trkpt lat="49.21119" lon="1.15868">
        <ele>28.5</ele>
        <time>2018-09-16T06:14:40Z</time>
      </trkpt>
      <trkpt lat="49.21119" lon="1.15854">
        <ele>28.6</ele>
        <time>2018-09-16T06:14:42Z</time>
      </trkpt>
      <trkpt lat="49.21122" lon="1.15834">
        <ele>28.7</ele>
        <time>2018-09-16T06:14:45Z</time>
      </trkpt>
      <trkpt lat="49.21123" lon="1.1582">
        <ele>28.9</ele>
        <time>2018-09-16T06:14:47Z</time>
      </trkpt>
      <trkpt lat="49.21124" lon="1.15806">
        <ele>29</ele>
        <time>2018-09-16T06:14:49Z</time>
      </trkpt>
      <trkpt lat="49.21125" lon="1.15792">
        <ele>29.2</ele>
        <time>2018-09-16T06:14:51Z</time>
      </trkpt>
      <trkpt lat="49.21127" lon="1.15772">
        <ele>29.5</ele>
        <time>2018-09-16T06:14:54Z</time>
      </trkpt>
      <trkpt lat="49.21129" lon="1.15754">
        <ele>29.8</ele>
        <time>2018-09-16T06:14:57Z</time>
      </trkpt>
      <trkpt lat="49.21132" lon="1.15736">
        <ele>30.2</ele>
        <time>2018-09-16T06:15:00Z</time>
      </trkpt>
      <trkpt lat="49.21134" lon="1.15718">
        <ele>30.3</ele>
        <time>2018-09-16T06:15:03Z</time>
      </trkpt>
      <trkpt lat="49.21136" lon="1.157">
        <ele>30.6</ele>
        <time>2018-09-16T06:15:06Z</time>
      </trkpt>
      <trkpt lat="49.21138" lon="1.15682">
        <ele>31.1</ele>
        <time>2018-09-16T06:15:09Z</time>
      </trkpt>
      <trkpt lat="49.2114" lon="1.15664">
        <ele>31.3</ele>
        <time>2018-09-16T06:15:12Z</time>
      </trkpt>
      <trkpt lat="49.21142" lon="1.15647">
        <ele>31.8</ele>
        <time>2018-09-16T06:15:15Z</time>
      </trkpt>
      <trkpt lat="49.21145" lon="1.15631">
        <ele>32.3</ele>
        <time>2018-09-16T06:15:18Z</time>
      </trkpt>
      <trkpt lat="49.21147" lon="1.15615">
        <ele>32.7</ele>
        <time>2018-09-16T06:15:21Z</time>
      </trkpt>
      <trkpt lat="49.2115" lon="1.15601">
        <ele>33.3</ele>
        <time>2018-09-16T06:15:24Z</time>
      </trkpt>
      <trkpt lat="49.21152" lon="1.15587">
        <ele>33.9</ele>
        <time>2018-09-16T06:15:27Z</time>
      </trkpt>
      <trkpt lat="49.21155" lon="1.15574">
        <ele>34.7</ele>
        <time>2018-09-16T06:15:30Z</time>
      </trkpt>
      <trkpt lat="49.21157" lon="1.15559">
        <ele>35.3</ele>
        <time>2018-09-16T06:15:33Z</time>
      </trkpt>
      <trkpt lat="49.2116" lon="1.15543">
        <ele>36.3</ele>
        <time>2018-09-16T06:15:37Z</time>
      </trkpt>
      <trkpt lat="49.21164" lon="1.15526">
        <ele>37.2</ele>
        <time>2018-09-16T06:15:41Z</time>
      </trkpt>
      <trkpt lat="49.21167" lon="1.1551">
        <ele>38.2</ele>
        <time>2018-09-16T06:15:45Z</time>
      </trkpt>
      <trkpt lat="49.2117" lon="1.15493">
        <ele>39.2</ele>
        <time>2018-09-16T06:15:49Z</time>
      </trkpt>
      <trkpt lat="49.21173" lon="1.15477">
        <ele>40.3</ele>
        <time>2018-09-16T06:15:53Z</time>
      </trkpt>
      <trkpt lat="49.21176" lon="1.15462">
        <ele>41.3</ele>
        <time>2018-09-16T06:15:57Z</time>
      </trkpt>
      <trkpt lat="49.21179" lon="1.15447">
        <ele>42.3</ele>
        <time>2018-09-16T06:16:01Z</time>
      </trkpt>
      <trkpt lat="49.21181" lon="1.15432">
        <ele>43.2</ele>
        <time>2018-09-16T06:16:05Z</time>
      </trkpt>
      <trkpt lat="49.21183" lon="1.15417">
        <ele>44.4</ele>
        <time>2018-09-16T06:16:09Z</time>
      </trkpt>
      <trkpt lat="49.21186" lon="1.15401">
        <ele>45.7</ele>
        <time>2018-09-16T06:16:14Z</time>
      </trkpt>
      <trkpt lat="49.21188" lon="1.15387">
        <ele>46.7</ele>
        <time>2018-09-16T06:16:18Z</time>
      </trkpt>
      <trkpt lat="49.21191" lon="1.15372">
        <ele>48.2</ele>
        <time>2018-09-16T06:16:23Z</time>
      </trkpt>
      <trkpt lat="49.21193" lon="1.15358">
        <ele>49.8</ele>
        <time>2018-09-16T06:16:28Z</time>
      </trkpt>
      <trkpt lat="49.21195" lon="1.15343">
        <ele>51.1</ele>
        <time>2018-09-16T06:16:33Z</time>
      </trkpt>
      <trkpt lat="49.21196" lon="1.15328">
        <ele>52.4</ele>
        <time>2018-09-16T06:16:38Z</time>
      </trkpt>
      <trkpt lat="49.21193" lon="1.15314">
        <ele>53.7</ele>
        <time>2018-09-16T06:16:43Z</time>
      </trkpt>
      <trkpt lat="49.21187" lon="1.15301">
        <ele>55.4</ele>
        <time>2018-09-16T06:16:49Z</time>
      </trkpt>
      <trkpt lat="49.21181" lon="1.15291">
        <ele>56.6</ele>
        <time>2018-09-16T06:16:54Z</time>
      </trkpt>
      <trkpt lat="49.21174" lon="1.15281">
        <ele>58.1</ele>
        <time>2018-09-16T06:16:59Z</time>
      </trkpt>
      <trkpt lat="49.21168" lon="1.15269">
        <ele>59.5</ele>
        <time>2018-09-16T06:17:05Z</time>
      </trkpt>
      <trkpt lat="49.21161" lon="1.15256">
        <ele>61.3</ele>
        <time>2018-09-16T06:17:11Z</time>
      </trkpt>
      <trkpt lat="49.21157" lon="1.15244">
        <ele>62.4</ele>
        <time>2018-09-16T06:17:16Z</time>
      </trkpt>
      <trkpt lat="49.21153" lon="1.1523">
        <ele>63.7</ele>
        <time>2018-09-16T06:17:22Z</time>
      </trkpt>
      <trkpt lat="49.21152" lon="1.15214">
        <ele>65.2</ele>
        <time>2018-09-16T06:17:28Z</time>
      </trkpt>
      <trkpt lat="49.21153" lon="1.15199">
        <ele>66.8</ele>
        <time>2018-09-16T06:17:34Z</time>
      </trkpt>
      <trkpt lat="49.21153" lon="1.15185">
        <ele>68</ele>
        <time>2018-09-16T06:17:39Z</time>
      </trkpt>
      <trkpt lat="49.21155" lon="1.15169">
        <ele>69.3</ele>
        <time>2018-09-16T06:17:45Z</time>
      </trkpt>
      <trkpt lat="49.21157" lon="1.15154">
        <ele>70.7</ele>
        <time>2018-09-16T06:17:50Z</time>
      </trkpt>
      <trkpt lat="49.21161" lon="1.15138">
        <ele>72.2</ele>
        <time>2018-09-16T06:17:56Z</time>
      </trkpt>
      <trkpt lat="49.21166" lon="1.15124">
        <ele>73.7</ele>
        <time>2018-09-16T06:18:03Z</time>
      </trkpt>
      <trkpt lat="49.21169" lon="1.1511">
        <ele>74.7</ele>
        <time>2018-09-16T06:18:08Z</time>
      </trkpt>
      <trkpt lat="49.21171" lon="1.15095">
        <ele>75.8</ele>
        <time>2018-09-16T06:18:13Z</time>
      </trkpt>
      <trkpt lat="49.21171" lon="1.15078">
        <ele>76.6</ele>
        <time>2018-09-16T06:18:17Z</time>
      </trkpt>
      <trkpt lat="49.21177" lon="1.15066">
        <ele>77.9</ele>
        <time>2018-09-16T06:18:22Z</time>
      </trkpt>
      <trkpt lat="49.21181" lon="1.15053">
        <ele>78.8</ele>
        <time>2018-09-16T06:18:27Z</time>
      </trkpt>
      <trkpt lat="49.21186" lon="1.15041">
        <ele>79.8</ele>
        <time>2018-09-16T06:18:32Z</time>
      </trkpt>
      <trkpt lat="49.21188" lon="1.15027">
        <ele>80.5</ele>
        <time>2018-09-16T06:18:36Z</time>
      </trkpt>
      <trkpt lat="49.21191" lon="1.15012">
        <ele>82.2</ele>
        <time>2018-09-16T06:18:43Z</time>
      </trkpt>
      <trkpt lat="49.21193" lon="1.14998">
        <ele>83.1</ele>
        <time>2018-09-16T06:18:47Z</time>
      </trkpt>
      <trkpt lat="49.21196" lon="1.14984">
        <ele>84</ele>
        <time>2018-09-16T06:18:51Z</time>
      </trkpt>
      <trkpt lat="49.21202" lon="1.1497">
        <ele>85.3</ele>
        <time>2018-09-16T06:18:57Z</time>
      </trkpt>
      <trkpt lat="49.21206" lon="1.14957">
        <ele>86.6</ele>
        <time>2018-09-16T06:19:02Z</time>
      </trkpt>
      <trkpt lat="49.21211" lon="1.14944">
        <ele>88.2</ele>
        <time>2018-09-16T06:19:08Z</time>
      </trkpt>
      <trkpt lat="49.21216" lon="1.14933">
        <ele>89.6</ele>
        <time>2018-09-16T06:19:13Z</time>
      </trkpt>
      <trkpt lat="49.21224" lon="1.14922">
        <ele>90.9</ele>
        <time>2018-09-16T06:19:18Z</time>
      </trkpt>
      <trkpt lat="49.21234" lon="1.14914">
        <ele>93.2</ele>
        <time>2018-09-16T06:19:24Z</time>
      </trkpt>
      <trkpt lat="49.21239" lon="1.14902">
        <ele>94.5</ele>
        <time>2018-09-16T06:19:29Z</time>
      </trkpt>
      <trkpt lat="49.21245" lon="1.1489">
        <ele>95.3</ele>
        <time>2018-09-16T06:19:34Z</time>
      </trkpt>
      <trkpt lat="49.21251" lon="1.14877">
        <ele>96.4</ele>
        <time>2018-09-16T06:19:39Z</time>
      </trkpt>
      <trkpt lat="49.21256" lon="1.14866">
        <ele>97</ele>
        <time>2018-09-16T06:19:43Z</time>
      </trkpt>
      <trkpt lat="49.21263" lon="1.14853">
        <ele>98.2</ele>
        <time>2018-09-16T06:19:48Z</time>
      </trkpt>
      <trkpt lat="49.2127" lon="1.14843">
        <ele>99.4</ele>
        <time>2018-09-16T06:19:53Z</time>
      </trkpt>
      <trkpt lat="49.21278" lon="1.14838">
        <ele>100.7</ele>
        <time>2018-09-16T06:19:58Z</time>
      </trkpt>
      <trkpt lat="49.21288" lon="1.14835">
        <ele>102.4</ele>
        <time>2018-09-16T06:20:04Z</time>
      </trkpt>
      <trkpt lat="49.21299" lon="1.14836">
        <ele>103</ele>
        <time>2018-09-16T06:20:10Z</time>
      </trkpt>
      <trkpt lat="49.21309" lon="1.14837">
        <ele>105.4</ele>
        <time>2018-09-16T06:20:16Z</time>
      </trkpt>
      <trkpt lat="49.21319" lon="1.14839">
        <ele>107.1</ele>
        <time>2018-09-16T06:20:22Z</time>
      </trkpt>
      <trkpt lat="49.21329" lon="1.14842">
        <ele>108.3</ele>
        <time>2018-09-16T06:20:26Z</time>
      </trkpt>
      <trkpt lat="49.21344" lon="1.14849">
        <ele>110</ele>
        <time>2018-09-16T06:20:33Z</time>
      </trkpt>
      <trkpt lat="49.21355" lon="1.1485">
        <ele>111.2</ele>
        <time>2018-09-16T06:20:38Z</time>
      </trkpt>
      <trkpt lat="49.21364" lon="1.14855">
        <ele>112.2</ele>
        <time>2018-09-16T06:20:42Z</time>
      </trkpt>
      <trkpt lat="49.21374" lon="1.14858">
        <ele>113.3</ele>
        <time>2018-09-16T06:20:47Z</time>
      </trkpt>
      <trkpt lat="49.21383" lon="1.14857">
        <ele>114</ele>
        <time>2018-09-16T06:20:51Z</time>
      </trkpt>
      <trkpt lat="49.21392" lon="1.14849">
        <ele>114.5</ele>
        <time>2018-09-16T06:20:55Z</time>
      </trkpt>
      <trkpt lat="49.214" lon="1.14837">
        <ele>115.1</ele>
        <time>2018-09-16T06:20:59Z</time>
      </trkpt>
      <trkpt lat="49.21407" lon="1.14824">
        <ele>115.9</ele>
        <time>2018-09-16T06:21:03Z</time>
      </trkpt>
      <trkpt lat="49.21412" lon="1.14809">
        <ele>116.3</ele>
        <time>2018-09-16T06:21:07Z</time>
      </trkpt>
      <trkpt lat="49.21416" lon="1.14795">
        <ele>116.2</ele>
        <time>2018-09-16T06:21:10Z</time>
      </trkpt>
      <trkpt lat="49.21417" lon="1.1478">
        <ele>116.4</ele>
        <time>2018-09-16T06:21:13Z</time>
      </trkpt>
      <trkpt lat="49.21418" lon="1.14764">
        <ele>116.4</ele>
        <time>2018-09-16T06:21:16Z</time>
      </trkpt>
      <trkpt lat="49.21417" lon="1.14749">
        <ele>116.6</ele>
        <time>2018-09-16T06:21:19Z</time>
      </trkpt>
      <trkpt lat="49.21416" lon="1.14733">
        <ele>116.7</ele>
        <time>2018-09-16T06:21:22Z</time>
      </trkpt>
      <trkpt lat="49.21414" lon="1.14714">
        <ele>116.9</ele>
        <time>2018-09-16T06:21:26Z</time>
      </trkpt>
      <trkpt lat="49.21413" lon="1.14697">
        <ele>117.1</ele>
        <time>2018-09-16T06:21:29Z</time>
      </trkpt>
      <trkpt lat="49.21411" lon="1.1468">
        <ele>117.5</ele>
        <time>2018-09-16T06:21:32Z</time>
      </trkpt>
      <trkpt lat="49.21409" lon="1.14663">
        <ele>117.8</ele>
        <time>2018-09-16T06:21:35Z</time>
      </trkpt>
      <trkpt lat="49.21408" lon="1.14646">
        <ele>118</ele>
        <time>2018-09-16T06:21:38Z</time>
      </trkpt>
      <trkpt lat="49.21406" lon="1.14629">
        <ele>118.5</ele>
        <time>2018-09-16T06:21:41Z</time>
      </trkpt>
      <trkpt lat="49.21405" lon="1.14613">
        <ele>118.8</ele>
        <time>2018-09-16T06:21:44Z</time>
      </trkpt>
      <trkpt lat="49.21404" lon="1.14598">
        <ele>119.3</ele>
        <time>2018-09-16T06:21:47Z</time>
      </trkpt>
      <trkpt lat="49.21403" lon="1.14582">
        <ele>119.5</ele>
        <time>2018-09-16T06:21:50Z</time>
      </trkpt>
      <trkpt lat="49.21404" lon="1.14565">
        <ele>119.7</ele>
        <time>2018-09-16T06:21:53Z</time>
      </trkpt>
      <trkpt lat="49.21405" lon="1.14549">
        <ele>120.1</ele>
        <time>2018-09-16T06:21:56Z</time>
      </trkpt>
      <trkpt lat="49.21403" lon="1.14535">
        <ele>120.2</ele>
        <time>2018-09-16T06:21:58Z</time>
      </trkpt>
      <trkpt lat="49.21403" lon="1.14521">
        <ele>120.4</ele>
        <time>2018-09-16T06:22:00Z</time>
      </trkpt>
      <trkpt lat="49.21405" lon="1.14501">
        <ele>120.7</ele>
        <time>2018-09-16T06:22:03Z</time>
      </trkpt>
      <trkpt lat="49.21406" lon="1.14482">
        <ele>120.9</ele>
        <time>2018-09-16T06:22:06Z</time>
      </trkpt>
      <trkpt lat="49.21407" lon="1.14464">
        <ele>121.2</ele>
        <time>2018-09-16T06:22:09Z</time>
      </trkpt>
      <trkpt lat="49.21407" lon="1.14445">
        <ele>121.4</ele>
        <time>2018-09-16T06:22:12Z</time>
      </trkpt>
      <trkpt lat="49.21408" lon="1.14426">
        <ele>121.7</ele>
        <time>2018-09-16T06:22:15Z</time>
      </trkpt>
      <trkpt lat="49.21409" lon="1.14409">
        <ele>121.9</ele>
        <time>2018-09-16T06:22:18Z</time>
      </trkpt>
      <trkpt lat="49.2141" lon="1.14393">
        <ele>122</ele>
        <time>2018-09-16T06:22:21Z</time>
      </trkpt>
      <trkpt lat="49.21415" lon="1.14377">
        <ele>122.3</ele>
        <time>2018-09-16T06:22:24Z</time>
      </trkpt>
      <trkpt lat="49.2142" lon="1.14362">
        <ele>122.6</ele>
        <time>2018-09-16T06:22:27Z</time>
      </trkpt>
      <trkpt lat="49.21426" lon="1.14347">
        <ele>122.9</ele>
        <time>2018-09-16T06:22:30Z</time>
      </trkpt>
      <trkpt lat="49.21432" lon="1.14331">
        <ele>123.1</ele>
        <time>2018-09-16T06:22:33Z</time>
      </trkpt>
      <trkpt lat="49.21439" lon="1.14313">
        <ele>123.5</ele>
        <time>2018-09-16T06:22:36Z</time>
      </trkpt>
      <trkpt lat="49.21445" lon="1.14296">
        <ele>123.6</ele>
        <time>2018-09-16T06:22:39Z</time>
      </trkpt>
      <trkpt lat="49.21449" lon="1.14283">
        <ele>123.6</ele>
        <time>2018-09-16T06:22:41Z</time>
      </trkpt>
      <trkpt lat="49.21453" lon="1.1427">
        <ele>123.5</ele>
        <time>2018-09-16T06:22:43Z</time>
      </trkpt>
      <trkpt lat="49.2146" lon="1.14253">
        <ele>123.5</ele>
        <time>2018-09-16T06:22:46Z</time>
      </trkpt>
      <trkpt lat="49.21465" lon="1.14241">
        <ele>123.4</ele>
        <time>2018-09-16T06:22:48Z</time>
      </trkpt>
      <trkpt lat="49.21471" lon="1.14224">
        <ele>123.4</ele>
        <time>2018-09-16T06:22:51Z</time>
      </trkpt>
      <trkpt lat="49.21478" lon="1.14207">
        <ele>123.5</ele>
        <time>2018-09-16T06:22:54Z</time>
      </trkpt>
      <trkpt lat="49.21484" lon="1.14189">
        <ele>123.7</ele>
        <time>2018-09-16T06:22:57Z</time>
      </trkpt>
      <trkpt lat="49.21491" lon="1.14171">
        <ele>123.8</ele>
        <time>2018-09-16T06:23:00Z</time>
      </trkpt>
      <trkpt lat="49.21497" lon="1.14154">
        <ele>123.9</ele>
        <time>2018-09-16T06:23:03Z</time>
      </trkpt>
      <trkpt lat="49.21504" lon="1.14136">
        <ele>124.1</ele>
        <time>2018-09-16T06:23:06Z</time>
      </trkpt>
      <trkpt lat="49.2151" lon="1.14118">
        <ele>124.3</ele>
        <time>2018-09-16T06:23:09Z</time>
      </trkpt>
      <trkpt lat="49.21516" lon="1.141">
        <ele>124.4</ele>
        <time>2018-09-16T06:23:12Z</time>
      </trkpt>
      <trkpt lat="49.21523" lon="1.14084">
        <ele>124.4</ele>
        <time>2018-09-16T06:23:15Z</time>
      </trkpt>
      <trkpt lat="49.21527" lon="1.14072">
        <ele>124.5</ele>
        <time>2018-09-16T06:23:17Z</time>
      </trkpt>
      <trkpt lat="49.21532" lon="1.1406">
        <ele>124.6</ele>
        <time>2018-09-16T06:23:19Z</time>
      </trkpt>
      <trkpt lat="49.21537" lon="1.14048">
        <ele>124.7</ele>
        <time>2018-09-16T06:23:21Z</time>
      </trkpt>
      <trkpt lat="49.21541" lon="1.14035">
        <ele>124.7</ele>
        <time>2018-09-16T06:23:23Z</time>
      </trkpt>
      <trkpt lat="49.21546" lon="1.14022">
        <ele>124.7</ele>
        <time>2018-09-16T06:23:25Z</time>
      </trkpt>
      <trkpt lat="49.21551" lon="1.1401">
        <ele>124.7</ele>
        <time>2018-09-16T06:23:27Z</time>
      </trkpt>
      <trkpt lat="49.21556" lon="1.13997">
        <ele>124.6</ele>
        <time>2018-09-16T06:23:29Z</time>
      </trkpt>
      <trkpt lat="49.21561" lon="1.13984">
        <ele>124.5</ele>
        <time>2018-09-16T06:23:31Z</time>
      </trkpt>
      <trkpt lat="49.21565" lon="1.13971">
        <ele>124.4</ele>
        <time>2018-09-16T06:23:33Z</time>
      </trkpt>
      <trkpt lat="49.2157" lon="1.13958">
        <ele>124.2</ele>
        <time>2018-09-16T06:23:35Z</time>
      </trkpt>
      <trkpt lat="49.21575" lon="1.13945">
        <ele>124.2</ele>
        <time>2018-09-16T06:23:37Z</time>
      </trkpt>
      <trkpt lat="49.2158" lon="1.13932">
        <ele>124.2</ele>
        <time>2018-09-16T06:23:39Z</time>
      </trkpt>
      <trkpt lat="49.21586" lon="1.13917">
        <ele>124</ele>
        <time>2018-09-16T06:23:41Z</time>
      </trkpt>
      <trkpt lat="49.21591" lon="1.13903">
        <ele>123.9</ele>
        <time>2018-09-16T06:23:43Z</time>
      </trkpt>
      <trkpt lat="49.21597" lon="1.13889">
        <ele>123.7</ele>
        <time>2018-09-16T06:23:45Z</time>
      </trkpt>
      <trkpt lat="49.21603" lon="1.13875">
        <ele>123.4</ele>
        <time>2018-09-16T06:23:47Z</time>
      </trkpt>
      <trkpt lat="49.2161" lon="1.13859">
        <ele>123.2</ele>
        <time>2018-09-16T06:23:49Z</time>
      </trkpt>
      <trkpt lat="49.21616" lon="1.13844">
        <ele>123</ele>
        <time>2018-09-16T06:23:51Z</time>
      </trkpt>
      <trkpt lat="49.21623" lon="1.1383">
        <ele>122.7</ele>
        <time>2018-09-16T06:23:53Z</time>
      </trkpt>
      <trkpt lat="49.21631" lon="1.13815">
        <ele>122.4</ele>
        <time>2018-09-16T06:23:55Z</time>
      </trkpt>
      <trkpt lat="49.21639" lon="1.13801">
        <ele>122.1</ele>
        <time>2018-09-16T06:23:57Z</time>
      </trkpt>
      <trkpt lat="49.21648" lon="1.13787">
        <ele>121.9</ele>
        <time>2018-09-16T06:23:59Z</time>
      </trkpt>
      <trkpt lat="49.21656" lon="1.13774">
        <ele>121.6</ele>
        <time>2018-09-16T06:24:01Z</time>
      </trkpt>
      <trkpt lat="49.21665" lon="1.13761">
        <ele>121.2</ele>
        <time>2018-09-16T06:24:03Z</time>
      </trkpt>
      <trkpt lat="49.21673" lon="1.13749">
        <ele>121</ele>
        <time>2018-09-16T06:24:05Z</time>
      </trkpt>
      <trkpt lat="49.21682" lon="1.13737">
        <ele>120.8</ele>
        <time>2018-09-16T06:24:07Z</time>
      </trkpt>
      <trkpt lat="49.2169" lon="1.13726">
        <ele>120.6</ele>
        <time>2018-09-16T06:24:09Z</time>
      </trkpt>
      <trkpt lat="49.21699" lon="1.13715">
        <ele>120.1</ele>
        <time>2018-09-16T06:24:11Z</time>
      </trkpt>
      <trkpt lat="49.21708" lon="1.13706">
        <ele>119.9</ele>
        <time>2018-09-16T06:24:13Z</time>
      </trkpt>
      <trkpt lat="49.21717" lon="1.13697">
        <ele>119.9</ele>
        <time>2018-09-16T06:24:15Z</time>
      </trkpt>
      <trkpt lat="49.21726" lon="1.13688">
        <ele>119.9</ele>
        <time>2018-09-16T06:24:17Z</time>
      </trkpt>
      <trkpt lat="49.21735" lon="1.13679">
        <ele>119.8</ele>
        <time>2018-09-16T06:24:19Z</time>
      </trkpt>
      <trkpt lat="49.21743" lon="1.1367">
        <ele>120</ele>
        <time>2018-09-16T06:24:21Z</time>
      </trkpt>
      <trkpt lat="49.21752" lon="1.13662">
        <ele>120.2</ele>
        <time>2018-09-16T06:24:23Z</time>
      </trkpt>
      <trkpt lat="49.2176" lon="1.13653">
        <ele>120.2</ele>
        <time>2018-09-16T06:24:25Z</time>
      </trkpt>
      <trkpt lat="49.21768" lon="1.13644">
        <ele>120.4</ele>
        <time>2018-09-16T06:24:27Z</time>
      </trkpt>
      <trkpt lat="49.21776" lon="1.13636">
        <ele>120.4</ele>
        <time>2018-09-16T06:24:29Z</time>
      </trkpt>
      <trkpt lat="49.21784" lon="1.13628">
        <ele>120.6</ele>
        <time>2018-09-16T06:24:31Z</time>
      </trkpt>
      <trkpt lat="49.21791" lon="1.13619">
        <ele>120.7</ele>
        <time>2018-09-16T06:24:33Z</time>
      </trkpt>
      <trkpt lat="49.21799" lon="1.13611">
        <ele>120.9</ele>
        <time>2018-09-16T06:24:35Z</time>
      </trkpt>
      <trkpt lat="49.21806" lon="1.13603">
        <ele>121.2</ele>
        <time>2018-09-16T06:24:37Z</time>
      </trkpt>
      <trkpt lat="49.21817" lon="1.13591">
        <ele>121.7</ele>
        <time>2018-09-16T06:24:40Z</time>
      </trkpt>
      <trkpt lat="49.21828" lon="1.13579">
        <ele>121.9</ele>
        <time>2018-09-16T06:24:43Z</time>
      </trkpt>
      <trkpt lat="49.21838" lon="1.13567">
        <ele>122.2</ele>
        <time>2018-09-16T06:24:46Z</time>
      </trkpt>
      <trkpt lat="49.21849" lon="1.13556">
        <ele>122.7</ele>
        <time>2018-09-16T06:24:49Z</time>
      </trkpt>
      <trkpt lat="49.21859" lon="1.13542">
        <ele>123</ele>
        <time>2018-09-16T06:24:52Z</time>
      </trkpt>
      <trkpt lat="49.21866" lon="1.13533">
        <ele>123.1</ele>
        <time>2018-09-16T06:24:54Z</time>
      </trkpt>
      <trkpt lat="49.21873" lon="1.13524">
        <ele>123.1</ele>
        <time>2018-09-16T06:24:56Z</time>
      </trkpt>
      <trkpt lat="49.21883" lon="1.1351">
        <ele>123.3</ele>
        <time>2018-09-16T06:24:59Z</time>
      </trkpt>
      <trkpt lat="49.2189" lon="1.135">
        <ele>123.4</ele>
        <time>2018-09-16T06:25:01Z</time>
      </trkpt>
      <trkpt lat="49.21898" lon="1.1349">
        <ele>123.2</ele>
        <time>2018-09-16T06:25:03Z</time>
      </trkpt>
      <trkpt lat="49.21906" lon="1.13479">
        <ele>123</ele>
        <time>2018-09-16T06:25:05Z</time>
      </trkpt>
      <trkpt lat="49.21913" lon="1.13469">
        <ele>122.8</ele>
        <time>2018-09-16T06:25:07Z</time>
      </trkpt>
      <trkpt lat="49.21921" lon="1.13459">
        <ele>122.7</ele>
        <time>2018-09-16T06:25:09Z</time>
      </trkpt>
      <trkpt lat="49.21929" lon="1.13448">
        <ele>122.6</ele>
        <time>2018-09-16T06:25:11Z</time>
      </trkpt>
      <trkpt lat="49.21937" lon="1.13438">
        <ele>122.5</ele>
        <time>2018-09-16T06:25:13Z</time>
      </trkpt>
      <trkpt lat="49.21945" lon="1.13427">
        <ele>122.4</ele>
        <time>2018-09-16T06:25:15Z</time>
      </trkpt>
      <trkpt lat="49.21953" lon="1.13416">
        <ele>122.2</ele>
        <time>2018-09-16T06:25:17Z</time>
      </trkpt>
      <trkpt lat="49.21961" lon="1.13405">
        <ele>122</ele>
        <time>2018-09-16T06:25:19Z</time>
      </trkpt>
      <trkpt lat="49.21969" lon="1.13394">
        <ele>121.8</ele>
        <time>2018-09-16T06:25:21Z</time>
      </trkpt>
      <trkpt lat="49.21976" lon="1.13384">
        <ele>121.8</ele>
        <time>2018-09-16T06:25:23Z</time>
      </trkpt>
      <trkpt lat="49.21984" lon="1.13373">
        <ele>121.7</ele>
        <time>2018-09-16T06:25:25Z</time>
      </trkpt>
      <trkpt lat="49.21992" lon="1.13363">
        <ele>121.6</ele>
        <time>2018-09-16T06:25:27Z</time>
      </trkpt>
      <trkpt lat="49.22" lon="1.13352">
        <ele>121.5</ele>
        <time>2018-09-16T06:25:29Z</time>
      </trkpt>
      <trkpt lat="49.22007" lon="1.13342">
        <ele>121.4</ele>
        <time>2018-09-16T06:25:31Z</time>
      </trkpt>
      <trkpt lat="49.22016" lon="1.13331">
        <ele>121.3</ele>
        <time>2018-09-16T06:25:33Z</time>
      </trkpt>
      <trkpt lat="49.22024" lon="1.1332">
        <ele>121.2</ele>
        <time>2018-09-16T06:25:35Z</time>
      </trkpt>
      <trkpt lat="49.22034" lon="1.13309">
        <ele>121</ele>
        <time>2018-09-16T06:25:37Z</time>
      </trkpt>
      <trkpt lat="49.22043" lon="1.13298">
        <ele>120.6</ele>
        <time>2018-09-16T06:25:39Z</time>
      </trkpt>
      <trkpt lat="49.22053" lon="1.13288">
        <ele>120.3</ele>
        <time>2018-09-16T06:25:41Z</time>
      </trkpt>
      <trkpt lat="49.22064" lon="1.13279">
        <ele>120</ele>
        <time>2018-09-16T06:25:43Z</time>
      </trkpt>
      <trkpt lat="49.22075" lon="1.13269">
        <ele>119.7</ele>
        <time>2018-09-16T06:25:45Z</time>
      </trkpt>
      <trkpt lat="49.22087" lon="1.1326">
        <ele>119.2</ele>
        <time>2018-09-16T06:25:47Z</time>
      </trkpt>
      <trkpt lat="49.221" lon="1.13249">
        <ele>118.6</ele>
        <time>2018-09-16T06:25:49Z</time>
      </trkpt>
      <trkpt lat="49.22113" lon="1.1324">
        <ele>118.2</ele>
        <time>2018-09-16T06:25:51Z</time>
      </trkpt>
      <trkpt lat="49.22127" lon="1.13229">
        <ele>117.4</ele>
        <time>2018-09-16T06:25:53Z</time>
      </trkpt>
      <trkpt lat="49.22142" lon="1.13218">
        <ele>116.1</ele>
        <time>2018-09-16T06:25:55Z</time>
      </trkpt>
      <trkpt lat="49.22156" lon="1.13207">
        <ele>115.4</ele>
        <time>2018-09-16T06:25:57Z</time>
      </trkpt>
      <trkpt lat="49.22171" lon="1.13196">
        <ele>114.5</ele>
        <time>2018-09-16T06:25:59Z</time>
      </trkpt>
      <trkpt lat="49.22184" lon="1.13184">
        <ele>113.8</ele>
        <time>2018-09-16T06:26:01Z</time>
      </trkpt>
      <trkpt lat="49.22197" lon="1.13174">
        <ele>113.3</ele>
        <time>2018-09-16T06:26:03Z</time>
      </trkpt>
      <trkpt lat="49.22209" lon="1.13163">
        <ele>112.7</ele>
        <time>2018-09-16T06:26:05Z</time>
      </trkpt>
      <trkpt lat="49.22218" lon="1.1315">
        <ele>112.2</ele>
        <time>2018-09-16T06:26:07Z</time>
      </trkpt>
      <trkpt lat="49.22225" lon="1.13137">
        <ele>111.8</ele>
        <time>2018-09-16T06:26:09Z</time>
      </trkpt>
      <trkpt lat="49.22226" lon="1.13121">
        <ele>111.3</ele>
        <time>2018-09-16T06:26:13Z</time>
      </trkpt>
      <trkpt lat="49.22229" lon="1.13104">
        <ele>111.3</ele>
        <time>2018-09-16T06:26:16Z</time>
      </trkpt>
      <trkpt lat="49.22227" lon="1.13082">
        <ele>111.2</ele>
        <time>2018-09-16T06:26:19Z</time>
      </trkpt>
      <trkpt lat="49.22225" lon="1.13066">
        <ele>111.4</ele>
        <time>2018-09-16T06:26:22Z</time>
      </trkpt>
      <trkpt lat="49.2222" lon="1.13048">
        <ele>111.8</ele>
        <time>2018-09-16T06:26:25Z</time>
      </trkpt>
      <trkpt lat="49.22216" lon="1.13035">
        <ele>112</ele>
        <time>2018-09-16T06:26:27Z</time>
      </trkpt>
      <trkpt lat="49.22212" lon="1.13019">
        <ele>112.1</ele>
        <time>2018-09-16T06:26:29Z</time>
      </trkpt>
      <trkpt lat="49.22209" lon="1.13004">
        <ele>112.3</ele>
        <time>2018-09-16T06:26:31Z</time>
      </trkpt>
      <trkpt lat="49.22205" lon="1.12985">
        <ele>112.8</ele>
        <time>2018-09-16T06:26:34Z</time>
      </trkpt>
      <trkpt lat="49.22202" lon="1.12971">
        <ele>113</ele>
        <time>2018-09-16T06:26:36Z</time>
      </trkpt>
      <trkpt lat="49.22199" lon="1.12952">
        <ele>113.3</ele>
        <time>2018-09-16T06:26:39Z</time>
      </trkpt>
      <trkpt lat="49.22196" lon="1.12939">
        <ele>113.4</ele>
        <time>2018-09-16T06:26:41Z</time>
      </trkpt>
      <trkpt lat="49.22194" lon="1.12926">
        <ele>113.6</ele>
        <time>2018-09-16T06:26:43Z</time>
      </trkpt>
      <trkpt lat="49.222" lon="1.12915">
        <ele>113</ele>
        <time>2018-09-16T06:26:48Z</time>
      </trkpt>
      <trkpt lat="49.22213" lon="1.12916">
        <ele>111.5</ele>
        <time>2018-09-16T06:26:51Z</time>
      </trkpt>
      <trkpt lat="49.22222" lon="1.1292">
        <ele>110.1</ele>
        <time>2018-09-16T06:26:53Z</time>
      </trkpt>
      <trkpt lat="49.22233" lon="1.12921">
        <ele>108.3</ele>
        <time>2018-09-16T06:26:56Z</time>
      </trkpt>
      <trkpt lat="49.22242" lon="1.12925">
        <ele>106.8</ele>
        <time>2018-09-16T06:27:00Z</time>
      </trkpt>
      <trkpt lat="49.22251" lon="1.12931">
        <ele>106.2</ele>
        <time>2018-09-16T06:27:03Z</time>
      </trkpt>
      <trkpt lat="49.22261" lon="1.12934">
        <ele>106.5</ele>
        <time>2018-09-16T06:27:06Z</time>
      </trkpt>
      <trkpt lat="49.2227" lon="1.12937">
        <ele>107.8</ele>
        <time>2018-09-16T06:27:10Z</time>
      </trkpt>
      <trkpt lat="49.22279" lon="1.1294">
        <ele>109.1</ele>
        <time>2018-09-16T06:27:14Z</time>
      </trkpt>
      <trkpt lat="49.22288" lon="1.12945">
        <ele>110.6</ele>
        <time>2018-09-16T06:27:18Z</time>
      </trkpt>
      <trkpt lat="49.22298" lon="1.1295">
        <ele>112.1</ele>
        <time>2018-09-16T06:27:23Z</time>
      </trkpt>
      <trkpt lat="49.22308" lon="1.12954">
        <ele>114</ele>
        <time>2018-09-16T06:27:28Z</time>
      </trkpt>
      <trkpt lat="49.2232" lon="1.1296">
        <ele>115.1</ele>
        <time>2018-09-16T06:27:33Z</time>
      </trkpt>
      <trkpt lat="49.22332" lon="1.12966">
        <ele>116</ele>
        <time>2018-09-16T06:27:37Z</time>
      </trkpt>
      <trkpt lat="49.22342" lon="1.12972">
        <ele>116.4</ele>
        <time>2018-09-16T06:27:40Z</time>
      </trkpt>
      <trkpt lat="49.22351" lon="1.12978">
        <ele>116.6</ele>
        <time>2018-09-16T06:27:43Z</time>
      </trkpt>
      <trkpt lat="49.2236" lon="1.12983">
        <ele>116.9</ele>
        <time>2018-09-16T06:27:46Z</time>
      </trkpt>
      <trkpt lat="49.22369" lon="1.12987">
        <ele>117.2</ele>
        <time>2018-09-16T06:27:49Z</time>
      </trkpt>
      <trkpt lat="49.22378" lon="1.12992">
        <ele>117.4</ele>
        <time>2018-09-16T06:27:52Z</time>
      </trkpt>
      <trkpt lat="49.2239" lon="1.12998">
        <ele>117.5</ele>
        <time>2018-09-16T06:27:55Z</time>
      </trkpt>
      <trkpt lat="49.22399" lon="1.13002">
        <ele>117.6</ele>
        <time>2018-09-16T06:27:58Z</time>
      </trkpt>
      <trkpt lat="49.22409" lon="1.13011">
        <ele>117.7</ele>
        <time>2018-09-16T06:28:02Z</time>
      </trkpt>
      <trkpt lat="49.22414" lon="1.13025">
        <ele>117.5</ele>
        <time>2018-09-16T06:28:04Z</time>
      </trkpt>
      <trkpt lat="49.22426" lon="1.13037">
        <ele>117.3</ele>
        <time>2018-09-16T06:28:06Z</time>
      </trkpt>
      <trkpt lat="49.22432" lon="1.13051">
        <ele>117</ele>
        <time>2018-09-16T06:28:08Z</time>
      </trkpt>
      <trkpt lat="49.22437" lon="1.13063">
        <ele>116.9</ele>
        <time>2018-09-16T06:28:10Z</time>
      </trkpt>
      <trkpt lat="49.22441" lon="1.13076">
        <ele>116.8</ele>
        <time>2018-09-16T06:28:12Z</time>
      </trkpt>
      <trkpt lat="49.22444" lon="1.13091">
        <ele>116.6</ele>
        <time>2018-09-16T06:28:14Z</time>
      </trkpt>
      <trkpt lat="49.22447" lon="1.1311">
        <ele>116</ele>
        <time>2018-09-16T06:28:16Z</time>
      </trkpt>
      <trkpt lat="49.2245" lon="1.13128">
        <ele>115.7</ele>
        <time>2018-09-16T06:28:18Z</time>
      </trkpt>
      <trkpt lat="49.22456" lon="1.13146">
        <ele>115.4</ele>
        <time>2018-09-16T06:28:20Z</time>
      </trkpt>
      <trkpt lat="49.22458" lon="1.13161">
        <ele>115.2</ele>
        <time>2018-09-16T06:28:22Z</time>
      </trkpt>
      <trkpt lat="49.22462" lon="1.13177">
        <ele>115</ele>
        <time>2018-09-16T06:28:24Z</time>
      </trkpt>
      <trkpt lat="49.22465" lon="1.13196">
        <ele>114.8</ele>
        <time>2018-09-16T06:28:26Z</time>
      </trkpt>
      <trkpt lat="49.22467" lon="1.13214">
        <ele>114.5</ele>
        <time>2018-09-16T06:28:28Z</time>
      </trkpt>
      <trkpt lat="49.22469" lon="1.13236">
        <ele>114.3</ele>
        <time>2018-09-16T06:28:30Z</time>
      </trkpt>
      <trkpt lat="49.22471" lon="1.13252">
        <ele>114</ele>
        <time>2018-09-16T06:28:32Z</time>
      </trkpt>
      <trkpt lat="49.2247" lon="1.13271">
        <ele>113.7</ele>
        <time>2018-09-16T06:28:35Z</time>
      </trkpt>
      <trkpt lat="49.22475" lon="1.13291">
        <ele>113.6</ele>
        <time>2018-09-16T06:28:38Z</time>
      </trkpt>
      <trkpt lat="49.22475" lon="1.13307">
        <ele>113.4</ele>
        <time>2018-09-16T06:28:40Z</time>
      </trkpt>
      <trkpt lat="49.22476" lon="1.13321">
        <ele>113.4</ele>
        <time>2018-09-16T06:28:42Z</time>
      </trkpt>
      <trkpt lat="49.22476" lon="1.13338">
        <ele>113.3</ele>
        <time>2018-09-16T06:28:44Z</time>
      </trkpt>
      <trkpt lat="49.22476" lon="1.13352">
        <ele>113.2</ele>
        <time>2018-09-16T06:28:46Z</time>
      </trkpt>
      <trkpt lat="49.22479" lon="1.1337">
        <ele>113.1</ele>
        <time>2018-09-16T06:28:48Z</time>
      </trkpt>
      <trkpt lat="49.2248" lon="1.13391">
        <ele>113.1</ele>
        <time>2018-09-16T06:28:50Z</time>
      </trkpt>
      <trkpt lat="49.22482" lon="1.13411">
        <ele>112.8</ele>
        <time>2018-09-16T06:28:52Z</time>
      </trkpt>
      <trkpt lat="49.22485" lon="1.13431">
        <ele>112.6</ele>
        <time>2018-09-16T06:28:54Z</time>
      </trkpt>
      <trkpt lat="49.22486" lon="1.1345">
        <ele>112.6</ele>
        <time>2018-09-16T06:28:56Z</time>
      </trkpt>
      <trkpt lat="49.22483" lon="1.13468">
        <ele>112.6</ele>
        <time>2018-09-16T06:28:58Z</time>
      </trkpt>
      <trkpt lat="49.22484" lon="1.13484">
        <ele>112.4</ele>
        <time>2018-09-16T06:29:00Z</time>
      </trkpt>
      <trkpt lat="49.22484" lon="1.13498">
        <ele>112.2</ele>
        <time>2018-09-16T06:29:02Z</time>
      </trkpt>
      <trkpt lat="49.22486" lon="1.13517">
        <ele>111.9</ele>
        <time>2018-09-16T06:29:04Z</time>
      </trkpt>
      <trkpt lat="49.22486" lon="1.13534">
        <ele>111.7</ele>
        <time>2018-09-16T06:29:06Z</time>
      </trkpt>
      <trkpt lat="49.2249" lon="1.13551">
        <ele>111.4</ele>
        <time>2018-09-16T06:29:08Z</time>
      </trkpt>
      <trkpt lat="49.22494" lon="1.13566">
        <ele>111</ele>
        <time>2018-09-16T06:29:10Z</time>
      </trkpt>
      <trkpt lat="49.22496" lon="1.13587">
        <ele>110.5</ele>
        <time>2018-09-16T06:29:12Z</time>
      </trkpt>
      <trkpt lat="49.22502" lon="1.136">
        <ele>110.2</ele>
        <time>2018-09-16T06:29:14Z</time>
      </trkpt>
      <trkpt lat="49.22502" lon="1.13621">
        <ele>109.8</ele>
        <time>2018-09-16T06:29:16Z</time>
      </trkpt>
      <trkpt lat="49.22508" lon="1.13641">
        <ele>108.9</ele>
        <time>2018-09-16T06:29:19Z</time>
      </trkpt>
      <trkpt lat="49.2251" lon="1.1366">
        <ele>108.3</ele>
        <time>2018-09-16T06:29:21Z</time>
      </trkpt>
      <trkpt lat="49.2251" lon="1.1368">
        <ele>107.7</ele>
        <time>2018-09-16T06:29:23Z</time>
      </trkpt>
      <trkpt lat="49.22508" lon="1.137">
        <ele>107.2</ele>
        <time>2018-09-16T06:29:25Z</time>
      </trkpt>
      <trkpt lat="49.22507" lon="1.1372">
        <ele>106.6</ele>
        <time>2018-09-16T06:29:27Z</time>
      </trkpt>
      <trkpt lat="49.22511" lon="1.1374">
        <ele>105.9</ele>
        <time>2018-09-16T06:29:29Z</time>
      </trkpt>
      <trkpt lat="49.22514" lon="1.13767">
        <ele>105.1</ele>
        <time>2018-09-16T06:29:31Z</time>
      </trkpt>
      <trkpt lat="49.22521" lon="1.1379">
        <ele>104.4</ele>
        <time>2018-09-16T06:29:33Z</time>
      </trkpt>
      <trkpt lat="49.22527" lon="1.13816">
        <ele>103.4</ele>
        <time>2018-09-16T06:29:35Z</time>
      </trkpt>
      <trkpt lat="49.22531" lon="1.13839">
        <ele>102.6</ele>
        <time>2018-09-16T06:29:37Z</time>
      </trkpt>
      <trkpt lat="49.22537" lon="1.13858">
        <ele>101.8</ele>
        <time>2018-09-16T06:29:39Z</time>
      </trkpt>
      <trkpt lat="49.22543" lon="1.13875">
        <ele>100.7</ele>
        <time>2018-09-16T06:29:41Z</time>
      </trkpt>
      <trkpt lat="49.22552" lon="1.13896">
        <ele>99.8</ele>
        <time>2018-09-16T06:29:43Z</time>
      </trkpt>
      <trkpt lat="49.22553" lon="1.1391">
        <ele>99.4</ele>
        <time>2018-09-16T06:29:44Z</time>
      </trkpt>
      <trkpt lat="49.22558" lon="1.13931">
        <ele>98.2</ele>
        <time>2018-09-16T06:29:46Z</time>
      </trkpt>
      <trkpt lat="49.22556" lon="1.13947">
        <ele>97.8</ele>
        <time>2018-09-16T06:29:47Z</time>
      </trkpt>
      <trkpt lat="49.22561" lon="1.13969">
        <ele>96.5</ele>
        <time>2018-09-16T06:29:49Z</time>
      </trkpt>
      <trkpt lat="49.22567" lon="1.13989">
        <ele>95.3</ele>
        <time>2018-09-16T06:29:51Z</time>
      </trkpt>
      <trkpt lat="49.22572" lon="1.14012">
        <ele>94</ele>
        <time>2018-09-16T06:29:53Z</time>
      </trkpt>
      <trkpt lat="49.22582" lon="1.14024">
        <ele>92.9</ele>
        <time>2018-09-16T06:29:55Z</time>
      </trkpt>
      <trkpt lat="49.22595" lon="1.14033">
        <ele>91.6</ele>
        <time>2018-09-16T06:29:57Z</time>
      </trkpt>
      <trkpt lat="49.22608" lon="1.14044">
        <ele>90.3</ele>
        <time>2018-09-16T06:29:59Z</time>
      </trkpt>
      <trkpt lat="49.22619" lon="1.14055">
        <ele>88.8</ele>
        <time>2018-09-16T06:30:01Z</time>
      </trkpt>
      <trkpt lat="49.22629" lon="1.14062">
        <ele>88.3</ele>
        <time>2018-09-16T06:30:02Z</time>
      </trkpt>
      <trkpt lat="49.22639" lon="1.14065">
        <ele>87.5</ele>
        <time>2018-09-16T06:30:03Z</time>
      </trkpt>
      <trkpt lat="49.22649" lon="1.14071">
        <ele>86.9</ele>
        <time>2018-09-16T06:30:04Z</time>
      </trkpt>
      <trkpt lat="49.2266" lon="1.14082">
        <ele>85</ele>
        <time>2018-09-16T06:30:06Z</time>
      </trkpt>
      <trkpt lat="49.22666" lon="1.14094">
        <ele>82.2</ele>
        <time>2018-09-16T06:30:09Z</time>
      </trkpt>
      <trkpt lat="49.22666" lon="1.14113">
        <ele>80.3</ele>
        <time>2018-09-16T06:30:12Z</time>
      </trkpt>
      <trkpt lat="49.22665" lon="1.14129">
        <ele>79.6</ele>
        <time>2018-09-16T06:30:14Z</time>
      </trkpt>
      <trkpt lat="49.22667" lon="1.14146">
        <ele>79.1</ele>
        <time>2018-09-16T06:30:16Z</time>
      </trkpt>
      <trkpt lat="49.22666" lon="1.14162">
        <ele>78.7</ele>
        <time>2018-09-16T06:30:18Z</time>
      </trkpt>
      <trkpt lat="49.22665" lon="1.14179">
        <ele>78.3</ele>
        <time>2018-09-16T06:30:20Z</time>
      </trkpt>
      <trkpt lat="49.22665" lon="1.14196">
        <ele>77.7</ele>
        <time>2018-09-16T06:30:22Z</time>
      </trkpt>
      <trkpt lat="49.22663" lon="1.14214">
        <ele>77.2</ele>
        <time>2018-09-16T06:30:24Z</time>
      </trkpt>
      <trkpt lat="49.22662" lon="1.14236">
        <ele>76.5</ele>
        <time>2018-09-16T06:30:26Z</time>
      </trkpt>
      <trkpt lat="49.22662" lon="1.14257">
        <ele>76</ele>
        <time>2018-09-16T06:30:28Z</time>
      </trkpt>
      <trkpt lat="49.22662" lon="1.14277">
        <ele>75.2</ele>
        <time>2018-09-16T06:30:30Z</time>
      </trkpt>
      <trkpt lat="49.2266" lon="1.14301">
        <ele>74.5</ele>
        <time>2018-09-16T06:30:32Z</time>
      </trkpt>
      <trkpt lat="49.22659" lon="1.14326">
        <ele>73.6</ele>
        <time>2018-09-16T06:30:34Z</time>
      </trkpt>
      <trkpt lat="49.22658" lon="1.14351">
        <ele>72.7</ele>
        <time>2018-09-16T06:30:36Z</time>
      </trkpt>
      <trkpt lat="49.22657" lon="1.14376">
        <ele>71.6</ele>
        <time>2018-09-16T06:30:38Z</time>
      </trkpt>
      <trkpt lat="49.22655" lon="1.14401">
        <ele>70.6</ele>
        <time>2018-09-16T06:30:40Z</time>
      </trkpt>
      <trkpt lat="49.22653" lon="1.14425">
        <ele>69.6</ele>
        <time>2018-09-16T06:30:42Z</time>
      </trkpt>
      <trkpt lat="49.2265" lon="1.1445">
        <ele>68.5</ele>
        <time>2018-09-16T06:30:44Z</time>
      </trkpt>
      <trkpt lat="49.22648" lon="1.14479">
        <ele>66.9</ele>
        <time>2018-09-16T06:30:46Z</time>
      </trkpt>
      <trkpt lat="49.22647" lon="1.14494">
        <ele>65.8</ele>
        <time>2018-09-16T06:30:47Z</time>
      </trkpt>
      <trkpt lat="49.22647" lon="1.14509">
        <ele>64.8</ele>
        <time>2018-09-16T06:30:48Z</time>
      </trkpt>
      <trkpt lat="49.22647" lon="1.14523">
        <ele>63.8</ele>
        <time>2018-09-16T06:30:49Z</time>
      </trkpt>
      <trkpt lat="49.22646" lon="1.14539">
        <ele>63</ele>
        <time>2018-09-16T06:30:50Z</time>
      </trkpt>
      <trkpt lat="49.22645" lon="1.14557">
        <ele>62</ele>
        <time>2018-09-16T06:30:51Z</time>
      </trkpt>
      <trkpt lat="49.22644" lon="1.14574">
        <ele>60.9</ele>
        <time>2018-09-16T06:30:52Z</time>
      </trkpt>
      <trkpt lat="49.22643" lon="1.14591">
        <ele>60</ele>
        <time>2018-09-16T06:30:53Z</time>
      </trkpt>
      <trkpt lat="49.22643" lon="1.14606">
        <ele>59.2</ele>
        <time>2018-09-16T06:30:54Z</time>
      </trkpt>
      <trkpt lat="49.22641" lon="1.14621">
        <ele>58.4</ele>
        <time>2018-09-16T06:30:55Z</time>
      </trkpt>
      <trkpt lat="49.2264" lon="1.14634">
        <ele>57.5</ele>
        <time>2018-09-16T06:30:56Z</time>
      </trkpt>
      <trkpt lat="49.22639" lon="1.14661">
        <ele>56</ele>
        <time>2018-09-16T06:30:58Z</time>
      </trkpt>
      <trkpt lat="49.22638" lon="1.14687">
        <ele>54.8</ele>
        <time>2018-09-16T06:31:00Z</time>
      </trkpt>
      <trkpt lat="49.22636" lon="1.14711">
        <ele>53.9</ele>
        <time>2018-09-16T06:31:02Z</time>
      </trkpt>
      <trkpt lat="49.22636" lon="1.14733">
        <ele>53.1</ele>
        <time>2018-09-16T06:31:04Z</time>
      </trkpt>
      <trkpt lat="49.22634" lon="1.14751">
        <ele>52.3</ele>
        <time>2018-09-16T06:31:06Z</time>
      </trkpt>
      <trkpt lat="49.22638" lon="1.14766">
        <ele>50.9</ele>
        <time>2018-09-16T06:31:09Z</time>
      </trkpt>
      <trkpt lat="49.22646" lon="1.14756">
        <ele>49.5</ele>
        <time>2018-09-16T06:31:13Z</time>
      </trkpt>
      <trkpt lat="49.22648" lon="1.14738">
        <ele>48.7</ele>
        <time>2018-09-16T06:31:16Z</time>
      </trkpt>
      <trkpt lat="49.22653" lon="1.14719">
        <ele>47.9</ele>
        <time>2018-09-16T06:31:19Z</time>
      </trkpt>
      <trkpt lat="49.22657" lon="1.14705">
        <ele>47.5</ele>
        <time>2018-09-16T06:31:21Z</time>
      </trkpt>
      <trkpt lat="49.22662" lon="1.14693">
        <ele>47</ele>
        <time>2018-09-16T06:31:23Z</time>
      </trkpt>
      <trkpt lat="49.22667" lon="1.14678">
        <ele>46.5</ele>
        <time>2018-09-16T06:31:25Z</time>
      </trkpt>
      <trkpt lat="49.22672" lon="1.14664">
        <ele>46</ele>
        <time>2018-09-16T06:31:27Z</time>
      </trkpt>
      <trkpt lat="49.22676" lon="1.14648">
        <ele>45.6</ele>
        <time>2018-09-16T06:31:29Z</time>
      </trkpt>
      <trkpt lat="49.22682" lon="1.14633">
        <ele>45.3</ele>
        <time>2018-09-16T06:31:31Z</time>
      </trkpt>
      <trkpt lat="49.22688" lon="1.14619">
        <ele>45</ele>
        <time>2018-09-16T06:31:33Z</time>
      </trkpt>
      <trkpt lat="49.22691" lon="1.14603">
        <ele>44.8</ele>
        <time>2018-09-16T06:31:35Z</time>
      </trkpt>
      <trkpt lat="49.22695" lon="1.14586">
        <ele>44.8</ele>
        <time>2018-09-16T06:31:37Z</time>
      </trkpt>
      <trkpt lat="49.227" lon="1.1457">
        <ele>44.8</ele>
        <time>2018-09-16T06:31:39Z</time>
      </trkpt>
      <trkpt lat="49.22704" lon="1.14554">
        <ele>44.9</ele>
        <time>2018-09-16T06:31:41Z</time>
      </trkpt>
      <trkpt lat="49.2271" lon="1.14539">
        <ele>44.9</ele>
        <time>2018-09-16T06:31:43Z</time>
      </trkpt>
      <trkpt lat="49.22714" lon="1.14522">
        <ele>45.3</ele>
        <time>2018-09-16T06:31:45Z</time>
      </trkpt>
      <trkpt lat="49.22719" lon="1.14508">
        <ele>45.7</ele>
        <time>2018-09-16T06:31:47Z</time>
      </trkpt>
      <trkpt lat="49.22724" lon="1.14494">
        <ele>46.2</ele>
        <time>2018-09-16T06:31:49Z</time>
      </trkpt>
      <trkpt lat="49.22729" lon="1.14481">
        <ele>46.5</ele>
        <time>2018-09-16T06:31:51Z</time>
      </trkpt>
      <trkpt lat="49.22734" lon="1.14464">
        <ele>46.6</ele>
        <time>2018-09-16T06:31:53Z</time>
      </trkpt>
      <trkpt lat="49.22739" lon="1.14449">
        <ele>46.5</ele>
        <time>2018-09-16T06:31:55Z</time>
      </trkpt>
      <trkpt lat="49.22746" lon="1.14434">
        <ele>46.5</ele>
        <time>2018-09-16T06:31:57Z</time>
      </trkpt>
      <trkpt lat="49.22754" lon="1.14422">
        <ele>46.7</ele>
        <time>2018-09-16T06:31:59Z</time>
      </trkpt>
      <trkpt lat="49.22761" lon="1.1441">
        <ele>46.9</ele>
        <time>2018-09-16T06:32:01Z</time>
      </trkpt>
      <trkpt lat="49.22769" lon="1.14399">
        <ele>47.1</ele>
        <time>2018-09-16T06:32:03Z</time>
      </trkpt>
      <trkpt lat="49.22776" lon="1.14388">
        <ele>47.3</ele>
        <time>2018-09-16T06:32:05Z</time>
      </trkpt>
      <trkpt lat="49.22785" lon="1.14378">
        <ele>47.6</ele>
        <time>2018-09-16T06:32:07Z</time>
      </trkpt>
      <trkpt lat="49.22792" lon="1.14366">
        <ele>47.8</ele>
        <time>2018-09-16T06:32:09Z</time>
      </trkpt>
      <trkpt lat="49.22799" lon="1.14355">
        <ele>48.1</ele>
        <time>2018-09-16T06:32:11Z</time>
      </trkpt>
      <trkpt lat="49.22806" lon="1.14346">
        <ele>48.4</ele>
        <time>2018-09-16T06:32:13Z</time>
      </trkpt>
      <trkpt lat="49.22812" lon="1.14336">
        <ele>48.9</ele>
        <time>2018-09-16T06:32:15Z</time>
      </trkpt>
      <trkpt lat="49.22818" lon="1.14324">
        <ele>49.3</ele>
        <time>2018-09-16T06:32:17Z</time>
      </trkpt>
      <trkpt lat="49.22823" lon="1.14311">
        <ele>49.6</ele>
        <time>2018-09-16T06:32:19Z</time>
      </trkpt>
      <trkpt lat="49.22828" lon="1.14298">
        <ele>49.7</ele>
        <time>2018-09-16T06:32:21Z</time>
      </trkpt>
      <trkpt lat="49.22834" lon="1.14283">
        <ele>49.6</ele>
        <time>2018-09-16T06:32:23Z</time>
      </trkpt>
      <trkpt lat="49.22843" lon="1.1427">
        <ele>49.1</ele>
        <time>2018-09-16T06:32:25Z</time>
      </trkpt>
      <trkpt lat="49.22852" lon="1.14258">
        <ele>48.7</ele>
        <time>2018-09-16T06:32:27Z</time>
      </trkpt>
      <trkpt lat="49.22862" lon="1.1425">
        <ele>48.5</ele>
        <time>2018-09-16T06:32:29Z</time>
      </trkpt>
      <trkpt lat="49.22872" lon="1.14242">
        <ele>48.6</ele>
        <time>2018-09-16T06:32:31Z</time>
      </trkpt>
      <trkpt lat="49.22883" lon="1.14233">
        <ele>48.8</ele>
        <time>2018-09-16T06:32:34Z</time>
      </trkpt>
      <trkpt lat="49.2289" lon="1.1422">
        <ele>49</ele>
        <time>2018-09-16T06:32:37Z</time>
      </trkpt>
      <trkpt lat="49.22899" lon="1.14207">
        <ele>49.2</ele>
        <time>2018-09-16T06:32:40Z</time>
      </trkpt>
      <trkpt lat="49.22907" lon="1.14197">
        <ele>49.4</ele>
        <time>2018-09-16T06:32:42Z</time>
      </trkpt>
      <trkpt lat="49.22919" lon="1.14189">
        <ele>49.9</ele>
        <time>2018-09-16T06:32:45Z</time>
      </trkpt>
      <trkpt lat="49.2293" lon="1.14183">
        <ele>50</ele>
        <time>2018-09-16T06:32:48Z</time>
      </trkpt>
      <trkpt lat="49.2294" lon="1.14183">
        <ele>50.5</ele>
        <time>2018-09-16T06:32:51Z</time>
      </trkpt>
      <trkpt lat="49.22949" lon="1.14187">
        <ele>51.1</ele>
        <time>2018-09-16T06:32:54Z</time>
      </trkpt>
      <trkpt lat="49.22961" lon="1.1419">
        <ele>51.8</ele>
        <time>2018-09-16T06:32:57Z</time>
      </trkpt>
      <trkpt lat="49.22973" lon="1.14195">
        <ele>52</ele>
        <time>2018-09-16T06:33:00Z</time>
      </trkpt>
      <trkpt lat="49.22983" lon="1.14201">
        <ele>52</ele>
        <time>2018-09-16T06:33:03Z</time>
      </trkpt>
      <trkpt lat="49.22993" lon="1.14201">
        <ele>51.8</ele>
        <time>2018-09-16T06:33:05Z</time>
      </trkpt>
      <trkpt lat="49.23005" lon="1.14201">
        <ele>52</ele>
        <time>2018-09-16T06:33:07Z</time>
      </trkpt>
      <trkpt lat="49.23016" lon="1.142">
        <ele>52.2</ele>
        <time>2018-09-16T06:33:09Z</time>
      </trkpt>
      <trkpt lat="49.2303" lon="1.14196">
        <ele>52.4</ele>
        <time>2018-09-16T06:33:12Z</time>
      </trkpt>
      <trkpt lat="49.23038" lon="1.14188">
        <ele>52.5</ele>
        <time>2018-09-16T06:33:14Z</time>
      </trkpt>
      <trkpt lat="49.23049" lon="1.14183">
        <ele>52.3</ele>
        <time>2018-09-16T06:33:16Z</time>
      </trkpt>
      <trkpt lat="49.2306" lon="1.14174">
        <ele>52.1</ele>
        <time>2018-09-16T06:33:18Z</time>
      </trkpt>
      <trkpt lat="49.2307" lon="1.14166">
        <ele>52.1</ele>
        <time>2018-09-16T06:33:20Z</time>
      </trkpt>
      <trkpt lat="49.23079" lon="1.1416">
        <ele>51.9</ele>
        <time>2018-09-16T06:33:22Z</time>
      </trkpt>
      <trkpt lat="49.2309" lon="1.14156">
        <ele>51.9</ele>
        <time>2018-09-16T06:33:24Z</time>
      </trkpt>
      <trkpt lat="49.231" lon="1.14153">
        <ele>51.8</ele>
        <time>2018-09-16T06:33:26Z</time>
      </trkpt>
      <trkpt lat="49.2311" lon="1.1415">
        <ele>52.1</ele>
        <time>2018-09-16T06:33:28Z</time>
      </trkpt>
      <trkpt lat="49.23119" lon="1.14145">
        <ele>52.3</ele>
        <time>2018-09-16T06:33:30Z</time>
      </trkpt>
      <trkpt lat="49.23126" lon="1.14136">
        <ele>52.5</ele>
        <time>2018-09-16T06:33:32Z</time>
      </trkpt>
      <trkpt lat="49.23137" lon="1.14127">
        <ele>52.7</ele>
        <time>2018-09-16T06:33:34Z</time>
      </trkpt>
      <trkpt lat="49.23145" lon="1.14118">
        <ele>52.7</ele>
        <time>2018-09-16T06:33:36Z</time>
      </trkpt>
      <trkpt lat="49.23155" lon="1.14106">
        <ele>52.4</ele>
        <time>2018-09-16T06:33:38Z</time>
      </trkpt>
      <trkpt lat="49.23164" lon="1.14095">
        <ele>52</ele>
        <time>2018-09-16T06:33:40Z</time>
      </trkpt>
      <trkpt lat="49.23174" lon="1.14082">
        <ele>52</ele>
        <time>2018-09-16T06:33:42Z</time>
      </trkpt>
      <trkpt lat="49.23183" lon="1.14068">
        <ele>51.8</ele>
        <time>2018-09-16T06:33:44Z</time>
      </trkpt>
      <trkpt lat="49.23191" lon="1.14055">
        <ele>51.3</ele>
        <time>2018-09-16T06:33:46Z</time>
      </trkpt>
      <trkpt lat="49.23199" lon="1.14041">
        <ele>50.8</ele>
        <time>2018-09-16T06:33:48Z</time>
      </trkpt>
      <trkpt lat="49.23207" lon="1.14027">
        <ele>50.4</ele>
        <time>2018-09-16T06:33:50Z</time>
      </trkpt>
      <trkpt lat="49.23214" lon="1.14011">
        <ele>50.2</ele>
        <time>2018-09-16T06:33:52Z</time>
      </trkpt>
      <trkpt lat="49.23218" lon="1.13995">
        <ele>50.1</ele>
        <time>2018-09-16T06:33:54Z</time>
      </trkpt>
      <trkpt lat="49.23224" lon="1.13978">
        <ele>50</ele>
        <time>2018-09-16T06:33:56Z</time>
      </trkpt>
      <trkpt lat="49.23227" lon="1.13965">
        <ele>50.1</ele>
        <time>2018-09-16T06:33:58Z</time>
      </trkpt>
      <trkpt lat="49.23229" lon="1.13945">
        <ele>50.2</ele>
        <time>2018-09-16T06:34:01Z</time>
      </trkpt>
      <trkpt lat="49.23231" lon="1.13928">
        <ele>50.3</ele>
        <time>2018-09-16T06:34:04Z</time>
      </trkpt>
      <trkpt lat="49.23229" lon="1.13914">
        <ele>50.2</ele>
        <time>2018-09-16T06:34:06Z</time>
      </trkpt>
      <trkpt lat="49.23226" lon="1.139">
        <ele>50.2</ele>
        <time>2018-09-16T06:34:08Z</time>
      </trkpt>
      <trkpt lat="49.23221" lon="1.13877">
        <ele>50.3</ele>
        <time>2018-09-16T06:34:11Z</time>
      </trkpt>
      <trkpt lat="49.23217" lon="1.13862">
        <ele>50.5</ele>
        <time>2018-09-16T06:34:13Z</time>
      </trkpt>
      <trkpt lat="49.23212" lon="1.13845">
        <ele>50.6</ele>
        <time>2018-09-16T06:34:15Z</time>
      </trkpt>
      <trkpt lat="49.23209" lon="1.13828">
        <ele>50.9</ele>
        <time>2018-09-16T06:34:17Z</time>
      </trkpt>
      <trkpt lat="49.23204" lon="1.13812">
        <ele>50.9</ele>
        <time>2018-09-16T06:34:19Z</time>
      </trkpt>
      <trkpt lat="49.23199" lon="1.13797">
        <ele>51.1</ele>
        <time>2018-09-16T06:34:21Z</time>
      </trkpt>
      <trkpt lat="49.23195" lon="1.13781">
        <ele>51.2</ele>
        <time>2018-09-16T06:34:23Z</time>
      </trkpt>
      <trkpt lat="49.23192" lon="1.13767">
        <ele>51.2</ele>
        <time>2018-09-16T06:34:25Z</time>
      </trkpt>
      <trkpt lat="49.23188" lon="1.13752">
        <ele>51.3</ele>
        <time>2018-09-16T06:34:27Z</time>
      </trkpt>
      <trkpt lat="49.23184" lon="1.13736">
        <ele>51.5</ele>
        <time>2018-09-16T06:34:29Z</time>
      </trkpt>
      <trkpt lat="49.2318" lon="1.13721">
        <ele>51.7</ele>
        <time>2018-09-16T06:34:31Z</time>
      </trkpt>
      <trkpt lat="49.23176" lon="1.13707">
        <ele>51.9</ele>
        <time>2018-09-16T06:34:33Z</time>
      </trkpt>
      <trkpt lat="49.23172" lon="1.13692">
        <ele>52</ele>
        <time>2018-09-16T06:34:35Z</time>
      </trkpt>
      <trkpt lat="49.23168" lon="1.13678">
        <ele>52</ele>
        <time>2018-09-16T06:34:37Z</time>
      </trkpt>
      <trkpt lat="49.23164" lon="1.13664">
        <ele>52</ele>
        <time>2018-09-16T06:34:39Z</time>
      </trkpt>
      <trkpt lat="49.2316" lon="1.1365">
        <ele>52</ele>
        <time>2018-09-16T06:34:41Z</time>
      </trkpt>
      <trkpt lat="49.23156" lon="1.13635">
        <ele>52</ele>
        <time>2018-09-16T06:34:43Z</time>
      </trkpt>
      <trkpt lat="49.23152" lon="1.13619">
        <ele>52.1</ele>
        <time>2018-09-16T06:34:45Z</time>
      </trkpt>
      <trkpt lat="49.23148" lon="1.13605">
        <ele>52.4</ele>
        <time>2018-09-16T06:34:47Z</time>
      </trkpt>
      <trkpt lat="49.23144" lon="1.1359">
        <ele>52.5</ele>
        <time>2018-09-16T06:34:49Z</time>
      </trkpt>
      <trkpt lat="49.2314" lon="1.13575">
        <ele>52.6</ele>
        <time>2018-09-16T06:34:51Z</time>
      </trkpt>
      <trkpt lat="49.23136" lon="1.13561">
        <ele>52.8</ele>
        <time>2018-09-16T06:34:53Z</time>
      </trkpt>
      <trkpt lat="49.23132" lon="1.13546">
        <ele>52.9</ele>
        <time>2018-09-16T06:34:55Z</time>
      </trkpt>
      <trkpt lat="49.23129" lon="1.13532">
        <ele>52.9</ele>
        <time>2018-09-16T06:34:57Z</time>
      </trkpt>
      <trkpt lat="49.23125" lon="1.13517">
        <ele>52.9</ele>
        <time>2018-09-16T06:34:59Z</time>
      </trkpt>
      <trkpt lat="49.23121" lon="1.13502">
        <ele>52.9</ele>
        <time>2018-09-16T06:35:01Z</time>
      </trkpt>
      <trkpt lat="49.23118" lon="1.13488">
        <ele>52.9</ele>
        <time>2018-09-16T06:35:03Z</time>
      </trkpt>
      <trkpt lat="49.23115" lon="1.13473">
        <ele>52.9</ele>
        <time>2018-09-16T06:35:05Z</time>
      </trkpt>
      <trkpt lat="49.23113" lon="1.13458">
        <ele>53.1</ele>
        <time>2018-09-16T06:35:07Z</time>
      </trkpt>
      <trkpt lat="49.23111" lon="1.13443">
        <ele>53.3</ele>
        <time>2018-09-16T06:35:09Z</time>
      </trkpt>
      <trkpt lat="49.2311" lon="1.13429">
        <ele>53.4</ele>
        <time>2018-09-16T06:35:11Z</time>
      </trkpt>
      <trkpt lat="49.23109" lon="1.13414">
        <ele>53.6</ele>
        <time>2018-09-16T06:35:13Z</time>
      </trkpt>
      <trkpt lat="49.23108" lon="1.134">
        <ele>53.8</ele>
        <time>2018-09-16T06:35:15Z</time>
      </trkpt>
      <trkpt lat="49.23106" lon="1.13381">
        <ele>54.1</ele>
        <time>2018-09-16T06:35:18Z</time>
      </trkpt>
      <trkpt lat="49.23103" lon="1.13362">
        <ele>54</ele>
        <time>2018-09-16T06:35:21Z</time>
      </trkpt>
      <trkpt lat="49.23105" lon="1.13347">
        <ele>54</ele>
        <time>2018-09-16T06:35:23Z</time>
      </trkpt>
      <trkpt lat="49.23111" lon="1.13335">
        <ele>54.2</ele>
        <time>2018-09-16T06:35:25Z</time>
      </trkpt>
      <trkpt lat="49.23117" lon="1.13323">
        <ele>54.1</ele>
        <time>2018-09-16T06:35:27Z</time>
      </trkpt>
      <trkpt lat="49.23122" lon="1.13311">
        <ele>54.3</ele>
        <time>2018-09-16T06:35:29Z</time>
      </trkpt>
      <trkpt lat="49.23126" lon="1.13298">
        <ele>54.4</ele>
        <time>2018-09-16T06:35:31Z</time>
      </trkpt>
      <trkpt lat="49.2313" lon="1.13284">
        <ele>54.6</ele>
        <time>2018-09-16T06:35:33Z</time>
      </trkpt>
      <trkpt lat="49.23132" lon="1.1327">
        <ele>54.8</ele>
        <time>2018-09-16T06:35:35Z</time>
      </trkpt>
      <trkpt lat="49.23134" lon="1.13256">
        <ele>54.9</ele>
        <time>2018-09-16T06:35:37Z</time>
      </trkpt>
      <trkpt lat="49.23135" lon="1.13242">
        <ele>55.1</ele>
        <time>2018-09-16T06:35:39Z</time>
      </trkpt>
      <trkpt lat="49.23137" lon="1.13223">
        <ele>55.5</ele>
        <time>2018-09-16T06:35:42Z</time>
      </trkpt>
      <trkpt lat="49.23138" lon="1.13209">
        <ele>55.6</ele>
        <time>2018-09-16T06:35:44Z</time>
      </trkpt>
      <trkpt lat="49.23139" lon="1.13195">
        <ele>55.8</ele>
        <time>2018-09-16T06:35:46Z</time>
      </trkpt>
      <trkpt lat="49.23142" lon="1.13176">
        <ele>56</ele>
        <time>2018-09-16T06:35:49Z</time>
      </trkpt>
      <trkpt lat="49.23146" lon="1.13156">
        <ele>56.4</ele>
        <time>2018-09-16T06:35:52Z</time>
      </trkpt>
      <trkpt lat="49.23142" lon="1.13135">
        <ele>56.7</ele>
        <time>2018-09-16T06:35:55Z</time>
      </trkpt>
      <trkpt lat="49.23135" lon="1.13121">
        <ele>56.9</ele>
        <time>2018-09-16T06:35:57Z</time>
      </trkpt>
      <trkpt lat="49.23126" lon="1.1311">
        <ele>57</ele>
        <time>2018-09-16T06:35:59Z</time>
      </trkpt>
      <trkpt lat="49.23119" lon="1.13102">
        <ele>57</ele>
        <time>2018-09-16T06:36:01Z</time>
      </trkpt>
      <trkpt lat="49.23126" lon="1.13092">
        <ele>56.5</ele>
        <time>2018-09-16T06:36:08Z</time>
      </trkpt>
      <trkpt lat="49.23135" lon="1.13095">
        <ele>56.2</ele>
        <time>2018-09-16T06:36:11Z</time>
      </trkpt>
      <trkpt lat="49.23147" lon="1.13101">
        <ele>56.5</ele>
        <time>2018-09-16T06:36:14Z</time>
      </trkpt>
      <trkpt lat="49.23159" lon="1.13102">
        <ele>56.5</ele>
        <time>2018-09-16T06:36:17Z</time>
      </trkpt>
      <trkpt lat="49.23169" lon="1.13103">
        <ele>56.9</ele>
        <time>2018-09-16T06:36:20Z</time>
      </trkpt>
      <trkpt lat="49.23179" lon="1.13102">
        <ele>59</ele>
        <time>2018-09-16T06:36:25Z</time>
      </trkpt>
      <trkpt lat="49.23189" lon="1.13108">
        <ele>61.6</ele>
        <time>2018-09-16T06:36:30Z</time>
      </trkpt>
      <trkpt lat="49.23198" lon="1.1311">
        <ele>63.5</ele>
        <time>2018-09-16T06:36:34Z</time>
      </trkpt>
      <trkpt lat="49.23208" lon="1.13113">
        <ele>64.8</ele>
        <time>2018-09-16T06:36:38Z</time>
      </trkpt>
      <trkpt lat="49.23218" lon="1.13116">
        <ele>65.2</ele>
        <time>2018-09-16T06:36:42Z</time>
      </trkpt>
      <trkpt lat="49.23228" lon="1.13127">
        <ele>63.5</ele>
        <time>2018-09-16T06:36:46Z</time>
      </trkpt>
      <trkpt lat="49.23239" lon="1.13125">
        <ele>62.6</ele>
        <time>2018-09-16T06:36:49Z</time>
      </trkpt>
      <trkpt lat="49.23246" lon="1.13116">
        <ele>62.6</ele>
        <time>2018-09-16T06:36:52Z</time>
      </trkpt>
      <trkpt lat="49.23252" lon="1.13104">
        <ele>63</ele>
        <time>2018-09-16T06:36:56Z</time>
      </trkpt>
      <trkpt lat="49.23259" lon="1.13094">
        <ele>63.4</ele>
        <time>2018-09-16T06:37:00Z</time>
      </trkpt>
      <trkpt lat="49.23263" lon="1.1308">
        <ele>63.7</ele>
        <time>2018-09-16T06:37:04Z</time>
      </trkpt>
      <trkpt lat="49.23263" lon="1.13066">
        <ele>63.9</ele>
        <time>2018-09-16T06:37:06Z</time>
      </trkpt>
      <trkpt lat="49.23264" lon="1.13051">
        <ele>64.3</ele>
        <time>2018-09-16T06:37:09Z</time>
      </trkpt>
      <trkpt lat="49.23267" lon="1.13033">
        <ele>64.8</ele>
        <time>2018-09-16T06:37:13Z</time>
      </trkpt>
      <trkpt lat="49.23268" lon="1.13017">
        <ele>65.2</ele>
        <time>2018-09-16T06:37:16Z</time>
      </trkpt>
      <trkpt lat="49.23271" lon="1.13002">
        <ele>65.6</ele>
        <time>2018-09-16T06:37:19Z</time>
      </trkpt>
      <trkpt lat="49.23274" lon="1.12985">
        <ele>66.4</ele>
        <time>2018-09-16T06:37:22Z</time>
      </trkpt>
      <trkpt lat="49.23277" lon="1.12969">
        <ele>66.9</ele>
        <time>2018-09-16T06:37:25Z</time>
      </trkpt>
      <trkpt lat="49.2328" lon="1.12954">
        <ele>67.2</ele>
        <time>2018-09-16T06:37:28Z</time>
      </trkpt>
      <trkpt lat="49.2328" lon="1.1294">
        <ele>67.5</ele>
        <time>2018-09-16T06:37:32Z</time>
      </trkpt>
      <trkpt lat="49.23287" lon="1.12931">
        <ele>68.4</ele>
        <time>2018-09-16T06:37:38Z</time>
      </trkpt>
      <trkpt lat="49.23296" lon="1.12927">
        <ele>69.4</ele>
        <time>2018-09-16T06:37:43Z</time>
      </trkpt>
      <trkpt lat="49.23305" lon="1.12921">
        <ele>70.6</ele>
        <time>2018-09-16T06:37:47Z</time>
      </trkpt>
      <trkpt lat="49.23314" lon="1.12915">
        <ele>71.4</ele>
        <time>2018-09-16T06:37:50Z</time>
      </trkpt>
      <trkpt lat="49.23323" lon="1.12911">
        <ele>72.6</ele>
        <time>2018-09-16T06:37:54Z</time>
      </trkpt>
      <trkpt lat="49.23331" lon="1.12904">
        <ele>73.4</ele>
        <time>2018-09-16T06:37:57Z</time>
      </trkpt>
      <trkpt lat="49.23342" lon="1.12895">
        <ele>74.2</ele>
        <time>2018-09-16T06:38:01Z</time>
      </trkpt>
      <trkpt lat="49.23351" lon="1.12886">
        <ele>74.8</ele>
        <time>2018-09-16T06:38:04Z</time>
      </trkpt>
      <trkpt lat="49.23359" lon="1.1288">
        <ele>75.3</ele>
        <time>2018-09-16T06:38:07Z</time>
      </trkpt>
      <trkpt lat="49.23365" lon="1.12869">
        <ele>75.8</ele>
        <time>2018-09-16T06:38:10Z</time>
      </trkpt>
      <trkpt lat="49.23373" lon="1.12861">
        <ele>76.3</ele>
        <time>2018-09-16T06:38:13Z</time>
      </trkpt>
      <trkpt lat="49.23381" lon="1.1285">
        <ele>77.4</ele>
        <time>2018-09-16T06:38:17Z</time>
      </trkpt>
      <trkpt lat="49.23389" lon="1.12836">
        <ele>78.3</ele>
        <time>2018-09-16T06:38:21Z</time>
      </trkpt>
      <trkpt lat="49.23396" lon="1.12826">
        <ele>79.3</ele>
        <time>2018-09-16T06:38:25Z</time>
      </trkpt>
      <trkpt lat="49.23402" lon="1.12816">
        <ele>80</ele>
        <time>2018-09-16T06:38:28Z</time>
      </trkpt>
      <trkpt lat="49.2341" lon="1.12806">
        <ele>81.3</ele>
        <time>2018-09-16T06:38:32Z</time>
      </trkpt>
      <trkpt lat="49.23417" lon="1.12795">
        <ele>82.3</ele>
        <time>2018-09-16T06:38:36Z</time>
      </trkpt>
      <trkpt lat="49.23423" lon="1.12783">
        <ele>83.3</ele>
        <time>2018-09-16T06:38:40Z</time>
      </trkpt>
      <trkpt lat="49.23431" lon="1.1277">
        <ele>84.5</ele>
        <time>2018-09-16T06:38:45Z</time>
      </trkpt>
      <trkpt lat="49.23434" lon="1.12784">
        <ele>85.4</ele>
        <time>2018-09-16T06:38:54Z</time>
      </trkpt>
      <trkpt lat="49.23429" lon="1.12799">
        <ele>85</ele>
        <time>2018-09-16T06:38:57Z</time>
      </trkpt>
      <trkpt lat="49.23424" lon="1.12812">
        <ele>84.7</ele>
        <time>2018-09-16T06:39:00Z</time>
      </trkpt>
      <trkpt lat="49.23421" lon="1.1283">
        <ele>84.6</ele>
        <time>2018-09-16T06:39:03Z</time>
      </trkpt>
      <trkpt lat="49.23417" lon="1.12844">
        <ele>84.6</ele>
        <time>2018-09-16T06:39:06Z</time>
      </trkpt>
      <trkpt lat="49.23413" lon="1.12861">
        <ele>84.8</ele>
        <time>2018-09-16T06:39:09Z</time>
      </trkpt>
      <trkpt lat="49.23409" lon="1.12875">
        <ele>85.2</ele>
        <time>2018-09-16T06:39:12Z</time>
      </trkpt>
      <trkpt lat="49.23408" lon="1.12888">
        <ele>85.6</ele>
        <time>2018-09-16T06:39:15Z</time>
      </trkpt>
      <trkpt lat="49.23406" lon="1.12903">
        <ele>86</ele>
        <time>2018-09-16T06:39:18Z</time>
      </trkpt>
      <trkpt lat="49.23405" lon="1.1292">
        <ele>86.3</ele>
        <time>2018-09-16T06:39:21Z</time>
      </trkpt>
      <trkpt lat="49.23403" lon="1.12938">
        <ele>87</ele>
        <time>2018-09-16T06:39:24Z</time>
      </trkpt>
      <trkpt lat="49.23401" lon="1.12952">
        <ele>87.5</ele>
        <time>2018-09-16T06:39:27Z</time>
      </trkpt>
      <trkpt lat="49.23397" lon="1.12968">
        <ele>88</ele>
        <time>2018-09-16T06:39:30Z</time>
      </trkpt>
      <trkpt lat="49.23393" lon="1.12986">
        <ele>88.4</ele>
        <time>2018-09-16T06:39:33Z</time>
      </trkpt>
      <trkpt lat="49.23387" lon="1.12999">
        <ele>88.8</ele>
        <time>2018-09-16T06:39:36Z</time>
      </trkpt>
      <trkpt lat="49.23384" lon="1.13014">
        <ele>89.1</ele>
        <time>2018-09-16T06:39:39Z</time>
      </trkpt>
      <trkpt lat="49.2338" lon="1.1303">
        <ele>89.3</ele>
        <time>2018-09-16T06:39:42Z</time>
      </trkpt>
      <trkpt lat="49.23375" lon="1.13049">
        <ele>89.2</ele>
        <time>2018-09-16T06:39:45Z</time>
      </trkpt>
      <trkpt lat="49.23374" lon="1.13063">
        <ele>89</ele>
        <time>2018-09-16T06:39:47Z</time>
      </trkpt>
      <trkpt lat="49.23371" lon="1.13079">
        <ele>88.3</ele>
        <time>2018-09-16T06:39:50Z</time>
      </trkpt>
      <trkpt lat="49.23368" lon="1.13093">
        <ele>87.9</ele>
        <time>2018-09-16T06:39:51Z</time>
      </trkpt>
      <trkpt lat="49.23363" lon="1.13113">
        <ele>87.3</ele>
        <time>2018-09-16T06:39:53Z</time>
      </trkpt>
      <trkpt lat="49.23359" lon="1.13127">
        <ele>86.6</ele>
        <time>2018-09-16T06:39:55Z</time>
      </trkpt>
      <trkpt lat="49.23357" lon="1.13142">
        <ele>85.7</ele>
        <time>2018-09-16T06:39:58Z</time>
      </trkpt>
      <trkpt lat="49.23362" lon="1.13154">
        <ele>85.9</ele>
        <time>2018-09-16T06:40:04Z</time>
      </trkpt>
      <trkpt lat="49.2337" lon="1.13166">
        <ele>88</ele>
        <time>2018-09-16T06:40:10Z</time>
      </trkpt>
      <trkpt lat="49.23378" lon="1.13174">
        <ele>90.1</ele>
        <time>2018-09-16T06:40:16Z</time>
      </trkpt>
      <trkpt lat="49.23387" lon="1.13181">
        <ele>92.8</ele>
        <time>2018-09-16T06:40:23Z</time>
      </trkpt>
      <trkpt lat="49.23396" lon="1.13186">
        <ele>95.5</ele>
        <time>2018-09-16T06:40:30Z</time>
      </trkpt>
      <trkpt lat="49.23405" lon="1.13191">
        <ele>97.9</ele>
        <time>2018-09-16T06:40:36Z</time>
      </trkpt>
      <trkpt lat="49.23415" lon="1.13196">
        <ele>100.3</ele>
        <time>2018-09-16T06:40:43Z</time>
      </trkpt>
      <trkpt lat="49.23423" lon="1.13201">
        <ele>101.9</ele>
        <time>2018-09-16T06:40:49Z</time>
      </trkpt>
      <trkpt lat="49.23434" lon="1.13204">
        <ele>103.8</ele>
        <time>2018-09-16T06:40:56Z</time>
      </trkpt>
      <trkpt lat="49.23442" lon="1.1321">
        <ele>105.3</ele>
        <time>2018-09-16T06:41:02Z</time>
      </trkpt>
      <trkpt lat="49.23451" lon="1.13216">
        <ele>106.8</ele>
        <time>2018-09-16T06:41:08Z</time>
      </trkpt>
      <trkpt lat="49.23461" lon="1.1322">
        <ele>107.6</ele>
        <time>2018-09-16T06:41:13Z</time>
      </trkpt>
      <trkpt lat="49.2347" lon="1.13224">
        <ele>108.1</ele>
        <time>2018-09-16T06:41:17Z</time>
      </trkpt>
      <trkpt lat="49.23479" lon="1.13228">
        <ele>108.8</ele>
        <time>2018-09-16T06:41:21Z</time>
      </trkpt>
      <trkpt lat="49.23489" lon="1.13234">
        <ele>109.7</ele>
        <time>2018-09-16T06:41:26Z</time>
      </trkpt>
      <trkpt lat="49.23499" lon="1.13238">
        <ele>110.3</ele>
        <time>2018-09-16T06:41:31Z</time>
      </trkpt>
      <trkpt lat="49.2351" lon="1.13243">
        <ele>110.9</ele>
        <time>2018-09-16T06:41:35Z</time>
      </trkpt>
      <trkpt lat="49.23518" lon="1.13247">
        <ele>111.3</ele>
        <time>2018-09-16T06:41:39Z</time>
      </trkpt>
      <trkpt lat="49.23528" lon="1.1325">
        <ele>111.9</ele>
        <time>2018-09-16T06:41:43Z</time>
      </trkpt>
      <trkpt lat="49.23538" lon="1.13252">
        <ele>112.5</ele>
        <time>2018-09-16T06:41:47Z</time>
      </trkpt>
      <trkpt lat="49.23549" lon="1.1326">
        <ele>112.9</ele>
        <time>2018-09-16T06:41:50Z</time>
      </trkpt>
      <trkpt lat="49.2356" lon="1.13265">
        <ele>113.3</ele>
        <time>2018-09-16T06:41:53Z</time>
      </trkpt>
      <trkpt lat="49.23571" lon="1.1327">
        <ele>113.6</ele>
        <time>2018-09-16T06:41:56Z</time>
      </trkpt>
      <trkpt lat="49.23582" lon="1.13274">
        <ele>114</ele>
        <time>2018-09-16T06:41:59Z</time>
      </trkpt>
      <trkpt lat="49.23595" lon="1.1328">
        <ele>114.5</ele>
        <time>2018-09-16T06:42:03Z</time>
      </trkpt>
      <trkpt lat="49.23605" lon="1.13285">
        <ele>115</ele>
        <time>2018-09-16T06:42:06Z</time>
      </trkpt>
      <trkpt lat="49.23613" lon="1.13291">
        <ele>115.3</ele>
        <time>2018-09-16T06:42:08Z</time>
      </trkpt>
      <trkpt lat="49.23623" lon="1.13294">
        <ele>115.7</ele>
        <time>2018-09-16T06:42:11Z</time>
      </trkpt>
      <trkpt lat="49.23633" lon="1.133">
        <ele>116</ele>
        <time>2018-09-16T06:42:14Z</time>
      </trkpt>
      <trkpt lat="49.23645" lon="1.13302">
        <ele>116.4</ele>
        <time>2018-09-16T06:42:17Z</time>
      </trkpt>
      <trkpt lat="49.23656" lon="1.13299">
        <ele>116.5</ele>
        <time>2018-09-16T06:42:19Z</time>
      </trkpt>
      <trkpt lat="49.23662" lon="1.13285">
        <ele>116.6</ele>
        <time>2018-09-16T06:42:22Z</time>
      </trkpt>
      <trkpt lat="49.23671" lon="1.13269">
        <ele>116.9</ele>
        <time>2018-09-16T06:42:25Z</time>
      </trkpt>
      <trkpt lat="49.23676" lon="1.1325">
        <ele>117.1</ele>
        <time>2018-09-16T06:42:28Z</time>
      </trkpt>
      <trkpt lat="49.23681" lon="1.13231">
        <ele>117.3</ele>
        <time>2018-09-16T06:42:31Z</time>
      </trkpt>
      <trkpt lat="49.23684" lon="1.13217">
        <ele>117.3</ele>
        <time>2018-09-16T06:42:33Z</time>
      </trkpt>
      <trkpt lat="49.23688" lon="1.13202">
        <ele>117.4</ele>
        <time>2018-09-16T06:42:35Z</time>
      </trkpt>
      <trkpt lat="49.23692" lon="1.13189">
        <ele>117.4</ele>
        <time>2018-09-16T06:42:37Z</time>
      </trkpt>
      <trkpt lat="49.23695" lon="1.13175">
        <ele>117.6</ele>
        <time>2018-09-16T06:42:39Z</time>
      </trkpt>
      <trkpt lat="49.23699" lon="1.13162">
        <ele>117.7</ele>
        <time>2018-09-16T06:42:41Z</time>
      </trkpt>
      <trkpt lat="49.23701" lon="1.13147">
        <ele>117.8</ele>
        <time>2018-09-16T06:42:43Z</time>
      </trkpt>
      <trkpt lat="49.23704" lon="1.13132">
        <ele>117.7</ele>
        <time>2018-09-16T06:42:45Z</time>
      </trkpt>
      <trkpt lat="49.23709" lon="1.13113">
        <ele>117.9</ele>
        <time>2018-09-16T06:42:48Z</time>
      </trkpt>
      <trkpt lat="49.23714" lon="1.13093">
        <ele>118.1</ele>
        <time>2018-09-16T06:42:51Z</time>
      </trkpt>
      <trkpt lat="49.23716" lon="1.13077">
        <ele>118</ele>
        <time>2018-09-16T06:42:53Z</time>
      </trkpt>
      <trkpt lat="49.23722" lon="1.1306">
        <ele>118.1</ele>
        <time>2018-09-16T06:42:56Z</time>
      </trkpt>
      <trkpt lat="49.23733" lon="1.13057">
        <ele>118.3</ele>
        <time>2018-09-16T06:43:00Z</time>
      </trkpt>
      <trkpt lat="49.23744" lon="1.13062">
        <ele>118.4</ele>
        <time>2018-09-16T06:43:03Z</time>
      </trkpt>
      <trkpt lat="49.23756" lon="1.13068">
        <ele>118.6</ele>
        <time>2018-09-16T06:43:06Z</time>
      </trkpt>
      <trkpt lat="49.23769" lon="1.13071">
        <ele>119</ele>
        <time>2018-09-16T06:43:09Z</time>
      </trkpt>
      <trkpt lat="49.23782" lon="1.13077">
        <ele>119.4</ele>
        <time>2018-09-16T06:43:12Z</time>
      </trkpt>
      <trkpt lat="49.23792" lon="1.13082">
        <ele>119.3</ele>
        <time>2018-09-16T06:43:14Z</time>
      </trkpt>
      <trkpt lat="49.23802" lon="1.13087">
        <ele>119.2</ele>
        <time>2018-09-16T06:43:16Z</time>
      </trkpt>
      <trkpt lat="49.23811" lon="1.13091">
        <ele>119.2</ele>
        <time>2018-09-16T06:43:18Z</time>
      </trkpt>
      <trkpt lat="49.23821" lon="1.13095">
        <ele>119.2</ele>
        <time>2018-09-16T06:43:20Z</time>
      </trkpt>
      <trkpt lat="49.23831" lon="1.13099">
        <ele>119.3</ele>
        <time>2018-09-16T06:43:22Z</time>
      </trkpt>
      <trkpt lat="49.2384" lon="1.13103">
        <ele>119.4</ele>
        <time>2018-09-16T06:43:24Z</time>
      </trkpt>
      <trkpt lat="49.23849" lon="1.13108">
        <ele>119.4</ele>
        <time>2018-09-16T06:43:26Z</time>
      </trkpt>
      <trkpt lat="49.23861" lon="1.13115">
        <ele>119.5</ele>
        <time>2018-09-16T06:43:29Z</time>
      </trkpt>
      <trkpt lat="49.23871" lon="1.13122">
        <ele>119.5</ele>
        <time>2018-09-16T06:43:32Z</time>
      </trkpt>
      <trkpt lat="49.23882" lon="1.13124">
        <ele>119.6</ele>
        <time>2018-09-16T06:43:35Z</time>
      </trkpt>
      <trkpt lat="49.23896" lon="1.1313">
        <ele>119.6</ele>
        <time>2018-09-16T06:43:38Z</time>
      </trkpt>
      <trkpt lat="49.23906" lon="1.13135">
        <ele>119.8</ele>
        <time>2018-09-16T06:43:40Z</time>
      </trkpt>
      <trkpt lat="49.23918" lon="1.13142">
        <ele>119.8</ele>
        <time>2018-09-16T06:43:43Z</time>
      </trkpt>
      <trkpt lat="49.23931" lon="1.13147">
        <ele>119.8</ele>
        <time>2018-09-16T06:43:46Z</time>
      </trkpt>
      <trkpt lat="49.23943" lon="1.13149">
        <ele>120</ele>
        <time>2018-09-16T06:43:49Z</time>
      </trkpt>
      <trkpt lat="49.23955" lon="1.13154">
        <ele>120.4</ele>
        <time>2018-09-16T06:43:52Z</time>
      </trkpt>
      <trkpt lat="49.23966" lon="1.1316">
        <ele>120.2</ele>
        <time>2018-09-16T06:43:55Z</time>
      </trkpt>
      <trkpt lat="49.23979" lon="1.13166">
        <ele>120.2</ele>
        <time>2018-09-16T06:43:59Z</time>
      </trkpt>
      <trkpt lat="49.2399" lon="1.13171">
        <ele>120.1</ele>
        <time>2018-09-16T06:44:01Z</time>
      </trkpt>
      <trkpt lat="49.23999" lon="1.13177">
        <ele>120.1</ele>
        <time>2018-09-16T06:44:03Z</time>
      </trkpt>
      <trkpt lat="49.24008" lon="1.13183">
        <ele>120.1</ele>
        <time>2018-09-16T06:44:05Z</time>
      </trkpt>
      <trkpt lat="49.24021" lon="1.13186">
        <ele>119.8</ele>
        <time>2018-09-16T06:44:08Z</time>
      </trkpt>
      <trkpt lat="49.24031" lon="1.13191">
        <ele>119.7</ele>
        <time>2018-09-16T06:44:10Z</time>
      </trkpt>
      <trkpt lat="49.24041" lon="1.13196">
        <ele>119.5</ele>
        <time>2018-09-16T06:44:12Z</time>
      </trkpt>
      <trkpt lat="49.24051" lon="1.132">
        <ele>119.3</ele>
        <time>2018-09-16T06:44:14Z</time>
      </trkpt>
      <trkpt lat="49.24061" lon="1.13205">
        <ele>119.3</ele>
        <time>2018-09-16T06:44:16Z</time>
      </trkpt>
      <trkpt lat="49.24074" lon="1.13212">
        <ele>118.8</ele>
        <time>2018-09-16T06:44:18Z</time>
      </trkpt>
      <trkpt lat="49.24087" lon="1.13219">
        <ele>118.8</ele>
        <time>2018-09-16T06:44:20Z</time>
      </trkpt>
      <trkpt lat="49.24099" lon="1.13225">
        <ele>118.6</ele>
        <time>2018-09-16T06:44:22Z</time>
      </trkpt>
      <trkpt lat="49.24111" lon="1.13229">
        <ele>118.4</ele>
        <time>2018-09-16T06:44:24Z</time>
      </trkpt>
      <trkpt lat="49.24122" lon="1.13234">
        <ele>117.7</ele>
        <time>2018-09-16T06:44:26Z</time>
      </trkpt>
      <trkpt lat="49.24132" lon="1.13239">
        <ele>117.3</ele>
        <time>2018-09-16T06:44:28Z</time>
      </trkpt>
      <trkpt lat="49.24143" lon="1.13244">
        <ele>116.8</ele>
        <time>2018-09-16T06:44:30Z</time>
      </trkpt>
      <trkpt lat="49.24154" lon="1.1325">
        <ele>116.2</ele>
        <time>2018-09-16T06:44:32Z</time>
      </trkpt>
      <trkpt lat="49.24164" lon="1.13256">
        <ele>115.6</ele>
        <time>2018-09-16T06:44:34Z</time>
      </trkpt>
      <trkpt lat="49.24176" lon="1.13261">
        <ele>115.4</ele>
        <time>2018-09-16T06:44:36Z</time>
      </trkpt>
      <trkpt lat="49.24187" lon="1.13266">
        <ele>115.1</ele>
        <time>2018-09-16T06:44:38Z</time>
      </trkpt>
      <trkpt lat="49.24197" lon="1.1327">
        <ele>114.8</ele>
        <time>2018-09-16T06:44:40Z</time>
      </trkpt>
      <trkpt lat="49.24208" lon="1.13275">
        <ele>114.5</ele>
        <time>2018-09-16T06:44:42Z</time>
      </trkpt>
      <trkpt lat="49.24219" lon="1.1328">
        <ele>114.2</ele>
        <time>2018-09-16T06:44:44Z</time>
      </trkpt>
      <trkpt lat="49.24229" lon="1.13284">
        <ele>113.9</ele>
        <time>2018-09-16T06:44:46Z</time>
      </trkpt>
      <trkpt lat="49.24239" lon="1.13287">
        <ele>113.8</ele>
        <time>2018-09-16T06:44:48Z</time>
      </trkpt>
      <trkpt lat="49.24249" lon="1.13292">
        <ele>113.5</ele>
        <time>2018-09-16T06:44:50Z</time>
      </trkpt>
      <trkpt lat="49.24259" lon="1.13296">
        <ele>113.2</ele>
        <time>2018-09-16T06:44:52Z</time>
      </trkpt>
      <trkpt lat="49.24268" lon="1.13301">
        <ele>113.1</ele>
        <time>2018-09-16T06:44:54Z</time>
      </trkpt>
      <trkpt lat="49.24278" lon="1.13305">
        <ele>112.9</ele>
        <time>2018-09-16T06:44:56Z</time>
      </trkpt>
      <trkpt lat="49.24287" lon="1.1331">
        <ele>112.9</ele>
        <time>2018-09-16T06:44:58Z</time>
      </trkpt>
      <trkpt lat="49.24296" lon="1.13314">
        <ele>112.8</ele>
        <time>2018-09-16T06:45:00Z</time>
      </trkpt>
      <trkpt lat="49.24307" lon="1.13323">
        <ele>112.6</ele>
        <time>2018-09-16T06:45:03Z</time>
      </trkpt>
      <trkpt lat="49.24311" lon="1.1334">
        <ele>111.9</ele>
        <time>2018-09-16T06:45:06Z</time>
      </trkpt>
      <trkpt lat="49.24313" lon="1.13354">
        <ele>111.5</ele>
        <time>2018-09-16T06:45:08Z</time>
      </trkpt>
      <trkpt lat="49.24316" lon="1.13368">
        <ele>110.8</ele>
        <time>2018-09-16T06:45:10Z</time>
      </trkpt>
      <trkpt lat="49.24319" lon="1.13384">
        <ele>110.8</ele>
        <time>2018-09-16T06:45:12Z</time>
      </trkpt>
      <trkpt lat="49.24322" lon="1.13399">
        <ele>110.5</ele>
        <time>2018-09-16T06:45:14Z</time>
      </trkpt>
      <trkpt lat="49.24326" lon="1.13415">
        <ele>110.1</ele>
        <time>2018-09-16T06:45:16Z</time>
      </trkpt>
      <trkpt lat="49.24329" lon="1.13431">
        <ele>109.8</ele>
        <time>2018-09-16T06:45:18Z</time>
      </trkpt>
      <trkpt lat="49.24332" lon="1.13448">
        <ele>109.6</ele>
        <time>2018-09-16T06:45:20Z</time>
      </trkpt>
      <trkpt lat="49.24335" lon="1.13464">
        <ele>109.4</ele>
        <time>2018-09-16T06:45:22Z</time>
      </trkpt>
      <trkpt lat="49.24339" lon="1.1348">
        <ele>109.1</ele>
        <time>2018-09-16T06:45:24Z</time>
      </trkpt>
      <trkpt lat="49.24342" lon="1.13494">
        <ele>109.2</ele>
        <time>2018-09-16T06:45:26Z</time>
      </trkpt>
      <trkpt lat="49.24345" lon="1.13509">
        <ele>109</ele>
        <time>2018-09-16T06:45:28Z</time>
      </trkpt>
      <trkpt lat="49.24348" lon="1.13524">
        <ele>109.3</ele>
        <time>2018-09-16T06:45:30Z</time>
      </trkpt>
      <trkpt lat="49.24351" lon="1.13539">
        <ele>109.5</ele>
        <time>2018-09-16T06:45:32Z</time>
      </trkpt>
      <trkpt lat="49.24354" lon="1.13555">
        <ele>109.6</ele>
        <time>2018-09-16T06:45:34Z</time>
      </trkpt>
      <trkpt lat="49.24358" lon="1.13571">
        <ele>109.6</ele>
        <time>2018-09-16T06:45:36Z</time>
      </trkpt>
      <trkpt lat="49.24362" lon="1.13583">
        <ele>109.5</ele>
        <time>2018-09-16T06:45:38Z</time>
      </trkpt>
      <trkpt lat="49.24372" lon="1.13591">
        <ele>109.1</ele>
        <time>2018-09-16T06:45:42Z</time>
      </trkpt>
      <trkpt lat="49.24379" lon="1.13606">
        <ele>108.8</ele>
        <time>2018-09-16T06:45:46Z</time>
      </trkpt>
      <trkpt lat="49.24383" lon="1.13622">
        <ele>108.5</ele>
        <time>2018-09-16T06:45:49Z</time>
      </trkpt>
      <trkpt lat="49.24382" lon="1.13636">
        <ele>108.4</ele>
        <time>2018-09-16T06:45:52Z</time>
      </trkpt>
      <trkpt lat="49.2438" lon="1.1365">
        <ele>108.2</ele>
        <time>2018-09-16T06:45:55Z</time>
      </trkpt>
      <trkpt lat="49.24377" lon="1.13669">
        <ele>108.2</ele>
        <time>2018-09-16T06:45:58Z</time>
      </trkpt>
      <trkpt lat="49.24373" lon="1.13683">
        <ele>108.2</ele>
        <time>2018-09-16T06:46:00Z</time>
      </trkpt>
      <trkpt lat="49.2437" lon="1.13698">
        <ele>108.3</ele>
        <time>2018-09-16T06:46:02Z</time>
      </trkpt>
      <trkpt lat="49.24368" lon="1.13712">
        <ele>108.4</ele>
        <time>2018-09-16T06:46:04Z</time>
      </trkpt>
      <trkpt lat="49.24367" lon="1.13732">
        <ele>108.4</ele>
        <time>2018-09-16T06:46:07Z</time>
      </trkpt>
      <trkpt lat="49.24364" lon="1.13751">
        <ele>108.8</ele>
        <time>2018-09-16T06:46:10Z</time>
      </trkpt>
      <trkpt lat="49.24364" lon="1.13766">
        <ele>108.9</ele>
        <time>2018-09-16T06:46:12Z</time>
      </trkpt>
      <trkpt lat="49.24364" lon="1.13786">
        <ele>109.2</ele>
        <time>2018-09-16T06:46:15Z</time>
      </trkpt>
      <trkpt lat="49.24364" lon="1.13805">
        <ele>109.6</ele>
        <time>2018-09-16T06:46:18Z</time>
      </trkpt>
      <trkpt lat="49.24362" lon="1.1382">
        <ele>109.8</ele>
        <time>2018-09-16T06:46:20Z</time>
      </trkpt>
      <trkpt lat="49.2436" lon="1.13837">
        <ele>110.1</ele>
        <time>2018-09-16T06:46:23Z</time>
      </trkpt>
      <trkpt lat="49.24359" lon="1.13851">
        <ele>110.3</ele>
        <time>2018-09-16T06:46:25Z</time>
      </trkpt>
      <trkpt lat="49.24358" lon="1.13865">
        <ele>110.6</ele>
        <time>2018-09-16T06:46:27Z</time>
      </trkpt>
      <trkpt lat="49.24353" lon="1.13881">
        <ele>110.9</ele>
        <time>2018-09-16T06:46:30Z</time>
      </trkpt>
      <trkpt lat="49.2435" lon="1.13901">
        <ele>111.2</ele>
        <time>2018-09-16T06:46:33Z</time>
      </trkpt>
      <trkpt lat="49.24351" lon="1.13915">
        <ele>111.1</ele>
        <time>2018-09-16T06:46:35Z</time>
      </trkpt>
      <trkpt lat="49.24351" lon="1.13932">
        <ele>111.2</ele>
        <time>2018-09-16T06:46:38Z</time>
      </trkpt>
      <trkpt lat="49.24351" lon="1.13948">
        <ele>111.3</ele>
        <time>2018-09-16T06:46:40Z</time>
      </trkpt>
      <trkpt lat="49.24344" lon="1.13957">
        <ele>111.8</ele>
        <time>2018-09-16T06:46:45Z</time>
      </trkpt>
      <trkpt lat="49.24335" lon="1.13957">
        <ele>112.1</ele>
        <time>2018-09-16T06:46:48Z</time>
      </trkpt>
      <trkpt lat="49.24323" lon="1.13956">
        <ele>112.5</ele>
        <time>2018-09-16T06:46:51Z</time>
      </trkpt>
      <trkpt lat="49.24316" lon="1.13965">
        <ele>112.7</ele>
        <time>2018-09-16T06:46:54Z</time>
      </trkpt>
      <trkpt lat="49.24312" lon="1.13981">
        <ele>113.2</ele>
        <time>2018-09-16T06:46:57Z</time>
      </trkpt>
      <trkpt lat="49.24308" lon="1.13993">
        <ele>113.4</ele>
        <time>2018-09-16T06:46:59Z</time>
      </trkpt>
      <trkpt lat="49.24304" lon="1.14011">
        <ele>113.7</ele>
        <time>2018-09-16T06:47:02Z</time>
      </trkpt>
      <trkpt lat="49.243" lon="1.14029">
        <ele>113.8</ele>
        <time>2018-09-16T06:47:05Z</time>
      </trkpt>
      <trkpt lat="49.24295" lon="1.14049">
        <ele>114.1</ele>
        <time>2018-09-16T06:47:08Z</time>
      </trkpt>
      <trkpt lat="49.24291" lon="1.14062">
        <ele>114.4</ele>
        <time>2018-09-16T06:47:10Z</time>
      </trkpt>
      <trkpt lat="49.24288" lon="1.14076">
        <ele>114.6</ele>
        <time>2018-09-16T06:47:12Z</time>
      </trkpt>
      <trkpt lat="49.24285" lon="1.14096">
        <ele>114.9</ele>
        <time>2018-09-16T06:47:15Z</time>
      </trkpt>
      <trkpt lat="49.24281" lon="1.14109">
        <ele>115.1</ele>
        <time>2018-09-16T06:47:17Z</time>
      </trkpt>
      <trkpt lat="49.24278" lon="1.14123">
        <ele>115.3</ele>
        <time>2018-09-16T06:47:19Z</time>
      </trkpt>
      <trkpt lat="49.24276" lon="1.14138">
        <ele>115.4</ele>
        <time>2018-09-16T06:47:21Z</time>
      </trkpt>
      <trkpt lat="49.24271" lon="1.14158">
        <ele>115.7</ele>
        <time>2018-09-16T06:47:24Z</time>
      </trkpt>
      <trkpt lat="49.24266" lon="1.14178">
        <ele>116.1</ele>
        <time>2018-09-16T06:47:27Z</time>
      </trkpt>
      <trkpt lat="49.24263" lon="1.14192">
        <ele>116.3</ele>
        <time>2018-09-16T06:47:29Z</time>
      </trkpt>
      <trkpt lat="49.2426" lon="1.14205">
        <ele>116.4</ele>
        <time>2018-09-16T06:47:31Z</time>
      </trkpt>
      <trkpt lat="49.24257" lon="1.1422">
        <ele>116.5</ele>
        <time>2018-09-16T06:47:33Z</time>
      </trkpt>
      <trkpt lat="49.24256" lon="1.14233">
        <ele>116.6</ele>
        <time>2018-09-16T06:47:35Z</time>
      </trkpt>
      <trkpt lat="49.24253" lon="1.14248">
        <ele>116.8</ele>
        <time>2018-09-16T06:47:37Z</time>
      </trkpt>
      <trkpt lat="49.2425" lon="1.14263">
        <ele>116.9</ele>
        <time>2018-09-16T06:47:39Z</time>
      </trkpt>
      <trkpt lat="49.24247" lon="1.14277">
        <ele>117.1</ele>
        <time>2018-09-16T06:47:41Z</time>
      </trkpt>
      <trkpt lat="49.24244" lon="1.14291">
        <ele>117.3</ele>
        <time>2018-09-16T06:47:43Z</time>
      </trkpt>
      <trkpt lat="49.24241" lon="1.14306">
        <ele>117.6</ele>
        <time>2018-09-16T06:47:45Z</time>
      </trkpt>
      <trkpt lat="49.24238" lon="1.14321">
        <ele>117.8</ele>
        <time>2018-09-16T06:47:47Z</time>
      </trkpt>
      <trkpt lat="49.24236" lon="1.14337">
        <ele>117.9</ele>
        <time>2018-09-16T06:47:49Z</time>
      </trkpt>
      <trkpt lat="49.24233" lon="1.14351">
        <ele>117.9</ele>
        <time>2018-09-16T06:47:51Z</time>
      </trkpt>
      <trkpt lat="49.2423" lon="1.14367">
        <ele>118</ele>
        <time>2018-09-16T06:47:53Z</time>
      </trkpt>
      <trkpt lat="49.24227" lon="1.14382">
        <ele>118.2</ele>
        <time>2018-09-16T06:47:55Z</time>
      </trkpt>
      <trkpt lat="49.24224" lon="1.14398">
        <ele>118.2</ele>
        <time>2018-09-16T06:47:57Z</time>
      </trkpt>
      <trkpt lat="49.24221" lon="1.14413">
        <ele>118.1</ele>
        <time>2018-09-16T06:47:59Z</time>
      </trkpt>
      <trkpt lat="49.24218" lon="1.14428">
        <ele>118.3</ele>
        <time>2018-09-16T06:48:01Z</time>
      </trkpt>
      <trkpt lat="49.24214" lon="1.14443">
        <ele>118</ele>
        <time>2018-09-16T06:48:03Z</time>
      </trkpt>
      <trkpt lat="49.24212" lon="1.14459">
        <ele>117.9</ele>
        <time>2018-09-16T06:48:05Z</time>
      </trkpt>
      <trkpt lat="49.24209" lon="1.14475">
        <ele>118.1</ele>
        <time>2018-09-16T06:48:07Z</time>
      </trkpt>
      <trkpt lat="49.24206" lon="1.14491">
        <ele>118.1</ele>
        <time>2018-09-16T06:48:09Z</time>
      </trkpt>
      <trkpt lat="49.24203" lon="1.14506">
        <ele>118.2</ele>
        <time>2018-09-16T06:48:11Z</time>
      </trkpt>
      <trkpt lat="49.242" lon="1.1452">
        <ele>118.3</ele>
        <time>2018-09-16T06:48:13Z</time>
      </trkpt>
      <trkpt lat="49.24197" lon="1.14535">
        <ele>118.4</ele>
        <time>2018-09-16T06:48:15Z</time>
      </trkpt>
      <trkpt lat="49.24194" lon="1.14549">
        <ele>118.4</ele>
        <time>2018-09-16T06:48:17Z</time>
      </trkpt>
      <trkpt lat="49.24191" lon="1.1457">
        <ele>118.2</ele>
        <time>2018-09-16T06:48:20Z</time>
      </trkpt>
      <trkpt lat="49.24186" lon="1.14582">
        <ele>118.1</ele>
        <time>2018-09-16T06:48:22Z</time>
      </trkpt>
      <trkpt lat="49.24175" lon="1.14593">
        <ele>117.7</ele>
        <time>2018-09-16T06:48:25Z</time>
      </trkpt>
      <trkpt lat="49.24166" lon="1.14595">
        <ele>117.6</ele>
        <time>2018-09-16T06:48:27Z</time>
      </trkpt>
      <trkpt lat="49.24157" lon="1.14597">
        <ele>117.6</ele>
        <time>2018-09-16T06:48:29Z</time>
      </trkpt>
      <trkpt lat="49.24143" lon="1.14599">
        <ele>117.6</ele>
        <time>2018-09-16T06:48:32Z</time>
      </trkpt>
      <trkpt lat="49.24133" lon="1.146">
        <ele>117.5</ele>
        <time>2018-09-16T06:48:34Z</time>
      </trkpt>
      <trkpt lat="49.2412" lon="1.14605">
        <ele>117.8</ele>
        <time>2018-09-16T06:48:37Z</time>
      </trkpt>
      <trkpt lat="49.2411" lon="1.14606">
        <ele>118</ele>
        <time>2018-09-16T06:48:39Z</time>
      </trkpt>
      <trkpt lat="49.24099" lon="1.14607">
        <ele>118.1</ele>
        <time>2018-09-16T06:48:41Z</time>
      </trkpt>
      <trkpt lat="49.24089" lon="1.14608">
        <ele>118.1</ele>
        <time>2018-09-16T06:48:43Z</time>
      </trkpt>
      <trkpt lat="49.24079" lon="1.14609">
        <ele>118.1</ele>
        <time>2018-09-16T06:48:45Z</time>
      </trkpt>
      <trkpt lat="49.24067" lon="1.14609">
        <ele>118.1</ele>
        <time>2018-09-16T06:48:47Z</time>
      </trkpt>
      <trkpt lat="49.24056" lon="1.14609">
        <ele>118</ele>
        <time>2018-09-16T06:48:49Z</time>
      </trkpt>
      <trkpt lat="49.24046" lon="1.14611">
        <ele>117.9</ele>
        <time>2018-09-16T06:48:51Z</time>
      </trkpt>
      <trkpt lat="49.24036" lon="1.14614">
        <ele>117.8</ele>
        <time>2018-09-16T06:48:53Z</time>
      </trkpt>
      <trkpt lat="49.24024" lon="1.14616">
        <ele>117.8</ele>
        <time>2018-09-16T06:48:55Z</time>
      </trkpt>
      <trkpt lat="49.24014" lon="1.14622">
        <ele>117.6</ele>
        <time>2018-09-16T06:48:57Z</time>
      </trkpt>
      <trkpt lat="49.24002" lon="1.14627">
        <ele>117.5</ele>
        <time>2018-09-16T06:48:59Z</time>
      </trkpt>
      <trkpt lat="49.2399" lon="1.14632">
        <ele>117.2</ele>
        <time>2018-09-16T06:49:01Z</time>
      </trkpt>
      <trkpt lat="49.23979" lon="1.1464">
        <ele>117</ele>
        <time>2018-09-16T06:49:03Z</time>
      </trkpt>
      <trkpt lat="49.23967" lon="1.14648">
        <ele>116.8</ele>
        <time>2018-09-16T06:49:05Z</time>
      </trkpt>
      <trkpt lat="49.23957" lon="1.14658">
        <ele>116.4</ele>
        <time>2018-09-16T06:49:07Z</time>
      </trkpt>
      <trkpt lat="49.23946" lon="1.1467">
        <ele>116.2</ele>
        <time>2018-09-16T06:49:09Z</time>
      </trkpt>
      <trkpt lat="49.23936" lon="1.14681">
        <ele>115.9</ele>
        <time>2018-09-16T06:49:11Z</time>
      </trkpt>
      <trkpt lat="49.23924" lon="1.14691">
        <ele>115.6</ele>
        <time>2018-09-16T06:49:13Z</time>
      </trkpt>
      <trkpt lat="49.23913" lon="1.14698">
        <ele>115.5</ele>
        <time>2018-09-16T06:49:15Z</time>
      </trkpt>
      <trkpt lat="49.23902" lon="1.14706">
        <ele>115.1</ele>
        <time>2018-09-16T06:49:17Z</time>
      </trkpt>
      <trkpt lat="49.23889" lon="1.14711">
        <ele>114.8</ele>
        <time>2018-09-16T06:49:19Z</time>
      </trkpt>
      <trkpt lat="49.2388" lon="1.14716">
        <ele>114.5</ele>
        <time>2018-09-16T06:49:21Z</time>
      </trkpt>
      <trkpt lat="49.23868" lon="1.1472">
        <ele>114.1</ele>
        <time>2018-09-16T06:49:23Z</time>
      </trkpt>
      <trkpt lat="49.23856" lon="1.14723">
        <ele>113.7</ele>
        <time>2018-09-16T06:49:25Z</time>
      </trkpt>
      <trkpt lat="49.23843" lon="1.14726">
        <ele>113.4</ele>
        <time>2018-09-16T06:49:27Z</time>
      </trkpt>
      <trkpt lat="49.23831" lon="1.14728">
        <ele>113.3</ele>
        <time>2018-09-16T06:49:29Z</time>
      </trkpt>
      <trkpt lat="49.23819" lon="1.1473">
        <ele>113</ele>
        <time>2018-09-16T06:49:31Z</time>
      </trkpt>
      <trkpt lat="49.23806" lon="1.14734">
        <ele>112.9</ele>
        <time>2018-09-16T06:49:33Z</time>
      </trkpt>
      <trkpt lat="49.23793" lon="1.1474">
        <ele>112.6</ele>
        <time>2018-09-16T06:49:35Z</time>
      </trkpt>
      <trkpt lat="49.23781" lon="1.14745">
        <ele>112.1</ele>
        <time>2018-09-16T06:49:37Z</time>
      </trkpt>
      <trkpt lat="49.2377" lon="1.14749">
        <ele>111.7</ele>
        <time>2018-09-16T06:49:39Z</time>
      </trkpt>
      <trkpt lat="49.23757" lon="1.14755">
        <ele>111.1</ele>
        <time>2018-09-16T06:49:41Z</time>
      </trkpt>
      <trkpt lat="49.23746" lon="1.14763">
        <ele>110.5</ele>
        <time>2018-09-16T06:49:43Z</time>
      </trkpt>
      <trkpt lat="49.2374" lon="1.14775">
        <ele>110</ele>
        <time>2018-09-16T06:49:45Z</time>
      </trkpt>
      <trkpt lat="49.23739" lon="1.14789">
        <ele>109.6</ele>
        <time>2018-09-16T06:49:47Z</time>
      </trkpt>
      <trkpt lat="49.23738" lon="1.14806">
        <ele>109.2</ele>
        <time>2018-09-16T06:49:49Z</time>
      </trkpt>
      <trkpt lat="49.23738" lon="1.14823">
        <ele>109</ele>
        <time>2018-09-16T06:49:51Z</time>
      </trkpt>
      <trkpt lat="49.23736" lon="1.1484">
        <ele>108.4</ele>
        <time>2018-09-16T06:49:53Z</time>
      </trkpt>
      <trkpt lat="49.23731" lon="1.14856">
        <ele>108.1</ele>
        <time>2018-09-16T06:49:55Z</time>
      </trkpt>
      <trkpt lat="49.23726" lon="1.14872">
        <ele>107.8</ele>
        <time>2018-09-16T06:49:57Z</time>
      </trkpt>
      <trkpt lat="49.23722" lon="1.14886">
        <ele>107.6</ele>
        <time>2018-09-16T06:49:59Z</time>
      </trkpt>
      <trkpt lat="49.23715" lon="1.14898">
        <ele>107.2</ele>
        <time>2018-09-16T06:50:02Z</time>
      </trkpt>
      <trkpt lat="49.23704" lon="1.149">
        <ele>106.3</ele>
        <time>2018-09-16T06:50:05Z</time>
      </trkpt>
      <trkpt lat="49.23691" lon="1.149">
        <ele>106</ele>
        <time>2018-09-16T06:50:08Z</time>
      </trkpt>
      <trkpt lat="49.2368" lon="1.14902">
        <ele>106.5</ele>
        <time>2018-09-16T06:50:11Z</time>
      </trkpt>
      <trkpt lat="49.2367" lon="1.14902">
        <ele>107.5</ele>
        <time>2018-09-16T06:50:14Z</time>
      </trkpt>
      <trkpt lat="49.23661" lon="1.14902">
        <ele>108.5</ele>
        <time>2018-09-16T06:50:17Z</time>
      </trkpt>
      <trkpt lat="49.23649" lon="1.14899">
        <ele>109.3</ele>
        <time>2018-09-16T06:50:20Z</time>
      </trkpt>
      <trkpt lat="49.23636" lon="1.14895">
        <ele>109.9</ele>
        <time>2018-09-16T06:50:23Z</time>
      </trkpt>
      <trkpt lat="49.23626" lon="1.14892">
        <ele>110.3</ele>
        <time>2018-09-16T06:50:25Z</time>
      </trkpt>
      <trkpt lat="49.23617" lon="1.14889">
        <ele>110.5</ele>
        <time>2018-09-16T06:50:27Z</time>
      </trkpt>
      <trkpt lat="49.23608" lon="1.14886">
        <ele>110.7</ele>
        <time>2018-09-16T06:50:29Z</time>
      </trkpt>
      <trkpt lat="49.23596" lon="1.14882">
        <ele>111</ele>
        <time>2018-09-16T06:50:32Z</time>
      </trkpt>
      <trkpt lat="49.23587" lon="1.14876">
        <ele>111.3</ele>
        <time>2018-09-16T06:50:34Z</time>
      </trkpt>
      <trkpt lat="49.23576" lon="1.14872">
        <ele>111.6</ele>
        <time>2018-09-16T06:50:37Z</time>
      </trkpt>
      <trkpt lat="49.23564" lon="1.14865">
        <ele>112</ele>
        <time>2018-09-16T06:50:40Z</time>
      </trkpt>
      <trkpt lat="49.23554" lon="1.14861">
        <ele>112.6</ele>
        <time>2018-09-16T06:50:43Z</time>
      </trkpt>
      <trkpt lat="49.23541" lon="1.14857">
        <ele>113</ele>
        <time>2018-09-16T06:50:47Z</time>
      </trkpt>
      <trkpt lat="49.23528" lon="1.14851">
        <ele>113.2</ele>
        <time>2018-09-16T06:50:50Z</time>
      </trkpt>
      <trkpt lat="49.23518" lon="1.14847">
        <ele>113.3</ele>
        <time>2018-09-16T06:50:52Z</time>
      </trkpt>
      <trkpt lat="49.23506" lon="1.14842">
        <ele>113.6</ele>
        <time>2018-09-16T06:50:55Z</time>
      </trkpt>
      <trkpt lat="49.23493" lon="1.14836">
        <ele>113.8</ele>
        <time>2018-09-16T06:50:58Z</time>
      </trkpt>
      <trkpt lat="49.23483" lon="1.14831">
        <ele>113.9</ele>
        <time>2018-09-16T06:51:00Z</time>
      </trkpt>
      <trkpt lat="49.23474" lon="1.14828">
        <ele>114.2</ele>
        <time>2018-09-16T06:51:02Z</time>
      </trkpt>
      <trkpt lat="49.23465" lon="1.14824">
        <ele>114.4</ele>
        <time>2018-09-16T06:51:04Z</time>
      </trkpt>
      <trkpt lat="49.23452" lon="1.14818">
        <ele>114.6</ele>
        <time>2018-09-16T06:51:07Z</time>
      </trkpt>
      <trkpt lat="49.23442" lon="1.14814">
        <ele>114.8</ele>
        <time>2018-09-16T06:51:09Z</time>
      </trkpt>
      <trkpt lat="49.23432" lon="1.1481">
        <ele>115.1</ele>
        <time>2018-09-16T06:51:11Z</time>
      </trkpt>
      <trkpt lat="49.23423" lon="1.14806">
        <ele>115.3</ele>
        <time>2018-09-16T06:51:13Z</time>
      </trkpt>
      <trkpt lat="49.23411" lon="1.14801">
        <ele>115.7</ele>
        <time>2018-09-16T06:51:16Z</time>
      </trkpt>
      <trkpt lat="49.23399" lon="1.14796">
        <ele>116.1</ele>
        <time>2018-09-16T06:51:19Z</time>
      </trkpt>
      <trkpt lat="49.23391" lon="1.14791">
        <ele>116.3</ele>
        <time>2018-09-16T06:51:21Z</time>
      </trkpt>
      <trkpt lat="49.23381" lon="1.14787">
        <ele>116.6</ele>
        <time>2018-09-16T06:51:23Z</time>
      </trkpt>
      <trkpt lat="49.23371" lon="1.14784">
        <ele>116.9</ele>
        <time>2018-09-16T06:51:26Z</time>
      </trkpt>
      <trkpt lat="49.23362" lon="1.1478">
        <ele>117</ele>
        <time>2018-09-16T06:51:28Z</time>
      </trkpt>
      <trkpt lat="49.23353" lon="1.14777">
        <ele>117</ele>
        <time>2018-09-16T06:51:30Z</time>
      </trkpt>
      <trkpt lat="49.23339" lon="1.14772">
        <ele>117</ele>
        <time>2018-09-16T06:51:33Z</time>
      </trkpt>
      <trkpt lat="49.23328" lon="1.14766">
        <ele>116.7</ele>
        <time>2018-09-16T06:51:35Z</time>
      </trkpt>
      <trkpt lat="49.23317" lon="1.14761">
        <ele>116.9</ele>
        <time>2018-09-16T06:51:37Z</time>
      </trkpt>
      <trkpt lat="49.23306" lon="1.14755">
        <ele>116.8</ele>
        <time>2018-09-16T06:51:39Z</time>
      </trkpt>
      <trkpt lat="49.23296" lon="1.14752">
        <ele>117</ele>
        <time>2018-09-16T06:51:41Z</time>
      </trkpt>
      <trkpt lat="49.23286" lon="1.14746">
        <ele>117</ele>
        <time>2018-09-16T06:51:43Z</time>
      </trkpt>
      <trkpt lat="49.23275" lon="1.14741">
        <ele>117.1</ele>
        <time>2018-09-16T06:51:45Z</time>
      </trkpt>
      <trkpt lat="49.23266" lon="1.14736">
        <ele>117.2</ele>
        <time>2018-09-16T06:51:47Z</time>
      </trkpt>
      <trkpt lat="49.23251" lon="1.1473">
        <ele>117.4</ele>
        <time>2018-09-16T06:51:50Z</time>
      </trkpt>
      <trkpt lat="49.23237" lon="1.14723">
        <ele>117.9</ele>
        <time>2018-09-16T06:51:53Z</time>
      </trkpt>
      <trkpt lat="49.23228" lon="1.14719">
        <ele>117.9</ele>
        <time>2018-09-16T06:51:55Z</time>
      </trkpt>
      <trkpt lat="49.23218" lon="1.14713">
        <ele>118.1</ele>
        <time>2018-09-16T06:51:57Z</time>
      </trkpt>
      <trkpt lat="49.23209" lon="1.14709">
        <ele>118.2</ele>
        <time>2018-09-16T06:51:59Z</time>
      </trkpt>
      <trkpt lat="49.23197" lon="1.14712">
        <ele>118.2</ele>
        <time>2018-09-16T06:52:02Z</time>
      </trkpt>
      <trkpt lat="49.23188" lon="1.14725">
        <ele>118.3</ele>
        <time>2018-09-16T06:52:05Z</time>
      </trkpt>
      <trkpt lat="49.2318" lon="1.14735">
        <ele>118.2</ele>
        <time>2018-09-16T06:52:07Z</time>
      </trkpt>
      <trkpt lat="49.23174" lon="1.14747">
        <ele>118.1</ele>
        <time>2018-09-16T06:52:09Z</time>
      </trkpt>
      <trkpt lat="49.23166" lon="1.14759">
        <ele>118.2</ele>
        <time>2018-09-16T06:52:11Z</time>
      </trkpt>
      <trkpt lat="49.23159" lon="1.14771">
        <ele>118.2</ele>
        <time>2018-09-16T06:52:13Z</time>
      </trkpt>
      <trkpt lat="49.23152" lon="1.14783">
        <ele>118.2</ele>
        <time>2018-09-16T06:52:15Z</time>
      </trkpt>
      <trkpt lat="49.23146" lon="1.14796">
        <ele>117.9</ele>
        <time>2018-09-16T06:52:17Z</time>
      </trkpt>
      <trkpt lat="49.23139" lon="1.14809">
        <ele>117.7</ele>
        <time>2018-09-16T06:52:19Z</time>
      </trkpt>
      <trkpt lat="49.23132" lon="1.14822">
        <ele>117.5</ele>
        <time>2018-09-16T06:52:21Z</time>
      </trkpt>
      <trkpt lat="49.23125" lon="1.14835">
        <ele>117.4</ele>
        <time>2018-09-16T06:52:23Z</time>
      </trkpt>
      <trkpt lat="49.23118" lon="1.14847">
        <ele>117.5</ele>
        <time>2018-09-16T06:52:25Z</time>
      </trkpt>
      <trkpt lat="49.23111" lon="1.14861">
        <ele>117.5</ele>
        <time>2018-09-16T06:52:27Z</time>
      </trkpt>
      <trkpt lat="49.23105" lon="1.14875">
        <ele>117.5</ele>
        <time>2018-09-16T06:52:29Z</time>
      </trkpt>
      <trkpt lat="49.23098" lon="1.14889">
        <ele>117.4</ele>
        <time>2018-09-16T06:52:31Z</time>
      </trkpt>
      <trkpt lat="49.23093" lon="1.14905">
        <ele>117.1</ele>
        <time>2018-09-16T06:52:33Z</time>
      </trkpt>
      <trkpt lat="49.23087" lon="1.1492">
        <ele>116.7</ele>
        <time>2018-09-16T06:52:35Z</time>
      </trkpt>
      <trkpt lat="49.2308" lon="1.14936">
        <ele>116.3</ele>
        <time>2018-09-16T06:52:37Z</time>
      </trkpt>
      <trkpt lat="49.23074" lon="1.14953">
        <ele>115.9</ele>
        <time>2018-09-16T06:52:39Z</time>
      </trkpt>
      <trkpt lat="49.23066" lon="1.14969">
        <ele>115.3</ele>
        <time>2018-09-16T06:52:41Z</time>
      </trkpt>
      <trkpt lat="49.2306" lon="1.14986">
        <ele>114.9</ele>
        <time>2018-09-16T06:52:43Z</time>
      </trkpt>
      <trkpt lat="49.23052" lon="1.15002">
        <ele>114.4</ele>
        <time>2018-09-16T06:52:45Z</time>
      </trkpt>
      <trkpt lat="49.23045" lon="1.15018">
        <ele>114</ele>
        <time>2018-09-16T06:52:47Z</time>
      </trkpt>
      <trkpt lat="49.23036" lon="1.15037">
        <ele>113.4</ele>
        <time>2018-09-16T06:52:49Z</time>
      </trkpt>
      <trkpt lat="49.23028" lon="1.15057">
        <ele>112.4</ele>
        <time>2018-09-16T06:52:51Z</time>
      </trkpt>
      <trkpt lat="49.2302" lon="1.15075">
        <ele>111.1</ele>
        <time>2018-09-16T06:52:53Z</time>
      </trkpt>
      <trkpt lat="49.23011" lon="1.15097">
        <ele>110.1</ele>
        <time>2018-09-16T06:52:55Z</time>
      </trkpt>
      <trkpt lat="49.23007" lon="1.15109">
        <ele>109.3</ele>
        <time>2018-09-16T06:52:56Z</time>
      </trkpt>
      <trkpt lat="49.23002" lon="1.15121">
        <ele>108.7</ele>
        <time>2018-09-16T06:52:57Z</time>
      </trkpt>
      <trkpt lat="49.22997" lon="1.15134">
        <ele>107.9</ele>
        <time>2018-09-16T06:52:58Z</time>
      </trkpt>
      <trkpt lat="49.22992" lon="1.15146">
        <ele>107.2</ele>
        <time>2018-09-16T06:52:59Z</time>
      </trkpt>
      <trkpt lat="49.22987" lon="1.15158">
        <ele>106</ele>
        <time>2018-09-16T06:53:00Z</time>
      </trkpt>
      <trkpt lat="49.22981" lon="1.1517">
        <ele>104.9</ele>
        <time>2018-09-16T06:53:01Z</time>
      </trkpt>
      <trkpt lat="49.22977" lon="1.15183">
        <ele>104.2</ele>
        <time>2018-09-16T06:53:02Z</time>
      </trkpt>
      <trkpt lat="49.22974" lon="1.15198">
        <ele>103.3</ele>
        <time>2018-09-16T06:53:03Z</time>
      </trkpt>
      <trkpt lat="49.22971" lon="1.15213">
        <ele>102.3</ele>
        <time>2018-09-16T06:53:04Z</time>
      </trkpt>
      <trkpt lat="49.22967" lon="1.15227">
        <ele>101.4</ele>
        <time>2018-09-16T06:53:05Z</time>
      </trkpt>
      <trkpt lat="49.22962" lon="1.15239">
        <ele>100.3</ele>
        <time>2018-09-16T06:53:06Z</time>
      </trkpt>
      <trkpt lat="49.22954" lon="1.15262">
        <ele>97.6</ele>
        <time>2018-09-16T06:53:08Z</time>
      </trkpt>
      <trkpt lat="49.2295" lon="1.15275">
        <ele>96.4</ele>
        <time>2018-09-16T06:53:09Z</time>
      </trkpt>
      <trkpt lat="49.22945" lon="1.15287">
        <ele>94.9</ele>
        <time>2018-09-16T06:53:10Z</time>
      </trkpt>
      <trkpt lat="49.2294" lon="1.15299">
        <ele>93.4</ele>
        <time>2018-09-16T06:53:11Z</time>
      </trkpt>
      <trkpt lat="49.22935" lon="1.15311">
        <ele>91.9</ele>
        <time>2018-09-16T06:53:12Z</time>
      </trkpt>
      <trkpt lat="49.22928" lon="1.15322">
        <ele>90.8</ele>
        <time>2018-09-16T06:53:13Z</time>
      </trkpt>
      <trkpt lat="49.22921" lon="1.15333">
        <ele>89.7</ele>
        <time>2018-09-16T06:53:14Z</time>
      </trkpt>
      <trkpt lat="49.22909" lon="1.15353">
        <ele>87.5</ele>
        <time>2018-09-16T06:53:16Z</time>
      </trkpt>
      <trkpt lat="49.22897" lon="1.15373">
        <ele>85.2</ele>
        <time>2018-09-16T06:53:18Z</time>
      </trkpt>
      <trkpt lat="49.22887" lon="1.15384">
        <ele>82.5</ele>
        <time>2018-09-16T06:53:20Z</time>
      </trkpt>
      <trkpt lat="49.22885" lon="1.15398">
        <ele>76</ele>
        <time>2018-09-16T06:53:28Z</time>
      </trkpt>
      <trkpt lat="49.22889" lon="1.1541">
        <ele>77.6</ele>
        <time>2018-09-16T06:53:38Z</time>
      </trkpt>
      <trkpt lat="49.22896" lon="1.15419">
        <ele>82.6</ele>
        <time>2018-09-16T06:53:58Z</time>
      </trkpt>
      <trkpt lat="49.22905" lon="1.15424">
        <ele>85.3</ele>
        <time>2018-09-16T06:54:16Z</time>
      </trkpt>
      <trkpt lat="49.22915" lon="1.15428">
        <ele>88</ele>
        <time>2018-09-16T06:54:25Z</time>
      </trkpt>
      <trkpt lat="49.22924" lon="1.15432">
        <ele>90.8</ele>
        <time>2018-09-16T06:54:35Z</time>
      </trkpt>
      <trkpt lat="49.22934" lon="1.15436">
        <ele>93</ele>
        <time>2018-09-16T06:54:43Z</time>
      </trkpt>
      <trkpt lat="49.22943" lon="1.15441">
        <ele>95.3</ele>
        <time>2018-09-16T06:54:51Z</time>
      </trkpt>
      <trkpt lat="49.22952" lon="1.15445">
        <ele>96.7</ele>
        <time>2018-09-16T06:54:58Z</time>
      </trkpt>
      <trkpt lat="49.22961" lon="1.15449">
        <ele>98.8</ele>
        <time>2018-09-16T06:55:07Z</time>
      </trkpt>
      <trkpt lat="49.2297" lon="1.15453">
        <ele>100.4</ele>
        <time>2018-09-16T06:55:16Z</time>
      </trkpt>
      <trkpt lat="49.2298" lon="1.1546">
        <ele>101.7</ele>
        <time>2018-09-16T06:55:25Z</time>
      </trkpt>
      <trkpt lat="49.22989" lon="1.15464">
        <ele>102.8</ele>
        <time>2018-09-16T06:55:30Z</time>
      </trkpt>
      <trkpt lat="49.22998" lon="1.15471">
        <ele>103.8</ele>
        <time>2018-09-16T06:55:34Z</time>
      </trkpt>
      <trkpt lat="49.23007" lon="1.15474">
        <ele>104.8</ele>
        <time>2018-09-16T06:55:39Z</time>
      </trkpt>
      <trkpt lat="49.23016" lon="1.15478">
        <ele>105.8</ele>
        <time>2018-09-16T06:55:44Z</time>
      </trkpt>
      <trkpt lat="49.23026" lon="1.15484">
        <ele>106.7</ele>
        <time>2018-09-16T06:55:49Z</time>
      </trkpt>
      <trkpt lat="49.23035" lon="1.15486">
        <ele>106.9</ele>
        <time>2018-09-16T06:55:53Z</time>
      </trkpt>
      <trkpt lat="49.23045" lon="1.1549">
        <ele>107.4</ele>
        <time>2018-09-16T06:55:56Z</time>
      </trkpt>
      <trkpt lat="49.23055" lon="1.15494">
        <ele>107.9</ele>
        <time>2018-09-16T06:56:00Z</time>
      </trkpt>
      <trkpt lat="49.23064" lon="1.15499">
        <ele>108.2</ele>
        <time>2018-09-16T06:56:03Z</time>
      </trkpt>
      <trkpt lat="49.23076" lon="1.15505">
        <ele>108.4</ele>
        <time>2018-09-16T06:56:07Z</time>
      </trkpt>
      <trkpt lat="49.23085" lon="1.15511">
        <ele>108.5</ele>
        <time>2018-09-16T06:56:10Z</time>
      </trkpt>
      <trkpt lat="49.23097" lon="1.15516">
        <ele>108.8</ele>
        <time>2018-09-16T06:56:13Z</time>
      </trkpt>
      <trkpt lat="49.23108" lon="1.15521">
        <ele>108.9</ele>
        <time>2018-09-16T06:56:15Z</time>
      </trkpt>
      <trkpt lat="49.23118" lon="1.15526">
        <ele>109</ele>
        <time>2018-09-16T06:56:17Z</time>
      </trkpt>
      <trkpt lat="49.23127" lon="1.1553">
        <ele>109.1</ele>
        <time>2018-09-16T06:56:19Z</time>
      </trkpt>
      <trkpt lat="49.23139" lon="1.15534">
        <ele>109</ele>
        <time>2018-09-16T06:56:22Z</time>
      </trkpt>
      <trkpt lat="49.23147" lon="1.1554">
        <ele>108.8</ele>
        <time>2018-09-16T06:56:24Z</time>
      </trkpt>
      <trkpt lat="49.23158" lon="1.15545">
        <ele>108.5</ele>
        <time>2018-09-16T06:56:26Z</time>
      </trkpt>
      <trkpt lat="49.23168" lon="1.15548">
        <ele>108.3</ele>
        <time>2018-09-16T06:56:28Z</time>
      </trkpt>
      <trkpt lat="49.23178" lon="1.15553">
        <ele>108.2</ele>
        <time>2018-09-16T06:56:30Z</time>
      </trkpt>
      <trkpt lat="49.23188" lon="1.15559">
        <ele>108.1</ele>
        <time>2018-09-16T06:56:32Z</time>
      </trkpt>
      <trkpt lat="49.23198" lon="1.15562">
        <ele>108</ele>
        <time>2018-09-16T06:56:34Z</time>
      </trkpt>
      <trkpt lat="49.23211" lon="1.15568">
        <ele>107.9</ele>
        <time>2018-09-16T06:56:36Z</time>
      </trkpt>
      <trkpt lat="49.23221" lon="1.15573">
        <ele>107.9</ele>
        <time>2018-09-16T06:56:38Z</time>
      </trkpt>
      <trkpt lat="49.23234" lon="1.15577">
        <ele>107.7</ele>
        <time>2018-09-16T06:56:41Z</time>
      </trkpt>
      <trkpt lat="49.23246" lon="1.15584">
        <ele>107.4</ele>
        <time>2018-09-16T06:56:44Z</time>
      </trkpt>
      <trkpt lat="49.23256" lon="1.15588">
        <ele>107.2</ele>
        <time>2018-09-16T06:56:46Z</time>
      </trkpt>
      <trkpt lat="49.23266" lon="1.15592">
        <ele>106.9</ele>
        <time>2018-09-16T06:56:48Z</time>
      </trkpt>
      <trkpt lat="49.23276" lon="1.15599">
        <ele>106.4</ele>
        <time>2018-09-16T06:56:50Z</time>
      </trkpt>
      <trkpt lat="49.23287" lon="1.15605">
        <ele>105.8</ele>
        <time>2018-09-16T06:56:52Z</time>
      </trkpt>
      <trkpt lat="49.23299" lon="1.15613">
        <ele>104.9</ele>
        <time>2018-09-16T06:56:54Z</time>
      </trkpt>
      <trkpt lat="49.23307" lon="1.15624">
        <ele>104.1</ele>
        <time>2018-09-16T06:56:56Z</time>
      </trkpt>
      <trkpt lat="49.23306" lon="1.15645">
        <ele>103</ele>
        <time>2018-09-16T06:56:59Z</time>
      </trkpt>
      <trkpt lat="49.23303" lon="1.15663">
        <ele>102.4</ele>
        <time>2018-09-16T06:57:01Z</time>
      </trkpt>
      <trkpt lat="49.23301" lon="1.15682">
        <ele>101.9</ele>
        <time>2018-09-16T06:57:03Z</time>
      </trkpt>
      <trkpt lat="49.23299" lon="1.15701">
        <ele>101.1</ele>
        <time>2018-09-16T06:57:05Z</time>
      </trkpt>
      <trkpt lat="49.23297" lon="1.15719">
        <ele>100.7</ele>
        <time>2018-09-16T06:57:07Z</time>
      </trkpt>
      <trkpt lat="49.23296" lon="1.15737">
        <ele>100</ele>
        <time>2018-09-16T06:57:09Z</time>
      </trkpt>
      <trkpt lat="49.23296" lon="1.15757">
        <ele>99.4</ele>
        <time>2018-09-16T06:57:11Z</time>
      </trkpt>
      <trkpt lat="49.23295" lon="1.1578">
        <ele>98.7</ele>
        <time>2018-09-16T06:57:13Z</time>
      </trkpt>
      <trkpt lat="49.23297" lon="1.15803">
        <ele>97.9</ele>
        <time>2018-09-16T06:57:15Z</time>
      </trkpt>
      <trkpt lat="49.23297" lon="1.15827">
        <ele>96.7</ele>
        <time>2018-09-16T06:57:17Z</time>
      </trkpt>
      <trkpt lat="49.23299" lon="1.15853">
        <ele>95.5</ele>
        <time>2018-09-16T06:57:19Z</time>
      </trkpt>
      <trkpt lat="49.23299" lon="1.15867">
        <ele>94.8</ele>
        <time>2018-09-16T06:57:20Z</time>
      </trkpt>
      <trkpt lat="49.23301" lon="1.15881">
        <ele>94</ele>
        <time>2018-09-16T06:57:21Z</time>
      </trkpt>
      <trkpt lat="49.23306" lon="1.15906">
        <ele>92.5</ele>
        <time>2018-09-16T06:57:23Z</time>
      </trkpt>
      <trkpt lat="49.23315" lon="1.15931">
        <ele>91.2</ele>
        <time>2018-09-16T06:57:25Z</time>
      </trkpt>
      <trkpt lat="49.2332" lon="1.15944">
        <ele>90.4</ele>
        <time>2018-09-16T06:57:26Z</time>
      </trkpt>
      <trkpt lat="49.23324" lon="1.15957">
        <ele>89.7</ele>
        <time>2018-09-16T06:57:27Z</time>
      </trkpt>
      <trkpt lat="49.23329" lon="1.15982">
        <ele>88.1</ele>
        <time>2018-09-16T06:57:29Z</time>
      </trkpt>
      <trkpt lat="49.2333" lon="1.16006">
        <ele>86.9</ele>
        <time>2018-09-16T06:57:31Z</time>
      </trkpt>
      <trkpt lat="49.23323" lon="1.16026">
        <ele>85.6</ele>
        <time>2018-09-16T06:57:33Z</time>
      </trkpt>
      <trkpt lat="49.23313" lon="1.16045">
        <ele>83.9</ele>
        <time>2018-09-16T06:57:35Z</time>
      </trkpt>
      <trkpt lat="49.23302" lon="1.1606">
        <ele>82.7</ele>
        <time>2018-09-16T06:57:37Z</time>
      </trkpt>
      <trkpt lat="49.23289" lon="1.16071">
        <ele>81.5</ele>
        <time>2018-09-16T06:57:39Z</time>
      </trkpt>
      <trkpt lat="49.23276" lon="1.16081">
        <ele>80.1</ele>
        <time>2018-09-16T06:57:41Z</time>
      </trkpt>
      <trkpt lat="49.2326" lon="1.16087">
        <ele>78.7</ele>
        <time>2018-09-16T06:57:43Z</time>
      </trkpt>
      <trkpt lat="49.23245" lon="1.16097">
        <ele>77.1</ele>
        <time>2018-09-16T06:57:45Z</time>
      </trkpt>
      <trkpt lat="49.23236" lon="1.16103">
        <ele>76.5</ele>
        <time>2018-09-16T06:57:46Z</time>
      </trkpt>
      <trkpt lat="49.23227" lon="1.16108">
        <ele>76</ele>
        <time>2018-09-16T06:57:47Z</time>
      </trkpt>
      <trkpt lat="49.23218" lon="1.16113">
        <ele>75.4</ele>
        <time>2018-09-16T06:57:48Z</time>
      </trkpt>
      <trkpt lat="49.23209" lon="1.16118">
        <ele>74.5</ele>
        <time>2018-09-16T06:57:49Z</time>
      </trkpt>
      <trkpt lat="49.23201" lon="1.16124">
        <ele>73.8</ele>
        <time>2018-09-16T06:57:50Z</time>
      </trkpt>
      <trkpt lat="49.23184" lon="1.16132">
        <ele>72.3</ele>
        <time>2018-09-16T06:57:52Z</time>
      </trkpt>
      <trkpt lat="49.23174" lon="1.16137">
        <ele>71.6</ele>
        <time>2018-09-16T06:57:53Z</time>
      </trkpt>
      <trkpt lat="49.23157" lon="1.16146">
        <ele>69.8</ele>
        <time>2018-09-16T06:57:55Z</time>
      </trkpt>
      <trkpt lat="49.2314" lon="1.16152">
        <ele>68.4</ele>
        <time>2018-09-16T06:57:57Z</time>
      </trkpt>
      <trkpt lat="49.23124" lon="1.16154">
        <ele>67.2</ele>
        <time>2018-09-16T06:57:59Z</time>
      </trkpt>
      <trkpt lat="49.23107" lon="1.16155">
        <ele>65.3</ele>
        <time>2018-09-16T06:58:01Z</time>
      </trkpt>
      <trkpt lat="49.23097" lon="1.16151">
        <ele>64.4</ele>
        <time>2018-09-16T06:58:02Z</time>
      </trkpt>
      <trkpt lat="49.23081" lon="1.16143">
        <ele>62.3</ele>
        <time>2018-09-16T06:58:04Z</time>
      </trkpt>
      <trkpt lat="49.23065" lon="1.16132">
        <ele>60.6</ele>
        <time>2018-09-16T06:58:06Z</time>
      </trkpt>
      <trkpt lat="49.23048" lon="1.1612">
        <ele>59.2</ele>
        <time>2018-09-16T06:58:08Z</time>
      </trkpt>
      <trkpt lat="49.2304" lon="1.16114">
        <ele>58.6</ele>
        <time>2018-09-16T06:58:09Z</time>
      </trkpt>
      <trkpt lat="49.23031" lon="1.16109">
        <ele>57.5</ele>
        <time>2018-09-16T06:58:10Z</time>
      </trkpt>
      <trkpt lat="49.23023" lon="1.16102">
        <ele>56.8</ele>
        <time>2018-09-16T06:58:11Z</time>
      </trkpt>
      <trkpt lat="49.23015" lon="1.16096">
        <ele>56.2</ele>
        <time>2018-09-16T06:58:12Z</time>
      </trkpt>
      <trkpt lat="49.23006" lon="1.16089">
        <ele>55.3</ele>
        <time>2018-09-16T06:58:13Z</time>
      </trkpt>
      <trkpt lat="49.22991" lon="1.16076">
        <ele>53.9</ele>
        <time>2018-09-16T06:58:15Z</time>
      </trkpt>
      <trkpt lat="49.22977" lon="1.16067">
        <ele>52.3</ele>
        <time>2018-09-16T06:58:17Z</time>
      </trkpt>
      <trkpt lat="49.22968" lon="1.16062">
        <ele>50.8</ele>
        <time>2018-09-16T06:58:19Z</time>
      </trkpt>
      <trkpt lat="49.22958" lon="1.16055">
        <ele>48.5</ele>
        <time>2018-09-16T06:58:22Z</time>
      </trkpt>
      <trkpt lat="49.22949" lon="1.16051">
        <ele>46.9</ele>
        <time>2018-09-16T06:58:26Z</time>
      </trkpt>
      <trkpt lat="49.22941" lon="1.16043">
        <ele>45.6</ele>
        <time>2018-09-16T06:58:31Z</time>
      </trkpt>
      <trkpt lat="49.2294" lon="1.1606">
        <ele>44.3</ele>
        <time>2018-09-16T06:58:40Z</time>
      </trkpt>
      <trkpt lat="49.22945" lon="1.16075">
        <ele>44</ele>
        <time>2018-09-16T06:58:43Z</time>
      </trkpt>
      <trkpt lat="49.2295" lon="1.16091">
        <ele>43.6</ele>
        <time>2018-09-16T06:58:46Z</time>
      </trkpt>
      <trkpt lat="49.22959" lon="1.16107">
        <ele>43.1</ele>
        <time>2018-09-16T06:58:49Z</time>
      </trkpt>
      <trkpt lat="49.22965" lon="1.1612">
        <ele>42.7</ele>
        <time>2018-09-16T06:58:51Z</time>
      </trkpt>
      <trkpt lat="49.22972" lon="1.16134">
        <ele>42.3</ele>
        <time>2018-09-16T06:58:53Z</time>
      </trkpt>
      <trkpt lat="49.22979" lon="1.16145">
        <ele>41.8</ele>
        <time>2018-09-16T06:58:55Z</time>
      </trkpt>
      <trkpt lat="49.22988" lon="1.16158">
        <ele>41.4</ele>
        <time>2018-09-16T06:58:57Z</time>
      </trkpt>
      <trkpt lat="49.22997" lon="1.16173">
        <ele>41.1</ele>
        <time>2018-09-16T06:58:59Z</time>
      </trkpt>
      <trkpt lat="49.23007" lon="1.16189">
        <ele>40.3</ele>
        <time>2018-09-16T06:59:01Z</time>
      </trkpt>
      <trkpt lat="49.23017" lon="1.16199">
        <ele>39.8</ele>
        <time>2018-09-16T06:59:03Z</time>
      </trkpt>
      <trkpt lat="49.23026" lon="1.16206">
        <ele>39.4</ele>
        <time>2018-09-16T06:59:05Z</time>
      </trkpt>
      <trkpt lat="49.23035" lon="1.16212">
        <ele>39.4</ele>
        <time>2018-09-16T06:59:07Z</time>
      </trkpt>
      <trkpt lat="49.23045" lon="1.16219">
        <ele>39.7</ele>
        <time>2018-09-16T06:59:10Z</time>
      </trkpt>
      <trkpt lat="49.23057" lon="1.16228">
        <ele>40.3</ele>
        <time>2018-09-16T06:59:13Z</time>
      </trkpt>
      <trkpt lat="49.23067" lon="1.16236">
        <ele>41.1</ele>
        <time>2018-09-16T06:59:16Z</time>
      </trkpt>
      <trkpt lat="49.23078" lon="1.16244">
        <ele>41.9</ele>
        <time>2018-09-16T06:59:19Z</time>
      </trkpt>
      <trkpt lat="49.23089" lon="1.16249">
        <ele>42.5</ele>
        <time>2018-09-16T06:59:22Z</time>
      </trkpt>
      <trkpt lat="49.23099" lon="1.16252">
        <ele>43.4</ele>
        <time>2018-09-16T06:59:25Z</time>
      </trkpt>
      <trkpt lat="49.23109" lon="1.16254">
        <ele>44.4</ele>
        <time>2018-09-16T06:59:28Z</time>
      </trkpt>
      <trkpt lat="49.2312" lon="1.1626">
        <ele>45.6</ele>
        <time>2018-09-16T06:59:32Z</time>
      </trkpt>
      <trkpt lat="49.23131" lon="1.16272">
        <ele>46.3</ele>
        <time>2018-09-16T06:59:35Z</time>
      </trkpt>
      <trkpt lat="49.2314" lon="1.16283">
        <ele>46.5</ele>
        <time>2018-09-16T06:59:38Z</time>
      </trkpt>
      <trkpt lat="49.23149" lon="1.16289">
        <ele>46.4</ele>
        <time>2018-09-16T06:59:40Z</time>
      </trkpt>
      <trkpt lat="49.23161" lon="1.16293">
        <ele>46.5</ele>
        <time>2018-09-16T06:59:43Z</time>
      </trkpt>
      <trkpt lat="49.2317" lon="1.16298">
        <ele>46.5</ele>
        <time>2018-09-16T06:59:45Z</time>
      </trkpt>
      <trkpt lat="49.23179" lon="1.16305">
        <ele>46.4</ele>
        <time>2018-09-16T06:59:47Z</time>
      </trkpt>
      <trkpt lat="49.23186" lon="1.16315">
        <ele>46.3</ele>
        <time>2018-09-16T06:59:49Z</time>
      </trkpt>
      <trkpt lat="49.23193" lon="1.16323">
        <ele>46.2</ele>
        <time>2018-09-16T06:59:51Z</time>
      </trkpt>
      <trkpt lat="49.23203" lon="1.16328">
        <ele>45.7</ele>
        <time>2018-09-16T06:59:53Z</time>
      </trkpt>
      <trkpt lat="49.23213" lon="1.16333">
        <ele>45.3</ele>
        <time>2018-09-16T06:59:55Z</time>
      </trkpt>
      <trkpt lat="49.23223" lon="1.16341">
        <ele>45.1</ele>
        <time>2018-09-16T06:59:57Z</time>
      </trkpt>
      <trkpt lat="49.23233" lon="1.1635">
        <ele>44.8</ele>
        <time>2018-09-16T06:59:59Z</time>
      </trkpt>
      <trkpt lat="49.23244" lon="1.16353">
        <ele>44.6</ele>
        <time>2018-09-16T07:00:01Z</time>
      </trkpt>
      <trkpt lat="49.23254" lon="1.16351">
        <ele>44.7</ele>
        <time>2018-09-16T07:00:03Z</time>
      </trkpt>
      <trkpt lat="49.23265" lon="1.16348">
        <ele>45.4</ele>
        <time>2018-09-16T07:00:06Z</time>
      </trkpt>
      <trkpt lat="49.23276" lon="1.16347">
        <ele>46.2</ele>
        <time>2018-09-16T07:00:09Z</time>
      </trkpt>
      <trkpt lat="49.2329" lon="1.16352">
        <ele>46.9</ele>
        <time>2018-09-16T07:00:12Z</time>
      </trkpt>
      <trkpt lat="49.233" lon="1.16353">
        <ele>47.5</ele>
        <time>2018-09-16T07:00:15Z</time>
      </trkpt>
      <trkpt lat="49.23311" lon="1.16357">
        <ele>48</ele>
        <time>2018-09-16T07:00:18Z</time>
      </trkpt>
      <trkpt lat="49.23321" lon="1.16357">
        <ele>48.3</ele>
        <time>2018-09-16T07:00:20Z</time>
      </trkpt>
      <trkpt lat="49.23333" lon="1.16354">
        <ele>48.7</ele>
        <time>2018-09-16T07:00:23Z</time>
      </trkpt>
      <trkpt lat="49.23342" lon="1.16359">
        <ele>49.1</ele>
        <time>2018-09-16T07:00:25Z</time>
      </trkpt>
      <trkpt lat="49.23352" lon="1.16363">
        <ele>49.3</ele>
        <time>2018-09-16T07:00:27Z</time>
      </trkpt>
      <trkpt lat="49.23362" lon="1.16368">
        <ele>49.8</ele>
        <time>2018-09-16T07:00:29Z</time>
      </trkpt>
      <trkpt lat="49.23372" lon="1.16371">
        <ele>50.1</ele>
        <time>2018-09-16T07:00:31Z</time>
      </trkpt>
      <trkpt lat="49.23387" lon="1.16376">
        <ele>50.4</ele>
        <time>2018-09-16T07:00:33Z</time>
      </trkpt>
      <trkpt lat="49.23397" lon="1.1638">
        <ele>50.7</ele>
        <time>2018-09-16T07:00:35Z</time>
      </trkpt>
      <trkpt lat="49.23407" lon="1.16382">
        <ele>50.8</ele>
        <time>2018-09-16T07:00:37Z</time>
      </trkpt>
      <trkpt lat="49.23419" lon="1.16385">
        <ele>50.8</ele>
        <time>2018-09-16T07:00:40Z</time>
      </trkpt>
      <trkpt lat="49.23433" lon="1.16389">
        <ele>50.8</ele>
        <time>2018-09-16T07:00:43Z</time>
      </trkpt>
      <trkpt lat="49.23443" lon="1.16393">
        <ele>50.8</ele>
        <time>2018-09-16T07:00:45Z</time>
      </trkpt>
      <trkpt lat="49.23454" lon="1.16396">
        <ele>50.8</ele>
        <time>2018-09-16T07:00:47Z</time>
      </trkpt>
      <trkpt lat="49.23465" lon="1.16399">
        <ele>51</ele>
        <time>2018-09-16T07:00:49Z</time>
      </trkpt>
      <trkpt lat="49.23478" lon="1.16403">
        <ele>50.9</ele>
        <time>2018-09-16T07:00:52Z</time>
      </trkpt>
      <trkpt lat="49.23487" lon="1.16406">
        <ele>51</ele>
        <time>2018-09-16T07:00:54Z</time>
      </trkpt>
      <trkpt lat="49.23497" lon="1.16409">
        <ele>51.2</ele>
        <time>2018-09-16T07:00:56Z</time>
      </trkpt>
      <trkpt lat="49.23508" lon="1.16416">
        <ele>51.3</ele>
        <time>2018-09-16T07:00:59Z</time>
      </trkpt>
      <trkpt lat="49.23516" lon="1.16432">
        <ele>51</ele>
        <time>2018-09-16T07:01:01Z</time>
      </trkpt>
      <trkpt lat="49.23524" lon="1.16449">
        <ele>50.4</ele>
        <time>2018-09-16T07:01:03Z</time>
      </trkpt>
      <trkpt lat="49.23532" lon="1.16467">
        <ele>49.4</ele>
        <time>2018-09-16T07:01:05Z</time>
      </trkpt>
      <trkpt lat="49.2354" lon="1.16481">
        <ele>48.4</ele>
        <time>2018-09-16T07:01:07Z</time>
      </trkpt>
      <trkpt lat="49.2355" lon="1.16491">
        <ele>47.4</ele>
        <time>2018-09-16T07:01:09Z</time>
      </trkpt>
      <trkpt lat="49.23559" lon="1.16498">
        <ele>46.3</ele>
        <time>2018-09-16T07:01:11Z</time>
      </trkpt>
      <trkpt lat="49.23573" lon="1.16505">
        <ele>45</ele>
        <time>2018-09-16T07:01:13Z</time>
      </trkpt>
      <trkpt lat="49.23584" lon="1.16509">
        <ele>44.2</ele>
        <time>2018-09-16T07:01:15Z</time>
      </trkpt>
      <trkpt lat="49.23595" lon="1.16512">
        <ele>43.7</ele>
        <time>2018-09-16T07:01:17Z</time>
      </trkpt>
      <trkpt lat="49.23605" lon="1.16515">
        <ele>42.9</ele>
        <time>2018-09-16T07:01:19Z</time>
      </trkpt>
      <trkpt lat="49.23615" lon="1.16509">
        <ele>42.3</ele>
        <time>2018-09-16T07:01:21Z</time>
      </trkpt>
      <trkpt lat="49.23625" lon="1.16503">
        <ele>41.4</ele>
        <time>2018-09-16T07:01:23Z</time>
      </trkpt>
      <trkpt lat="49.2363" lon="1.16491">
        <ele>40.6</ele>
        <time>2018-09-16T07:01:26Z</time>
      </trkpt>
      <trkpt lat="49.23635" lon="1.16475">
        <ele>40.3</ele>
        <time>2018-09-16T07:01:29Z</time>
      </trkpt>
      <trkpt lat="49.23639" lon="1.16458">
        <ele>40.4</ele>
        <time>2018-09-16T07:01:32Z</time>
      </trkpt>
      <trkpt lat="49.23644" lon="1.16442">
        <ele>40.5</ele>
        <time>2018-09-16T07:01:35Z</time>
      </trkpt>
      <trkpt lat="49.23645" lon="1.16428">
        <ele>40.7</ele>
        <time>2018-09-16T07:01:37Z</time>
      </trkpt>
      <trkpt lat="49.2365" lon="1.16416">
        <ele>41.1</ele>
        <time>2018-09-16T07:01:39Z</time>
      </trkpt>
      <trkpt lat="49.23652" lon="1.16397">
        <ele>41.6</ele>
        <time>2018-09-16T07:01:42Z</time>
      </trkpt>
      <trkpt lat="49.23653" lon="1.1638">
        <ele>41.9</ele>
        <time>2018-09-16T07:01:45Z</time>
      </trkpt>
      <trkpt lat="49.23653" lon="1.16366">
        <ele>42.2</ele>
        <time>2018-09-16T07:01:47Z</time>
      </trkpt>
      <trkpt lat="49.23653" lon="1.16352">
        <ele>42.4</ele>
        <time>2018-09-16T07:01:49Z</time>
      </trkpt>
      <trkpt lat="49.23657" lon="1.16335">
        <ele>42.7</ele>
        <time>2018-09-16T07:01:52Z</time>
      </trkpt>
      <trkpt lat="49.23658" lon="1.16316">
        <ele>43.2</ele>
        <time>2018-09-16T07:01:55Z</time>
      </trkpt>
      <trkpt lat="49.23658" lon="1.16297">
        <ele>43.6</ele>
        <time>2018-09-16T07:01:58Z</time>
      </trkpt>
      <trkpt lat="49.2366" lon="1.16278">
        <ele>44.1</ele>
        <time>2018-09-16T07:02:01Z</time>
      </trkpt>
      <trkpt lat="49.23661" lon="1.16258">
        <ele>44.6</ele>
        <time>2018-09-16T07:02:04Z</time>
      </trkpt>
      <trkpt lat="49.23662" lon="1.1624">
        <ele>45.1</ele>
        <time>2018-09-16T07:02:07Z</time>
      </trkpt>
      <trkpt lat="49.23665" lon="1.16222">
        <ele>45.7</ele>
        <time>2018-09-16T07:02:10Z</time>
      </trkpt>
      <trkpt lat="49.23665" lon="1.16205">
        <ele>46.5</ele>
        <time>2018-09-16T07:02:13Z</time>
      </trkpt>
      <trkpt lat="49.23663" lon="1.16189">
        <ele>47.1</ele>
        <time>2018-09-16T07:02:16Z</time>
      </trkpt>
      <trkpt lat="49.23665" lon="1.16174">
        <ele>47.7</ele>
        <time>2018-09-16T07:02:19Z</time>
      </trkpt>
      <trkpt lat="49.23664" lon="1.16157">
        <ele>48.4</ele>
        <time>2018-09-16T07:02:23Z</time>
      </trkpt>
      <trkpt lat="49.23661" lon="1.16142">
        <ele>49</ele>
        <time>2018-09-16T07:02:26Z</time>
      </trkpt>
      <trkpt lat="49.23657" lon="1.16127">
        <ele>49.5</ele>
        <time>2018-09-16T07:02:29Z</time>
      </trkpt>
      <trkpt lat="49.23654" lon="1.16111">
        <ele>50</ele>
        <time>2018-09-16T07:02:32Z</time>
      </trkpt>
      <trkpt lat="49.23649" lon="1.16093">
        <ele>50.8</ele>
        <time>2018-09-16T07:02:35Z</time>
      </trkpt>
      <trkpt lat="49.23643" lon="1.16077">
        <ele>51.4</ele>
        <time>2018-09-16T07:02:38Z</time>
      </trkpt>
      <trkpt lat="49.23635" lon="1.16065">
        <ele>51.9</ele>
        <time>2018-09-16T07:02:40Z</time>
      </trkpt>
      <trkpt lat="49.23629" lon="1.16048">
        <ele>52.5</ele>
        <time>2018-09-16T07:02:43Z</time>
      </trkpt>
      <trkpt lat="49.2362" lon="1.16032">
        <ele>53.1</ele>
        <time>2018-09-16T07:02:46Z</time>
      </trkpt>
      <trkpt lat="49.23613" lon="1.16019">
        <ele>53.6</ele>
        <time>2018-09-16T07:02:48Z</time>
      </trkpt>
      <trkpt lat="49.23605" lon="1.16004">
        <ele>54</ele>
        <time>2018-09-16T07:02:50Z</time>
      </trkpt>
      <trkpt lat="49.23598" lon="1.15993">
        <ele>54.4</ele>
        <time>2018-09-16T07:02:52Z</time>
      </trkpt>
      <trkpt lat="49.23591" lon="1.15982">
        <ele>54.8</ele>
        <time>2018-09-16T07:02:54Z</time>
      </trkpt>
      <trkpt lat="49.23583" lon="1.15967">
        <ele>55.4</ele>
        <time>2018-09-16T07:02:57Z</time>
      </trkpt>
      <trkpt lat="49.23574" lon="1.15952">
        <ele>56</ele>
        <time>2018-09-16T07:03:00Z</time>
      </trkpt>
      <trkpt lat="49.23564" lon="1.15938">
        <ele>56.7</ele>
        <time>2018-09-16T07:03:03Z</time>
      </trkpt>
      <trkpt lat="49.23557" lon="1.15925">
        <ele>57.5</ele>
        <time>2018-09-16T07:03:06Z</time>
      </trkpt>
      <trkpt lat="49.23549" lon="1.15913">
        <ele>58.2</ele>
        <time>2018-09-16T07:03:09Z</time>
      </trkpt>
      <trkpt lat="49.23542" lon="1.159">
        <ele>58.8</ele>
        <time>2018-09-16T07:03:12Z</time>
      </trkpt>
      <trkpt lat="49.23534" lon="1.15888">
        <ele>59.4</ele>
        <time>2018-09-16T07:03:15Z</time>
      </trkpt>
      <trkpt lat="49.23526" lon="1.15875">
        <ele>59.9</ele>
        <time>2018-09-16T07:03:18Z</time>
      </trkpt>
      <trkpt lat="49.23519" lon="1.15863">
        <ele>60.6</ele>
        <time>2018-09-16T07:03:21Z</time>
      </trkpt>
      <trkpt lat="49.23512" lon="1.15849">
        <ele>61.2</ele>
        <time>2018-09-16T07:03:24Z</time>
      </trkpt>
      <trkpt lat="49.23508" lon="1.15837">
        <ele>61.8</ele>
        <time>2018-09-16T07:03:27Z</time>
      </trkpt>
      <trkpt lat="49.23506" lon="1.1582">
        <ele>62.8</ele>
        <time>2018-09-16T07:03:31Z</time>
      </trkpt>
      <trkpt lat="49.23507" lon="1.15802">
        <ele>63.5</ele>
        <time>2018-09-16T07:03:35Z</time>
      </trkpt>
      <trkpt lat="49.23506" lon="1.15785">
        <ele>64.4</ele>
        <time>2018-09-16T07:03:39Z</time>
      </trkpt>
      <trkpt lat="49.23507" lon="1.15769">
        <ele>65</ele>
        <time>2018-09-16T07:03:42Z</time>
      </trkpt>
      <trkpt lat="49.23509" lon="1.15754">
        <ele>65.5</ele>
        <time>2018-09-16T07:03:45Z</time>
      </trkpt>
      <trkpt lat="49.23507" lon="1.15739">
        <ele>65.7</ele>
        <time>2018-09-16T07:03:48Z</time>
      </trkpt>
      <trkpt lat="49.2351" lon="1.15725">
        <ele>66.4</ele>
        <time>2018-09-16T07:03:51Z</time>
      </trkpt>
      <trkpt lat="49.23511" lon="1.15711">
        <ele>67</ele>
        <time>2018-09-16T07:03:54Z</time>
      </trkpt>
      <trkpt lat="49.23512" lon="1.15697">
        <ele>67.8</ele>
        <time>2018-09-16T07:03:57Z</time>
      </trkpt>
      <trkpt lat="49.23511" lon="1.15682">
        <ele>68.5</ele>
        <time>2018-09-16T07:04:00Z</time>
      </trkpt>
      <trkpt lat="49.23512" lon="1.15663">
        <ele>69.1</ele>
        <time>2018-09-16T07:04:04Z</time>
      </trkpt>
      <trkpt lat="49.23515" lon="1.15648">
        <ele>69.8</ele>
        <time>2018-09-16T07:04:07Z</time>
      </trkpt>
      <trkpt lat="49.23515" lon="1.1563">
        <ele>70.2</ele>
        <time>2018-09-16T07:04:10Z</time>
      </trkpt>
      <trkpt lat="49.23515" lon="1.15614">
        <ele>70.7</ele>
        <time>2018-09-16T07:04:13Z</time>
      </trkpt>
      <trkpt lat="49.23514" lon="1.15596">
        <ele>71.3</ele>
        <time>2018-09-16T07:04:16Z</time>
      </trkpt>
      <trkpt lat="49.23514" lon="1.15581">
        <ele>71.8</ele>
        <time>2018-09-16T07:04:19Z</time>
      </trkpt>
      <trkpt lat="49.23515" lon="1.15566">
        <ele>72.7</ele>
        <time>2018-09-16T07:04:22Z</time>
      </trkpt>
      <trkpt lat="49.23518" lon="1.15551">
        <ele>73.2</ele>
        <time>2018-09-16T07:04:25Z</time>
      </trkpt>
      <trkpt lat="49.23519" lon="1.15536">
        <ele>73.8</ele>
        <time>2018-09-16T07:04:28Z</time>
      </trkpt>
      <trkpt lat="49.2352" lon="1.15522">
        <ele>74.5</ele>
        <time>2018-09-16T07:04:31Z</time>
      </trkpt>
      <trkpt lat="49.23522" lon="1.15508">
        <ele>75.2</ele>
        <time>2018-09-16T07:04:34Z</time>
      </trkpt>
      <trkpt lat="49.23524" lon="1.15493">
        <ele>75.8</ele>
        <time>2018-09-16T07:04:37Z</time>
      </trkpt>
      <trkpt lat="49.23526" lon="1.15476">
        <ele>76.4</ele>
        <time>2018-09-16T07:04:40Z</time>
      </trkpt>
      <trkpt lat="49.2353" lon="1.15462">
        <ele>77</ele>
        <time>2018-09-16T07:04:43Z</time>
      </trkpt>
      <trkpt lat="49.23533" lon="1.15449">
        <ele>77.6</ele>
        <time>2018-09-16T07:04:46Z</time>
      </trkpt>
      <trkpt lat="49.23541" lon="1.15443">
        <ele>78.6</ele>
        <time>2018-09-16T07:04:54Z</time>
      </trkpt>
      <trkpt lat="49.23551" lon="1.15443">
        <ele>82.3</ele>
        <time>2018-09-16T07:05:05Z</time>
      </trkpt>
      <trkpt lat="49.2356" lon="1.15444">
        <ele>85.8</ele>
        <time>2018-09-16T07:05:13Z</time>
      </trkpt>
      <trkpt lat="49.23569" lon="1.15447">
        <ele>89.7</ele>
        <time>2018-09-16T07:05:25Z</time>
      </trkpt>
      <trkpt lat="49.23578" lon="1.1545">
        <ele>93.7</ele>
        <time>2018-09-16T07:05:39Z</time>
      </trkpt>
      <trkpt lat="49.23587" lon="1.15454">
        <ele>96</ele>
        <time>2018-09-16T07:05:50Z</time>
      </trkpt>
      <trkpt lat="49.23596" lon="1.15457">
        <ele>97.9</ele>
        <time>2018-09-16T07:05:58Z</time>
      </trkpt>
      <trkpt lat="49.23605" lon="1.15463">
        <ele>99.5</ele>
        <time>2018-09-16T07:06:12Z</time>
      </trkpt>
      <trkpt lat="49.23616" lon="1.15466">
        <ele>100.9</ele>
        <time>2018-09-16T07:06:21Z</time>
      </trkpt>
      <trkpt lat="49.23624" lon="1.15469">
        <ele>102</ele>
        <time>2018-09-16T07:06:27Z</time>
      </trkpt>
      <trkpt lat="49.23633" lon="1.15475">
        <ele>103.2</ele>
        <time>2018-09-16T07:06:34Z</time>
      </trkpt>
      <trkpt lat="49.23643" lon="1.1548">
        <ele>104.2</ele>
        <time>2018-09-16T07:06:40Z</time>
      </trkpt>
      <trkpt lat="49.23653" lon="1.15484">
        <ele>105.5</ele>
        <time>2018-09-16T07:06:45Z</time>
      </trkpt>
      <trkpt lat="49.23662" lon="1.15489">
        <ele>106.3</ele>
        <time>2018-09-16T07:06:50Z</time>
      </trkpt>
      <trkpt lat="49.23672" lon="1.15489">
        <ele>106.9</ele>
        <time>2018-09-16T07:06:55Z</time>
      </trkpt>
      <trkpt lat="49.23679" lon="1.15479">
        <ele>107.3</ele>
        <time>2018-09-16T07:07:00Z</time>
      </trkpt>
      <trkpt lat="49.23689" lon="1.15472">
        <ele>107.8</ele>
        <time>2018-09-16T07:07:04Z</time>
      </trkpt>
      <trkpt lat="49.23697" lon="1.15466">
        <ele>108.1</ele>
        <time>2018-09-16T07:07:07Z</time>
      </trkpt>
      <trkpt lat="49.23707" lon="1.15457">
        <ele>108.7</ele>
        <time>2018-09-16T07:07:11Z</time>
      </trkpt>
      <trkpt lat="49.23716" lon="1.15451">
        <ele>108.9</ele>
        <time>2018-09-16T07:07:13Z</time>
      </trkpt>
      <trkpt lat="49.23724" lon="1.15441">
        <ele>109.1</ele>
        <time>2018-09-16T07:07:16Z</time>
      </trkpt>
      <trkpt lat="49.23736" lon="1.15435">
        <ele>109.3</ele>
        <time>2018-09-16T07:07:19Z</time>
      </trkpt>
      <trkpt lat="49.23745" lon="1.1543">
        <ele>109.6</ele>
        <time>2018-09-16T07:07:21Z</time>
      </trkpt>
      <trkpt lat="49.23755" lon="1.15422">
        <ele>109.9</ele>
        <time>2018-09-16T07:07:24Z</time>
      </trkpt>
      <trkpt lat="49.23764" lon="1.15414">
        <ele>110.2</ele>
        <time>2018-09-16T07:07:27Z</time>
      </trkpt>
      <trkpt lat="49.23774" lon="1.15405">
        <ele>110.3</ele>
        <time>2018-09-16T07:07:30Z</time>
      </trkpt>
      <trkpt lat="49.23784" lon="1.15395">
        <ele>110.5</ele>
        <time>2018-09-16T07:07:33Z</time>
      </trkpt>
      <trkpt lat="49.23792" lon="1.15388">
        <ele>110.9</ele>
        <time>2018-09-16T07:07:35Z</time>
      </trkpt>
      <trkpt lat="49.23804" lon="1.15379">
        <ele>111.2</ele>
        <time>2018-09-16T07:07:38Z</time>
      </trkpt>
      <trkpt lat="49.23815" lon="1.1537">
        <ele>111.4</ele>
        <time>2018-09-16T07:07:41Z</time>
      </trkpt>
      <trkpt lat="49.23825" lon="1.15361">
        <ele>111.5</ele>
        <time>2018-09-16T07:07:44Z</time>
      </trkpt>
      <trkpt lat="49.23836" lon="1.1535">
        <ele>111.3</ele>
        <time>2018-09-16T07:07:47Z</time>
      </trkpt>
      <trkpt lat="49.23844" lon="1.15342">
        <ele>111.3</ele>
        <time>2018-09-16T07:07:49Z</time>
      </trkpt>
      <trkpt lat="49.23854" lon="1.1533">
        <ele>111.4</ele>
        <time>2018-09-16T07:07:52Z</time>
      </trkpt>
      <trkpt lat="49.23865" lon="1.15321">
        <ele>111.3</ele>
        <time>2018-09-16T07:07:55Z</time>
      </trkpt>
      <trkpt lat="49.23876" lon="1.1531">
        <ele>111.8</ele>
        <time>2018-09-16T07:07:58Z</time>
      </trkpt>
      <trkpt lat="49.23886" lon="1.15304">
        <ele>111.8</ele>
        <time>2018-09-16T07:08:01Z</time>
      </trkpt>
      <trkpt lat="49.23896" lon="1.15307">
        <ele>111.6</ele>
        <time>2018-09-16T07:08:04Z</time>
      </trkpt>
      <trkpt lat="49.23905" lon="1.1531">
        <ele>111.7</ele>
        <time>2018-09-16T07:08:07Z</time>
      </trkpt>
      <trkpt lat="49.23918" lon="1.15311">
        <ele>111.6</ele>
        <time>2018-09-16T07:08:10Z</time>
      </trkpt>
      <trkpt lat="49.23927" lon="1.15315">
        <ele>111.4</ele>
        <time>2018-09-16T07:08:12Z</time>
      </trkpt>
      <trkpt lat="49.23936" lon="1.1532">
        <ele>111.2</ele>
        <time>2018-09-16T07:08:15Z</time>
      </trkpt>
      <trkpt lat="49.23946" lon="1.1533">
        <ele>111.1</ele>
        <time>2018-09-16T07:08:17Z</time>
      </trkpt>
      <trkpt lat="49.23956" lon="1.15336">
        <ele>111</ele>
        <time>2018-09-16T07:08:19Z</time>
      </trkpt>
      <trkpt lat="49.23969" lon="1.15342">
        <ele>110.8</ele>
        <time>2018-09-16T07:08:21Z</time>
      </trkpt>
      <trkpt lat="49.23979" lon="1.15346">
        <ele>110.7</ele>
        <time>2018-09-16T07:08:23Z</time>
      </trkpt>
      <trkpt lat="49.23989" lon="1.15354">
        <ele>110.6</ele>
        <time>2018-09-16T07:08:25Z</time>
      </trkpt>
      <trkpt lat="49.24001" lon="1.15358">
        <ele>110.5</ele>
        <time>2018-09-16T07:08:28Z</time>
      </trkpt>
      <trkpt lat="49.2401" lon="1.15364">
        <ele>110.2</ele>
        <time>2018-09-16T07:08:30Z</time>
      </trkpt>
      <trkpt lat="49.24022" lon="1.15369">
        <ele>110.1</ele>
        <time>2018-09-16T07:08:32Z</time>
      </trkpt>
      <trkpt lat="49.24031" lon="1.15372">
        <ele>110.1</ele>
        <time>2018-09-16T07:08:33Z</time>
      </trkpt>
      <trkpt lat="49.24041" lon="1.15358">
        <ele>109.9</ele>
        <time>2018-09-16T07:08:36Z</time>
      </trkpt>
      <trkpt lat="49.24045" lon="1.15345">
        <ele>109.9</ele>
        <time>2018-09-16T07:08:38Z</time>
      </trkpt>
      <trkpt lat="49.24049" lon="1.15332">
        <ele>109.9</ele>
        <time>2018-09-16T07:08:40Z</time>
      </trkpt>
      <trkpt lat="49.24053" lon="1.15318">
        <ele>109.7</ele>
        <time>2018-09-16T07:08:42Z</time>
      </trkpt>
      <trkpt lat="49.24057" lon="1.15303">
        <ele>109.6</ele>
        <time>2018-09-16T07:08:44Z</time>
      </trkpt>
      <trkpt lat="49.24061" lon="1.15287">
        <ele>109.6</ele>
        <time>2018-09-16T07:08:46Z</time>
      </trkpt>
      <trkpt lat="49.24065" lon="1.15271">
        <ele>109.4</ele>
        <time>2018-09-16T07:08:48Z</time>
      </trkpt>
      <trkpt lat="49.24068" lon="1.15254">
        <ele>109.2</ele>
        <time>2018-09-16T07:08:50Z</time>
      </trkpt>
      <trkpt lat="49.24071" lon="1.15235">
        <ele>108.8</ele>
        <time>2018-09-16T07:08:52Z</time>
      </trkpt>
      <trkpt lat="49.24073" lon="1.15216">
        <ele>108.5</ele>
        <time>2018-09-16T07:08:54Z</time>
      </trkpt>
      <trkpt lat="49.24077" lon="1.15198">
        <ele>108.6</ele>
        <time>2018-09-16T07:08:56Z</time>
      </trkpt>
      <trkpt lat="49.24083" lon="1.15179">
        <ele>108.3</ele>
        <time>2018-09-16T07:08:58Z</time>
      </trkpt>
      <trkpt lat="49.24088" lon="1.1516">
        <ele>107.6</ele>
        <time>2018-09-16T07:09:00Z</time>
      </trkpt>
      <trkpt lat="49.24093" lon="1.15141">
        <ele>107.3</ele>
        <time>2018-09-16T07:09:02Z</time>
      </trkpt>
      <trkpt lat="49.24097" lon="1.15124">
        <ele>107.2</ele>
        <time>2018-09-16T07:09:04Z</time>
      </trkpt>
      <trkpt lat="49.24102" lon="1.15107">
        <ele>107.3</ele>
        <time>2018-09-16T07:09:06Z</time>
      </trkpt>
      <trkpt lat="49.24105" lon="1.1509">
        <ele>107.5</ele>
        <time>2018-09-16T07:09:08Z</time>
      </trkpt>
      <trkpt lat="49.24109" lon="1.15074">
        <ele>107.6</ele>
        <time>2018-09-16T07:09:10Z</time>
      </trkpt>
      <trkpt lat="49.24112" lon="1.15059">
        <ele>107.6</ele>
        <time>2018-09-16T07:09:12Z</time>
      </trkpt>
      <trkpt lat="49.24115" lon="1.15044">
        <ele>107.7</ele>
        <time>2018-09-16T07:09:14Z</time>
      </trkpt>
      <trkpt lat="49.24118" lon="1.1503">
        <ele>107.9</ele>
        <time>2018-09-16T07:09:16Z</time>
      </trkpt>
      <trkpt lat="49.24122" lon="1.15015">
        <ele>108.2</ele>
        <time>2018-09-16T07:09:18Z</time>
      </trkpt>
      <trkpt lat="49.24125" lon="1.15001">
        <ele>108.3</ele>
        <time>2018-09-16T07:09:20Z</time>
      </trkpt>
      <trkpt lat="49.24128" lon="1.14988">
        <ele>108.8</ele>
        <time>2018-09-16T07:09:22Z</time>
      </trkpt>
      <trkpt lat="49.24131" lon="1.14974">
        <ele>109.1</ele>
        <time>2018-09-16T07:09:24Z</time>
      </trkpt>
      <trkpt lat="49.24133" lon="1.1496">
        <ele>109.2</ele>
        <time>2018-09-16T07:09:26Z</time>
      </trkpt>
      <trkpt lat="49.24135" lon="1.14946">
        <ele>109.5</ele>
        <time>2018-09-16T07:09:28Z</time>
      </trkpt>
      <trkpt lat="49.24142" lon="1.14935">
        <ele>110</ele>
        <time>2018-09-16T07:09:31Z</time>
      </trkpt>
      <trkpt lat="49.24153" lon="1.14939">
        <ele>110</ele>
        <time>2018-09-16T07:09:34Z</time>
      </trkpt>
      <trkpt lat="49.24164" lon="1.14943">
        <ele>109.9</ele>
        <time>2018-09-16T07:09:37Z</time>
      </trkpt>
      <trkpt lat="49.24175" lon="1.14952">
        <ele>109.7</ele>
        <time>2018-09-16T07:09:40Z</time>
      </trkpt>
      <trkpt lat="49.24183" lon="1.14958">
        <ele>109.5</ele>
        <time>2018-09-16T07:09:42Z</time>
      </trkpt>
      <trkpt lat="49.24191" lon="1.14964">
        <ele>109.3</ele>
        <time>2018-09-16T07:09:44Z</time>
      </trkpt>
      <trkpt lat="49.242" lon="1.14969">
        <ele>109.2</ele>
        <time>2018-09-16T07:09:46Z</time>
      </trkpt>
      <trkpt lat="49.2421" lon="1.14974">
        <ele>109.1</ele>
        <time>2018-09-16T07:09:48Z</time>
      </trkpt>
      <trkpt lat="49.24224" lon="1.14983">
        <ele>109</ele>
        <time>2018-09-16T07:09:51Z</time>
      </trkpt>
      <trkpt lat="49.24237" lon="1.14989">
        <ele>108.9</ele>
        <time>2018-09-16T07:09:53Z</time>
      </trkpt>
      <trkpt lat="49.24247" lon="1.14994">
        <ele>108.7</ele>
        <time>2018-09-16T07:09:55Z</time>
      </trkpt>
      <trkpt lat="49.24259" lon="1.15">
        <ele>108.5</ele>
        <time>2018-09-16T07:09:58Z</time>
      </trkpt>
      <trkpt lat="49.24269" lon="1.15007">
        <ele>108.4</ele>
        <time>2018-09-16T07:10:00Z</time>
      </trkpt>
      <trkpt lat="49.24277" lon="1.15011">
        <ele>108.1</ele>
        <time>2018-09-16T07:10:02Z</time>
      </trkpt>
      <trkpt lat="49.24287" lon="1.15017">
        <ele>107.8</ele>
        <time>2018-09-16T07:10:04Z</time>
      </trkpt>
      <trkpt lat="49.243" lon="1.15022">
        <ele>107.5</ele>
        <time>2018-09-16T07:10:06Z</time>
      </trkpt>
      <trkpt lat="49.24311" lon="1.15029">
        <ele>107.1</ele>
        <time>2018-09-16T07:10:08Z</time>
      </trkpt>
      <trkpt lat="49.24323" lon="1.15036">
        <ele>106.9</ele>
        <time>2018-09-16T07:10:09Z</time>
      </trkpt>
      <trkpt lat="49.24332" lon="1.15043">
        <ele>106.8</ele>
        <time>2018-09-16T07:10:10Z</time>
      </trkpt>
      <trkpt lat="49.24342" lon="1.15049">
        <ele>106.3</ele>
        <time>2018-09-16T07:10:11Z</time>
      </trkpt>
      <trkpt lat="49.24358" lon="1.15058">
        <ele>105.6</ele>
        <time>2018-09-16T07:10:13Z</time>
      </trkpt>
      <trkpt lat="49.24374" lon="1.15067">
        <ele>104.8</ele>
        <time>2018-09-16T07:10:15Z</time>
      </trkpt>
      <trkpt lat="49.24391" lon="1.15075">
        <ele>103.7</ele>
        <time>2018-09-16T07:10:17Z</time>
      </trkpt>
      <trkpt lat="49.24407" lon="1.15083">
        <ele>102.3</ele>
        <time>2018-09-16T07:10:19Z</time>
      </trkpt>
      <trkpt lat="49.24422" lon="1.15091">
        <ele>100.6</ele>
        <time>2018-09-16T07:10:21Z</time>
      </trkpt>
      <trkpt lat="49.24437" lon="1.15097">
        <ele>98.7</ele>
        <time>2018-09-16T07:10:23Z</time>
      </trkpt>
      <trkpt lat="49.24448" lon="1.15104">
        <ele>96.6</ele>
        <time>2018-09-16T07:10:25Z</time>
      </trkpt>
      <trkpt lat="49.24457" lon="1.15109">
        <ele>94.6</ele>
        <time>2018-09-16T07:10:27Z</time>
      </trkpt>
      <trkpt lat="49.24468" lon="1.15115">
        <ele>91.8</ele>
        <time>2018-09-16T07:10:30Z</time>
      </trkpt>
      <trkpt lat="49.2448" lon="1.15111">
        <ele>88.8</ele>
        <time>2018-09-16T07:10:34Z</time>
      </trkpt>
      <trkpt lat="49.24489" lon="1.15121">
        <ele>86</ele>
        <time>2018-09-16T07:10:39Z</time>
      </trkpt>
      <trkpt lat="49.245" lon="1.15131">
        <ele>84.3</ele>
        <time>2018-09-16T07:10:42Z</time>
      </trkpt>
      <trkpt lat="49.2451" lon="1.15136">
        <ele>82.9</ele>
        <time>2018-09-16T07:10:44Z</time>
      </trkpt>
      <trkpt lat="49.24521" lon="1.15142">
        <ele>81.2</ele>
        <time>2018-09-16T07:10:46Z</time>
      </trkpt>
      <trkpt lat="49.24536" lon="1.1515">
        <ele>79.4</ele>
        <time>2018-09-16T07:10:48Z</time>
      </trkpt>
      <trkpt lat="49.2455" lon="1.15154">
        <ele>77.7</ele>
        <time>2018-09-16T07:10:50Z</time>
      </trkpt>
      <trkpt lat="49.24562" lon="1.15158">
        <ele>76</ele>
        <time>2018-09-16T07:10:52Z</time>
      </trkpt>
      <trkpt lat="49.24574" lon="1.15163">
        <ele>74.7</ele>
        <time>2018-09-16T07:10:54Z</time>
      </trkpt>
      <trkpt lat="49.24585" lon="1.15167">
        <ele>73.2</ele>
        <time>2018-09-16T07:10:56Z</time>
      </trkpt>
      <trkpt lat="49.24596" lon="1.15176">
        <ele>71.7</ele>
        <time>2018-09-16T07:10:58Z</time>
      </trkpt>
      <trkpt lat="49.24609" lon="1.15184">
        <ele>70.1</ele>
        <time>2018-09-16T07:11:00Z</time>
      </trkpt>
      <trkpt lat="49.24616" lon="1.15192">
        <ele>68.5</ele>
        <time>2018-09-16T07:11:02Z</time>
      </trkpt>
      <trkpt lat="49.24621" lon="1.15204">
        <ele>67</ele>
        <time>2018-09-16T07:11:05Z</time>
      </trkpt>
      <trkpt lat="49.24632" lon="1.152">
        <ele>67.1</ele>
        <time>2018-09-16T07:11:09Z</time>
      </trkpt>
      <trkpt lat="49.2464" lon="1.15191">
        <ele>66.9</ele>
        <time>2018-09-16T07:11:12Z</time>
      </trkpt>
      <trkpt lat="49.24648" lon="1.15183">
        <ele>67.2</ele>
        <time>2018-09-16T07:11:15Z</time>
      </trkpt>
      <trkpt lat="49.24654" lon="1.15171">
        <ele>67.2</ele>
        <time>2018-09-16T07:11:18Z</time>
      </trkpt>
      <trkpt lat="49.24662" lon="1.1516">
        <ele>67.5</ele>
        <time>2018-09-16T07:11:21Z</time>
      </trkpt>
      <trkpt lat="49.24669" lon="1.15146">
        <ele>67.7</ele>
        <time>2018-09-16T07:11:24Z</time>
      </trkpt>
      <trkpt lat="49.24677" lon="1.15133">
        <ele>67.7</ele>
        <time>2018-09-16T07:11:27Z</time>
      </trkpt>
      <trkpt lat="49.24685" lon="1.15121">
        <ele>67.8</ele>
        <time>2018-09-16T07:11:30Z</time>
      </trkpt>
      <trkpt lat="49.24692" lon="1.15107">
        <ele>68.2</ele>
        <time>2018-09-16T07:11:33Z</time>
      </trkpt>
      <trkpt lat="49.24699" lon="1.15093">
        <ele>68.5</ele>
        <time>2018-09-16T07:11:36Z</time>
      </trkpt>
      <trkpt lat="49.24706" lon="1.15078">
        <ele>68.5</ele>
        <time>2018-09-16T07:11:39Z</time>
      </trkpt>
      <trkpt lat="49.24712" lon="1.15063">
        <ele>68.5</ele>
        <time>2018-09-16T07:11:42Z</time>
      </trkpt>
      <trkpt lat="49.24718" lon="1.15047">
        <ele>68.8</ele>
        <time>2018-09-16T07:11:45Z</time>
      </trkpt>
      <trkpt lat="49.24724" lon="1.15028">
        <ele>68.8</ele>
        <time>2018-09-16T07:11:48Z</time>
      </trkpt>
      <trkpt lat="49.24728" lon="1.15015">
        <ele>68.9</ele>
        <time>2018-09-16T07:11:50Z</time>
      </trkpt>
      <trkpt lat="49.24734" lon="1.14998">
        <ele>69.4</ele>
        <time>2018-09-16T07:11:53Z</time>
      </trkpt>
      <trkpt lat="49.24738" lon="1.1498">
        <ele>69.7</ele>
        <time>2018-09-16T07:11:56Z</time>
      </trkpt>
      <trkpt lat="49.24739" lon="1.14961">
        <ele>70.1</ele>
        <time>2018-09-16T07:11:59Z</time>
      </trkpt>
      <trkpt lat="49.2474" lon="1.1494">
        <ele>70.3</ele>
        <time>2018-09-16T07:12:02Z</time>
      </trkpt>
      <trkpt lat="49.24743" lon="1.14903">
        <ele>70</ele>
        <time>2018-09-16T07:12:08Z</time>
      </trkpt>
      <trkpt lat="49.24745" lon="1.1488">
        <ele>70</ele>
        <time>2018-09-16T07:12:12Z</time>
      </trkpt>
      <trkpt lat="49.24748" lon="1.14856">
        <ele>71</ele>
        <time>2018-09-16T07:12:16Z</time>
      </trkpt>
      <trkpt lat="49.2475" lon="1.14831">
        <ele>71</ele>
        <time>2018-09-16T07:12:20Z</time>
      </trkpt>
      <trkpt lat="49.24751" lon="1.14811">
        <ele>71.6</ele>
        <time>2018-09-16T07:12:23Z</time>
      </trkpt>
      <trkpt lat="49.24753" lon="1.14793">
        <ele>71.9</ele>
        <time>2018-09-16T07:12:26Z</time>
      </trkpt>
      <trkpt lat="49.24756" lon="1.1477">
        <ele>71</ele>
        <time>2018-09-16T07:12:30Z</time>
      </trkpt>
      <trkpt lat="49.24759" lon="1.14747">
        <ele>72</ele>
        <time>2018-09-16T07:12:34Z</time>
      </trkpt>
      <trkpt lat="49.2476" lon="1.14723">
        <ele>72</ele>
        <time>2018-09-16T07:12:38Z</time>
      </trkpt>
      <trkpt lat="49.24757" lon="1.147">
        <ele>72</ele>
        <time>2018-09-16T07:12:42Z</time>
      </trkpt>
      <trkpt lat="49.24755" lon="1.14677">
        <ele>73</ele>
        <time>2018-09-16T07:12:46Z</time>
      </trkpt>
      <trkpt lat="49.24753" lon="1.14654">
        <ele>73</ele>
        <time>2018-09-16T07:12:50Z</time>
      </trkpt>
      <trkpt lat="49.2475" lon="1.14633">
        <ele>73</ele>
        <time>2018-09-16T07:12:54Z</time>
      </trkpt>
      <trkpt lat="49.24751" lon="1.14612">
        <ele>73</ele>
        <time>2018-09-16T07:12:58Z</time>
      </trkpt>
      <trkpt lat="49.24752" lon="1.14594">
        <ele>74</ele>
        <time>2018-09-16T07:13:01Z</time>
      </trkpt>
      <trkpt lat="49.24749" lon="1.14575">
        <ele>74</ele>
        <time>2018-09-16T07:13:04Z</time>
      </trkpt>
      <trkpt lat="49.24745" lon="1.1455">
        <ele>74</ele>
        <time>2018-09-16T07:13:08Z</time>
      </trkpt>
      <trkpt lat="49.24744" lon="1.14532">
        <ele>74.6</ele>
        <time>2018-09-16T07:13:11Z</time>
      </trkpt>
      <trkpt lat="49.24743" lon="1.14515">
        <ele>74.7</ele>
        <time>2018-09-16T07:13:14Z</time>
      </trkpt>
      <trkpt lat="49.2474" lon="1.14485">
        <ele>75.1</ele>
        <time>2018-09-16T07:13:19Z</time>
      </trkpt>
      <trkpt lat="49.24739" lon="1.14467">
        <ele>75</ele>
        <time>2018-09-16T07:13:22Z</time>
      </trkpt>
      <trkpt lat="49.24737" lon="1.14442">
        <ele>75</ele>
        <time>2018-09-16T07:13:26Z</time>
      </trkpt>
      <trkpt lat="49.24737" lon="1.14424">
        <ele>75.6</ele>
        <time>2018-09-16T07:13:29Z</time>
      </trkpt>
      <trkpt lat="49.24734" lon="1.14384">
        <ele>75</ele>
        <time>2018-09-16T07:13:35Z</time>
      </trkpt>
      <trkpt lat="49.24734" lon="1.14364">
        <ele>76.2</ele>
        <time>2018-09-16T07:13:38Z</time>
      </trkpt>
      <trkpt lat="49.24733" lon="1.14344">
        <ele>76.6</ele>
        <time>2018-09-16T07:13:41Z</time>
      </trkpt>
      <trkpt lat="49.24731" lon="1.14325">
        <ele>76.9</ele>
        <time>2018-09-16T07:13:44Z</time>
      </trkpt>
      <trkpt lat="49.2473" lon="1.14285">
        <ele>77</ele>
        <time>2018-09-16T07:13:50Z</time>
      </trkpt>
      <trkpt lat="49.24729" lon="1.14267">
        <ele>77.2</ele>
        <time>2018-09-16T07:13:53Z</time>
      </trkpt>
      <trkpt lat="49.24727" lon="1.14252">
        <ele>77.4</ele>
        <time>2018-09-16T07:13:55Z</time>
      </trkpt>
      <trkpt lat="49.24726" lon="1.14239">
        <ele>77.5</ele>
        <time>2018-09-16T07:13:57Z</time>
      </trkpt>
      <trkpt lat="49.24725" lon="1.14219">
        <ele>77.7</ele>
        <time>2018-09-16T07:14:00Z</time>
      </trkpt>
      <trkpt lat="49.24724" lon="1.14205">
        <ele>77.6</ele>
        <time>2018-09-16T07:14:02Z</time>
      </trkpt>
      <trkpt lat="49.24723" lon="1.14186">
        <ele>77.6</ele>
        <time>2018-09-16T07:14:05Z</time>
      </trkpt>
      <trkpt lat="49.24723" lon="1.14172">
        <ele>77.9</ele>
        <time>2018-09-16T07:14:07Z</time>
      </trkpt>
      <trkpt lat="49.24722" lon="1.14158">
        <ele>78.1</ele>
        <time>2018-09-16T07:14:09Z</time>
      </trkpt>
      <trkpt lat="49.24723" lon="1.14138">
        <ele>78.6</ele>
        <time>2018-09-16T07:14:12Z</time>
      </trkpt>
      <trkpt lat="49.24723" lon="1.14124">
        <ele>78.8</ele>
        <time>2018-09-16T07:14:14Z</time>
      </trkpt>
      <trkpt lat="49.24723" lon="1.14109">
        <ele>79.1</ele>
        <time>2018-09-16T07:14:16Z</time>
      </trkpt>
      <trkpt lat="49.24724" lon="1.14093">
        <ele>79.4</ele>
        <time>2018-09-16T07:14:18Z</time>
      </trkpt>
      <trkpt lat="49.24724" lon="1.14076">
        <ele>79.5</ele>
        <time>2018-09-16T07:14:20Z</time>
      </trkpt>
      <trkpt lat="49.24725" lon="1.14059">
        <ele>79.7</ele>
        <time>2018-09-16T07:14:22Z</time>
      </trkpt>
      <trkpt lat="49.24726" lon="1.14043">
        <ele>79.8</ele>
        <time>2018-09-16T07:14:24Z</time>
      </trkpt>
      <trkpt lat="49.24727" lon="1.14027">
        <ele>79.9</ele>
        <time>2018-09-16T07:14:26Z</time>
      </trkpt>
      <trkpt lat="49.24728" lon="1.14012">
        <ele>80.2</ele>
        <time>2018-09-16T07:14:28Z</time>
      </trkpt>
      <trkpt lat="49.24729" lon="1.13996">
        <ele>80.2</ele>
        <time>2018-09-16T07:14:30Z</time>
      </trkpt>
      <trkpt lat="49.24729" lon="1.13978">
        <ele>80.3</ele>
        <time>2018-09-16T07:14:32Z</time>
      </trkpt>
      <trkpt lat="49.24731" lon="1.13963">
        <ele>80.6</ele>
        <time>2018-09-16T07:14:34Z</time>
      </trkpt>
      <trkpt lat="49.24732" lon="1.13949">
        <ele>80.6</ele>
        <time>2018-09-16T07:14:36Z</time>
      </trkpt>
      <trkpt lat="49.24734" lon="1.13934">
        <ele>80.7</ele>
        <time>2018-09-16T07:14:38Z</time>
      </trkpt>
      <trkpt lat="49.24736" lon="1.13916">
        <ele>81</ele>
        <time>2018-09-16T07:14:41Z</time>
      </trkpt>
      <trkpt lat="49.24737" lon="1.13902">
        <ele>81.2</ele>
        <time>2018-09-16T07:14:45Z</time>
      </trkpt>
      <trkpt lat="49.24733" lon="1.13889">
        <ele>80.6</ele>
        <time>2018-09-16T07:15:26Z</time>
      </trkpt>
      <trkpt lat="49.24742" lon="1.13884">
        <ele>80.5</ele>
        <time>2018-09-16T07:16:21Z</time>
      </trkpt>
      <trkpt lat="49.24752" lon="1.13887">
        <ele>80.5</ele>
        <time>2018-09-16T07:17:16Z</time>
      </trkpt>
      <trkpt lat="49.2474" lon="1.13887">
        <ele>80.5</ele>
        <time>2018-09-16T07:19:22Z</time>
      </trkpt>
      <trkpt lat="49.24749" lon="1.13891">
        <ele>80.2</ele>
        <time>2018-09-16T07:22:45Z</time>
      </trkpt>
      <trkpt lat="49.24759" lon="1.13897">
        <ele>80.1</ele>
        <time>2018-09-16T07:23:08Z</time>
      </trkpt>
      <trkpt lat="49.2475" lon="1.13897">
        <ele>79.8</ele>
        <time>2018-09-16T07:23:46Z</time>
      </trkpt>
      <trkpt lat="49.24741" lon="1.13895">
        <ele>80.2</ele>
        <time>2018-09-16T07:23:54Z</time>
      </trkpt>
      <trkpt lat="49.24732" lon="1.13892">
        <ele>80.7</ele>
        <time>2018-09-16T07:24:07Z</time>
      </trkpt>
      <trkpt lat="49.24739" lon="1.1388">
        <ele>80.6</ele>
        <time>2018-09-16T07:24:21Z</time>
      </trkpt>
      <trkpt lat="49.24747" lon="1.13865">
        <ele>79.9</ele>
        <time>2018-09-16T07:24:24Z</time>
      </trkpt>
      <trkpt lat="49.24753" lon="1.13852">
        <ele>79.3</ele>
        <time>2018-09-16T07:24:26Z</time>
      </trkpt>
      <trkpt lat="49.24759" lon="1.13834">
        <ele>78.3</ele>
        <time>2018-09-16T07:24:28Z</time>
      </trkpt>
      <trkpt lat="49.24767" lon="1.13822">
        <ele>77.4</ele>
        <time>2018-09-16T07:24:30Z</time>
      </trkpt>
      <trkpt lat="49.24782" lon="1.13824">
        <ele>76.4</ele>
        <time>2018-09-16T07:24:33Z</time>
      </trkpt>
      <trkpt lat="49.24795" lon="1.13831">
        <ele>75.8</ele>
        <time>2018-09-16T07:24:35Z</time>
      </trkpt>
      <trkpt lat="49.24806" lon="1.13837">
        <ele>75.4</ele>
        <time>2018-09-16T07:24:37Z</time>
      </trkpt>
      <trkpt lat="49.2482" lon="1.13841">
        <ele>74.9</ele>
        <time>2018-09-16T07:24:39Z</time>
      </trkpt>
      <trkpt lat="49.24832" lon="1.13847">
        <ele>74.3</ele>
        <time>2018-09-16T07:24:41Z</time>
      </trkpt>
      <trkpt lat="49.24844" lon="1.13851">
        <ele>73.9</ele>
        <time>2018-09-16T07:24:43Z</time>
      </trkpt>
      <trkpt lat="49.24857" lon="1.13855">
        <ele>73.6</ele>
        <time>2018-09-16T07:24:45Z</time>
      </trkpt>
      <trkpt lat="49.24866" lon="1.13859">
        <ele>73.3</ele>
        <time>2018-09-16T07:24:46Z</time>
      </trkpt>
      <trkpt lat="49.24879" lon="1.13867">
        <ele>72.7</ele>
        <time>2018-09-16T07:24:48Z</time>
      </trkpt>
      <trkpt lat="49.24892" lon="1.13873">
        <ele>72.1</ele>
        <time>2018-09-16T07:24:50Z</time>
      </trkpt>
      <trkpt lat="49.24906" lon="1.13878">
        <ele>71.4</ele>
        <time>2018-09-16T07:24:52Z</time>
      </trkpt>
      <trkpt lat="49.2492" lon="1.13883">
        <ele>70.9</ele>
        <time>2018-09-16T07:24:54Z</time>
      </trkpt>
      <trkpt lat="49.24934" lon="1.13891">
        <ele>70.2</ele>
        <time>2018-09-16T07:24:56Z</time>
      </trkpt>
      <trkpt lat="49.24949" lon="1.13897">
        <ele>69.4</ele>
        <time>2018-09-16T07:24:58Z</time>
      </trkpt>
      <trkpt lat="49.24965" lon="1.13904">
        <ele>68.7</ele>
        <time>2018-09-16T07:25:00Z</time>
      </trkpt>
      <trkpt lat="49.2498" lon="1.13912">
        <ele>68.1</ele>
        <time>2018-09-16T07:25:02Z</time>
      </trkpt>
      <trkpt lat="49.24998" lon="1.13924">
        <ele>66</ele>
        <time>2018-09-16T07:25:05Z</time>
      </trkpt>
      <trkpt lat="49.25002" lon="1.13942">
        <ele>66.2</ele>
        <time>2018-09-16T07:25:08Z</time>
      </trkpt>
      <trkpt lat="49.24997" lon="1.13956">
        <ele>65.6</ele>
        <time>2018-09-16T07:25:10Z</time>
      </trkpt>
      <trkpt lat="49.24989" lon="1.13974">
        <ele>64.6</ele>
        <time>2018-09-16T07:25:12Z</time>
      </trkpt>
      <trkpt lat="49.24981" lon="1.13989">
        <ele>63.9</ele>
        <time>2018-09-16T07:25:14Z</time>
      </trkpt>
      <trkpt lat="49.24972" lon="1.14006">
        <ele>63.6</ele>
        <time>2018-09-16T07:25:16Z</time>
      </trkpt>
      <trkpt lat="49.24965" lon="1.14023">
        <ele>63.4</ele>
        <time>2018-09-16T07:25:18Z</time>
      </trkpt>
      <trkpt lat="49.24958" lon="1.14038">
        <ele>63.4</ele>
        <time>2018-09-16T07:25:20Z</time>
      </trkpt>
      <trkpt lat="49.24952" lon="1.14054">
        <ele>63.4</ele>
        <time>2018-09-16T07:25:22Z</time>
      </trkpt>
      <trkpt lat="49.24946" lon="1.14069">
        <ele>63.3</ele>
        <time>2018-09-16T07:25:24Z</time>
      </trkpt>
      <trkpt lat="49.24941" lon="1.14083">
        <ele>63.1</ele>
        <time>2018-09-16T07:25:26Z</time>
      </trkpt>
      <trkpt lat="49.24936" lon="1.14099">
        <ele>63.3</ele>
        <time>2018-09-16T07:25:28Z</time>
      </trkpt>
      <trkpt lat="49.2493" lon="1.14115">
        <ele>63.3</ele>
        <time>2018-09-16T07:25:30Z</time>
      </trkpt>
      <trkpt lat="49.24924" lon="1.1413">
        <ele>63</ele>
        <time>2018-09-16T07:25:32Z</time>
      </trkpt>
      <trkpt lat="49.24917" lon="1.14146">
        <ele>62.8</ele>
        <time>2018-09-16T07:25:34Z</time>
      </trkpt>
      <trkpt lat="49.24911" lon="1.14163">
        <ele>62.7</ele>
        <time>2018-09-16T07:25:36Z</time>
      </trkpt>
      <trkpt lat="49.24904" lon="1.1418">
        <ele>62.2</ele>
        <time>2018-09-16T07:25:38Z</time>
      </trkpt>
      <trkpt lat="49.24898" lon="1.14197">
        <ele>61.9</ele>
        <time>2018-09-16T07:25:40Z</time>
      </trkpt>
      <trkpt lat="49.2489" lon="1.14214">
        <ele>61.4</ele>
        <time>2018-09-16T07:25:42Z</time>
      </trkpt>
      <trkpt lat="49.24884" lon="1.1423">
        <ele>61.4</ele>
        <time>2018-09-16T07:25:44Z</time>
      </trkpt>
      <trkpt lat="49.2488" lon="1.14244">
        <ele>61.7</ele>
        <time>2018-09-16T07:25:46Z</time>
      </trkpt>
      <trkpt lat="49.24876" lon="1.14258">
        <ele>62</ele>
        <time>2018-09-16T07:25:48Z</time>
      </trkpt>
      <trkpt lat="49.24873" lon="1.14274">
        <ele>62.3</ele>
        <time>2018-09-16T07:25:50Z</time>
      </trkpt>
      <trkpt lat="49.24874" lon="1.14288">
        <ele>62.7</ele>
        <time>2018-09-16T07:25:52Z</time>
      </trkpt>
      <trkpt lat="49.24875" lon="1.14303">
        <ele>62.9</ele>
        <time>2018-09-16T07:25:54Z</time>
      </trkpt>
      <trkpt lat="49.24878" lon="1.14317">
        <ele>62.9</ele>
        <time>2018-09-16T07:25:56Z</time>
      </trkpt>
      <trkpt lat="49.2488" lon="1.14333">
        <ele>62.7</ele>
        <time>2018-09-16T07:25:58Z</time>
      </trkpt>
      <trkpt lat="49.24881" lon="1.14349">
        <ele>62.8</ele>
        <time>2018-09-16T07:26:00Z</time>
      </trkpt>
      <trkpt lat="49.24886" lon="1.14362">
        <ele>62.7</ele>
        <time>2018-09-16T07:26:02Z</time>
      </trkpt>
      <trkpt lat="49.24892" lon="1.14375">
        <ele>62.3</ele>
        <time>2018-09-16T07:26:04Z</time>
      </trkpt>
      <trkpt lat="49.24899" lon="1.14386">
        <ele>62.2</ele>
        <time>2018-09-16T07:26:06Z</time>
      </trkpt>
      <trkpt lat="49.249" lon="1.14405">
        <ele>62.1</ele>
        <time>2018-09-16T07:26:08Z</time>
      </trkpt>
      <trkpt lat="49.24901" lon="1.14423">
        <ele>62</ele>
        <time>2018-09-16T07:26:10Z</time>
      </trkpt>
      <trkpt lat="49.24902" lon="1.14441">
        <ele>61.8</ele>
        <time>2018-09-16T07:26:12Z</time>
      </trkpt>
      <trkpt lat="49.24902" lon="1.14461">
        <ele>61.3</ele>
        <time>2018-09-16T07:26:14Z</time>
      </trkpt>
      <trkpt lat="49.24902" lon="1.14484">
        <ele>60.7</ele>
        <time>2018-09-16T07:26:16Z</time>
      </trkpt>
      <trkpt lat="49.24905" lon="1.14503">
        <ele>60.5</ele>
        <time>2018-09-16T07:26:18Z</time>
      </trkpt>
      <trkpt lat="49.24909" lon="1.1452">
        <ele>59.9</ele>
        <time>2018-09-16T07:26:20Z</time>
      </trkpt>
      <trkpt lat="49.24912" lon="1.14537">
        <ele>59.7</ele>
        <time>2018-09-16T07:26:22Z</time>
      </trkpt>
      <trkpt lat="49.24913" lon="1.14556">
        <ele>59.3</ele>
        <time>2018-09-16T07:26:24Z</time>
      </trkpt>
      <trkpt lat="49.24913" lon="1.14576">
        <ele>59.1</ele>
        <time>2018-09-16T07:26:26Z</time>
      </trkpt>
      <trkpt lat="49.24914" lon="1.14595">
        <ele>58.8</ele>
        <time>2018-09-16T07:26:28Z</time>
      </trkpt>
      <trkpt lat="49.24917" lon="1.14611">
        <ele>58.5</ele>
        <time>2018-09-16T07:26:30Z</time>
      </trkpt>
      <trkpt lat="49.24915" lon="1.14633">
        <ele>58.3</ele>
        <time>2018-09-16T07:26:32Z</time>
      </trkpt>
      <trkpt lat="49.24914" lon="1.14653">
        <ele>58.1</ele>
        <time>2018-09-16T07:26:34Z</time>
      </trkpt>
      <trkpt lat="49.24914" lon="1.14672">
        <ele>58</ele>
        <time>2018-09-16T07:26:36Z</time>
      </trkpt>
      <trkpt lat="49.24912" lon="1.14693">
        <ele>57.8</ele>
        <time>2018-09-16T07:26:38Z</time>
      </trkpt>
      <trkpt lat="49.24912" lon="1.14712">
        <ele>57.6</ele>
        <time>2018-09-16T07:26:40Z</time>
      </trkpt>
      <trkpt lat="49.24913" lon="1.1473">
        <ele>57.5</ele>
        <time>2018-09-16T07:26:42Z</time>
      </trkpt>
      <trkpt lat="49.24912" lon="1.1475">
        <ele>57.4</ele>
        <time>2018-09-16T07:26:44Z</time>
      </trkpt>
      <trkpt lat="49.24911" lon="1.1477">
        <ele>57.1</ele>
        <time>2018-09-16T07:26:46Z</time>
      </trkpt>
      <trkpt lat="49.2491" lon="1.14791">
        <ele>56.7</ele>
        <time>2018-09-16T07:26:48Z</time>
      </trkpt>
      <trkpt lat="49.24908" lon="1.14812">
        <ele>56.4</ele>
        <time>2018-09-16T07:26:50Z</time>
      </trkpt>
      <trkpt lat="49.24905" lon="1.14832">
        <ele>56.2</ele>
        <time>2018-09-16T07:26:52Z</time>
      </trkpt>
      <trkpt lat="49.24903" lon="1.14851">
        <ele>56.1</ele>
        <time>2018-09-16T07:26:54Z</time>
      </trkpt>
      <trkpt lat="49.249" lon="1.14871">
        <ele>55.8</ele>
        <time>2018-09-16T07:26:56Z</time>
      </trkpt>
      <trkpt lat="49.24898" lon="1.14892">
        <ele>55.6</ele>
        <time>2018-09-16T07:26:58Z</time>
      </trkpt>
      <trkpt lat="49.24896" lon="1.14912">
        <ele>55.4</ele>
        <time>2018-09-16T07:27:00Z</time>
      </trkpt>
      <trkpt lat="49.24895" lon="1.14931">
        <ele>55</ele>
        <time>2018-09-16T07:27:02Z</time>
      </trkpt>
      <trkpt lat="49.24894" lon="1.14949">
        <ele>54.9</ele>
        <time>2018-09-16T07:27:04Z</time>
      </trkpt>
      <trkpt lat="49.24895" lon="1.14975">
        <ele>54</ele>
        <time>2018-09-16T07:27:07Z</time>
      </trkpt>
      <trkpt lat="49.24898" lon="1.15001">
        <ele>54.6</ele>
        <time>2018-09-16T07:27:10Z</time>
      </trkpt>
      <trkpt lat="49.24902" lon="1.15017">
        <ele>54.4</ele>
        <time>2018-09-16T07:27:12Z</time>
      </trkpt>
      <trkpt lat="49.24898" lon="1.15041">
        <ele>54.2</ele>
        <time>2018-09-16T07:27:14Z</time>
      </trkpt>
      <trkpt lat="49.24897" lon="1.15063">
        <ele>54</ele>
        <time>2018-09-16T07:27:16Z</time>
      </trkpt>
      <trkpt lat="49.24898" lon="1.15083">
        <ele>53.8</ele>
        <time>2018-09-16T07:27:18Z</time>
      </trkpt>
      <trkpt lat="49.249" lon="1.15102">
        <ele>53.6</ele>
        <time>2018-09-16T07:27:20Z</time>
      </trkpt>
      <trkpt lat="49.24902" lon="1.1512">
        <ele>53.3</ele>
        <time>2018-09-16T07:27:22Z</time>
      </trkpt>
      <trkpt lat="49.24901" lon="1.1514">
        <ele>53</ele>
        <time>2018-09-16T07:27:24Z</time>
      </trkpt>
      <trkpt lat="49.24901" lon="1.15162">
        <ele>52.7</ele>
        <time>2018-09-16T07:27:26Z</time>
      </trkpt>
      <trkpt lat="49.24897" lon="1.15183">
        <ele>52.5</ele>
        <time>2018-09-16T07:27:28Z</time>
      </trkpt>
      <trkpt lat="49.24896" lon="1.15204">
        <ele>52.2</ele>
        <time>2018-09-16T07:27:30Z</time>
      </trkpt>
      <trkpt lat="49.24894" lon="1.15225">
        <ele>51.8</ele>
        <time>2018-09-16T07:27:32Z</time>
      </trkpt>
      <trkpt lat="49.24892" lon="1.15247">
        <ele>51.4</ele>
        <time>2018-09-16T07:27:34Z</time>
      </trkpt>
      <trkpt lat="49.24889" lon="1.15268">
        <ele>51</ele>
        <time>2018-09-16T07:27:36Z</time>
      </trkpt>
      <trkpt lat="49.24885" lon="1.15284">
        <ele>50.6</ele>
        <time>2018-09-16T07:27:38Z</time>
      </trkpt>
      <trkpt lat="49.24879" lon="1.15299">
        <ele>50.7</ele>
        <time>2018-09-16T07:27:40Z</time>
      </trkpt>
      <trkpt lat="49.24871" lon="1.15313">
        <ele>50.5</ele>
        <time>2018-09-16T07:27:42Z</time>
      </trkpt>
      <trkpt lat="49.24856" lon="1.15333">
        <ele>50</ele>
        <time>2018-09-16T07:27:45Z</time>
      </trkpt>
      <trkpt lat="49.24836" lon="1.15356">
        <ele>50</ele>
        <time>2018-09-16T07:27:49Z</time>
      </trkpt>
      <trkpt lat="49.24821" lon="1.15367">
        <ele>49.9</ele>
        <time>2018-09-16T07:27:52Z</time>
      </trkpt>
      <trkpt lat="49.24811" lon="1.15375">
        <ele>49.7</ele>
        <time>2018-09-16T07:27:54Z</time>
      </trkpt>
      <trkpt lat="49.24802" lon="1.15384">
        <ele>49.6</ele>
        <time>2018-09-16T07:27:56Z</time>
      </trkpt>
      <trkpt lat="49.24791" lon="1.1539">
        <ele>49.7</ele>
        <time>2018-09-16T07:27:58Z</time>
      </trkpt>
      <trkpt lat="49.24781" lon="1.15396">
        <ele>49.3</ele>
        <time>2018-09-16T07:28:00Z</time>
      </trkpt>
      <trkpt lat="49.24772" lon="1.15402">
        <ele>49.2</ele>
        <time>2018-09-16T07:28:01Z</time>
      </trkpt>
      <trkpt lat="49.24761" lon="1.1541">
        <ele>49.1</ele>
        <time>2018-09-16T07:28:03Z</time>
      </trkpt>
      <trkpt lat="49.24749" lon="1.15416">
        <ele>49</ele>
        <time>2018-09-16T07:28:05Z</time>
      </trkpt>
      <trkpt lat="49.24739" lon="1.15423">
        <ele>48.9</ele>
        <time>2018-09-16T07:28:07Z</time>
      </trkpt>
      <trkpt lat="49.24727" lon="1.1543">
        <ele>48.7</ele>
        <time>2018-09-16T07:28:09Z</time>
      </trkpt>
      <trkpt lat="49.24716" lon="1.15435">
        <ele>48.6</ele>
        <time>2018-09-16T07:28:11Z</time>
      </trkpt>
      <trkpt lat="49.24704" lon="1.15442">
        <ele>48.5</ele>
        <time>2018-09-16T07:28:13Z</time>
      </trkpt>
      <trkpt lat="49.24693" lon="1.15446">
        <ele>48.4</ele>
        <time>2018-09-16T07:28:15Z</time>
      </trkpt>
      <trkpt lat="49.24683" lon="1.15449">
        <ele>48.1</ele>
        <time>2018-09-16T07:28:17Z</time>
      </trkpt>
      <trkpt lat="49.24671" lon="1.15455">
        <ele>47.8</ele>
        <time>2018-09-16T07:28:19Z</time>
      </trkpt>
      <trkpt lat="49.24659" lon="1.15459">
        <ele>47.5</ele>
        <time>2018-09-16T07:28:21Z</time>
      </trkpt>
      <trkpt lat="49.24646" lon="1.15468">
        <ele>47.2</ele>
        <time>2018-09-16T07:28:23Z</time>
      </trkpt>
      <trkpt lat="49.24636" lon="1.15476">
        <ele>46.7</ele>
        <time>2018-09-16T07:28:25Z</time>
      </trkpt>
      <trkpt lat="49.24622" lon="1.15488">
        <ele>46.5</ele>
        <time>2018-09-16T07:28:27Z</time>
      </trkpt>
      <trkpt lat="49.24612" lon="1.155">
        <ele>46.2</ele>
        <time>2018-09-16T07:28:29Z</time>
      </trkpt>
      <trkpt lat="49.24601" lon="1.15513">
        <ele>46.3</ele>
        <time>2018-09-16T07:28:31Z</time>
      </trkpt>
      <trkpt lat="49.24596" lon="1.15525">
        <ele>46.3</ele>
        <time>2018-09-16T07:28:33Z</time>
      </trkpt>
      <trkpt lat="49.24588" lon="1.15538">
        <ele>46.3</ele>
        <time>2018-09-16T07:28:35Z</time>
      </trkpt>
      <trkpt lat="49.24555" lon="1.15596">
        <ele>46</ele>
        <time>2018-09-16T07:28:41Z</time>
      </trkpt>
      <trkpt lat="49.24537" lon="1.15635">
        <ele>46.1</ele>
        <time>2018-09-16T07:28:46Z</time>
      </trkpt>
      <trkpt lat="49.24529" lon="1.15655">
        <ele>45.8</ele>
        <time>2018-09-16T07:28:48Z</time>
      </trkpt>
      <trkpt lat="49.24521" lon="1.15676">
        <ele>45.5</ele>
        <time>2018-09-16T07:28:50Z</time>
      </trkpt>
      <trkpt lat="49.24514" lon="1.15696">
        <ele>44.9</ele>
        <time>2018-09-16T07:28:52Z</time>
      </trkpt>
      <trkpt lat="49.24506" lon="1.15717">
        <ele>44.4</ele>
        <time>2018-09-16T07:28:54Z</time>
      </trkpt>
      <trkpt lat="49.24502" lon="1.15738">
        <ele>44</ele>
        <time>2018-09-16T07:28:56Z</time>
      </trkpt>
      <trkpt lat="49.24495" lon="1.15766">
        <ele>42</ele>
        <time>2018-09-16T07:28:59Z</time>
      </trkpt>
      <trkpt lat="49.24489" lon="1.15793">
        <ele>42.9</ele>
        <time>2018-09-16T07:29:02Z</time>
      </trkpt>
      <trkpt lat="49.24485" lon="1.15812">
        <ele>42.7</ele>
        <time>2018-09-16T07:29:04Z</time>
      </trkpt>
      <trkpt lat="49.24481" lon="1.1583">
        <ele>42.5</ele>
        <time>2018-09-16T07:29:06Z</time>
      </trkpt>
      <trkpt lat="49.24478" lon="1.15844">
        <ele>42.3</ele>
        <time>2018-09-16T07:29:08Z</time>
      </trkpt>
      <trkpt lat="49.24472" lon="1.15854">
        <ele>41.4</ele>
        <time>2018-09-16T07:29:13Z</time>
      </trkpt>
      <trkpt lat="49.2446" lon="1.15854">
        <ele>41</ele>
        <time>2018-09-16T07:29:18Z</time>
      </trkpt>
      <trkpt lat="49.24444" lon="1.15848">
        <ele>43</ele>
        <time>2018-09-16T07:29:26Z</time>
      </trkpt>
      <trkpt lat="49.24432" lon="1.15844">
        <ele>45.4</ele>
        <time>2018-09-16T07:29:33Z</time>
      </trkpt>
      <trkpt lat="49.24419" lon="1.15837">
        <ele>47</ele>
        <time>2018-09-16T07:29:40Z</time>
      </trkpt>
      <trkpt lat="49.24409" lon="1.15837">
        <ele>49</ele>
        <time>2018-09-16T07:29:48Z</time>
      </trkpt>
      <trkpt lat="49.244" lon="1.15831">
        <ele>53</ele>
        <time>2018-09-16T07:30:04Z</time>
      </trkpt>
      <trkpt lat="49.24393" lon="1.15842">
        <ele>58</ele>
        <time>2018-09-16T07:30:28Z</time>
      </trkpt>
      <trkpt lat="49.24388" lon="1.15867">
        <ele>58</ele>
        <time>2018-09-16T07:30:36Z</time>
      </trkpt>
      <trkpt lat="49.24384" lon="1.15885">
        <ele>58</ele>
        <time>2018-09-16T07:30:40Z</time>
      </trkpt>
      <trkpt lat="49.24383" lon="1.15904">
        <ele>58</ele>
        <time>2018-09-16T07:30:44Z</time>
      </trkpt>
      <trkpt lat="49.24378" lon="1.1593">
        <ele>58</ele>
        <time>2018-09-16T07:30:48Z</time>
      </trkpt>
      <trkpt lat="49.24375" lon="1.15948">
        <ele>57</ele>
        <time>2018-09-16T07:30:52Z</time>
      </trkpt>
      <trkpt lat="49.24369" lon="1.1597">
        <ele>57</ele>
        <time>2018-09-16T07:30:56Z</time>
      </trkpt>
      <trkpt lat="49.24361" lon="1.16001">
        <ele>56</ele>
        <time>2018-09-16T07:31:00Z</time>
      </trkpt>
      <trkpt lat="49.24356" lon="1.16029">
        <ele>55</ele>
        <time>2018-09-16T07:31:04Z</time>
      </trkpt>
      <trkpt lat="49.24349" lon="1.16048">
        <ele>55</ele>
        <time>2018-09-16T07:31:08Z</time>
      </trkpt>
      <trkpt lat="49.2434" lon="1.16061">
        <ele>56</ele>
        <time>2018-09-16T07:31:12Z</time>
      </trkpt>
      <trkpt lat="49.24328" lon="1.1607">
        <ele>58.6</ele>
        <time>2018-09-16T07:31:19Z</time>
      </trkpt>
      <trkpt lat="49.24318" lon="1.1607">
        <ele>61.7</ele>
        <time>2018-09-16T07:31:27Z</time>
      </trkpt>
      <trkpt lat="49.24307" lon="1.16067">
        <ele>64.7</ele>
        <time>2018-09-16T07:31:34Z</time>
      </trkpt>
      <trkpt lat="49.24295" lon="1.16065">
        <ele>68</ele>
        <time>2018-09-16T07:31:44Z</time>
      </trkpt>
      <trkpt lat="49.24286" lon="1.16056">
        <ele>73.8</ele>
        <time>2018-09-16T07:32:06Z</time>
      </trkpt>
      <trkpt lat="49.24277" lon="1.16052">
        <ele>75.2</ele>
        <time>2018-09-16T07:32:12Z</time>
      </trkpt>
      <trkpt lat="49.24266" lon="1.16047">
        <ele>77.9</ele>
        <time>2018-09-16T07:32:23Z</time>
      </trkpt>
      <trkpt lat="49.24256" lon="1.16042">
        <ele>79.8</ele>
        <time>2018-09-16T07:32:30Z</time>
      </trkpt>
      <trkpt lat="49.24246" lon="1.16039">
        <ele>81.4</ele>
        <time>2018-09-16T07:32:37Z</time>
      </trkpt>
      <trkpt lat="49.24237" lon="1.16035">
        <ele>82.2</ele>
        <time>2018-09-16T07:32:41Z</time>
      </trkpt>
      <trkpt lat="49.24227" lon="1.16033">
        <ele>83.3</ele>
        <time>2018-09-16T07:32:46Z</time>
      </trkpt>
      <trkpt lat="49.24217" lon="1.16029">
        <ele>84</ele>
        <time>2018-09-16T07:32:51Z</time>
      </trkpt>
      <trkpt lat="49.24206" lon="1.16024">
        <ele>85</ele>
        <time>2018-09-16T07:32:56Z</time>
      </trkpt>
      <trkpt lat="49.24196" lon="1.16019">
        <ele>87</ele>
        <time>2018-09-16T07:33:01Z</time>
      </trkpt>
      <trkpt lat="49.24187" lon="1.16013">
        <ele>88.4</ele>
        <time>2018-09-16T07:33:07Z</time>
      </trkpt>
      <trkpt lat="49.24177" lon="1.1601">
        <ele>89</ele>
        <time>2018-09-16T07:33:11Z</time>
      </trkpt>
      <trkpt lat="49.24166" lon="1.16004">
        <ele>90</ele>
        <time>2018-09-16T07:33:16Z</time>
      </trkpt>
      <trkpt lat="49.24156" lon="1.16">
        <ele>90.8</ele>
        <time>2018-09-16T07:33:20Z</time>
      </trkpt>
      <trkpt lat="49.24147" lon="1.15996">
        <ele>91.3</ele>
        <time>2018-09-16T07:33:23Z</time>
      </trkpt>
      <trkpt lat="49.24138" lon="1.15992">
        <ele>91.7</ele>
        <time>2018-09-16T07:33:26Z</time>
      </trkpt>
      <trkpt lat="49.24126" lon="1.15986">
        <ele>92.4</ele>
        <time>2018-09-16T07:33:30Z</time>
      </trkpt>
      <trkpt lat="49.24117" lon="1.15982">
        <ele>93</ele>
        <time>2018-09-16T07:33:33Z</time>
      </trkpt>
      <trkpt lat="49.24108" lon="1.15979">
        <ele>93.5</ele>
        <time>2018-09-16T07:33:36Z</time>
      </trkpt>
      <trkpt lat="49.24098" lon="1.15977">
        <ele>93.9</ele>
        <time>2018-09-16T07:33:39Z</time>
      </trkpt>
      <trkpt lat="49.24087" lon="1.15969">
        <ele>94.6</ele>
        <time>2018-09-16T07:33:43Z</time>
      </trkpt>
      <trkpt lat="49.24078" lon="1.15963">
        <ele>94.9</ele>
        <time>2018-09-16T07:33:46Z</time>
      </trkpt>
      <trkpt lat="49.24069" lon="1.15958">
        <ele>95.3</ele>
        <time>2018-09-16T07:33:49Z</time>
      </trkpt>
      <trkpt lat="49.2406" lon="1.15955">
        <ele>95.7</ele>
        <time>2018-09-16T07:33:52Z</time>
      </trkpt>
      <trkpt lat="49.24051" lon="1.15953">
        <ele>96.1</ele>
        <time>2018-09-16T07:33:55Z</time>
      </trkpt>
      <trkpt lat="49.24042" lon="1.15949">
        <ele>96.2</ele>
        <time>2018-09-16T07:33:58Z</time>
      </trkpt>
      <trkpt lat="49.24033" lon="1.15945">
        <ele>96.3</ele>
        <time>2018-09-16T07:34:01Z</time>
      </trkpt>
      <trkpt lat="49.24023" lon="1.15939">
        <ele>96.5</ele>
        <time>2018-09-16T07:34:04Z</time>
      </trkpt>
      <trkpt lat="49.24012" lon="1.15934">
        <ele>96.8</ele>
        <time>2018-09-16T07:34:07Z</time>
      </trkpt>
      <trkpt lat="49.24001" lon="1.15928">
        <ele>97.3</ele>
        <time>2018-09-16T07:34:10Z</time>
      </trkpt>
      <trkpt lat="49.23992" lon="1.15922">
        <ele>97.4</ele>
        <time>2018-09-16T07:34:13Z</time>
      </trkpt>
      <trkpt lat="49.23981" lon="1.15919">
        <ele>97.7</ele>
        <time>2018-09-16T07:34:16Z</time>
      </trkpt>
      <trkpt lat="49.23971" lon="1.15914">
        <ele>97.9</ele>
        <time>2018-09-16T07:34:19Z</time>
      </trkpt>
      <trkpt lat="49.23962" lon="1.1591">
        <ele>98.2</ele>
        <time>2018-09-16T07:34:22Z</time>
      </trkpt>
      <trkpt lat="49.23952" lon="1.1591">
        <ele>98.2</ele>
        <time>2018-09-16T07:34:25Z</time>
      </trkpt>
      <trkpt lat="49.23946" lon="1.15922">
        <ele>98.1</ele>
        <time>2018-09-16T07:34:28Z</time>
      </trkpt>
      <trkpt lat="49.23942" lon="1.15935">
        <ele>97.8</ele>
        <time>2018-09-16T07:34:30Z</time>
      </trkpt>
      <trkpt lat="49.23938" lon="1.15953">
        <ele>97.5</ele>
        <time>2018-09-16T07:34:32Z</time>
      </trkpt>
      <trkpt lat="49.23934" lon="1.15972">
        <ele>96.7</ele>
        <time>2018-09-16T07:34:34Z</time>
      </trkpt>
      <trkpt lat="49.2393" lon="1.15994">
        <ele>95.9</ele>
        <time>2018-09-16T07:34:36Z</time>
      </trkpt>
      <trkpt lat="49.23925" lon="1.16019">
        <ele>94.6</ele>
        <time>2018-09-16T07:34:38Z</time>
      </trkpt>
      <trkpt lat="49.23922" lon="1.16032">
        <ele>94.1</ele>
        <time>2018-09-16T07:34:39Z</time>
      </trkpt>
      <trkpt lat="49.23919" lon="1.16046">
        <ele>93.5</ele>
        <time>2018-09-16T07:34:40Z</time>
      </trkpt>
      <trkpt lat="49.23917" lon="1.16059">
        <ele>92.7</ele>
        <time>2018-09-16T07:34:41Z</time>
      </trkpt>
      <trkpt lat="49.23913" lon="1.16073">
        <ele>92</ele>
        <time>2018-09-16T07:34:42Z</time>
      </trkpt>
      <trkpt lat="49.2391" lon="1.16087">
        <ele>91.4</ele>
        <time>2018-09-16T07:34:43Z</time>
      </trkpt>
      <trkpt lat="49.23907" lon="1.16102">
        <ele>90.7</ele>
        <time>2018-09-16T07:34:44Z</time>
      </trkpt>
      <trkpt lat="49.23904" lon="1.16117">
        <ele>89.8</ele>
        <time>2018-09-16T07:34:45Z</time>
      </trkpt>
      <trkpt lat="49.23901" lon="1.16132">
        <ele>89.1</ele>
        <time>2018-09-16T07:34:46Z</time>
      </trkpt>
      <trkpt lat="49.23898" lon="1.16147">
        <ele>88.3</ele>
        <time>2018-09-16T07:34:47Z</time>
      </trkpt>
      <trkpt lat="49.23894" lon="1.16163">
        <ele>87.5</ele>
        <time>2018-09-16T07:34:48Z</time>
      </trkpt>
      <trkpt lat="49.23891" lon="1.16178">
        <ele>86.5</ele>
        <time>2018-09-16T07:34:49Z</time>
      </trkpt>
      <trkpt lat="49.23889" lon="1.16194">
        <ele>85.7</ele>
        <time>2018-09-16T07:34:50Z</time>
      </trkpt>
      <trkpt lat="49.23887" lon="1.16209">
        <ele>84.6</ele>
        <time>2018-09-16T07:34:51Z</time>
      </trkpt>
      <trkpt lat="49.23886" lon="1.16224">
        <ele>83.7</ele>
        <time>2018-09-16T07:34:52Z</time>
      </trkpt>
      <trkpt lat="49.23885" lon="1.16238">
        <ele>82.9</ele>
        <time>2018-09-16T07:34:53Z</time>
      </trkpt>
      <trkpt lat="49.23881" lon="1.16252">
        <ele>82</ele>
        <time>2018-09-16T07:34:54Z</time>
      </trkpt>
      <trkpt lat="49.23879" lon="1.16268">
        <ele>81.1</ele>
        <time>2018-09-16T07:34:55Z</time>
      </trkpt>
      <trkpt lat="49.23877" lon="1.16284">
        <ele>80.3</ele>
        <time>2018-09-16T07:34:56Z</time>
      </trkpt>
      <trkpt lat="49.23874" lon="1.163">
        <ele>79.4</ele>
        <time>2018-09-16T07:34:57Z</time>
      </trkpt>
      <trkpt lat="49.23871" lon="1.16315">
        <ele>78.5</ele>
        <time>2018-09-16T07:34:58Z</time>
      </trkpt>
      <trkpt lat="49.23868" lon="1.16331">
        <ele>77.1</ele>
        <time>2018-09-16T07:34:59Z</time>
      </trkpt>
      <trkpt lat="49.23865" lon="1.16344">
        <ele>75.8</ele>
        <time>2018-09-16T07:35:00Z</time>
      </trkpt>
      <trkpt lat="49.23863" lon="1.16359">
        <ele>74.6</ele>
        <time>2018-09-16T07:35:01Z</time>
      </trkpt>
      <trkpt lat="49.23861" lon="1.16375">
        <ele>73.3</ele>
        <time>2018-09-16T07:35:02Z</time>
      </trkpt>
      <trkpt lat="49.23858" lon="1.1639">
        <ele>71.9</ele>
        <time>2018-09-16T07:35:03Z</time>
      </trkpt>
      <trkpt lat="49.23855" lon="1.16406">
        <ele>70.4</ele>
        <time>2018-09-16T07:35:04Z</time>
      </trkpt>
      <trkpt lat="49.23851" lon="1.16422">
        <ele>68.9</ele>
        <time>2018-09-16T07:35:05Z</time>
      </trkpt>
      <trkpt lat="49.23846" lon="1.16445">
        <ele>65</ele>
        <time>2018-09-16T07:35:07Z</time>
      </trkpt>
      <trkpt lat="49.23839" lon="1.1648">
        <ele>61.6</ele>
        <time>2018-09-16T07:35:10Z</time>
      </trkpt>
      <trkpt lat="49.23835" lon="1.16495">
        <ele>58.8</ele>
        <time>2018-09-16T07:35:12Z</time>
      </trkpt>
      <trkpt lat="49.23839" lon="1.16509">
        <ele>56.4</ele>
        <time>2018-09-16T07:35:14Z</time>
      </trkpt>
      <trkpt lat="49.23837" lon="1.16524">
        <ele>54.7</ele>
        <time>2018-09-16T07:35:16Z</time>
      </trkpt>
      <trkpt lat="49.23848" lon="1.16533">
        <ele>53</ele>
        <time>2018-09-16T07:35:20Z</time>
      </trkpt>
      <trkpt lat="49.23862" lon="1.16543">
        <ele>52.5</ele>
        <time>2018-09-16T07:35:23Z</time>
      </trkpt>
      <trkpt lat="49.23877" lon="1.1655">
        <ele>52.4</ele>
        <time>2018-09-16T07:35:25Z</time>
      </trkpt>
      <trkpt lat="49.23889" lon="1.16558">
        <ele>52.3</ele>
        <time>2018-09-16T07:35:28Z</time>
      </trkpt>
      <trkpt lat="49.23898" lon="1.16561">
        <ele>52.3</ele>
        <time>2018-09-16T07:35:30Z</time>
      </trkpt>
      <trkpt lat="49.23908" lon="1.16568">
        <ele>52.3</ele>
        <time>2018-09-16T07:35:32Z</time>
      </trkpt>
      <trkpt lat="49.23917" lon="1.16582">
        <ele>52.2</ele>
        <time>2018-09-16T07:35:35Z</time>
      </trkpt>
      <trkpt lat="49.23927" lon="1.16591">
        <ele>51.8</ele>
        <time>2018-09-16T07:35:38Z</time>
      </trkpt>
      <trkpt lat="49.23939" lon="1.16599">
        <ele>51.4</ele>
        <time>2018-09-16T07:35:41Z</time>
      </trkpt>
      <trkpt lat="49.23955" lon="1.16605">
        <ele>50.9</ele>
        <time>2018-09-16T07:35:44Z</time>
      </trkpt>
      <trkpt lat="49.23966" lon="1.16605">
        <ele>50.6</ele>
        <time>2018-09-16T07:35:46Z</time>
      </trkpt>
      <trkpt lat="49.23974" lon="1.16611">
        <ele>50.4</ele>
        <time>2018-09-16T07:35:49Z</time>
      </trkpt>
      <trkpt lat="49.23989" lon="1.16614">
        <ele>50.4</ele>
        <time>2018-09-16T07:35:52Z</time>
      </trkpt>
      <trkpt lat="49.24" lon="1.16616">
        <ele>50.5</ele>
        <time>2018-09-16T07:35:53Z</time>
      </trkpt>
      <trkpt lat="49.2401" lon="1.16621">
        <ele>50.6</ele>
        <time>2018-09-16T07:35:55Z</time>
      </trkpt>
      <trkpt lat="49.24024" lon="1.16626">
        <ele>51</ele>
        <time>2018-09-16T07:35:58Z</time>
      </trkpt>
      <trkpt lat="49.24035" lon="1.1663">
        <ele>51.6</ele>
        <time>2018-09-16T07:36:00Z</time>
      </trkpt>
      <trkpt lat="49.24047" lon="1.16635">
        <ele>52.2</ele>
        <time>2018-09-16T07:36:03Z</time>
      </trkpt>
      <trkpt lat="49.2406" lon="1.16638">
        <ele>52.9</ele>
        <time>2018-09-16T07:36:06Z</time>
      </trkpt>
      <trkpt lat="49.24071" lon="1.16641">
        <ele>53.7</ele>
        <time>2018-09-16T07:36:09Z</time>
      </trkpt>
      <trkpt lat="49.24079" lon="1.16652">
        <ele>54.4</ele>
        <time>2018-09-16T07:36:13Z</time>
      </trkpt>
      <trkpt lat="49.24087" lon="1.1666">
        <ele>54.7</ele>
        <time>2018-09-16T07:36:15Z</time>
      </trkpt>
      <trkpt lat="49.24095" lon="1.16669">
        <ele>55</ele>
        <time>2018-09-16T07:36:18Z</time>
      </trkpt>
      <trkpt lat="49.24104" lon="1.16675">
        <ele>55.2</ele>
        <time>2018-09-16T07:36:21Z</time>
      </trkpt>
      <trkpt lat="49.24113" lon="1.16681">
        <ele>55.3</ele>
        <time>2018-09-16T07:36:23Z</time>
      </trkpt>
      <trkpt lat="49.24122" lon="1.16688">
        <ele>55.4</ele>
        <time>2018-09-16T07:36:25Z</time>
      </trkpt>
      <trkpt lat="49.24131" lon="1.16697">
        <ele>55.3</ele>
        <time>2018-09-16T07:36:28Z</time>
      </trkpt>
      <trkpt lat="49.24139" lon="1.16706">
        <ele>55.4</ele>
        <time>2018-09-16T07:36:30Z</time>
      </trkpt>
      <trkpt lat="49.24145" lon="1.1672">
        <ele>55.4</ele>
        <time>2018-09-16T07:36:32Z</time>
      </trkpt>
      <trkpt lat="49.24152" lon="1.16736">
        <ele>54.6</ele>
        <time>2018-09-16T07:36:35Z</time>
      </trkpt>
      <trkpt lat="49.2416" lon="1.16753">
        <ele>53.4</ele>
        <time>2018-09-16T07:36:38Z</time>
      </trkpt>
      <trkpt lat="49.24168" lon="1.16764">
        <ele>52.5</ele>
        <time>2018-09-16T07:36:40Z</time>
      </trkpt>
      <trkpt lat="49.24177" lon="1.16771">
        <ele>51.9</ele>
        <time>2018-09-16T07:36:42Z</time>
      </trkpt>
      <trkpt lat="49.2419" lon="1.16777">
        <ele>51.7</ele>
        <time>2018-09-16T07:36:44Z</time>
      </trkpt>
      <trkpt lat="49.24203" lon="1.16775">
        <ele>51.9</ele>
        <time>2018-09-16T07:36:46Z</time>
      </trkpt>
      <trkpt lat="49.24215" lon="1.16767">
        <ele>52.5</ele>
        <time>2018-09-16T07:36:49Z</time>
      </trkpt>
      <trkpt lat="49.24225" lon="1.16763">
        <ele>53.2</ele>
        <time>2018-09-16T07:36:52Z</time>
      </trkpt>
      <trkpt lat="49.24234" lon="1.16761">
        <ele>53.8</ele>
        <time>2018-09-16T07:36:55Z</time>
      </trkpt>
      <trkpt lat="49.24245" lon="1.16759">
        <ele>54.2</ele>
        <time>2018-09-16T07:36:58Z</time>
      </trkpt>
      <trkpt lat="49.24254" lon="1.16753">
        <ele>54.9</ele>
        <time>2018-09-16T07:37:01Z</time>
      </trkpt>
      <trkpt lat="49.24264" lon="1.16751">
        <ele>55.5</ele>
        <time>2018-09-16T07:37:04Z</time>
      </trkpt>
      <trkpt lat="49.24276" lon="1.16747">
        <ele>56</ele>
        <time>2018-09-16T07:37:07Z</time>
      </trkpt>
      <trkpt lat="49.24286" lon="1.16741">
        <ele>56.5</ele>
        <time>2018-09-16T07:37:10Z</time>
      </trkpt>
      <trkpt lat="49.24295" lon="1.16734">
        <ele>57.1</ele>
        <time>2018-09-16T07:37:13Z</time>
      </trkpt>
      <trkpt lat="49.24303" lon="1.16724">
        <ele>57.7</ele>
        <time>2018-09-16T07:37:16Z</time>
      </trkpt>
      <trkpt lat="49.2431" lon="1.16715">
        <ele>58.1</ele>
        <time>2018-09-16T07:37:19Z</time>
      </trkpt>
      <trkpt lat="49.24316" lon="1.16704">
        <ele>58.9</ele>
        <time>2018-09-16T07:37:23Z</time>
      </trkpt>
      <trkpt lat="49.24323" lon="1.16692">
        <ele>59.3</ele>
        <time>2018-09-16T07:37:27Z</time>
      </trkpt>
      <trkpt lat="49.24332" lon="1.16695">
        <ele>59.2</ele>
        <time>2018-09-16T07:37:31Z</time>
      </trkpt>
      <trkpt lat="49.24342" lon="1.16701">
        <ele>58.7</ele>
        <time>2018-09-16T07:37:35Z</time>
      </trkpt>
      <trkpt lat="49.24353" lon="1.16696">
        <ele>58.3</ele>
        <time>2018-09-16T07:37:37Z</time>
      </trkpt>
      <trkpt lat="49.24366" lon="1.1669">
        <ele>56</ele>
        <time>2018-09-16T07:37:39Z</time>
      </trkpt>
      <trkpt lat="49.24389" lon="1.16668">
        <ele>55</ele>
        <time>2018-09-16T07:37:43Z</time>
      </trkpt>
      <trkpt lat="49.24401" lon="1.16642">
        <ele>54.5</ele>
        <time>2018-09-16T07:37:46Z</time>
      </trkpt>
      <trkpt lat="49.24406" lon="1.1662">
        <ele>53.1</ele>
        <time>2018-09-16T07:37:48Z</time>
      </trkpt>
      <trkpt lat="49.24413" lon="1.16603">
        <ele>51.8</ele>
        <time>2018-09-16T07:37:50Z</time>
      </trkpt>
      <trkpt lat="49.24419" lon="1.16575">
        <ele>49</ele>
        <time>2018-09-16T07:37:53Z</time>
      </trkpt>
      <trkpt lat="49.24437" lon="1.16535">
        <ele>47</ele>
        <time>2018-09-16T07:37:57Z</time>
      </trkpt>
      <trkpt lat="49.24456" lon="1.16493">
        <ele>44</ele>
        <time>2018-09-16T07:38:01Z</time>
      </trkpt>
      <trkpt lat="49.24465" lon="1.16444">
        <ele>42</ele>
        <time>2018-09-16T07:38:05Z</time>
      </trkpt>
      <trkpt lat="49.24468" lon="1.16404">
        <ele>39</ele>
        <time>2018-09-16T07:38:09Z</time>
      </trkpt>
      <trkpt lat="49.2447" lon="1.1637">
        <ele>38</ele>
        <time>2018-09-16T07:38:13Z</time>
      </trkpt>
      <trkpt lat="49.24463" lon="1.16335">
        <ele>38</ele>
        <time>2018-09-16T07:38:17Z</time>
      </trkpt>
      <trkpt lat="49.24453" lon="1.16319">
        <ele>38</ele>
        <time>2018-09-16T07:38:21Z</time>
      </trkpt>
      <trkpt lat="49.24452" lon="1.16296">
        <ele>38</ele>
        <time>2018-09-16T07:38:25Z</time>
      </trkpt>
      <trkpt lat="49.24451" lon="1.16272">
        <ele>38</ele>
        <time>2018-09-16T07:38:29Z</time>
      </trkpt>
      <trkpt lat="49.24456" lon="1.16259">
        <ele>38.2</ele>
        <time>2018-09-16T07:38:32Z</time>
      </trkpt>
      <trkpt lat="49.24462" lon="1.16239">
        <ele>37.4</ele>
        <time>2018-09-16T07:38:35Z</time>
      </trkpt>
      <trkpt lat="49.24459" lon="1.1622">
        <ele>37.3</ele>
        <time>2018-09-16T07:38:38Z</time>
      </trkpt>
      <trkpt lat="49.24456" lon="1.16205">
        <ele>37.6</ele>
        <time>2018-09-16T07:38:41Z</time>
      </trkpt>
      <trkpt lat="49.24461" lon="1.16189">
        <ele>38.2</ele>
        <time>2018-09-16T07:38:44Z</time>
      </trkpt>
      <trkpt lat="49.24459" lon="1.16171">
        <ele>39.2</ele>
        <time>2018-09-16T07:38:48Z</time>
      </trkpt>
      <trkpt lat="49.24454" lon="1.16155">
        <ele>39.6</ele>
        <time>2018-09-16T07:38:52Z</time>
      </trkpt>
      <trkpt lat="49.24462" lon="1.16145">
        <ele>40.9</ele>
        <time>2018-09-16T07:38:59Z</time>
      </trkpt>
      <trkpt lat="49.24472" lon="1.16146">
        <ele>42.7</ele>
        <time>2018-09-16T07:39:06Z</time>
      </trkpt>
      <trkpt lat="49.24481" lon="1.1615">
        <ele>44.1</ele>
        <time>2018-09-16T07:39:12Z</time>
      </trkpt>
      <trkpt lat="49.2449" lon="1.16148">
        <ele>45.9</ele>
        <time>2018-09-16T07:39:19Z</time>
      </trkpt>
      <trkpt lat="49.24495" lon="1.16135">
        <ele>47.8</ele>
        <time>2018-09-16T07:39:26Z</time>
      </trkpt>
      <trkpt lat="49.24498" lon="1.1612">
        <ele>49.1</ele>
        <time>2018-09-16T07:39:32Z</time>
      </trkpt>
      <trkpt lat="49.24502" lon="1.16106">
        <ele>51.2</ele>
        <time>2018-09-16T07:39:40Z</time>
      </trkpt>
      <trkpt lat="49.24502" lon="1.16091">
        <ele>52.5</ele>
        <time>2018-09-16T07:39:46Z</time>
      </trkpt>
      <trkpt lat="49.24505" lon="1.16076">
        <ele>54</ele>
        <time>2018-09-16T07:39:52Z</time>
      </trkpt>
      <trkpt lat="49.24503" lon="1.16061">
        <ele>55.6</ele>
        <time>2018-09-16T07:39:59Z</time>
      </trkpt>
      <trkpt lat="49.24505" lon="1.16046">
        <ele>56.9</ele>
        <time>2018-09-16T07:40:05Z</time>
      </trkpt>
      <trkpt lat="49.24509" lon="1.16032">
        <ele>58.7</ele>
        <time>2018-09-16T07:40:11Z</time>
      </trkpt>
      <trkpt lat="49.24516" lon="1.16019">
        <ele>61.2</ele>
        <time>2018-09-16T07:40:18Z</time>
      </trkpt>
      <trkpt lat="49.24523" lon="1.16011">
        <ele>63.5</ele>
        <time>2018-09-16T07:40:25Z</time>
      </trkpt>
      <trkpt lat="49.2453" lon="1.16">
        <ele>65.9</ele>
        <time>2018-09-16T07:40:32Z</time>
      </trkpt>
      <trkpt lat="49.24537" lon="1.15988">
        <ele>68.1</ele>
        <time>2018-09-16T07:40:40Z</time>
      </trkpt>
      <trkpt lat="49.24545" lon="1.15981">
        <ele>69</ele>
        <time>2018-09-16T07:40:47Z</time>
      </trkpt>
      <trkpt lat="49.24552" lon="1.15971">
        <ele>71.4</ele>
        <time>2018-09-16T07:40:54Z</time>
      </trkpt>
      <trkpt lat="49.24561" lon="1.15969">
        <ele>73.9</ele>
        <time>2018-09-16T07:41:05Z</time>
      </trkpt>
      <trkpt lat="49.24569" lon="1.15976">
        <ele>76.2</ele>
        <time>2018-09-16T07:41:14Z</time>
      </trkpt>
      <trkpt lat="49.24578" lon="1.1598">
        <ele>78</ele>
        <time>2018-09-16T07:41:21Z</time>
      </trkpt>
      <trkpt lat="49.24586" lon="1.15985">
        <ele>79.7</ele>
        <time>2018-09-16T07:41:28Z</time>
      </trkpt>
      <trkpt lat="49.24595" lon="1.1599">
        <ele>81.5</ele>
        <time>2018-09-16T07:41:35Z</time>
      </trkpt>
      <trkpt lat="49.24605" lon="1.15993">
        <ele>83.9</ele>
        <time>2018-09-16T07:41:45Z</time>
      </trkpt>
      <trkpt lat="49.24615" lon="1.15997">
        <ele>85.3</ele>
        <time>2018-09-16T07:41:51Z</time>
      </trkpt>
      <trkpt lat="49.24625" lon="1.16001">
        <ele>86</ele>
        <time>2018-09-16T07:41:58Z</time>
      </trkpt>
      <trkpt lat="49.24635" lon="1.16005">
        <ele>88.8</ele>
        <time>2018-09-16T07:42:06Z</time>
      </trkpt>
      <trkpt lat="49.24645" lon="1.16006">
        <ele>90.3</ele>
        <time>2018-09-16T07:42:13Z</time>
      </trkpt>
      <trkpt lat="49.24657" lon="1.16009">
        <ele>92.5</ele>
        <time>2018-09-16T07:42:21Z</time>
      </trkpt>
      <trkpt lat="49.24668" lon="1.16009">
        <ele>94.5</ele>
        <time>2018-09-16T07:42:29Z</time>
      </trkpt>
      <trkpt lat="49.24678" lon="1.16014">
        <ele>95.8</ele>
        <time>2018-09-16T07:42:34Z</time>
      </trkpt>
      <trkpt lat="49.24686" lon="1.16018">
        <ele>96.7</ele>
        <time>2018-09-16T07:42:39Z</time>
      </trkpt>
      <trkpt lat="49.24696" lon="1.16025">
        <ele>97.9</ele>
        <time>2018-09-16T07:42:45Z</time>
      </trkpt>
      <trkpt lat="49.24705" lon="1.16031">
        <ele>99</ele>
        <time>2018-09-16T07:42:51Z</time>
      </trkpt>
      <trkpt lat="49.24714" lon="1.16039">
        <ele>100.2</ele>
        <time>2018-09-16T07:42:57Z</time>
      </trkpt>
      <trkpt lat="49.24723" lon="1.16044">
        <ele>100.9</ele>
        <time>2018-09-16T07:43:01Z</time>
      </trkpt>
      <trkpt lat="49.24732" lon="1.16048">
        <ele>102.1</ele>
        <time>2018-09-16T07:43:06Z</time>
      </trkpt>
      <trkpt lat="49.24742" lon="1.16055">
        <ele>103.7</ele>
        <time>2018-09-16T07:43:11Z</time>
      </trkpt>
      <trkpt lat="49.24751" lon="1.16057">
        <ele>104.6</ele>
        <time>2018-09-16T07:43:15Z</time>
      </trkpt>
      <trkpt lat="49.2476" lon="1.16064">
        <ele>105.6</ele>
        <time>2018-09-16T07:43:20Z</time>
      </trkpt>
      <trkpt lat="49.2477" lon="1.16069">
        <ele>106.4</ele>
        <time>2018-09-16T07:43:25Z</time>
      </trkpt>
      <trkpt lat="49.2478" lon="1.16075">
        <ele>107</ele>
        <time>2018-09-16T07:43:28Z</time>
      </trkpt>
      <trkpt lat="49.24788" lon="1.16079">
        <ele>107</ele>
        <time>2018-09-16T07:43:31Z</time>
      </trkpt>
      <trkpt lat="49.24798" lon="1.16084">
        <ele>107.1</ele>
        <time>2018-09-16T07:43:34Z</time>
      </trkpt>
      <trkpt lat="49.24809" lon="1.16091">
        <ele>107.5</ele>
        <time>2018-09-16T07:43:38Z</time>
      </trkpt>
      <trkpt lat="49.24818" lon="1.16097">
        <ele>107.8</ele>
        <time>2018-09-16T07:43:41Z</time>
      </trkpt>
      <trkpt lat="49.24829" lon="1.16101">
        <ele>107.9</ele>
        <time>2018-09-16T07:43:44Z</time>
      </trkpt>
      <trkpt lat="49.24837" lon="1.16107">
        <ele>107.8</ele>
        <time>2018-09-16T07:43:46Z</time>
      </trkpt>
      <trkpt lat="49.24846" lon="1.16112">
        <ele>107.9</ele>
        <time>2018-09-16T07:43:48Z</time>
      </trkpt>
      <trkpt lat="49.24858" lon="1.1612">
        <ele>108</ele>
        <time>2018-09-16T07:43:51Z</time>
      </trkpt>
      <trkpt lat="49.24869" lon="1.16127">
        <ele>107.8</ele>
        <time>2018-09-16T07:43:54Z</time>
      </trkpt>
      <trkpt lat="49.2488" lon="1.16136">
        <ele>107.6</ele>
        <time>2018-09-16T07:43:57Z</time>
      </trkpt>
      <trkpt lat="49.24892" lon="1.16142">
        <ele>107.5</ele>
        <time>2018-09-16T07:43:59Z</time>
      </trkpt>
      <trkpt lat="49.24903" lon="1.16148">
        <ele>107.4</ele>
        <time>2018-09-16T07:44:01Z</time>
      </trkpt>
      <trkpt lat="49.24914" lon="1.16153">
        <ele>107.5</ele>
        <time>2018-09-16T07:44:03Z</time>
      </trkpt>
      <trkpt lat="49.24925" lon="1.16159">
        <ele>107.5</ele>
        <time>2018-09-16T07:44:05Z</time>
      </trkpt>
      <trkpt lat="49.24936" lon="1.16164">
        <ele>107.5</ele>
        <time>2018-09-16T07:44:07Z</time>
      </trkpt>
      <trkpt lat="49.24946" lon="1.1617">
        <ele>107.3</ele>
        <time>2018-09-16T07:44:09Z</time>
      </trkpt>
      <trkpt lat="49.24958" lon="1.16176">
        <ele>107</ele>
        <time>2018-09-16T07:44:11Z</time>
      </trkpt>
      <trkpt lat="49.24968" lon="1.16183">
        <ele>106.7</ele>
        <time>2018-09-16T07:44:13Z</time>
      </trkpt>
      <trkpt lat="49.24986" lon="1.16192">
        <ele>106</ele>
        <time>2018-09-16T07:44:16Z</time>
      </trkpt>
      <trkpt lat="49.25007" lon="1.16205">
        <ele>105</ele>
        <time>2018-09-16T07:44:20Z</time>
      </trkpt>
      <trkpt lat="49.25032" lon="1.16221">
        <ele>104</ele>
        <time>2018-09-16T07:44:24Z</time>
      </trkpt>
      <trkpt lat="49.25056" lon="1.16236">
        <ele>102</ele>
        <time>2018-09-16T07:44:28Z</time>
      </trkpt>
      <trkpt lat="49.25075" lon="1.16246">
        <ele>102.5</ele>
        <time>2018-09-16T07:44:31Z</time>
      </trkpt>
      <trkpt lat="49.25095" lon="1.16258">
        <ele>100</ele>
        <time>2018-09-16T07:44:34Z</time>
      </trkpt>
      <trkpt lat="49.25118" lon="1.16272">
        <ele>99.5</ele>
        <time>2018-09-16T07:44:37Z</time>
      </trkpt>
      <trkpt lat="49.25133" lon="1.16279">
        <ele>98.5</ele>
        <time>2018-09-16T07:44:39Z</time>
      </trkpt>
      <trkpt lat="49.25149" lon="1.16286">
        <ele>97.4</ele>
        <time>2018-09-16T07:44:41Z</time>
      </trkpt>
      <trkpt lat="49.25164" lon="1.16294">
        <ele>96.2</ele>
        <time>2018-09-16T07:44:43Z</time>
      </trkpt>
      <trkpt lat="49.25178" lon="1.16302">
        <ele>93</ele>
        <time>2018-09-16T07:44:45Z</time>
      </trkpt>
      <trkpt lat="49.25197" lon="1.16313">
        <ele>91.8</ele>
        <time>2018-09-16T07:44:48Z</time>
      </trkpt>
      <trkpt lat="49.2521" lon="1.16321">
        <ele>90.2</ele>
        <time>2018-09-16T07:44:50Z</time>
      </trkpt>
      <trkpt lat="49.25224" lon="1.16328">
        <ele>88.5</ele>
        <time>2018-09-16T07:44:52Z</time>
      </trkpt>
      <trkpt lat="49.25237" lon="1.16335">
        <ele>86.8</ele>
        <time>2018-09-16T07:44:54Z</time>
      </trkpt>
      <trkpt lat="49.25247" lon="1.16342">
        <ele>85</ele>
        <time>2018-09-16T07:44:56Z</time>
      </trkpt>
      <trkpt lat="49.2526" lon="1.16351">
        <ele>83.3</ele>
        <time>2018-09-16T07:44:58Z</time>
      </trkpt>
      <trkpt lat="49.25271" lon="1.16357">
        <ele>81</ele>
        <time>2018-09-16T07:45:00Z</time>
      </trkpt>
      <trkpt lat="49.25279" lon="1.16365">
        <ele>78.8</ele>
        <time>2018-09-16T07:45:02Z</time>
      </trkpt>
      <trkpt lat="49.25292" lon="1.16369">
        <ele>76.3</ele>
        <time>2018-09-16T07:45:04Z</time>
      </trkpt>
      <trkpt lat="49.25305" lon="1.16373">
        <ele>74.3</ele>
        <time>2018-09-16T07:45:06Z</time>
      </trkpt>
      <trkpt lat="49.25316" lon="1.1637">
        <ele>71.7</ele>
        <time>2018-09-16T07:45:09Z</time>
      </trkpt>
      <trkpt lat="49.25339" lon="1.16396">
        <ele>67</ele>
        <time>2018-09-16T07:45:21Z</time>
      </trkpt>
      <trkpt lat="49.25376" lon="1.16415">
        <ele>64.8</ele>
        <time>2018-09-16T07:45:27Z</time>
      </trkpt>
      <trkpt lat="49.25386" lon="1.16419">
        <ele>64.3</ele>
        <time>2018-09-16T07:45:28Z</time>
      </trkpt>
      <trkpt lat="49.25408" lon="1.1643">
        <ele>62</ele>
        <time>2018-09-16T07:45:31Z</time>
      </trkpt>
      <trkpt lat="49.25424" lon="1.16438">
        <ele>62.7</ele>
        <time>2018-09-16T07:45:34Z</time>
      </trkpt>
      <trkpt lat="49.25435" lon="1.16444">
        <ele>63.2</ele>
        <time>2018-09-16T07:45:38Z</time>
      </trkpt>
      <trkpt lat="49.25444" lon="1.16448">
        <ele>64.8</ele>
        <time>2018-09-16T07:45:42Z</time>
      </trkpt>
      <trkpt lat="49.25452" lon="1.16455">
        <ele>67.6</ele>
        <time>2018-09-16T07:45:49Z</time>
      </trkpt>
      <trkpt lat="49.25465" lon="1.16462">
        <ele>70</ele>
        <time>2018-09-16T07:45:58Z</time>
      </trkpt>
      <trkpt lat="49.25474" lon="1.16468">
        <ele>73.5</ele>
        <time>2018-09-16T07:46:05Z</time>
      </trkpt>
      <trkpt lat="49.25483" lon="1.16473">
        <ele>76.5</ele>
        <time>2018-09-16T07:46:13Z</time>
      </trkpt>
      <trkpt lat="49.25492" lon="1.16479">
        <ele>79.6</ele>
        <time>2018-09-16T07:46:22Z</time>
      </trkpt>
      <trkpt lat="49.25501" lon="1.16484">
        <ele>81.9</ele>
        <time>2018-09-16T07:46:30Z</time>
      </trkpt>
      <trkpt lat="49.25509" lon="1.1649">
        <ele>84</ele>
        <time>2018-09-16T07:46:38Z</time>
      </trkpt>
      <trkpt lat="49.25518" lon="1.16494">
        <ele>85.4</ele>
        <time>2018-09-16T07:46:45Z</time>
      </trkpt>
      <trkpt lat="49.25527" lon="1.165">
        <ele>86.6</ele>
        <time>2018-09-16T07:46:52Z</time>
      </trkpt>
      <trkpt lat="49.25535" lon="1.16508">
        <ele>88</ele>
        <time>2018-09-16T07:46:59Z</time>
      </trkpt>
      <trkpt lat="49.25544" lon="1.16514">
        <ele>89.1</ele>
        <time>2018-09-16T07:47:04Z</time>
      </trkpt>
      <trkpt lat="49.25553" lon="1.16521">
        <ele>90</ele>
        <time>2018-09-16T07:47:09Z</time>
      </trkpt>
      <trkpt lat="49.25562" lon="1.16527">
        <ele>90.9</ele>
        <time>2018-09-16T07:47:14Z</time>
      </trkpt>
      <trkpt lat="49.25572" lon="1.16532">
        <ele>91.6</ele>
        <time>2018-09-16T07:47:19Z</time>
      </trkpt>
      <trkpt lat="49.25582" lon="1.16537">
        <ele>92.2</ele>
        <time>2018-09-16T07:47:23Z</time>
      </trkpt>
      <trkpt lat="49.25591" lon="1.16543">
        <ele>92.7</ele>
        <time>2018-09-16T07:47:27Z</time>
      </trkpt>
      <trkpt lat="49.256" lon="1.16547">
        <ele>92.9</ele>
        <time>2018-09-16T07:47:29Z</time>
      </trkpt>
      <trkpt lat="49.25611" lon="1.16553">
        <ele>93.2</ele>
        <time>2018-09-16T07:47:32Z</time>
      </trkpt>
      <trkpt lat="49.2562" lon="1.1656">
        <ele>93.2</ele>
        <time>2018-09-16T07:47:34Z</time>
      </trkpt>
      <trkpt lat="49.2563" lon="1.1657">
        <ele>93.2</ele>
        <time>2018-09-16T07:47:37Z</time>
      </trkpt>
      <trkpt lat="49.2564" lon="1.16576">
        <ele>93.4</ele>
        <time>2018-09-16T07:47:40Z</time>
      </trkpt>
      <trkpt lat="49.25649" lon="1.16579">
        <ele>93.4</ele>
        <time>2018-09-16T07:47:42Z</time>
      </trkpt>
      <trkpt lat="49.2566" lon="1.16586">
        <ele>93.3</ele>
        <time>2018-09-16T07:47:45Z</time>
      </trkpt>
      <trkpt lat="49.25672" lon="1.16594">
        <ele>93.5</ele>
        <time>2018-09-16T07:47:48Z</time>
      </trkpt>
      <trkpt lat="49.25685" lon="1.16601">
        <ele>93.4</ele>
        <time>2018-09-16T07:47:51Z</time>
      </trkpt>
      <trkpt lat="49.25697" lon="1.16607">
        <ele>93.4</ele>
        <time>2018-09-16T07:47:54Z</time>
      </trkpt>
      <trkpt lat="49.25708" lon="1.16614">
        <ele>93.4</ele>
        <time>2018-09-16T07:47:57Z</time>
      </trkpt>
      <trkpt lat="49.25717" lon="1.16621">
        <ele>93.6</ele>
        <time>2018-09-16T07:48:00Z</time>
      </trkpt>
      <trkpt lat="49.25729" lon="1.16629">
        <ele>93.5</ele>
        <time>2018-09-16T07:48:03Z</time>
      </trkpt>
      <trkpt lat="49.2574" lon="1.16633">
        <ele>93.5</ele>
        <time>2018-09-16T07:48:05Z</time>
      </trkpt>
      <trkpt lat="49.25752" lon="1.16639">
        <ele>93.6</ele>
        <time>2018-09-16T07:48:08Z</time>
      </trkpt>
      <trkpt lat="49.25762" lon="1.16645">
        <ele>93.7</ele>
        <time>2018-09-16T07:48:11Z</time>
      </trkpt>
      <trkpt lat="49.25774" lon="1.16652">
        <ele>93.6</ele>
        <time>2018-09-16T07:48:14Z</time>
      </trkpt>
      <trkpt lat="49.25784" lon="1.16652">
        <ele>93.6</ele>
        <time>2018-09-16T07:48:17Z</time>
      </trkpt>
      <trkpt lat="49.25789" lon="1.16638">
        <ele>94</ele>
        <time>2018-09-16T07:48:20Z</time>
      </trkpt>
      <trkpt lat="49.25794" lon="1.16621">
        <ele>94.5</ele>
        <time>2018-09-16T07:48:23Z</time>
      </trkpt>
      <trkpt lat="49.25799" lon="1.16604">
        <ele>94.8</ele>
        <time>2018-09-16T07:48:26Z</time>
      </trkpt>
      <trkpt lat="49.25803" lon="1.16589">
        <ele>94.9</ele>
        <time>2018-09-16T07:48:29Z</time>
      </trkpt>
      <trkpt lat="49.25807" lon="1.16573">
        <ele>95.4</ele>
        <time>2018-09-16T07:48:33Z</time>
      </trkpt>
      <trkpt lat="49.25811" lon="1.1656">
        <ele>95.8</ele>
        <time>2018-09-16T07:48:36Z</time>
      </trkpt>
      <trkpt lat="49.25815" lon="1.16546">
        <ele>96.4</ele>
        <time>2018-09-16T07:48:39Z</time>
      </trkpt>
      <trkpt lat="49.25819" lon="1.16531">
        <ele>96.8</ele>
        <time>2018-09-16T07:48:42Z</time>
      </trkpt>
      <trkpt lat="49.25822" lon="1.16518">
        <ele>97.2</ele>
        <time>2018-09-16T07:48:45Z</time>
      </trkpt>
      <trkpt lat="49.25826" lon="1.16504">
        <ele>97.6</ele>
        <time>2018-09-16T07:48:48Z</time>
      </trkpt>
      <trkpt lat="49.2583" lon="1.1649">
        <ele>98.4</ele>
        <time>2018-09-16T07:48:51Z</time>
      </trkpt>
      <trkpt lat="49.25834" lon="1.16477">
        <ele>99.2</ele>
        <time>2018-09-16T07:48:54Z</time>
      </trkpt>
      <trkpt lat="49.25839" lon="1.1646">
        <ele>100</ele>
        <time>2018-09-16T07:48:58Z</time>
      </trkpt>
      <trkpt lat="49.25843" lon="1.16447">
        <ele>100.6</ele>
        <time>2018-09-16T07:49:01Z</time>
      </trkpt>
      <trkpt lat="49.25846" lon="1.16433">
        <ele>101.2</ele>
        <time>2018-09-16T07:49:04Z</time>
      </trkpt>
      <trkpt lat="49.25849" lon="1.1642">
        <ele>101.5</ele>
        <time>2018-09-16T07:49:07Z</time>
      </trkpt>
      <trkpt lat="49.25852" lon="1.16406">
        <ele>102.1</ele>
        <time>2018-09-16T07:49:10Z</time>
      </trkpt>
      <trkpt lat="49.25856" lon="1.16392">
        <ele>102.8</ele>
        <time>2018-09-16T07:49:13Z</time>
      </trkpt>
      <trkpt lat="49.25859" lon="1.16379">
        <ele>103.6</ele>
        <time>2018-09-16T07:49:16Z</time>
      </trkpt>
      <trkpt lat="49.25862" lon="1.1636">
        <ele>104.5</ele>
        <time>2018-09-16T07:49:20Z</time>
      </trkpt>
      <trkpt lat="49.25866" lon="1.16344">
        <ele>105.7</ele>
        <time>2018-09-16T07:49:24Z</time>
      </trkpt>
      <trkpt lat="49.25869" lon="1.16331">
        <ele>106.3</ele>
        <time>2018-09-16T07:49:27Z</time>
      </trkpt>
      <trkpt lat="49.25875" lon="1.16314">
        <ele>107.2</ele>
        <time>2018-09-16T07:49:31Z</time>
      </trkpt>
      <trkpt lat="49.25878" lon="1.16301">
        <ele>107.8</ele>
        <time>2018-09-16T07:49:34Z</time>
      </trkpt>
      <trkpt lat="49.25882" lon="1.16285">
        <ele>108.7</ele>
        <time>2018-09-16T07:49:38Z</time>
      </trkpt>
      <trkpt lat="49.25885" lon="1.16272">
        <ele>109.8</ele>
        <time>2018-09-16T07:49:42Z</time>
      </trkpt>
      <trkpt lat="49.2589" lon="1.16257">
        <ele>110.5</ele>
        <time>2018-09-16T07:49:46Z</time>
      </trkpt>
      <trkpt lat="49.25892" lon="1.16242">
        <ele>111</ele>
        <time>2018-09-16T07:49:49Z</time>
      </trkpt>
      <trkpt lat="49.25895" lon="1.16229">
        <ele>111.4</ele>
        <time>2018-09-16T07:49:52Z</time>
      </trkpt>
      <trkpt lat="49.25898" lon="1.16215">
        <ele>112</ele>
        <time>2018-09-16T07:49:55Z</time>
      </trkpt>
      <trkpt lat="49.25903" lon="1.16202">
        <ele>112.4</ele>
        <time>2018-09-16T07:49:58Z</time>
      </trkpt>
      <trkpt lat="49.25909" lon="1.16186">
        <ele>112.6</ele>
        <time>2018-09-16T07:50:01Z</time>
      </trkpt>
      <trkpt lat="49.25914" lon="1.16172">
        <ele>112.8</ele>
        <time>2018-09-16T07:50:04Z</time>
      </trkpt>
      <trkpt lat="49.25918" lon="1.16156">
        <ele>113.1</ele>
        <time>2018-09-16T07:50:07Z</time>
      </trkpt>
      <trkpt lat="49.25926" lon="1.16142">
        <ele>113.3</ele>
        <time>2018-09-16T07:50:10Z</time>
      </trkpt>
      <trkpt lat="49.2593" lon="1.16129">
        <ele>113.4</ele>
        <time>2018-09-16T07:50:13Z</time>
      </trkpt>
      <trkpt lat="49.25934" lon="1.16114">
        <ele>113.5</ele>
        <time>2018-09-16T07:50:16Z</time>
      </trkpt>
      <trkpt lat="49.25937" lon="1.16096">
        <ele>113.5</ele>
        <time>2018-09-16T07:50:19Z</time>
      </trkpt>
      <trkpt lat="49.25943" lon="1.16084">
        <ele>113.4</ele>
        <time>2018-09-16T07:50:21Z</time>
      </trkpt>
      <trkpt lat="49.25947" lon="1.16069">
        <ele>113.2</ele>
        <time>2018-09-16T07:50:23Z</time>
      </trkpt>
      <trkpt lat="49.25947" lon="1.16054">
        <ele>112.8</ele>
        <time>2018-09-16T07:50:25Z</time>
      </trkpt>
      <trkpt lat="49.25955" lon="1.16045">
        <ele>112.5</ele>
        <time>2018-09-16T07:50:27Z</time>
      </trkpt>
      <trkpt lat="49.25964" lon="1.16033">
        <ele>112.3</ele>
        <time>2018-09-16T07:50:29Z</time>
      </trkpt>
      <trkpt lat="49.25972" lon="1.16026">
        <ele>112.2</ele>
        <time>2018-09-16T07:50:31Z</time>
      </trkpt>
      <trkpt lat="49.25983" lon="1.16019">
        <ele>112.3</ele>
        <time>2018-09-16T07:50:34Z</time>
      </trkpt>
      <trkpt lat="49.25992" lon="1.1601">
        <ele>113.1</ele>
        <time>2018-09-16T07:50:38Z</time>
      </trkpt>
      <trkpt lat="49.25982" lon="1.16004">
        <ele>113.1</ele>
        <time>2018-09-16T07:50:42Z</time>
      </trkpt>
      <trkpt lat="49.25973" lon="1.15999">
        <ele>112.7</ele>
        <time>2018-09-16T07:50:44Z</time>
      </trkpt>
      <trkpt lat="49.25963" lon="1.15992">
        <ele>111.8</ele>
        <time>2018-09-16T07:50:46Z</time>
      </trkpt>
      <trkpt lat="49.25949" lon="1.15982">
        <ele>110.1</ele>
        <time>2018-09-16T07:50:48Z</time>
      </trkpt>
      <trkpt lat="49.25935" lon="1.15973">
        <ele>108</ele>
        <time>2018-09-16T07:50:50Z</time>
      </trkpt>
      <trkpt lat="49.25922" lon="1.15964">
        <ele>105.5</ele>
        <time>2018-09-16T07:50:52Z</time>
      </trkpt>
      <trkpt lat="49.25909" lon="1.15955">
        <ele>102.9</ele>
        <time>2018-09-16T07:50:54Z</time>
      </trkpt>
      <trkpt lat="49.25899" lon="1.15949">
        <ele>100.1</ele>
        <time>2018-09-16T07:50:56Z</time>
      </trkpt>
      <trkpt lat="49.25886" lon="1.15941">
        <ele>97.3</ele>
        <time>2018-09-16T07:50:58Z</time>
      </trkpt>
      <trkpt lat="49.25877" lon="1.15934">
        <ele>95.6</ele>
        <time>2018-09-16T07:50:59Z</time>
      </trkpt>
      <trkpt lat="49.25868" lon="1.15926">
        <ele>93.9</ele>
        <time>2018-09-16T07:51:00Z</time>
      </trkpt>
      <trkpt lat="49.25854" lon="1.15913">
        <ele>90.9</ele>
        <time>2018-09-16T07:51:02Z</time>
      </trkpt>
      <trkpt lat="49.25843" lon="1.15896">
        <ele>88.7</ele>
        <time>2018-09-16T07:51:04Z</time>
      </trkpt>
      <trkpt lat="49.25848" lon="1.15883">
        <ele>86.9</ele>
        <time>2018-09-16T07:51:07Z</time>
      </trkpt>
      <trkpt lat="49.25856" lon="1.15875">
        <ele>86.2</ele>
        <time>2018-09-16T07:51:10Z</time>
      </trkpt>
      <trkpt lat="49.25865" lon="1.15867">
        <ele>86.3</ele>
        <time>2018-09-16T07:51:12Z</time>
      </trkpt>
      <trkpt lat="49.25875" lon="1.15856">
        <ele>86.2</ele>
        <time>2018-09-16T07:51:14Z</time>
      </trkpt>
      <trkpt lat="49.25884" lon="1.15844">
        <ele>86.3</ele>
        <time>2018-09-16T07:51:16Z</time>
      </trkpt>
      <trkpt lat="49.25894" lon="1.15833">
        <ele>86.3</ele>
        <time>2018-09-16T07:51:18Z</time>
      </trkpt>
      <trkpt lat="49.25902" lon="1.15819">
        <ele>86.4</ele>
        <time>2018-09-16T07:51:20Z</time>
      </trkpt>
      <trkpt lat="49.25909" lon="1.15805">
        <ele>86.4</ele>
        <time>2018-09-16T07:51:22Z</time>
      </trkpt>
      <trkpt lat="49.25914" lon="1.1579">
        <ele>86.6</ele>
        <time>2018-09-16T07:51:24Z</time>
      </trkpt>
      <trkpt lat="49.2592" lon="1.15775">
        <ele>86.6</ele>
        <time>2018-09-16T07:51:26Z</time>
      </trkpt>
      <trkpt lat="49.25926" lon="1.15763">
        <ele>86.1</ele>
        <time>2018-09-16T07:51:28Z</time>
      </trkpt>
      <trkpt lat="49.25932" lon="1.15745">
        <ele>85.5</ele>
        <time>2018-09-16T07:51:30Z</time>
      </trkpt>
      <trkpt lat="49.25943" lon="1.15728">
        <ele>84.6</ele>
        <time>2018-09-16T07:51:32Z</time>
      </trkpt>
      <trkpt lat="49.25955" lon="1.15712">
        <ele>83.9</ele>
        <time>2018-09-16T07:51:34Z</time>
      </trkpt>
      <trkpt lat="49.25965" lon="1.15697">
        <ele>83.6</ele>
        <time>2018-09-16T07:51:36Z</time>
      </trkpt>
      <trkpt lat="49.25976" lon="1.15684">
        <ele>83.3</ele>
        <time>2018-09-16T07:51:38Z</time>
      </trkpt>
      <trkpt lat="49.25986" lon="1.15669">
        <ele>83.3</ele>
        <time>2018-09-16T07:51:40Z</time>
      </trkpt>
      <trkpt lat="49.25995" lon="1.15656">
        <ele>83.5</ele>
        <time>2018-09-16T07:51:42Z</time>
      </trkpt>
      <trkpt lat="49.26004" lon="1.15642">
        <ele>83.7</ele>
        <time>2018-09-16T07:51:44Z</time>
      </trkpt>
      <trkpt lat="49.26011" lon="1.15627">
        <ele>83.9</ele>
        <time>2018-09-16T07:51:46Z</time>
      </trkpt>
      <trkpt lat="49.26019" lon="1.15615">
        <ele>84.2</ele>
        <time>2018-09-16T07:51:48Z</time>
      </trkpt>
      <trkpt lat="49.26026" lon="1.15604">
        <ele>84.3</ele>
        <time>2018-09-16T07:51:50Z</time>
      </trkpt>
      <trkpt lat="49.26033" lon="1.15594">
        <ele>84.5</ele>
        <time>2018-09-16T07:51:52Z</time>
      </trkpt>
      <trkpt lat="49.26042" lon="1.1558">
        <ele>84.9</ele>
        <time>2018-09-16T07:51:55Z</time>
      </trkpt>
      <trkpt lat="49.26051" lon="1.15566">
        <ele>85.5</ele>
        <time>2018-09-16T07:51:58Z</time>
      </trkpt>
      <trkpt lat="49.2606" lon="1.15552">
        <ele>86</ele>
        <time>2018-09-16T07:52:01Z</time>
      </trkpt>
      <trkpt lat="49.26069" lon="1.15538">
        <ele>86.3</ele>
        <time>2018-09-16T07:52:04Z</time>
      </trkpt>
      <trkpt lat="49.26077" lon="1.15524">
        <ele>86.9</ele>
        <time>2018-09-16T07:52:07Z</time>
      </trkpt>
      <trkpt lat="49.26084" lon="1.15507">
        <ele>87.2</ele>
        <time>2018-09-16T07:52:10Z</time>
      </trkpt>
      <trkpt lat="49.26092" lon="1.15492">
        <ele>87.4</ele>
        <time>2018-09-16T07:52:13Z</time>
      </trkpt>
      <trkpt lat="49.261" lon="1.15478">
        <ele>87.8</ele>
        <time>2018-09-16T07:52:16Z</time>
      </trkpt>
      <trkpt lat="49.26106" lon="1.15466">
        <ele>88.5</ele>
        <time>2018-09-16T07:52:19Z</time>
      </trkpt>
      <trkpt lat="49.26115" lon="1.15459">
        <ele>89</ele>
        <time>2018-09-16T07:52:22Z</time>
      </trkpt>
      <trkpt lat="49.26123" lon="1.15446">
        <ele>89.4</ele>
        <time>2018-09-16T07:52:25Z</time>
      </trkpt>
      <trkpt lat="49.2613" lon="1.15435">
        <ele>90</ele>
        <time>2018-09-16T07:52:28Z</time>
      </trkpt>
      <trkpt lat="49.2613" lon="1.15416">
        <ele>90.4</ele>
        <time>2018-09-16T07:52:30Z</time>
      </trkpt>
      <trkpt lat="49.26136" lon="1.154">
        <ele>90.8</ele>
        <time>2018-09-16T07:52:33Z</time>
      </trkpt>
      <trkpt lat="49.2614" lon="1.15383">
        <ele>91.1</ele>
        <time>2018-09-16T07:52:36Z</time>
      </trkpt>
      <trkpt lat="49.2614" lon="1.15361">
        <ele>91.6</ele>
        <time>2018-09-16T07:52:39Z</time>
      </trkpt>
      <trkpt lat="49.26142" lon="1.15347">
        <ele>92.1</ele>
        <time>2018-09-16T07:52:41Z</time>
      </trkpt>
      <trkpt lat="49.2615" lon="1.15333">
        <ele>92.3</ele>
        <time>2018-09-16T07:52:44Z</time>
      </trkpt>
      <trkpt lat="49.2616" lon="1.1532">
        <ele>92.7</ele>
        <time>2018-09-16T07:52:47Z</time>
      </trkpt>
      <trkpt lat="49.2616" lon="1.15298">
        <ele>93</ele>
        <time>2018-09-16T07:52:50Z</time>
      </trkpt>
      <trkpt lat="49.26166" lon="1.15283">
        <ele>93.1</ele>
        <time>2018-09-16T07:52:53Z</time>
      </trkpt>
      <trkpt lat="49.26173" lon="1.15269">
        <ele>93.8</ele>
        <time>2018-09-16T07:52:56Z</time>
      </trkpt>
      <trkpt lat="49.2618" lon="1.15253">
        <ele>94.3</ele>
        <time>2018-09-16T07:52:59Z</time>
      </trkpt>
      <trkpt lat="49.26189" lon="1.15238">
        <ele>94.7</ele>
        <time>2018-09-16T07:53:02Z</time>
      </trkpt>
      <trkpt lat="49.26196" lon="1.15223">
        <ele>95.2</ele>
        <time>2018-09-16T07:53:05Z</time>
      </trkpt>
      <trkpt lat="49.26203" lon="1.15208">
        <ele>95.9</ele>
        <time>2018-09-16T07:53:08Z</time>
      </trkpt>
      <trkpt lat="49.2621" lon="1.15194">
        <ele>96.2</ele>
        <time>2018-09-16T07:53:11Z</time>
      </trkpt>
      <trkpt lat="49.26215" lon="1.15176">
        <ele>96.6</ele>
        <time>2018-09-16T07:53:14Z</time>
      </trkpt>
      <trkpt lat="49.2622" lon="1.1516">
        <ele>96.9</ele>
        <time>2018-09-16T07:53:17Z</time>
      </trkpt>
      <trkpt lat="49.2622" lon="1.15146">
        <ele>97.2</ele>
        <time>2018-09-16T07:53:19Z</time>
      </trkpt>
      <trkpt lat="49.26226" lon="1.15131">
        <ele>97.6</ele>
        <time>2018-09-16T07:53:22Z</time>
      </trkpt>
      <trkpt lat="49.26231" lon="1.15113">
        <ele>98.1</ele>
        <time>2018-09-16T07:53:25Z</time>
      </trkpt>
      <trkpt lat="49.26235" lon="1.15095">
        <ele>98.5</ele>
        <time>2018-09-16T07:53:28Z</time>
      </trkpt>
      <trkpt lat="49.26239" lon="1.15077">
        <ele>98.9</ele>
        <time>2018-09-16T07:53:31Z</time>
      </trkpt>
      <trkpt lat="49.26242" lon="1.15061">
        <ele>99.3</ele>
        <time>2018-09-16T07:53:34Z</time>
      </trkpt>
      <trkpt lat="49.26242" lon="1.15041">
        <ele>99</ele>
        <time>2018-09-16T07:53:37Z</time>
      </trkpt>
      <trkpt lat="49.26239" lon="1.15011">
        <ele>100</ele>
        <time>2018-09-16T07:53:41Z</time>
      </trkpt>
      <trkpt lat="49.26236" lon="1.14991">
        <ele>101.3</ele>
        <time>2018-09-16T07:53:44Z</time>
      </trkpt>
      <trkpt lat="49.26234" lon="1.14974">
        <ele>101.9</ele>
        <time>2018-09-16T07:53:47Z</time>
      </trkpt>
      <trkpt lat="49.26231" lon="1.14957">
        <ele>102.2</ele>
        <time>2018-09-16T07:53:50Z</time>
      </trkpt>
      <trkpt lat="49.2623" lon="1.1494">
        <ele>103.3</ele>
        <time>2018-09-16T07:53:54Z</time>
      </trkpt>
      <trkpt lat="49.26227" lon="1.14924">
        <ele>103.9</ele>
        <time>2018-09-16T07:53:57Z</time>
      </trkpt>
      <trkpt lat="49.26226" lon="1.1491">
        <ele>104.3</ele>
        <time>2018-09-16T07:54:00Z</time>
      </trkpt>
      <trkpt lat="49.26222" lon="1.14892">
        <ele>105</ele>
        <time>2018-09-16T07:54:03Z</time>
      </trkpt>
      <trkpt lat="49.26219" lon="1.14875">
        <ele>105.6</ele>
        <time>2018-09-16T07:54:06Z</time>
      </trkpt>
      <trkpt lat="49.26217" lon="1.14861">
        <ele>106.3</ele>
        <time>2018-09-16T07:54:09Z</time>
      </trkpt>
      <trkpt lat="49.26215" lon="1.14844">
        <ele>107.5</ele>
        <time>2018-09-16T07:54:13Z</time>
      </trkpt>
      <trkpt lat="49.26214" lon="1.14828">
        <ele>108.9</ele>
        <time>2018-09-16T07:54:18Z</time>
      </trkpt>
      <trkpt lat="49.26213" lon="1.14811">
        <ele>109.7</ele>
        <time>2018-09-16T07:54:23Z</time>
      </trkpt>
      <trkpt lat="49.2621" lon="1.14795">
        <ele>110.3</ele>
        <time>2018-09-16T07:54:26Z</time>
      </trkpt>
      <trkpt lat="49.26207" lon="1.14781">
        <ele>110.9</ele>
        <time>2018-09-16T07:54:30Z</time>
      </trkpt>
      <trkpt lat="49.26203" lon="1.14766">
        <ele>111.2</ele>
        <time>2018-09-16T07:54:33Z</time>
      </trkpt>
      <trkpt lat="49.262" lon="1.14753">
        <ele>111.9</ele>
        <time>2018-09-16T07:54:36Z</time>
      </trkpt>
      <trkpt lat="49.26195" lon="1.14735">
        <ele>112.6</ele>
        <time>2018-09-16T07:54:40Z</time>
      </trkpt>
      <trkpt lat="49.26192" lon="1.14722">
        <ele>113.1</ele>
        <time>2018-09-16T07:54:43Z</time>
      </trkpt>
      <trkpt lat="49.26188" lon="1.14709">
        <ele>113.5</ele>
        <time>2018-09-16T07:54:46Z</time>
      </trkpt>
      <trkpt lat="49.26185" lon="1.14696">
        <ele>113.9</ele>
        <time>2018-09-16T07:54:49Z</time>
      </trkpt>
      <trkpt lat="49.26183" lon="1.14681">
        <ele>114.5</ele>
        <time>2018-09-16T07:54:52Z</time>
      </trkpt>
      <trkpt lat="49.26184" lon="1.14664">
        <ele>115.3</ele>
        <time>2018-09-16T07:54:56Z</time>
      </trkpt>
      <trkpt lat="49.26185" lon="1.1465">
        <ele>115.9</ele>
        <time>2018-09-16T07:54:59Z</time>
      </trkpt>
      <trkpt lat="49.2619" lon="1.14634">
        <ele>116.6</ele>
        <time>2018-09-16T07:55:03Z</time>
      </trkpt>
      <trkpt lat="49.26195" lon="1.14619">
        <ele>117.2</ele>
        <time>2018-09-16T07:55:07Z</time>
      </trkpt>
      <trkpt lat="49.26201" lon="1.14604">
        <ele>118</ele>
        <time>2018-09-16T07:55:11Z</time>
      </trkpt>
      <trkpt lat="49.26206" lon="1.14592">
        <ele>118.7</ele>
        <time>2018-09-16T07:55:14Z</time>
      </trkpt>
      <trkpt lat="49.26211" lon="1.14579">
        <ele>119.4</ele>
        <time>2018-09-16T07:55:17Z</time>
      </trkpt>
      <trkpt lat="49.26218" lon="1.14566">
        <ele>119.9</ele>
        <time>2018-09-16T07:55:20Z</time>
      </trkpt>
      <trkpt lat="49.26224" lon="1.14555">
        <ele>120.1</ele>
        <time>2018-09-16T07:55:23Z</time>
      </trkpt>
      <trkpt lat="49.26231" lon="1.14544">
        <ele>120.7</ele>
        <time>2018-09-16T07:55:26Z</time>
      </trkpt>
      <trkpt lat="49.26237" lon="1.14532">
        <ele>121.1</ele>
        <time>2018-09-16T07:55:29Z</time>
      </trkpt>
      <trkpt lat="49.26244" lon="1.1452">
        <ele>121.6</ele>
        <time>2018-09-16T07:55:32Z</time>
      </trkpt>
      <trkpt lat="49.26251" lon="1.14509">
        <ele>122</ele>
        <time>2018-09-16T07:55:35Z</time>
      </trkpt>
      <trkpt lat="49.2626" lon="1.14503">
        <ele>122.2</ele>
        <time>2018-09-16T07:55:38Z</time>
      </trkpt>
      <trkpt lat="49.26271" lon="1.14502">
        <ele>122.3</ele>
        <time>2018-09-16T07:55:41Z</time>
      </trkpt>
      <trkpt lat="49.26277" lon="1.14487">
        <ele>121.7</ele>
        <time>2018-09-16T07:55:45Z</time>
      </trkpt>
      <trkpt lat="49.26268" lon="1.14472">
        <ele>121.4</ele>
        <time>2018-09-16T07:55:48Z</time>
      </trkpt>
      <trkpt lat="49.26259" lon="1.1446">
        <ele>120.9</ele>
        <time>2018-09-16T07:55:51Z</time>
      </trkpt>
      <trkpt lat="49.26248" lon="1.14443">
        <ele>120</ele>
        <time>2018-09-16T07:55:55Z</time>
      </trkpt>
      <trkpt lat="49.26239" lon="1.14425">
        <ele>120.3</ele>
        <time>2018-09-16T07:55:58Z</time>
      </trkpt>
      <trkpt lat="49.26231" lon="1.14412">
        <ele>120.3</ele>
        <time>2018-09-16T07:56:00Z</time>
      </trkpt>
      <trkpt lat="49.26223" lon="1.144">
        <ele>120.2</ele>
        <time>2018-09-16T07:56:02Z</time>
      </trkpt>
      <trkpt lat="49.26216" lon="1.14387">
        <ele>120.3</ele>
        <time>2018-09-16T07:56:04Z</time>
      </trkpt>
      <trkpt lat="49.26208" lon="1.14374">
        <ele>120.4</ele>
        <time>2018-09-16T07:56:06Z</time>
      </trkpt>
      <trkpt lat="49.26203" lon="1.1436">
        <ele>120.4</ele>
        <time>2018-09-16T07:56:08Z</time>
      </trkpt>
      <trkpt lat="49.262" lon="1.14345">
        <ele>120.5</ele>
        <time>2018-09-16T07:56:10Z</time>
      </trkpt>
      <trkpt lat="49.26198" lon="1.14329">
        <ele>120.6</ele>
        <time>2018-09-16T07:56:12Z</time>
      </trkpt>
      <trkpt lat="49.26199" lon="1.14314">
        <ele>120.7</ele>
        <time>2018-09-16T07:56:14Z</time>
      </trkpt>
      <trkpt lat="49.26202" lon="1.143">
        <ele>121</ele>
        <time>2018-09-16T07:56:16Z</time>
      </trkpt>
      <trkpt lat="49.26207" lon="1.14288">
        <ele>121.2</ele>
        <time>2018-09-16T07:56:18Z</time>
      </trkpt>
      <trkpt lat="49.26216" lon="1.14274">
        <ele>121.6</ele>
        <time>2018-09-16T07:56:21Z</time>
      </trkpt>
      <trkpt lat="49.26225" lon="1.14261">
        <ele>122</ele>
        <time>2018-09-16T07:56:24Z</time>
      </trkpt>
      <trkpt lat="49.26233" lon="1.1425">
        <ele>122.5</ele>
        <time>2018-09-16T07:56:27Z</time>
      </trkpt>
      <trkpt lat="49.2624" lon="1.14237">
        <ele>123.2</ele>
        <time>2018-09-16T07:56:30Z</time>
      </trkpt>
      <trkpt lat="49.26248" lon="1.14225">
        <ele>124</ele>
        <time>2018-09-16T07:56:33Z</time>
      </trkpt>
      <trkpt lat="49.26255" lon="1.14214">
        <ele>124.7</ele>
        <time>2018-09-16T07:56:36Z</time>
      </trkpt>
      <trkpt lat="49.26261" lon="1.14198">
        <ele>125.3</ele>
        <time>2018-09-16T07:56:39Z</time>
      </trkpt>
      <trkpt lat="49.26265" lon="1.14181">
        <ele>125.9</ele>
        <time>2018-09-16T07:56:42Z</time>
      </trkpt>
      <trkpt lat="49.26266" lon="1.14163">
        <ele>126.3</ele>
        <time>2018-09-16T07:56:45Z</time>
      </trkpt>
      <trkpt lat="49.26265" lon="1.14141">
        <ele>126.6</ele>
        <time>2018-09-16T07:56:48Z</time>
      </trkpt>
      <trkpt lat="49.26264" lon="1.14127">
        <ele>126.7</ele>
        <time>2018-09-16T07:56:50Z</time>
      </trkpt>
      <trkpt lat="49.26262" lon="1.14112">
        <ele>126.8</ele>
        <time>2018-09-16T07:56:52Z</time>
      </trkpt>
      <trkpt lat="49.26261" lon="1.14095">
        <ele>126.8</ele>
        <time>2018-09-16T07:56:54Z</time>
      </trkpt>
      <trkpt lat="49.26262" lon="1.14077">
        <ele>126.8</ele>
        <time>2018-09-16T07:56:57Z</time>
      </trkpt>
      <trkpt lat="49.26261" lon="1.14062">
        <ele>126.9</ele>
        <time>2018-09-16T07:56:59Z</time>
      </trkpt>
      <trkpt lat="49.26258" lon="1.14041">
        <ele>127</ele>
        <time>2018-09-16T07:57:01Z</time>
      </trkpt>
      <trkpt lat="49.26258" lon="1.14026">
        <ele>127</ele>
        <time>2018-09-16T07:57:03Z</time>
      </trkpt>
      <trkpt lat="49.26256" lon="1.14001">
        <ele>127</ele>
        <time>2018-09-16T07:57:06Z</time>
      </trkpt>
      <trkpt lat="49.26254" lon="1.13982">
        <ele>127</ele>
        <time>2018-09-16T07:57:08Z</time>
      </trkpt>
      <trkpt lat="49.26254" lon="1.13966">
        <ele>126.9</ele>
        <time>2018-09-16T07:57:10Z</time>
      </trkpt>
      <trkpt lat="49.26254" lon="1.13946">
        <ele>126.7</ele>
        <time>2018-09-16T07:57:13Z</time>
      </trkpt>
      <trkpt lat="49.26253" lon="1.13927">
        <ele>126.5</ele>
        <time>2018-09-16T07:57:15Z</time>
      </trkpt>
      <trkpt lat="49.26252" lon="1.13911">
        <ele>126.5</ele>
        <time>2018-09-16T07:57:17Z</time>
      </trkpt>
      <trkpt lat="49.26252" lon="1.13895">
        <ele>126.6</ele>
        <time>2018-09-16T07:57:19Z</time>
      </trkpt>
      <trkpt lat="49.26249" lon="1.13873">
        <ele>126.5</ele>
        <time>2018-09-16T07:57:21Z</time>
      </trkpt>
      <trkpt lat="49.26244" lon="1.13851">
        <ele>126.5</ele>
        <time>2018-09-16T07:57:23Z</time>
      </trkpt>
      <trkpt lat="49.2624" lon="1.13829">
        <ele>126.4</ele>
        <time>2018-09-16T07:57:25Z</time>
      </trkpt>
      <trkpt lat="49.26239" lon="1.13812">
        <ele>126.3</ele>
        <time>2018-09-16T07:57:27Z</time>
      </trkpt>
      <trkpt lat="49.26236" lon="1.13793">
        <ele>126.3</ele>
        <time>2018-09-16T07:57:29Z</time>
      </trkpt>
      <trkpt lat="49.26235" lon="1.13775">
        <ele>126.3</ele>
        <time>2018-09-16T07:57:31Z</time>
      </trkpt>
      <trkpt lat="49.26233" lon="1.13756">
        <ele>126.1</ele>
        <time>2018-09-16T07:57:33Z</time>
      </trkpt>
      <trkpt lat="49.26231" lon="1.13738">
        <ele>126</ele>
        <time>2018-09-16T07:57:35Z</time>
      </trkpt>
      <trkpt lat="49.2623" lon="1.1372">
        <ele>126</ele>
        <time>2018-09-16T07:57:37Z</time>
      </trkpt>
      <trkpt lat="49.26229" lon="1.13701">
        <ele>125.9</ele>
        <time>2018-09-16T07:57:39Z</time>
      </trkpt>
      <trkpt lat="49.26228" lon="1.13682">
        <ele>125.8</ele>
        <time>2018-09-16T07:57:41Z</time>
      </trkpt>
      <trkpt lat="49.26226" lon="1.13663">
        <ele>125.8</ele>
        <time>2018-09-16T07:57:43Z</time>
      </trkpt>
      <trkpt lat="49.26225" lon="1.13645">
        <ele>125.8</ele>
        <time>2018-09-16T07:57:45Z</time>
      </trkpt>
      <trkpt lat="49.26223" lon="1.13625">
        <ele>125.7</ele>
        <time>2018-09-16T07:57:47Z</time>
      </trkpt>
      <trkpt lat="49.26222" lon="1.13606">
        <ele>125.5</ele>
        <time>2018-09-16T07:57:49Z</time>
      </trkpt>
      <trkpt lat="49.26221" lon="1.13588">
        <ele>125.6</ele>
        <time>2018-09-16T07:57:51Z</time>
      </trkpt>
      <trkpt lat="49.26219" lon="1.13569">
        <ele>125.7</ele>
        <time>2018-09-16T07:57:53Z</time>
      </trkpt>
      <trkpt lat="49.26218" lon="1.1355">
        <ele>125.8</ele>
        <time>2018-09-16T07:57:55Z</time>
      </trkpt>
      <trkpt lat="49.26216" lon="1.13532">
        <ele>125.9</ele>
        <time>2018-09-16T07:57:57Z</time>
      </trkpt>
      <trkpt lat="49.26215" lon="1.13514">
        <ele>126</ele>
        <time>2018-09-16T07:57:59Z</time>
      </trkpt>
      <trkpt lat="49.26214" lon="1.13495">
        <ele>125.9</ele>
        <time>2018-09-16T07:58:01Z</time>
      </trkpt>
      <trkpt lat="49.26213" lon="1.13477">
        <ele>125.9</ele>
        <time>2018-09-16T07:58:03Z</time>
      </trkpt>
      <trkpt lat="49.26212" lon="1.13459">
        <ele>125.9</ele>
        <time>2018-09-16T07:58:05Z</time>
      </trkpt>
      <trkpt lat="49.26211" lon="1.13441">
        <ele>125.9</ele>
        <time>2018-09-16T07:58:07Z</time>
      </trkpt>
      <trkpt lat="49.26209" lon="1.13422">
        <ele>126</ele>
        <time>2018-09-16T07:58:09Z</time>
      </trkpt>
      <trkpt lat="49.26208" lon="1.13404">
        <ele>126.2</ele>
        <time>2018-09-16T07:58:11Z</time>
      </trkpt>
      <trkpt lat="49.26207" lon="1.13387">
        <ele>126.2</ele>
        <time>2018-09-16T07:58:13Z</time>
      </trkpt>
      <trkpt lat="49.26208" lon="1.13372">
        <ele>126.2</ele>
        <time>2018-09-16T07:58:15Z</time>
      </trkpt>
      <trkpt lat="49.26214" lon="1.13358">
        <ele>126.3</ele>
        <time>2018-09-16T07:58:17Z</time>
      </trkpt>
      <trkpt lat="49.26222" lon="1.13347">
        <ele>126.2</ele>
        <time>2018-09-16T07:58:19Z</time>
      </trkpt>
      <trkpt lat="49.2623" lon="1.13337">
        <ele>126.3</ele>
        <time>2018-09-16T07:58:21Z</time>
      </trkpt>
      <trkpt lat="49.26238" lon="1.13327">
        <ele>126.3</ele>
        <time>2018-09-16T07:58:23Z</time>
      </trkpt>
      <trkpt lat="49.26247" lon="1.13319">
        <ele>126.3</ele>
        <time>2018-09-16T07:58:25Z</time>
      </trkpt>
      <trkpt lat="49.26257" lon="1.13312">
        <ele>126.3</ele>
        <time>2018-09-16T07:58:27Z</time>
      </trkpt>
      <trkpt lat="49.26268" lon="1.13307">
        <ele>126.4</ele>
        <time>2018-09-16T07:58:29Z</time>
      </trkpt>
      <trkpt lat="49.26277" lon="1.13302">
        <ele>126.6</ele>
        <time>2018-09-16T07:58:31Z</time>
      </trkpt>
      <trkpt lat="49.26286" lon="1.13298">
        <ele>126.5</ele>
        <time>2018-09-16T07:58:33Z</time>
      </trkpt>
      <trkpt lat="49.26296" lon="1.13295">
        <ele>126.6</ele>
        <time>2018-09-16T07:58:35Z</time>
      </trkpt>
      <trkpt lat="49.26306" lon="1.13291">
        <ele>126.7</ele>
        <time>2018-09-16T07:58:37Z</time>
      </trkpt>
      <trkpt lat="49.26315" lon="1.13287">
        <ele>126.8</ele>
        <time>2018-09-16T07:58:39Z</time>
      </trkpt>
      <trkpt lat="49.26324" lon="1.13283">
        <ele>126.9</ele>
        <time>2018-09-16T07:58:41Z</time>
      </trkpt>
      <trkpt lat="49.26334" lon="1.13279">
        <ele>126.9</ele>
        <time>2018-09-16T07:58:43Z</time>
      </trkpt>
      <trkpt lat="49.26344" lon="1.13275">
        <ele>127.3</ele>
        <time>2018-09-16T07:58:45Z</time>
      </trkpt>
      <trkpt lat="49.26353" lon="1.13272">
        <ele>127.4</ele>
        <time>2018-09-16T07:58:47Z</time>
      </trkpt>
      <trkpt lat="49.26363" lon="1.13267">
        <ele>127.6</ele>
        <time>2018-09-16T07:58:49Z</time>
      </trkpt>
      <trkpt lat="49.26373" lon="1.13263">
        <ele>127.6</ele>
        <time>2018-09-16T07:58:51Z</time>
      </trkpt>
      <trkpt lat="49.26383" lon="1.13259">
        <ele>127.9</ele>
        <time>2018-09-16T07:58:53Z</time>
      </trkpt>
      <trkpt lat="49.26393" lon="1.13256">
        <ele>127.7</ele>
        <time>2018-09-16T07:58:55Z</time>
      </trkpt>
      <trkpt lat="49.26404" lon="1.13253">
        <ele>127.9</ele>
        <time>2018-09-16T07:58:57Z</time>
      </trkpt>
      <trkpt lat="49.26414" lon="1.13251">
        <ele>128.1</ele>
        <time>2018-09-16T07:58:59Z</time>
      </trkpt>
      <trkpt lat="49.26424" lon="1.13252">
        <ele>128.2</ele>
        <time>2018-09-16T07:59:01Z</time>
      </trkpt>
      <trkpt lat="49.26434" lon="1.13255">
        <ele>128.3</ele>
        <time>2018-09-16T07:59:03Z</time>
      </trkpt>
      <trkpt lat="49.26444" lon="1.1326">
        <ele>128.4</ele>
        <time>2018-09-16T07:59:05Z</time>
      </trkpt>
      <trkpt lat="49.26454" lon="1.13264">
        <ele>128.5</ele>
        <time>2018-09-16T07:59:07Z</time>
      </trkpt>
      <trkpt lat="49.26464" lon="1.13269">
        <ele>128.5</ele>
        <time>2018-09-16T07:59:09Z</time>
      </trkpt>
      <trkpt lat="49.26474" lon="1.13273">
        <ele>128.6</ele>
        <time>2018-09-16T07:59:11Z</time>
      </trkpt>
      <trkpt lat="49.26484" lon="1.13278">
        <ele>128.7</ele>
        <time>2018-09-16T07:59:13Z</time>
      </trkpt>
      <trkpt lat="49.26494" lon="1.13283">
        <ele>128.9</ele>
        <time>2018-09-16T07:59:15Z</time>
      </trkpt>
      <trkpt lat="49.26504" lon="1.13287">
        <ele>129</ele>
        <time>2018-09-16T07:59:17Z</time>
      </trkpt>
      <trkpt lat="49.26515" lon="1.13291">
        <ele>129.2</ele>
        <time>2018-09-16T07:59:19Z</time>
      </trkpt>
      <trkpt lat="49.26524" lon="1.13296">
        <ele>129.4</ele>
        <time>2018-09-16T07:59:21Z</time>
      </trkpt>
      <trkpt lat="49.26537" lon="1.13301">
        <ele>129.5</ele>
        <time>2018-09-16T07:59:24Z</time>
      </trkpt>
      <trkpt lat="49.26546" lon="1.13304">
        <ele>129.7</ele>
        <time>2018-09-16T07:59:26Z</time>
      </trkpt>
      <trkpt lat="49.26556" lon="1.13309">
        <ele>130</ele>
        <time>2018-09-16T07:59:28Z</time>
      </trkpt>
      <trkpt lat="49.26566" lon="1.13313">
        <ele>130.3</ele>
        <time>2018-09-16T07:59:30Z</time>
      </trkpt>
      <trkpt lat="49.26575" lon="1.13318">
        <ele>130.6</ele>
        <time>2018-09-16T07:59:32Z</time>
      </trkpt>
      <trkpt lat="49.26585" lon="1.13321">
        <ele>130.7</ele>
        <time>2018-09-16T07:59:34Z</time>
      </trkpt>
      <trkpt lat="49.26597" lon="1.13328">
        <ele>130.9</ele>
        <time>2018-09-16T07:59:37Z</time>
      </trkpt>
      <trkpt lat="49.26607" lon="1.13332">
        <ele>131.1</ele>
        <time>2018-09-16T07:59:39Z</time>
      </trkpt>
      <trkpt lat="49.26618" lon="1.13337">
        <ele>131.1</ele>
        <time>2018-09-16T07:59:41Z</time>
      </trkpt>
      <trkpt lat="49.26628" lon="1.13341">
        <ele>131.4</ele>
        <time>2018-09-16T07:59:43Z</time>
      </trkpt>
      <trkpt lat="49.26638" lon="1.13346">
        <ele>131.6</ele>
        <time>2018-09-16T07:59:45Z</time>
      </trkpt>
      <trkpt lat="49.26649" lon="1.1335">
        <ele>131.8</ele>
        <time>2018-09-16T07:59:47Z</time>
      </trkpt>
      <trkpt lat="49.26658" lon="1.13355">
        <ele>131.9</ele>
        <time>2018-09-16T07:59:49Z</time>
      </trkpt>
      <trkpt lat="49.26667" lon="1.13359">
        <ele>132.1</ele>
        <time>2018-09-16T07:59:51Z</time>
      </trkpt>
      <trkpt lat="49.26677" lon="1.13363">
        <ele>132.4</ele>
        <time>2018-09-16T07:59:53Z</time>
      </trkpt>
      <trkpt lat="49.26687" lon="1.13367">
        <ele>132.7</ele>
        <time>2018-09-16T07:59:55Z</time>
      </trkpt>
      <trkpt lat="49.26696" lon="1.13372">
        <ele>132.9</ele>
        <time>2018-09-16T07:59:57Z</time>
      </trkpt>
      <trkpt lat="49.26709" lon="1.13377">
        <ele>133.1</ele>
        <time>2018-09-16T08:00:00Z</time>
      </trkpt>
      <trkpt lat="49.26719" lon="1.13382">
        <ele>133.3</ele>
        <time>2018-09-16T08:00:02Z</time>
      </trkpt>
      <trkpt lat="49.26728" lon="1.13386">
        <ele>133.4</ele>
        <time>2018-09-16T08:00:04Z</time>
      </trkpt>
      <trkpt lat="49.26739" lon="1.1339">
        <ele>133.5</ele>
        <time>2018-09-16T08:00:06Z</time>
      </trkpt>
      <trkpt lat="49.26752" lon="1.13397">
        <ele>133.5</ele>
        <time>2018-09-16T08:00:09Z</time>
      </trkpt>
      <trkpt lat="49.26762" lon="1.13402">
        <ele>133.6</ele>
        <time>2018-09-16T08:00:11Z</time>
      </trkpt>
      <trkpt lat="49.26773" lon="1.13406">
        <ele>133.6</ele>
        <time>2018-09-16T08:00:13Z</time>
      </trkpt>
      <trkpt lat="49.26784" lon="1.1341">
        <ele>133.5</ele>
        <time>2018-09-16T08:00:15Z</time>
      </trkpt>
      <trkpt lat="49.26795" lon="1.13415">
        <ele>133.5</ele>
        <time>2018-09-16T08:00:17Z</time>
      </trkpt>
      <trkpt lat="49.26809" lon="1.13422">
        <ele>133.6</ele>
        <time>2018-09-16T08:00:20Z</time>
      </trkpt>
      <trkpt lat="49.26819" lon="1.13426">
        <ele>133.8</ele>
        <time>2018-09-16T08:00:22Z</time>
      </trkpt>
      <trkpt lat="49.26829" lon="1.1343">
        <ele>133.8</ele>
        <time>2018-09-16T08:00:24Z</time>
      </trkpt>
      <trkpt lat="49.26839" lon="1.13435">
        <ele>134</ele>
        <time>2018-09-16T08:00:26Z</time>
      </trkpt>
      <trkpt lat="49.2685" lon="1.13439">
        <ele>134.3</ele>
        <time>2018-09-16T08:00:28Z</time>
      </trkpt>
      <trkpt lat="49.2686" lon="1.13445">
        <ele>134.3</ele>
        <time>2018-09-16T08:00:30Z</time>
      </trkpt>
      <trkpt lat="49.26869" lon="1.1345">
        <ele>134.3</ele>
        <time>2018-09-16T08:00:32Z</time>
      </trkpt>
      <trkpt lat="49.2688" lon="1.13454">
        <ele>134.4</ele>
        <time>2018-09-16T08:00:34Z</time>
      </trkpt>
      <trkpt lat="49.26889" lon="1.13458">
        <ele>134.4</ele>
        <time>2018-09-16T08:00:36Z</time>
      </trkpt>
      <trkpt lat="49.269" lon="1.13464">
        <ele>134.3</ele>
        <time>2018-09-16T08:00:38Z</time>
      </trkpt>
      <trkpt lat="49.26911" lon="1.13467">
        <ele>134.6</ele>
        <time>2018-09-16T08:00:40Z</time>
      </trkpt>
      <trkpt lat="49.26922" lon="1.13468">
        <ele>134.6</ele>
        <time>2018-09-16T08:00:42Z</time>
      </trkpt>
      <trkpt lat="49.26932" lon="1.13468">
        <ele>134.6</ele>
        <time>2018-09-16T08:00:44Z</time>
      </trkpt>
      <trkpt lat="49.26943" lon="1.13467">
        <ele>134.7</ele>
        <time>2018-09-16T08:00:46Z</time>
      </trkpt>
      <trkpt lat="49.26956" lon="1.13463">
        <ele>134.9</ele>
        <time>2018-09-16T08:00:49Z</time>
      </trkpt>
      <trkpt lat="49.26966" lon="1.13459">
        <ele>134.9</ele>
        <time>2018-09-16T08:00:51Z</time>
      </trkpt>
      <trkpt lat="49.26977" lon="1.13455">
        <ele>134.9</ele>
        <time>2018-09-16T08:00:53Z</time>
      </trkpt>
      <trkpt lat="49.26986" lon="1.1345">
        <ele>135</ele>
        <time>2018-09-16T08:00:55Z</time>
      </trkpt>
      <trkpt lat="49.26999" lon="1.13443">
        <ele>134.9</ele>
        <time>2018-09-16T08:00:58Z</time>
      </trkpt>
      <trkpt lat="49.27009" lon="1.13435">
        <ele>134.7</ele>
        <time>2018-09-16T08:01:00Z</time>
      </trkpt>
      <trkpt lat="49.27021" lon="1.13424">
        <ele>134.3</ele>
        <time>2018-09-16T08:01:03Z</time>
      </trkpt>
      <trkpt lat="49.27032" lon="1.13413">
        <ele>134</ele>
        <time>2018-09-16T08:01:06Z</time>
      </trkpt>
      <trkpt lat="49.27045" lon="1.13406">
        <ele>133.9</ele>
        <time>2018-09-16T08:01:08Z</time>
      </trkpt>
      <trkpt lat="49.27053" lon="1.13395">
        <ele>133.6</ele>
        <time>2018-09-16T08:01:11Z</time>
      </trkpt>
      <trkpt lat="49.27064" lon="1.13382">
        <ele>133.3</ele>
        <time>2018-09-16T08:01:14Z</time>
      </trkpt>
      <trkpt lat="49.27071" lon="1.13367">
        <ele>133.2</ele>
        <time>2018-09-16T08:01:16Z</time>
      </trkpt>
      <trkpt lat="49.2708" lon="1.13351">
        <ele>133</ele>
        <time>2018-09-16T08:01:18Z</time>
      </trkpt>
      <trkpt lat="49.27088" lon="1.13336">
        <ele>132.6</ele>
        <time>2018-09-16T08:01:20Z</time>
      </trkpt>
      <trkpt lat="49.27097" lon="1.13319">
        <ele>132.5</ele>
        <time>2018-09-16T08:01:22Z</time>
      </trkpt>
      <trkpt lat="49.27102" lon="1.13303">
        <ele>132.3</ele>
        <time>2018-09-16T08:01:24Z</time>
      </trkpt>
      <trkpt lat="49.27109" lon="1.13287">
        <ele>132.1</ele>
        <time>2018-09-16T08:01:26Z</time>
      </trkpt>
      <trkpt lat="49.27116" lon="1.13275">
        <ele>132</ele>
        <time>2018-09-16T08:01:28Z</time>
      </trkpt>
      <trkpt lat="49.27118" lon="1.13258">
        <ele>131.8</ele>
        <time>2018-09-16T08:01:30Z</time>
      </trkpt>
      <trkpt lat="49.27121" lon="1.13241">
        <ele>131.7</ele>
        <time>2018-09-16T08:01:32Z</time>
      </trkpt>
      <trkpt lat="49.27122" lon="1.13224">
        <ele>131.6</ele>
        <time>2018-09-16T08:01:34Z</time>
      </trkpt>
      <trkpt lat="49.2712" lon="1.13202">
        <ele>131.5</ele>
        <time>2018-09-16T08:01:36Z</time>
      </trkpt>
      <trkpt lat="49.27122" lon="1.13182">
        <ele>131.4</ele>
        <time>2018-09-16T08:01:38Z</time>
      </trkpt>
      <trkpt lat="49.27123" lon="1.13162">
        <ele>131.4</ele>
        <time>2018-09-16T08:01:40Z</time>
      </trkpt>
      <trkpt lat="49.27125" lon="1.13143">
        <ele>131.4</ele>
        <time>2018-09-16T08:01:42Z</time>
      </trkpt>
      <trkpt lat="49.27127" lon="1.13126">
        <ele>131.6</ele>
        <time>2018-09-16T08:01:44Z</time>
      </trkpt>
      <trkpt lat="49.27129" lon="1.13108">
        <ele>131.5</ele>
        <time>2018-09-16T08:01:46Z</time>
      </trkpt>
      <trkpt lat="49.27131" lon="1.13091">
        <ele>131.6</ele>
        <time>2018-09-16T08:01:48Z</time>
      </trkpt>
      <trkpt lat="49.27133" lon="1.13073">
        <ele>131.6</ele>
        <time>2018-09-16T08:01:50Z</time>
      </trkpt>
      <trkpt lat="49.27134" lon="1.13056">
        <ele>131.7</ele>
        <time>2018-09-16T08:01:52Z</time>
      </trkpt>
      <trkpt lat="49.27137" lon="1.13038">
        <ele>131.6</ele>
        <time>2018-09-16T08:01:54Z</time>
      </trkpt>
      <trkpt lat="49.27142" lon="1.1302">
        <ele>131.1</ele>
        <time>2018-09-16T08:01:56Z</time>
      </trkpt>
      <trkpt lat="49.27145" lon="1.13001">
        <ele>131.1</ele>
        <time>2018-09-16T08:01:58Z</time>
      </trkpt>
      <trkpt lat="49.27149" lon="1.12983">
        <ele>130.9</ele>
        <time>2018-09-16T08:02:00Z</time>
      </trkpt>
      <trkpt lat="49.27154" lon="1.12968">
        <ele>130.8</ele>
        <time>2018-09-16T08:02:02Z</time>
      </trkpt>
      <trkpt lat="49.27159" lon="1.1295">
        <ele>130.8</ele>
        <time>2018-09-16T08:02:04Z</time>
      </trkpt>
      <trkpt lat="49.27162" lon="1.12933">
        <ele>130.8</ele>
        <time>2018-09-16T08:02:06Z</time>
      </trkpt>
      <trkpt lat="49.27169" lon="1.12917">
        <ele>130.7</ele>
        <time>2018-09-16T08:02:08Z</time>
      </trkpt>
      <trkpt lat="49.27176" lon="1.12901">
        <ele>130.4</ele>
        <time>2018-09-16T08:02:10Z</time>
      </trkpt>
      <trkpt lat="49.27183" lon="1.12886">
        <ele>130.3</ele>
        <time>2018-09-16T08:02:12Z</time>
      </trkpt>
      <trkpt lat="49.27187" lon="1.12869">
        <ele>130.2</ele>
        <time>2018-09-16T08:02:14Z</time>
      </trkpt>
      <trkpt lat="49.2719" lon="1.12852">
        <ele>130.2</ele>
        <time>2018-09-16T08:02:16Z</time>
      </trkpt>
      <trkpt lat="49.27191" lon="1.12834">
        <ele>130.1</ele>
        <time>2018-09-16T08:02:18Z</time>
      </trkpt>
      <trkpt lat="49.27192" lon="1.12814">
        <ele>130</ele>
        <time>2018-09-16T08:02:20Z</time>
      </trkpt>
      <trkpt lat="49.27193" lon="1.12795">
        <ele>129.9</ele>
        <time>2018-09-16T08:02:22Z</time>
      </trkpt>
      <trkpt lat="49.27195" lon="1.12777">
        <ele>129.6</ele>
        <time>2018-09-16T08:02:24Z</time>
      </trkpt>
      <trkpt lat="49.27197" lon="1.12759">
        <ele>129.3</ele>
        <time>2018-09-16T08:02:26Z</time>
      </trkpt>
      <trkpt lat="49.27199" lon="1.12741">
        <ele>129.3</ele>
        <time>2018-09-16T08:02:28Z</time>
      </trkpt>
      <trkpt lat="49.27201" lon="1.12722">
        <ele>129.2</ele>
        <time>2018-09-16T08:02:30Z</time>
      </trkpt>
      <trkpt lat="49.27203" lon="1.12704">
        <ele>129</ele>
        <time>2018-09-16T08:02:32Z</time>
      </trkpt>
      <trkpt lat="49.27205" lon="1.12685">
        <ele>128.9</ele>
        <time>2018-09-16T08:02:34Z</time>
      </trkpt>
      <trkpt lat="49.27208" lon="1.12666">
        <ele>128.6</ele>
        <time>2018-09-16T08:02:36Z</time>
      </trkpt>
      <trkpt lat="49.27211" lon="1.12648">
        <ele>128.3</ele>
        <time>2018-09-16T08:02:38Z</time>
      </trkpt>
      <trkpt lat="49.27217" lon="1.1263">
        <ele>127.9</ele>
        <time>2018-09-16T08:02:40Z</time>
      </trkpt>
      <trkpt lat="49.27222" lon="1.12612">
        <ele>127.4</ele>
        <time>2018-09-16T08:02:42Z</time>
      </trkpt>
      <trkpt lat="49.27226" lon="1.12593">
        <ele>127.1</ele>
        <time>2018-09-16T08:02:44Z</time>
      </trkpt>
      <trkpt lat="49.27232" lon="1.12574">
        <ele>126.8</ele>
        <time>2018-09-16T08:02:46Z</time>
      </trkpt>
      <trkpt lat="49.27237" lon="1.12556">
        <ele>126.5</ele>
        <time>2018-09-16T08:02:48Z</time>
      </trkpt>
      <trkpt lat="49.2724" lon="1.12537">
        <ele>126</ele>
        <time>2018-09-16T08:02:50Z</time>
      </trkpt>
      <trkpt lat="49.27243" lon="1.12521">
        <ele>125.6</ele>
        <time>2018-09-16T08:02:52Z</time>
      </trkpt>
      <trkpt lat="49.27245" lon="1.12506">
        <ele>125.3</ele>
        <time>2018-09-16T08:02:54Z</time>
      </trkpt>
      <trkpt lat="49.27246" lon="1.12491">
        <ele>124.8</ele>
        <time>2018-09-16T08:02:56Z</time>
      </trkpt>
      <trkpt lat="49.27247" lon="1.12477">
        <ele>124.6</ele>
        <time>2018-09-16T08:02:58Z</time>
      </trkpt>
      <trkpt lat="49.27249" lon="1.1246">
        <ele>124.4</ele>
        <time>2018-09-16T08:03:02Z</time>
      </trkpt>
      <trkpt lat="49.27251" lon="1.12446">
        <ele>124.4</ele>
        <time>2018-09-16T08:03:09Z</time>
      </trkpt>
      <trkpt lat="49.27255" lon="1.12433">
        <ele>124</ele>
        <time>2018-09-16T08:03:20Z</time>
      </trkpt>
      <trkpt lat="49.27258" lon="1.12419">
        <ele>121.8</ele>
        <time>2018-09-16T08:09:33Z</time>
      </trkpt>
      <trkpt lat="49.27261" lon="1.12404">
        <ele>121.7</ele>
        <time>2018-09-16T08:09:37Z</time>
      </trkpt>
      <trkpt lat="49.27264" lon="1.12391">
        <ele>121.9</ele>
        <time>2018-09-16T08:09:42Z</time>
      </trkpt>
      <trkpt lat="49.27267" lon="1.12373">
        <ele>121.9</ele>
        <time>2018-09-16T08:09:46Z</time>
      </trkpt>
      <trkpt lat="49.27272" lon="1.12356">
        <ele>121.7</ele>
        <time>2018-09-16T08:09:50Z</time>
      </trkpt>
      <trkpt lat="49.27276" lon="1.12338">
        <ele>121.3</ele>
        <time>2018-09-16T08:09:53Z</time>
      </trkpt>
      <trkpt lat="49.27278" lon="1.12325">
        <ele>121</ele>
        <time>2018-09-16T08:09:55Z</time>
      </trkpt>
      <trkpt lat="49.27281" lon="1.12309">
        <ele>120.7</ele>
        <time>2018-09-16T08:09:57Z</time>
      </trkpt>
      <trkpt lat="49.27282" lon="1.12293">
        <ele>120.4</ele>
        <time>2018-09-16T08:09:59Z</time>
      </trkpt>
      <trkpt lat="49.27284" lon="1.12277">
        <ele>119.9</ele>
        <time>2018-09-16T08:10:01Z</time>
      </trkpt>
      <trkpt lat="49.27288" lon="1.1226">
        <ele>119.4</ele>
        <time>2018-09-16T08:10:03Z</time>
      </trkpt>
      <trkpt lat="49.27293" lon="1.12243">
        <ele>119</ele>
        <time>2018-09-16T08:10:05Z</time>
      </trkpt>
      <trkpt lat="49.27301" lon="1.12227">
        <ele>118.5</ele>
        <time>2018-09-16T08:10:07Z</time>
      </trkpt>
      <trkpt lat="49.27308" lon="1.12212">
        <ele>117.8</ele>
        <time>2018-09-16T08:10:09Z</time>
      </trkpt>
      <trkpt lat="49.27315" lon="1.12198">
        <ele>117.2</ele>
        <time>2018-09-16T08:10:11Z</time>
      </trkpt>
      <trkpt lat="49.27322" lon="1.12184">
        <ele>116.7</ele>
        <time>2018-09-16T08:10:13Z</time>
      </trkpt>
      <trkpt lat="49.27328" lon="1.12168">
        <ele>116.5</ele>
        <time>2018-09-16T08:10:15Z</time>
      </trkpt>
      <trkpt lat="49.27336" lon="1.12152">
        <ele>115.9</ele>
        <time>2018-09-16T08:10:17Z</time>
      </trkpt>
      <trkpt lat="49.27344" lon="1.12136">
        <ele>115.4</ele>
        <time>2018-09-16T08:10:19Z</time>
      </trkpt>
      <trkpt lat="49.27352" lon="1.1212">
        <ele>115</ele>
        <time>2018-09-16T08:10:21Z</time>
      </trkpt>
      <trkpt lat="49.2736" lon="1.12101">
        <ele>114.4</ele>
        <time>2018-09-16T08:10:23Z</time>
      </trkpt>
      <trkpt lat="49.27368" lon="1.12081">
        <ele>113.6</ele>
        <time>2018-09-16T08:10:25Z</time>
      </trkpt>
      <trkpt lat="49.27377" lon="1.12061">
        <ele>112.8</ele>
        <time>2018-09-16T08:10:27Z</time>
      </trkpt>
      <trkpt lat="49.27384" lon="1.12038">
        <ele>111.9</ele>
        <time>2018-09-16T08:10:29Z</time>
      </trkpt>
      <trkpt lat="49.27393" lon="1.12013">
        <ele>110.8</ele>
        <time>2018-09-16T08:10:31Z</time>
      </trkpt>
      <trkpt lat="49.27397" lon="1.12">
        <ele>110.3</ele>
        <time>2018-09-16T08:10:32Z</time>
      </trkpt>
      <trkpt lat="49.27401" lon="1.11987">
        <ele>109.8</ele>
        <time>2018-09-16T08:10:33Z</time>
      </trkpt>
      <trkpt lat="49.27405" lon="1.11974">
        <ele>109.2</ele>
        <time>2018-09-16T08:10:34Z</time>
      </trkpt>
      <trkpt lat="49.2741" lon="1.11961">
        <ele>108.7</ele>
        <time>2018-09-16T08:10:35Z</time>
      </trkpt>
      <trkpt lat="49.27414" lon="1.11947">
        <ele>108.2</ele>
        <time>2018-09-16T08:10:36Z</time>
      </trkpt>
      <trkpt lat="49.27417" lon="1.11932">
        <ele>107.7</ele>
        <time>2018-09-16T08:10:37Z</time>
      </trkpt>
      <trkpt lat="49.2742" lon="1.11918">
        <ele>106.8</ele>
        <time>2018-09-16T08:10:38Z</time>
      </trkpt>
      <trkpt lat="49.27422" lon="1.11903">
        <ele>106.1</ele>
        <time>2018-09-16T08:10:39Z</time>
      </trkpt>
      <trkpt lat="49.27424" lon="1.11888">
        <ele>105.2</ele>
        <time>2018-09-16T08:10:40Z</time>
      </trkpt>
      <trkpt lat="49.27426" lon="1.11872">
        <ele>104.5</ele>
        <time>2018-09-16T08:10:41Z</time>
      </trkpt>
      <trkpt lat="49.27429" lon="1.11857">
        <ele>104.1</ele>
        <time>2018-09-16T08:10:42Z</time>
      </trkpt>
      <trkpt lat="49.27432" lon="1.11843">
        <ele>103.4</ele>
        <time>2018-09-16T08:10:43Z</time>
      </trkpt>
      <trkpt lat="49.27437" lon="1.11829">
        <ele>102.7</ele>
        <time>2018-09-16T08:10:44Z</time>
      </trkpt>
      <trkpt lat="49.27442" lon="1.11816">
        <ele>102.2</ele>
        <time>2018-09-16T08:10:45Z</time>
      </trkpt>
      <trkpt lat="49.27447" lon="1.11804">
        <ele>101.7</ele>
        <time>2018-09-16T08:10:46Z</time>
      </trkpt>
      <trkpt lat="49.27454" lon="1.11793">
        <ele>101.4</ele>
        <time>2018-09-16T08:10:47Z</time>
      </trkpt>
      <trkpt lat="49.2746" lon="1.11781">
        <ele>100.8</ele>
        <time>2018-09-16T08:10:48Z</time>
      </trkpt>
      <trkpt lat="49.27466" lon="1.1177">
        <ele>100.1</ele>
        <time>2018-09-16T08:10:49Z</time>
      </trkpt>
      <trkpt lat="49.27472" lon="1.11759">
        <ele>99.8</ele>
        <time>2018-09-16T08:10:50Z</time>
      </trkpt>
      <trkpt lat="49.27478" lon="1.11748">
        <ele>99.4</ele>
        <time>2018-09-16T08:10:51Z</time>
      </trkpt>
      <trkpt lat="49.27484" lon="1.11738">
        <ele>98.9</ele>
        <time>2018-09-16T08:10:52Z</time>
      </trkpt>
      <trkpt lat="49.27499" lon="1.11722">
        <ele>97.9</ele>
        <time>2018-09-16T08:10:54Z</time>
      </trkpt>
      <trkpt lat="49.27514" lon="1.11713">
        <ele>96.9</ele>
        <time>2018-09-16T08:10:56Z</time>
      </trkpt>
      <trkpt lat="49.27529" lon="1.11703">
        <ele>95.9</ele>
        <time>2018-09-16T08:10:58Z</time>
      </trkpt>
      <trkpt lat="49.27538" lon="1.117">
        <ele>95.4</ele>
        <time>2018-09-16T08:10:59Z</time>
      </trkpt>
      <trkpt lat="49.27555" lon="1.11695">
        <ele>94.7</ele>
        <time>2018-09-16T08:11:01Z</time>
      </trkpt>
      <trkpt lat="49.27571" lon="1.11694">
        <ele>94</ele>
        <time>2018-09-16T08:11:03Z</time>
      </trkpt>
      <trkpt lat="49.27588" lon="1.11691">
        <ele>93.1</ele>
        <time>2018-09-16T08:11:05Z</time>
      </trkpt>
      <trkpt lat="49.27597" lon="1.11688">
        <ele>92.8</ele>
        <time>2018-09-16T08:11:06Z</time>
      </trkpt>
      <trkpt lat="49.27606" lon="1.11684">
        <ele>92.4</ele>
        <time>2018-09-16T08:11:07Z</time>
      </trkpt>
      <trkpt lat="49.27621" lon="1.11673">
        <ele>92.2</ele>
        <time>2018-09-16T08:11:09Z</time>
      </trkpt>
      <trkpt lat="49.27636" lon="1.11659">
        <ele>91.1</ele>
        <time>2018-09-16T08:11:11Z</time>
      </trkpt>
      <trkpt lat="49.2765" lon="1.11644">
        <ele>90.5</ele>
        <time>2018-09-16T08:11:13Z</time>
      </trkpt>
      <trkpt lat="49.27661" lon="1.11633">
        <ele>89.7</ele>
        <time>2018-09-16T08:11:15Z</time>
      </trkpt>
      <trkpt lat="49.27672" lon="1.11622">
        <ele>89</ele>
        <time>2018-09-16T08:11:17Z</time>
      </trkpt>
      <trkpt lat="49.2768" lon="1.11613">
        <ele>88.7</ele>
        <time>2018-09-16T08:11:19Z</time>
      </trkpt>
      <trkpt lat="49.27686" lon="1.11601">
        <ele>88.4</ele>
        <time>2018-09-16T08:11:22Z</time>
      </trkpt>
      <trkpt lat="49.2769" lon="1.11586">
        <ele>88.8</ele>
        <time>2018-09-16T08:11:28Z</time>
      </trkpt>
      <trkpt lat="49.27693" lon="1.11571">
        <ele>90.4</ele>
        <time>2018-09-16T08:11:35Z</time>
      </trkpt>
      <trkpt lat="49.27694" lon="1.11556">
        <ele>92</ele>
        <time>2018-09-16T08:11:41Z</time>
      </trkpt>
      <trkpt lat="49.27697" lon="1.11543">
        <ele>94.3</ele>
        <time>2018-09-16T08:11:48Z</time>
      </trkpt>
      <trkpt lat="49.27698" lon="1.11529">
        <ele>96.7</ele>
        <time>2018-09-16T08:11:55Z</time>
      </trkpt>
      <trkpt lat="49.27699" lon="1.11513">
        <ele>99.4</ele>
        <time>2018-09-16T08:12:02Z</time>
      </trkpt>
      <trkpt lat="49.27702" lon="1.11498">
        <ele>101.7</ele>
        <time>2018-09-16T08:12:09Z</time>
      </trkpt>
      <trkpt lat="49.27705" lon="1.11484">
        <ele>103.4</ele>
        <time>2018-09-16T08:12:15Z</time>
      </trkpt>
      <trkpt lat="49.27705" lon="1.1147">
        <ele>104.8</ele>
        <time>2018-09-16T08:12:20Z</time>
      </trkpt>
      <trkpt lat="49.27707" lon="1.11454">
        <ele>105.8</ele>
        <time>2018-09-16T08:12:25Z</time>
      </trkpt>
      <trkpt lat="49.27707" lon="1.11437">
        <ele>106.2</ele>
        <time>2018-09-16T08:12:29Z</time>
      </trkpt>
      <trkpt lat="49.27711" lon="1.11419">
        <ele>106.3</ele>
        <time>2018-09-16T08:12:33Z</time>
      </trkpt>
      <trkpt lat="49.27712" lon="1.11403">
        <ele>106.5</ele>
        <time>2018-09-16T08:12:36Z</time>
      </trkpt>
      <trkpt lat="49.27715" lon="1.11386">
        <ele>106.2</ele>
        <time>2018-09-16T08:12:39Z</time>
      </trkpt>
      <trkpt lat="49.27718" lon="1.11371">
        <ele>106.3</ele>
        <time>2018-09-16T08:12:42Z</time>
      </trkpt>
      <trkpt lat="49.2772" lon="1.11354">
        <ele>106.2</ele>
        <time>2018-09-16T08:12:45Z</time>
      </trkpt>
      <trkpt lat="49.27723" lon="1.11337">
        <ele>106</ele>
        <time>2018-09-16T08:12:48Z</time>
      </trkpt>
      <trkpt lat="49.27723" lon="1.11322">
        <ele>105.8</ele>
        <time>2018-09-16T08:12:50Z</time>
      </trkpt>
      <trkpt lat="49.27724" lon="1.11308">
        <ele>105.7</ele>
        <time>2018-09-16T08:12:52Z</time>
      </trkpt>
      <trkpt lat="49.27727" lon="1.11287">
        <ele>105.1</ele>
        <time>2018-09-16T08:12:55Z</time>
      </trkpt>
      <trkpt lat="49.2773" lon="1.11272">
        <ele>104.7</ele>
        <time>2018-09-16T08:12:57Z</time>
      </trkpt>
      <trkpt lat="49.27732" lon="1.11254">
        <ele>104.5</ele>
        <time>2018-09-16T08:12:59Z</time>
      </trkpt>
      <trkpt lat="49.27735" lon="1.11236">
        <ele>104</ele>
        <time>2018-09-16T08:13:01Z</time>
      </trkpt>
      <trkpt lat="49.2774" lon="1.11216">
        <ele>103</ele>
        <time>2018-09-16T08:13:03Z</time>
      </trkpt>
      <trkpt lat="49.27745" lon="1.11197">
        <ele>102.2</ele>
        <time>2018-09-16T08:13:05Z</time>
      </trkpt>
      <trkpt lat="49.2775" lon="1.11183">
        <ele>101.7</ele>
        <time>2018-09-16T08:13:07Z</time>
      </trkpt>
      <trkpt lat="49.27751" lon="1.1116">
        <ele>101.9</ele>
        <time>2018-09-16T08:13:10Z</time>
      </trkpt>
      <trkpt lat="49.27752" lon="1.11144">
        <ele>102.8</ele>
        <time>2018-09-16T08:13:13Z</time>
      </trkpt>
      <trkpt lat="49.27749" lon="1.11129">
        <ele>103.8</ele>
        <time>2018-09-16T08:13:16Z</time>
      </trkpt>
      <trkpt lat="49.27745" lon="1.11114">
        <ele>104.5</ele>
        <time>2018-09-16T08:13:18Z</time>
      </trkpt>
      <trkpt lat="49.27744" lon="1.11096">
        <ele>106</ele>
        <time>2018-09-16T08:13:22Z</time>
      </trkpt>
      <trkpt lat="49.27746" lon="1.11079">
        <ele>107.9</ele>
        <time>2018-09-16T08:13:27Z</time>
      </trkpt>
      <trkpt lat="49.27747" lon="1.11063">
        <ele>110</ele>
        <time>2018-09-16T08:13:32Z</time>
      </trkpt>
      <trkpt lat="49.27748" lon="1.11047">
        <ele>111.3</ele>
        <time>2018-09-16T08:13:37Z</time>
      </trkpt>
      <trkpt lat="49.27748" lon="1.11032">
        <ele>112.6</ele>
        <time>2018-09-16T08:13:41Z</time>
      </trkpt>
      <trkpt lat="49.27749" lon="1.11017">
        <ele>113.6</ele>
        <time>2018-09-16T08:13:45Z</time>
      </trkpt>
      <trkpt lat="49.27751" lon="1.11001">
        <ele>114.6</ele>
        <time>2018-09-16T08:13:50Z</time>
      </trkpt>
      <trkpt lat="49.27752" lon="1.10983">
        <ele>115.7</ele>
        <time>2018-09-16T08:13:55Z</time>
      </trkpt>
      <trkpt lat="49.27753" lon="1.10968">
        <ele>116.5</ele>
        <time>2018-09-16T08:13:59Z</time>
      </trkpt>
      <trkpt lat="49.27755" lon="1.10952">
        <ele>117.5</ele>
        <time>2018-09-16T08:14:03Z</time>
      </trkpt>
      <trkpt lat="49.27756" lon="1.10937">
        <ele>118.4</ele>
        <time>2018-09-16T08:14:07Z</time>
      </trkpt>
      <trkpt lat="49.27758" lon="1.10921">
        <ele>119.1</ele>
        <time>2018-09-16T08:14:11Z</time>
      </trkpt>
      <trkpt lat="49.27759" lon="1.10907">
        <ele>119.6</ele>
        <time>2018-09-16T08:14:14Z</time>
      </trkpt>
      <trkpt lat="49.2776" lon="1.10893">
        <ele>120.1</ele>
        <time>2018-09-16T08:14:17Z</time>
      </trkpt>
      <trkpt lat="49.27762" lon="1.10877">
        <ele>120.4</ele>
        <time>2018-09-16T08:14:20Z</time>
      </trkpt>
      <trkpt lat="49.27764" lon="1.10863">
        <ele>120.8</ele>
        <time>2018-09-16T08:14:23Z</time>
      </trkpt>
      <trkpt lat="49.27766" lon="1.1085">
        <ele>121.4</ele>
        <time>2018-09-16T08:14:26Z</time>
      </trkpt>
      <trkpt lat="49.27768" lon="1.10832">
        <ele>122.2</ele>
        <time>2018-09-16T08:14:30Z</time>
      </trkpt>
      <trkpt lat="49.2777" lon="1.10814">
        <ele>122.7</ele>
        <time>2018-09-16T08:14:34Z</time>
      </trkpt>
      <trkpt lat="49.27771" lon="1.108">
        <ele>123</ele>
        <time>2018-09-16T08:14:37Z</time>
      </trkpt>
      <trkpt lat="49.27773" lon="1.10786">
        <ele>123.2</ele>
        <time>2018-09-16T08:14:40Z</time>
      </trkpt>
      <trkpt lat="49.27775" lon="1.10771">
        <ele>123.5</ele>
        <time>2018-09-16T08:14:43Z</time>
      </trkpt>
      <trkpt lat="49.27776" lon="1.10755">
        <ele>123.9</ele>
        <time>2018-09-16T08:14:46Z</time>
      </trkpt>
      <trkpt lat="49.27778" lon="1.10739">
        <ele>124.2</ele>
        <time>2018-09-16T08:14:49Z</time>
      </trkpt>
      <trkpt lat="49.2778" lon="1.10723">
        <ele>124.5</ele>
        <time>2018-09-16T08:14:52Z</time>
      </trkpt>
      <trkpt lat="49.27782" lon="1.10707">
        <ele>124.8</ele>
        <time>2018-09-16T08:14:55Z</time>
      </trkpt>
      <trkpt lat="49.27784" lon="1.1069">
        <ele>125</ele>
        <time>2018-09-16T08:14:58Z</time>
      </trkpt>
      <trkpt lat="49.27786" lon="1.10673">
        <ele>125.2</ele>
        <time>2018-09-16T08:15:01Z</time>
      </trkpt>
      <trkpt lat="49.27787" lon="1.10653">
        <ele>125.4</ele>
        <time>2018-09-16T08:15:04Z</time>
      </trkpt>
      <trkpt lat="49.27789" lon="1.10632">
        <ele>125.6</ele>
        <time>2018-09-16T08:15:07Z</time>
      </trkpt>
      <trkpt lat="49.27791" lon="1.10618">
        <ele>125.6</ele>
        <time>2018-09-16T08:15:09Z</time>
      </trkpt>
      <trkpt lat="49.27792" lon="1.10604">
        <ele>125.7</ele>
        <time>2018-09-16T08:15:11Z</time>
      </trkpt>
      <trkpt lat="49.27793" lon="1.1059">
        <ele>125.9</ele>
        <time>2018-09-16T08:15:13Z</time>
      </trkpt>
      <trkpt lat="49.27794" lon="1.10576">
        <ele>126</ele>
        <time>2018-09-16T08:15:15Z</time>
      </trkpt>
      <trkpt lat="49.27796" lon="1.10562">
        <ele>126.2</ele>
        <time>2018-09-16T08:15:17Z</time>
      </trkpt>
      <trkpt lat="49.27797" lon="1.10547">
        <ele>126.5</ele>
        <time>2018-09-16T08:15:19Z</time>
      </trkpt>
      <trkpt lat="49.27799" lon="1.10533">
        <ele>126.6</ele>
        <time>2018-09-16T08:15:21Z</time>
      </trkpt>
      <trkpt lat="49.278" lon="1.10517">
        <ele>126.7</ele>
        <time>2018-09-16T08:15:23Z</time>
      </trkpt>
      <trkpt lat="49.27803" lon="1.10501">
        <ele>126.7</ele>
        <time>2018-09-16T08:15:25Z</time>
      </trkpt>
      <trkpt lat="49.27804" lon="1.10485">
        <ele>126.7</ele>
        <time>2018-09-16T08:15:27Z</time>
      </trkpt>
      <trkpt lat="49.27806" lon="1.10468">
        <ele>126.8</ele>
        <time>2018-09-16T08:15:29Z</time>
      </trkpt>
      <trkpt lat="49.27807" lon="1.10451">
        <ele>126.6</ele>
        <time>2018-09-16T08:15:31Z</time>
      </trkpt>
      <trkpt lat="49.27809" lon="1.10434">
        <ele>126.6</ele>
        <time>2018-09-16T08:15:33Z</time>
      </trkpt>
      <trkpt lat="49.27811" lon="1.10416">
        <ele>126.4</ele>
        <time>2018-09-16T08:15:35Z</time>
      </trkpt>
      <trkpt lat="49.27813" lon="1.10398">
        <ele>126.3</ele>
        <time>2018-09-16T08:15:37Z</time>
      </trkpt>
      <trkpt lat="49.27815" lon="1.1038">
        <ele>125.8</ele>
        <time>2018-09-16T08:15:39Z</time>
      </trkpt>
      <trkpt lat="49.27816" lon="1.10363">
        <ele>125.5</ele>
        <time>2018-09-16T08:15:41Z</time>
      </trkpt>
      <trkpt lat="49.27809" lon="1.10346">
        <ele>124.4</ele>
        <time>2018-09-16T08:15:44Z</time>
      </trkpt>
      <trkpt lat="49.27799" lon="1.10333">
        <ele>124.5</ele>
        <time>2018-09-16T08:15:47Z</time>
      </trkpt>
      <trkpt lat="49.27792" lon="1.10324">
        <ele>124.5</ele>
        <time>2018-09-16T08:15:49Z</time>
      </trkpt>
      <trkpt lat="49.27783" lon="1.10312">
        <ele>124.7</ele>
        <time>2018-09-16T08:15:52Z</time>
      </trkpt>
      <trkpt lat="49.27773" lon="1.103">
        <ele>124.9</ele>
        <time>2018-09-16T08:15:55Z</time>
      </trkpt>
      <trkpt lat="49.27764" lon="1.10286">
        <ele>125.2</ele>
        <time>2018-09-16T08:15:58Z</time>
      </trkpt>
      <trkpt lat="49.27755" lon="1.10271">
        <ele>125.4</ele>
        <time>2018-09-16T08:16:01Z</time>
      </trkpt>
      <trkpt lat="49.27746" lon="1.1026">
        <ele>125.5</ele>
        <time>2018-09-16T08:16:04Z</time>
      </trkpt>
      <trkpt lat="49.27736" lon="1.10248">
        <ele>125.8</ele>
        <time>2018-09-16T08:16:07Z</time>
      </trkpt>
      <trkpt lat="49.27727" lon="1.10237">
        <ele>126.4</ele>
        <time>2018-09-16T08:16:10Z</time>
      </trkpt>
      <trkpt lat="49.27718" lon="1.10226">
        <ele>126.8</ele>
        <time>2018-09-16T08:16:13Z</time>
      </trkpt>
      <trkpt lat="49.27708" lon="1.10214">
        <ele>126.8</ele>
        <time>2018-09-16T08:16:16Z</time>
      </trkpt>
      <trkpt lat="49.27698" lon="1.10202">
        <ele>127.2</ele>
        <time>2018-09-16T08:16:19Z</time>
      </trkpt>
      <trkpt lat="49.27688" lon="1.10189">
        <ele>127.4</ele>
        <time>2018-09-16T08:16:22Z</time>
      </trkpt>
      <trkpt lat="49.27681" lon="1.1018">
        <ele>127.4</ele>
        <time>2018-09-16T08:16:24Z</time>
      </trkpt>
      <trkpt lat="49.27674" lon="1.10171">
        <ele>127.7</ele>
        <time>2018-09-16T08:16:26Z</time>
      </trkpt>
      <trkpt lat="49.27667" lon="1.10162">
        <ele>127.9</ele>
        <time>2018-09-16T08:16:28Z</time>
      </trkpt>
      <trkpt lat="49.27659" lon="1.10152">
        <ele>128.1</ele>
        <time>2018-09-16T08:16:30Z</time>
      </trkpt>
      <trkpt lat="49.27652" lon="1.10143">
        <ele>128</ele>
        <time>2018-09-16T08:16:32Z</time>
      </trkpt>
      <trkpt lat="49.27642" lon="1.1013">
        <ele>128.3</ele>
        <time>2018-09-16T08:16:35Z</time>
      </trkpt>
      <trkpt lat="49.27635" lon="1.10121">
        <ele>128.5</ele>
        <time>2018-09-16T08:16:37Z</time>
      </trkpt>
      <trkpt lat="49.27625" lon="1.10107">
        <ele>128.6</ele>
        <time>2018-09-16T08:16:40Z</time>
      </trkpt>
      <trkpt lat="49.27617" lon="1.10097">
        <ele>128.6</ele>
        <time>2018-09-16T08:16:42Z</time>
      </trkpt>
      <trkpt lat="49.27606" lon="1.10085">
        <ele>128.6</ele>
        <time>2018-09-16T08:16:45Z</time>
      </trkpt>
      <trkpt lat="49.27599" lon="1.10074">
        <ele>128.6</ele>
        <time>2018-09-16T08:16:47Z</time>
      </trkpt>
      <trkpt lat="49.27592" lon="1.10063">
        <ele>128.4</ele>
        <time>2018-09-16T08:16:49Z</time>
      </trkpt>
      <trkpt lat="49.27584" lon="1.10055">
        <ele>128.6</ele>
        <time>2018-09-16T08:16:51Z</time>
      </trkpt>
      <trkpt lat="49.27576" lon="1.10046">
        <ele>128.6</ele>
        <time>2018-09-16T08:16:53Z</time>
      </trkpt>
      <trkpt lat="49.27568" lon="1.10036">
        <ele>128.5</ele>
        <time>2018-09-16T08:16:55Z</time>
      </trkpt>
      <trkpt lat="49.2756" lon="1.10027">
        <ele>128.4</ele>
        <time>2018-09-16T08:16:57Z</time>
      </trkpt>
      <trkpt lat="49.27553" lon="1.10017">
        <ele>128.3</ele>
        <time>2018-09-16T08:16:59Z</time>
      </trkpt>
      <trkpt lat="49.27544" lon="1.10006">
        <ele>128.2</ele>
        <time>2018-09-16T08:17:01Z</time>
      </trkpt>
      <trkpt lat="49.27537" lon="1.09996">
        <ele>128.1</ele>
        <time>2018-09-16T08:17:03Z</time>
      </trkpt>
      <trkpt lat="49.27527" lon="1.09985">
        <ele>127.9</ele>
        <time>2018-09-16T08:17:05Z</time>
      </trkpt>
      <trkpt lat="49.27519" lon="1.09976">
        <ele>127.7</ele>
        <time>2018-09-16T08:17:07Z</time>
      </trkpt>
      <trkpt lat="49.27511" lon="1.09967">
        <ele>127.8</ele>
        <time>2018-09-16T08:17:09Z</time>
      </trkpt>
      <trkpt lat="49.27502" lon="1.09957">
        <ele>127.6</ele>
        <time>2018-09-16T08:17:11Z</time>
      </trkpt>
      <trkpt lat="49.27494" lon="1.09946">
        <ele>127.4</ele>
        <time>2018-09-16T08:17:13Z</time>
      </trkpt>
      <trkpt lat="49.27485" lon="1.09934">
        <ele>127.1</ele>
        <time>2018-09-16T08:17:15Z</time>
      </trkpt>
      <trkpt lat="49.27477" lon="1.09924">
        <ele>126.8</ele>
        <time>2018-09-16T08:17:17Z</time>
      </trkpt>
      <trkpt lat="49.27466" lon="1.09909">
        <ele>126.7</ele>
        <time>2018-09-16T08:17:19Z</time>
      </trkpt>
      <trkpt lat="49.27455" lon="1.09905">
        <ele>126.5</ele>
        <time>2018-09-16T08:17:21Z</time>
      </trkpt>
      <trkpt lat="49.27443" lon="1.09908">
        <ele>126.5</ele>
        <time>2018-09-16T08:17:23Z</time>
      </trkpt>
      <trkpt lat="49.27429" lon="1.09911">
        <ele>126.5</ele>
        <time>2018-09-16T08:17:25Z</time>
      </trkpt>
      <trkpt lat="49.27416" lon="1.09913">
        <ele>126.6</ele>
        <time>2018-09-16T08:17:27Z</time>
      </trkpt>
      <trkpt lat="49.27402" lon="1.09917">
        <ele>126.8</ele>
        <time>2018-09-16T08:17:29Z</time>
      </trkpt>
      <trkpt lat="49.27389" lon="1.0992">
        <ele>126.9</ele>
        <time>2018-09-16T08:17:31Z</time>
      </trkpt>
      <trkpt lat="49.27377" lon="1.09921">
        <ele>127.2</ele>
        <time>2018-09-16T08:17:33Z</time>
      </trkpt>
      <trkpt lat="49.27366" lon="1.09922">
        <ele>127.3</ele>
        <time>2018-09-16T08:17:35Z</time>
      </trkpt>
      <trkpt lat="49.27355" lon="1.0992">
        <ele>127.6</ele>
        <time>2018-09-16T08:17:37Z</time>
      </trkpt>
      <trkpt lat="49.27345" lon="1.09917">
        <ele>127.6</ele>
        <time>2018-09-16T08:17:39Z</time>
      </trkpt>
      <trkpt lat="49.27332" lon="1.0992">
        <ele>127.5</ele>
        <time>2018-09-16T08:17:42Z</time>
      </trkpt>
      <trkpt lat="49.27332" lon="1.09934">
        <ele>127.5</ele>
        <time>2018-09-16T08:17:45Z</time>
      </trkpt>
      <trkpt lat="49.27342" lon="1.09947">
        <ele>127.6</ele>
        <time>2018-09-16T08:17:48Z</time>
      </trkpt>
      <trkpt lat="49.2735" lon="1.09954">
        <ele>127.7</ele>
        <time>2018-09-16T08:17:50Z</time>
      </trkpt>
      <trkpt lat="49.27357" lon="1.09964">
        <ele>127.9</ele>
        <time>2018-09-16T08:17:52Z</time>
      </trkpt>
      <trkpt lat="49.27368" lon="1.09975">
        <ele>127.9</ele>
        <time>2018-09-16T08:17:54Z</time>
      </trkpt>
      <trkpt lat="49.27378" lon="1.09986">
        <ele>128.1</ele>
        <time>2018-09-16T08:17:56Z</time>
      </trkpt>
      <trkpt lat="49.27389" lon="1.09996">
        <ele>128.1</ele>
        <time>2018-09-16T08:17:58Z</time>
      </trkpt>
      <trkpt lat="49.274" lon="1.10004">
        <ele>128</ele>
        <time>2018-09-16T08:18:00Z</time>
      </trkpt>
      <trkpt lat="49.2741" lon="1.10014">
        <ele>128</ele>
        <time>2018-09-16T08:18:02Z</time>
      </trkpt>
      <trkpt lat="49.27422" lon="1.10023">
        <ele>127.9</ele>
        <time>2018-09-16T08:18:04Z</time>
      </trkpt>
      <trkpt lat="49.27431" lon="1.1003">
        <ele>128</ele>
        <time>2018-09-16T08:18:06Z</time>
      </trkpt>
      <trkpt lat="49.2744" lon="1.1004">
        <ele>128</ele>
        <time>2018-09-16T08:18:08Z</time>
      </trkpt>
      <trkpt lat="49.27449" lon="1.10047">
        <ele>128.1</ele>
        <time>2018-09-16T08:18:10Z</time>
      </trkpt>
      <trkpt lat="49.27459" lon="1.10058">
        <ele>128.3</ele>
        <time>2018-09-16T08:18:12Z</time>
      </trkpt>
      <trkpt lat="49.27467" lon="1.1007">
        <ele>128.3</ele>
        <time>2018-09-16T08:18:14Z</time>
      </trkpt>
      <trkpt lat="49.27474" lon="1.10083">
        <ele>128.3</ele>
        <time>2018-09-16T08:18:16Z</time>
      </trkpt>
      <trkpt lat="49.2748" lon="1.10098">
        <ele>128.1</ele>
        <time>2018-09-16T08:18:18Z</time>
      </trkpt>
      <trkpt lat="49.27487" lon="1.10116">
        <ele>128.6</ele>
        <time>2018-09-16T08:18:20Z</time>
      </trkpt>
      <trkpt lat="49.27494" lon="1.10134">
        <ele>128.6</ele>
        <time>2018-09-16T08:18:22Z</time>
      </trkpt>
      <trkpt lat="49.27498" lon="1.10148">
        <ele>128.7</ele>
        <time>2018-09-16T08:18:24Z</time>
      </trkpt>
      <trkpt lat="49.27502" lon="1.10165">
        <ele>128.8</ele>
        <time>2018-09-16T08:18:26Z</time>
      </trkpt>
      <trkpt lat="49.27506" lon="1.10182">
        <ele>128.9</ele>
        <time>2018-09-16T08:18:28Z</time>
      </trkpt>
      <trkpt lat="49.27509" lon="1.10201">
        <ele>128.7</ele>
        <time>2018-09-16T08:18:30Z</time>
      </trkpt>
      <trkpt lat="49.27513" lon="1.10219">
        <ele>128.6</ele>
        <time>2018-09-16T08:18:32Z</time>
      </trkpt>
      <trkpt lat="49.27517" lon="1.10236">
        <ele>128.7</ele>
        <time>2018-09-16T08:18:34Z</time>
      </trkpt>
      <trkpt lat="49.27522" lon="1.10252">
        <ele>128.8</ele>
        <time>2018-09-16T08:18:36Z</time>
      </trkpt>
      <trkpt lat="49.27527" lon="1.10269">
        <ele>128.9</ele>
        <time>2018-09-16T08:18:38Z</time>
      </trkpt>
      <trkpt lat="49.27533" lon="1.10286">
        <ele>128.6</ele>
        <time>2018-09-16T08:18:40Z</time>
      </trkpt>
      <trkpt lat="49.27539" lon="1.10303">
        <ele>128.7</ele>
        <time>2018-09-16T08:18:42Z</time>
      </trkpt>
      <trkpt lat="49.27545" lon="1.10319">
        <ele>128.6</ele>
        <time>2018-09-16T08:18:44Z</time>
      </trkpt>
      <trkpt lat="49.27552" lon="1.10334">
        <ele>128.5</ele>
        <time>2018-09-16T08:18:46Z</time>
      </trkpt>
      <trkpt lat="49.27561" lon="1.10348">
        <ele>128.5</ele>
        <time>2018-09-16T08:18:48Z</time>
      </trkpt>
      <trkpt lat="49.27572" lon="1.10359">
        <ele>128.3</ele>
        <time>2018-09-16T08:18:50Z</time>
      </trkpt>
      <trkpt lat="49.27582" lon="1.1037">
        <ele>128.2</ele>
        <time>2018-09-16T08:18:52Z</time>
      </trkpt>
      <trkpt lat="49.27591" lon="1.1038">
        <ele>128.1</ele>
        <time>2018-09-16T08:18:54Z</time>
      </trkpt>
      <trkpt lat="49.27601" lon="1.1039">
        <ele>128.1</ele>
        <time>2018-09-16T08:18:56Z</time>
      </trkpt>
      <trkpt lat="49.27611" lon="1.10401">
        <ele>128</ele>
        <time>2018-09-16T08:18:58Z</time>
      </trkpt>
      <trkpt lat="49.2762" lon="1.10413">
        <ele>128.1</ele>
        <time>2018-09-16T08:19:00Z</time>
      </trkpt>
      <trkpt lat="49.27629" lon="1.10428">
        <ele>128.1</ele>
        <time>2018-09-16T08:19:02Z</time>
      </trkpt>
      <trkpt lat="49.27636" lon="1.10444">
        <ele>128</ele>
        <time>2018-09-16T08:19:04Z</time>
      </trkpt>
      <trkpt lat="49.27643" lon="1.10462">
        <ele>127.9</ele>
        <time>2018-09-16T08:19:06Z</time>
      </trkpt>
      <trkpt lat="49.27649" lon="1.10479">
        <ele>127.8</ele>
        <time>2018-09-16T08:19:08Z</time>
      </trkpt>
      <trkpt lat="49.27655" lon="1.10494">
        <ele>127.8</ele>
        <time>2018-09-16T08:19:10Z</time>
      </trkpt>
      <trkpt lat="49.27663" lon="1.1051">
        <ele>127.6</ele>
        <time>2018-09-16T08:19:12Z</time>
      </trkpt>
      <trkpt lat="49.27671" lon="1.10524">
        <ele>127.5</ele>
        <time>2018-09-16T08:19:14Z</time>
      </trkpt>
      <trkpt lat="49.27679" lon="1.10539">
        <ele>127.6</ele>
        <time>2018-09-16T08:19:16Z</time>
      </trkpt>
      <trkpt lat="49.27687" lon="1.10551">
        <ele>127.5</ele>
        <time>2018-09-16T08:19:18Z</time>
      </trkpt>
      <trkpt lat="49.27697" lon="1.10563">
        <ele>127.3</ele>
        <time>2018-09-16T08:19:20Z</time>
      </trkpt>
      <trkpt lat="49.27706" lon="1.10576">
        <ele>127.1</ele>
        <time>2018-09-16T08:19:22Z</time>
      </trkpt>
      <trkpt lat="49.27714" lon="1.10587">
        <ele>127</ele>
        <time>2018-09-16T08:19:24Z</time>
      </trkpt>
      <trkpt lat="49.27725" lon="1.10601">
        <ele>127</ele>
        <time>2018-09-16T08:19:26Z</time>
      </trkpt>
      <trkpt lat="49.27735" lon="1.10616">
        <ele>126.8</ele>
        <time>2018-09-16T08:19:28Z</time>
      </trkpt>
      <trkpt lat="49.27737" lon="1.1063">
        <ele>126.5</ele>
        <time>2018-09-16T08:19:30Z</time>
      </trkpt>
      <trkpt lat="49.27725" lon="1.10639">
        <ele>126.3</ele>
        <time>2018-09-16T08:19:33Z</time>
      </trkpt>
      <trkpt lat="49.27714" lon="1.10645">
        <ele>126.2</ele>
        <time>2018-09-16T08:19:35Z</time>
      </trkpt>
      <trkpt lat="49.27704" lon="1.10649">
        <ele>126.1</ele>
        <time>2018-09-16T08:19:37Z</time>
      </trkpt>
      <trkpt lat="49.27693" lon="1.10652">
        <ele>126</ele>
        <time>2018-09-16T08:19:39Z</time>
      </trkpt>
      <trkpt lat="49.27683" lon="1.10656">
        <ele>125.8</ele>
        <time>2018-09-16T08:19:41Z</time>
      </trkpt>
      <trkpt lat="49.27673" lon="1.10662">
        <ele>125.6</ele>
        <time>2018-09-16T08:19:43Z</time>
      </trkpt>
      <trkpt lat="49.27662" lon="1.10667">
        <ele>125.3</ele>
        <time>2018-09-16T08:19:45Z</time>
      </trkpt>
      <trkpt lat="49.2765" lon="1.10673">
        <ele>125.2</ele>
        <time>2018-09-16T08:19:47Z</time>
      </trkpt>
      <trkpt lat="49.27638" lon="1.10679">
        <ele>125.1</ele>
        <time>2018-09-16T08:19:49Z</time>
      </trkpt>
      <trkpt lat="49.27625" lon="1.10685">
        <ele>125</ele>
        <time>2018-09-16T08:19:51Z</time>
      </trkpt>
      <trkpt lat="49.27613" lon="1.10694">
        <ele>124.8</ele>
        <time>2018-09-16T08:19:53Z</time>
      </trkpt>
      <trkpt lat="49.27601" lon="1.107">
        <ele>124.3</ele>
        <time>2018-09-16T08:19:55Z</time>
      </trkpt>
      <trkpt lat="49.27588" lon="1.10707">
        <ele>123.8</ele>
        <time>2018-09-16T08:19:57Z</time>
      </trkpt>
      <trkpt lat="49.27575" lon="1.10715">
        <ele>123.8</ele>
        <time>2018-09-16T08:19:59Z</time>
      </trkpt>
      <trkpt lat="49.27565" lon="1.10725">
        <ele>123.9</ele>
        <time>2018-09-16T08:20:01Z</time>
      </trkpt>
      <trkpt lat="49.27552" lon="1.10733">
        <ele>124.1</ele>
        <time>2018-09-16T08:20:03Z</time>
      </trkpt>
      <trkpt lat="49.27541" lon="1.10738">
        <ele>124.4</ele>
        <time>2018-09-16T08:20:05Z</time>
      </trkpt>
      <trkpt lat="49.2753" lon="1.10744">
        <ele>124.8</ele>
        <time>2018-09-16T08:20:07Z</time>
      </trkpt>
      <trkpt lat="49.27519" lon="1.10748">
        <ele>124.9</ele>
        <time>2018-09-16T08:20:09Z</time>
      </trkpt>
      <trkpt lat="49.27509" lon="1.10753">
        <ele>124.8</ele>
        <time>2018-09-16T08:20:11Z</time>
      </trkpt>
      <trkpt lat="49.27499" lon="1.1076">
        <ele>124.9</ele>
        <time>2018-09-16T08:20:13Z</time>
      </trkpt>
      <trkpt lat="49.27489" lon="1.10766">
        <ele>125.2</ele>
        <time>2018-09-16T08:20:15Z</time>
      </trkpt>
      <trkpt lat="49.27479" lon="1.10774">
        <ele>125.5</ele>
        <time>2018-09-16T08:20:17Z</time>
      </trkpt>
      <trkpt lat="49.27473" lon="1.10786">
        <ele>125.7</ele>
        <time>2018-09-16T08:20:19Z</time>
      </trkpt>
      <trkpt lat="49.27472" lon="1.10801">
        <ele>125.5</ele>
        <time>2018-09-16T08:20:21Z</time>
      </trkpt>
      <trkpt lat="49.27475" lon="1.10816">
        <ele>125.6</ele>
        <time>2018-09-16T08:20:23Z</time>
      </trkpt>
      <trkpt lat="49.2748" lon="1.1083">
        <ele>125.6</ele>
        <time>2018-09-16T08:20:25Z</time>
      </trkpt>
      <trkpt lat="49.27483" lon="1.10846">
        <ele>125.5</ele>
        <time>2018-09-16T08:20:27Z</time>
      </trkpt>
      <trkpt lat="49.27485" lon="1.10862">
        <ele>125.4</ele>
        <time>2018-09-16T08:20:29Z</time>
      </trkpt>
      <trkpt lat="49.27487" lon="1.10879">
        <ele>125.3</ele>
        <time>2018-09-16T08:20:31Z</time>
      </trkpt>
      <trkpt lat="49.2749" lon="1.10895">
        <ele>125.4</ele>
        <time>2018-09-16T08:20:33Z</time>
      </trkpt>
      <trkpt lat="49.27494" lon="1.10911">
        <ele>125.4</ele>
        <time>2018-09-16T08:20:35Z</time>
      </trkpt>
      <trkpt lat="49.27499" lon="1.1093">
        <ele>125.5</ele>
        <time>2018-09-16T08:20:37Z</time>
      </trkpt>
      <trkpt lat="49.27504" lon="1.10946">
        <ele>125.4</ele>
        <time>2018-09-16T08:20:39Z</time>
      </trkpt>
      <trkpt lat="49.27509" lon="1.10963">
        <ele>125.2</ele>
        <time>2018-09-16T08:20:41Z</time>
      </trkpt>
      <trkpt lat="49.27512" lon="1.10979">
        <ele>125</ele>
        <time>2018-09-16T08:20:43Z</time>
      </trkpt>
      <trkpt lat="49.27515" lon="1.10996">
        <ele>124.7</ele>
        <time>2018-09-16T08:20:45Z</time>
      </trkpt>
      <trkpt lat="49.27512" lon="1.11011">
        <ele>124.5</ele>
        <time>2018-09-16T08:20:48Z</time>
      </trkpt>
      <trkpt lat="49.275" lon="1.11004">
        <ele>124.7</ele>
        <time>2018-09-16T08:20:52Z</time>
      </trkpt>
      <trkpt lat="49.27493" lon="1.10995">
        <ele>124.9</ele>
        <time>2018-09-16T08:20:54Z</time>
      </trkpt>
      <trkpt lat="49.27484" lon="1.10986">
        <ele>125.1</ele>
        <time>2018-09-16T08:20:56Z</time>
      </trkpt>
      <trkpt lat="49.27476" lon="1.10976">
        <ele>125.3</ele>
        <time>2018-09-16T08:20:58Z</time>
      </trkpt>
      <trkpt lat="49.27467" lon="1.10967">
        <ele>125.5</ele>
        <time>2018-09-16T08:21:00Z</time>
      </trkpt>
      <trkpt lat="49.27458" lon="1.10957">
        <ele>125.4</ele>
        <time>2018-09-16T08:21:02Z</time>
      </trkpt>
      <trkpt lat="49.27447" lon="1.10943">
        <ele>125.4</ele>
        <time>2018-09-16T08:21:05Z</time>
      </trkpt>
      <trkpt lat="49.27439" lon="1.10934">
        <ele>125.5</ele>
        <time>2018-09-16T08:21:07Z</time>
      </trkpt>
      <trkpt lat="49.27428" lon="1.10924">
        <ele>125.9</ele>
        <time>2018-09-16T08:21:10Z</time>
      </trkpt>
      <trkpt lat="49.27421" lon="1.10915">
        <ele>126</ele>
        <time>2018-09-16T08:21:12Z</time>
      </trkpt>
      <trkpt lat="49.27412" lon="1.10907">
        <ele>126</ele>
        <time>2018-09-16T08:21:14Z</time>
      </trkpt>
      <trkpt lat="49.27402" lon="1.10894">
        <ele>126.2</ele>
        <time>2018-09-16T08:21:17Z</time>
      </trkpt>
      <trkpt lat="49.27392" lon="1.10884">
        <ele>126.4</ele>
        <time>2018-09-16T08:21:19Z</time>
      </trkpt>
      <trkpt lat="49.27382" lon="1.10875">
        <ele>126.6</ele>
        <time>2018-09-16T08:21:21Z</time>
      </trkpt>
      <trkpt lat="49.27373" lon="1.10865">
        <ele>126.8</ele>
        <time>2018-09-16T08:21:23Z</time>
      </trkpt>
      <trkpt lat="49.27364" lon="1.10855">
        <ele>126.7</ele>
        <time>2018-09-16T08:21:25Z</time>
      </trkpt>
      <trkpt lat="49.27355" lon="1.10846">
        <ele>126.7</ele>
        <time>2018-09-16T08:21:27Z</time>
      </trkpt>
      <trkpt lat="49.27347" lon="1.10837">
        <ele>126.8</ele>
        <time>2018-09-16T08:21:29Z</time>
      </trkpt>
      <trkpt lat="49.27338" lon="1.10828">
        <ele>126.9</ele>
        <time>2018-09-16T08:21:31Z</time>
      </trkpt>
      <trkpt lat="49.27331" lon="1.10821">
        <ele>126.8</ele>
        <time>2018-09-16T08:21:33Z</time>
      </trkpt>
      <trkpt lat="49.27322" lon="1.10815">
        <ele>126.9</ele>
        <time>2018-09-16T08:21:35Z</time>
      </trkpt>
      <trkpt lat="49.27313" lon="1.10811">
        <ele>127</ele>
        <time>2018-09-16T08:21:37Z</time>
      </trkpt>
      <trkpt lat="49.27304" lon="1.10807">
        <ele>127.1</ele>
        <time>2018-09-16T08:21:39Z</time>
      </trkpt>
      <trkpt lat="49.27294" lon="1.10804">
        <ele>127.5</ele>
        <time>2018-09-16T08:21:42Z</time>
      </trkpt>
      <trkpt lat="49.27288" lon="1.10793">
        <ele>127.7</ele>
        <time>2018-09-16T08:21:46Z</time>
      </trkpt>
      <trkpt lat="49.27278" lon="1.10783">
        <ele>127.9</ele>
        <time>2018-09-16T08:21:49Z</time>
      </trkpt>
      <trkpt lat="49.2727" lon="1.10775">
        <ele>128.1</ele>
        <time>2018-09-16T08:21:51Z</time>
      </trkpt>
      <trkpt lat="49.27262" lon="1.10765">
        <ele>128.2</ele>
        <time>2018-09-16T08:21:53Z</time>
      </trkpt>
      <trkpt lat="49.27254" lon="1.10754">
        <ele>128.3</ele>
        <time>2018-09-16T08:21:55Z</time>
      </trkpt>
      <trkpt lat="49.27246" lon="1.10742">
        <ele>128.6</ele>
        <time>2018-09-16T08:21:57Z</time>
      </trkpt>
      <trkpt lat="49.27239" lon="1.10728">
        <ele>128.8</ele>
        <time>2018-09-16T08:21:59Z</time>
      </trkpt>
      <trkpt lat="49.27235" lon="1.10712">
        <ele>128.9</ele>
        <time>2018-09-16T08:22:01Z</time>
      </trkpt>
      <trkpt lat="49.27231" lon="1.10696">
        <ele>129.1</ele>
        <time>2018-09-16T08:22:03Z</time>
      </trkpt>
      <trkpt lat="49.27226" lon="1.10681">
        <ele>129.2</ele>
        <time>2018-09-16T08:22:05Z</time>
      </trkpt>
      <trkpt lat="49.27221" lon="1.10666">
        <ele>129.4</ele>
        <time>2018-09-16T08:22:07Z</time>
      </trkpt>
      <trkpt lat="49.27216" lon="1.10653">
        <ele>129.3</ele>
        <time>2018-09-16T08:22:09Z</time>
      </trkpt>
      <trkpt lat="49.27211" lon="1.10641">
        <ele>129.5</ele>
        <time>2018-09-16T08:22:11Z</time>
      </trkpt>
      <trkpt lat="49.27206" lon="1.10628">
        <ele>129.7</ele>
        <time>2018-09-16T08:22:13Z</time>
      </trkpt>
      <trkpt lat="49.27202" lon="1.10615">
        <ele>130</ele>
        <time>2018-09-16T08:22:15Z</time>
      </trkpt>
      <trkpt lat="49.27199" lon="1.10601">
        <ele>130.2</ele>
        <time>2018-09-16T08:22:17Z</time>
      </trkpt>
      <trkpt lat="49.27197" lon="1.10587">
        <ele>130.3</ele>
        <time>2018-09-16T08:22:19Z</time>
      </trkpt>
      <trkpt lat="49.27199" lon="1.10573">
        <ele>130.5</ele>
        <time>2018-09-16T08:22:21Z</time>
      </trkpt>
      <trkpt lat="49.27204" lon="1.10561">
        <ele>130.6</ele>
        <time>2018-09-16T08:22:23Z</time>
      </trkpt>
      <trkpt lat="49.2721" lon="1.10549">
        <ele>130.7</ele>
        <time>2018-09-16T08:22:25Z</time>
      </trkpt>
      <trkpt lat="49.27214" lon="1.10535">
        <ele>130.8</ele>
        <time>2018-09-16T08:22:27Z</time>
      </trkpt>
      <trkpt lat="49.27216" lon="1.10519">
        <ele>130.9</ele>
        <time>2018-09-16T08:22:29Z</time>
      </trkpt>
      <trkpt lat="49.27214" lon="1.10503">
        <ele>131.1</ele>
        <time>2018-09-16T08:22:31Z</time>
      </trkpt>
      <trkpt lat="49.27212" lon="1.10487">
        <ele>131.3</ele>
        <time>2018-09-16T08:22:33Z</time>
      </trkpt>
      <trkpt lat="49.2721" lon="1.1047">
        <ele>131.5</ele>
        <time>2018-09-16T08:22:35Z</time>
      </trkpt>
      <trkpt lat="49.27207" lon="1.10453">
        <ele>131.5</ele>
        <time>2018-09-16T08:22:37Z</time>
      </trkpt>
      <trkpt lat="49.27205" lon="1.10436">
        <ele>131.4</ele>
        <time>2018-09-16T08:22:39Z</time>
      </trkpt>
      <trkpt lat="49.27203" lon="1.10419">
        <ele>131.4</ele>
        <time>2018-09-16T08:22:41Z</time>
      </trkpt>
      <trkpt lat="49.272" lon="1.10403">
        <ele>131.6</ele>
        <time>2018-09-16T08:22:43Z</time>
      </trkpt>
      <trkpt lat="49.27199" lon="1.10387">
        <ele>131.6</ele>
        <time>2018-09-16T08:22:45Z</time>
      </trkpt>
      <trkpt lat="49.27199" lon="1.10374">
        <ele>131.6</ele>
        <time>2018-09-16T08:22:47Z</time>
      </trkpt>
      <trkpt lat="49.27198" lon="1.1036">
        <ele>131.7</ele>
        <time>2018-09-16T08:22:49Z</time>
      </trkpt>
      <trkpt lat="49.27198" lon="1.10341">
        <ele>131.6</ele>
        <time>2018-09-16T08:22:52Z</time>
      </trkpt>
      <trkpt lat="49.27197" lon="1.10325">
        <ele>131.5</ele>
        <time>2018-09-16T08:22:54Z</time>
      </trkpt>
      <trkpt lat="49.27195" lon="1.10311">
        <ele>131.5</ele>
        <time>2018-09-16T08:22:56Z</time>
      </trkpt>
      <trkpt lat="49.27195" lon="1.10297">
        <ele>131.5</ele>
        <time>2018-09-16T08:22:58Z</time>
      </trkpt>
      <trkpt lat="49.27193" lon="1.10278">
        <ele>131.4</ele>
        <time>2018-09-16T08:23:00Z</time>
      </trkpt>
      <trkpt lat="49.27193" lon="1.10264">
        <ele>131.4</ele>
        <time>2018-09-16T08:23:02Z</time>
      </trkpt>
      <trkpt lat="49.2719" lon="1.10244">
        <ele>131.3</ele>
        <time>2018-09-16T08:23:04Z</time>
      </trkpt>
      <trkpt lat="49.27188" lon="1.10229">
        <ele>131.1</ele>
        <time>2018-09-16T08:23:06Z</time>
      </trkpt>
      <trkpt lat="49.27186" lon="1.10213">
        <ele>131</ele>
        <time>2018-09-16T08:23:08Z</time>
      </trkpt>
      <trkpt lat="49.27186" lon="1.10193">
        <ele>130.9</ele>
        <time>2018-09-16T08:23:11Z</time>
      </trkpt>
      <trkpt lat="49.27185" lon="1.10179">
        <ele>130.9</ele>
        <time>2018-09-16T08:23:13Z</time>
      </trkpt>
      <trkpt lat="49.27184" lon="1.10162">
        <ele>131</ele>
        <time>2018-09-16T08:23:15Z</time>
      </trkpt>
      <trkpt lat="49.27182" lon="1.10146">
        <ele>131</ele>
        <time>2018-09-16T08:23:17Z</time>
      </trkpt>
      <trkpt lat="49.27179" lon="1.10125">
        <ele>131</ele>
        <time>2018-09-16T08:23:19Z</time>
      </trkpt>
      <trkpt lat="49.27176" lon="1.10105">
        <ele>131</ele>
        <time>2018-09-16T08:23:21Z</time>
      </trkpt>
      <trkpt lat="49.27174" lon="1.10086">
        <ele>131</ele>
        <time>2018-09-16T08:23:23Z</time>
      </trkpt>
      <trkpt lat="49.27173" lon="1.10068">
        <ele>130.8</ele>
        <time>2018-09-16T08:23:25Z</time>
      </trkpt>
      <trkpt lat="49.27171" lon="1.10048">
        <ele>130.9</ele>
        <time>2018-09-16T08:23:27Z</time>
      </trkpt>
      <trkpt lat="49.27169" lon="1.10029">
        <ele>130.8</ele>
        <time>2018-09-16T08:23:29Z</time>
      </trkpt>
      <trkpt lat="49.27167" lon="1.1001">
        <ele>130.7</ele>
        <time>2018-09-16T08:23:31Z</time>
      </trkpt>
      <trkpt lat="49.27166" lon="1.09992">
        <ele>130.6</ele>
        <time>2018-09-16T08:23:33Z</time>
      </trkpt>
      <trkpt lat="49.27165" lon="1.09974">
        <ele>130.4</ele>
        <time>2018-09-16T08:23:35Z</time>
      </trkpt>
      <trkpt lat="49.27166" lon="1.09952">
        <ele>130.3</ele>
        <time>2018-09-16T08:23:37Z</time>
      </trkpt>
      <trkpt lat="49.27169" lon="1.09928">
        <ele>129.9</ele>
        <time>2018-09-16T08:23:39Z</time>
      </trkpt>
      <trkpt lat="49.27179" lon="1.09913">
        <ele>129.7</ele>
        <time>2018-09-16T08:23:41Z</time>
      </trkpt>
      <trkpt lat="49.27192" lon="1.09905">
        <ele>129.5</ele>
        <time>2018-09-16T08:23:43Z</time>
      </trkpt>
      <trkpt lat="49.27205" lon="1.09897">
        <ele>129.4</ele>
        <time>2018-09-16T08:23:45Z</time>
      </trkpt>
      <trkpt lat="49.27218" lon="1.09889">
        <ele>128.9</ele>
        <time>2018-09-16T08:23:47Z</time>
      </trkpt>
      <trkpt lat="49.27229" lon="1.09881">
        <ele>128.6</ele>
        <time>2018-09-16T08:23:49Z</time>
      </trkpt>
      <trkpt lat="49.27242" lon="1.09877">
        <ele>128.5</ele>
        <time>2018-09-16T08:23:51Z</time>
      </trkpt>
      <trkpt lat="49.27254" lon="1.09875">
        <ele>128.5</ele>
        <time>2018-09-16T08:23:53Z</time>
      </trkpt>
      <trkpt lat="49.27263" lon="1.09867">
        <ele>128.3</ele>
        <time>2018-09-16T08:23:55Z</time>
      </trkpt>
      <trkpt lat="49.27269" lon="1.09857">
        <ele>128.2</ele>
        <time>2018-09-16T08:23:57Z</time>
      </trkpt>
      <trkpt lat="49.27277" lon="1.09846">
        <ele>128</ele>
        <time>2018-09-16T08:23:59Z</time>
      </trkpt>
      <trkpt lat="49.27285" lon="1.09831">
        <ele>127.8</ele>
        <time>2018-09-16T08:24:01Z</time>
      </trkpt>
      <trkpt lat="49.27292" lon="1.09818">
        <ele>127.5</ele>
        <time>2018-09-16T08:24:03Z</time>
      </trkpt>
      <trkpt lat="49.27299" lon="1.09804">
        <ele>127.4</ele>
        <time>2018-09-16T08:24:05Z</time>
      </trkpt>
      <trkpt lat="49.27306" lon="1.09788">
        <ele>127.2</ele>
        <time>2018-09-16T08:24:07Z</time>
      </trkpt>
      <trkpt lat="49.27316" lon="1.09779">
        <ele>127</ele>
        <time>2018-09-16T08:24:09Z</time>
      </trkpt>
      <trkpt lat="49.27322" lon="1.09763">
        <ele>126.6</ele>
        <time>2018-09-16T08:24:11Z</time>
      </trkpt>
      <trkpt lat="49.27331" lon="1.09748">
        <ele>126.3</ele>
        <time>2018-09-16T08:24:13Z</time>
      </trkpt>
      <trkpt lat="49.27339" lon="1.09736">
        <ele>125.7</ele>
        <time>2018-09-16T08:24:15Z</time>
      </trkpt>
      <trkpt lat="49.27348" lon="1.09728">
        <ele>125</ele>
        <time>2018-09-16T08:24:17Z</time>
      </trkpt>
      <trkpt lat="49.27357" lon="1.09715">
        <ele>124.3</ele>
        <time>2018-09-16T08:24:19Z</time>
      </trkpt>
      <trkpt lat="49.2737" lon="1.09702">
        <ele>123.6</ele>
        <time>2018-09-16T08:24:21Z</time>
      </trkpt>
      <trkpt lat="49.27373" lon="1.09688">
        <ele>123.1</ele>
        <time>2018-09-16T08:24:22Z</time>
      </trkpt>
      <trkpt lat="49.27381" lon="1.09671">
        <ele>122.2</ele>
        <time>2018-09-16T08:24:24Z</time>
      </trkpt>
      <trkpt lat="49.27387" lon="1.0965">
        <ele>120.9</ele>
        <time>2018-09-16T08:24:26Z</time>
      </trkpt>
      <trkpt lat="49.27394" lon="1.09631">
        <ele>119.4</ele>
        <time>2018-09-16T08:24:28Z</time>
      </trkpt>
      <trkpt lat="49.27405" lon="1.09613">
        <ele>117.4</ele>
        <time>2018-09-16T08:24:30Z</time>
      </trkpt>
      <trkpt lat="49.27412" lon="1.09602">
        <ele>116.5</ele>
        <time>2018-09-16T08:24:31Z</time>
      </trkpt>
      <trkpt lat="49.27419" lon="1.09591">
        <ele>115.4</ele>
        <time>2018-09-16T08:24:32Z</time>
      </trkpt>
      <trkpt lat="49.27422" lon="1.09574">
        <ele>114.1</ele>
        <time>2018-09-16T08:24:33Z</time>
      </trkpt>
      <trkpt lat="49.27427" lon="1.0956">
        <ele>112.9</ele>
        <time>2018-09-16T08:24:34Z</time>
      </trkpt>
      <trkpt lat="49.27434" lon="1.0955">
        <ele>111.7</ele>
        <time>2018-09-16T08:24:35Z</time>
      </trkpt>
      <trkpt lat="49.27441" lon="1.09539">
        <ele>110.3</ele>
        <time>2018-09-16T08:24:36Z</time>
      </trkpt>
      <trkpt lat="49.27448" lon="1.09529">
        <ele>108.8</ele>
        <time>2018-09-16T08:24:37Z</time>
      </trkpt>
      <trkpt lat="49.27453" lon="1.09515">
        <ele>107.1</ele>
        <time>2018-09-16T08:24:38Z</time>
      </trkpt>
      <trkpt lat="49.27466" lon="1.09495">
        <ele>104.3</ele>
        <time>2018-09-16T08:24:40Z</time>
      </trkpt>
      <trkpt lat="49.27476" lon="1.09486">
        <ele>102.5</ele>
        <time>2018-09-16T08:24:41Z</time>
      </trkpt>
      <trkpt lat="49.27485" lon="1.09474">
        <ele>100.7</ele>
        <time>2018-09-16T08:24:42Z</time>
      </trkpt>
      <trkpt lat="49.27493" lon="1.09462">
        <ele>99.3</ele>
        <time>2018-09-16T08:24:43Z</time>
      </trkpt>
      <trkpt lat="49.275" lon="1.09451">
        <ele>97.9</ele>
        <time>2018-09-16T08:24:44Z</time>
      </trkpt>
      <trkpt lat="49.27505" lon="1.09438">
        <ele>96.1</ele>
        <time>2018-09-16T08:24:45Z</time>
      </trkpt>
      <trkpt lat="49.27511" lon="1.0942">
        <ele>93</ele>
        <time>2018-09-16T08:24:47Z</time>
      </trkpt>
      <trkpt lat="49.27514" lon="1.09397">
        <ele>90.6</ele>
        <time>2018-09-16T08:24:49Z</time>
      </trkpt>
      <trkpt lat="49.27516" lon="1.09381">
        <ele>88.6</ele>
        <time>2018-09-16T08:24:51Z</time>
      </trkpt>
      <trkpt lat="49.27512" lon="1.09367">
        <ele>87.3</ele>
        <time>2018-09-16T08:24:53Z</time>
      </trkpt>
      <trkpt lat="49.27507" lon="1.09354">
        <ele>86.6</ele>
        <time>2018-09-16T08:24:55Z</time>
      </trkpt>
      <trkpt lat="49.275" lon="1.09342">
        <ele>85.9</ele>
        <time>2018-09-16T08:24:57Z</time>
      </trkpt>
      <trkpt lat="49.27498" lon="1.09329">
        <ele>85.6</ele>
        <time>2018-09-16T08:24:59Z</time>
      </trkpt>
      <trkpt lat="49.27501" lon="1.09308">
        <ele>84.7</ele>
        <time>2018-09-16T08:25:02Z</time>
      </trkpt>
      <trkpt lat="49.27506" lon="1.09294">
        <ele>83.9</ele>
        <time>2018-09-16T08:25:04Z</time>
      </trkpt>
      <trkpt lat="49.27513" lon="1.09282">
        <ele>82.9</ele>
        <time>2018-09-16T08:25:06Z</time>
      </trkpt>
      <trkpt lat="49.2752" lon="1.09265">
        <ele>82.3</ele>
        <time>2018-09-16T08:25:08Z</time>
      </trkpt>
      <trkpt lat="49.27528" lon="1.0925">
        <ele>81.3</ele>
        <time>2018-09-16T08:25:10Z</time>
      </trkpt>
      <trkpt lat="49.2754" lon="1.09233">
        <ele>80.6</ele>
        <time>2018-09-16T08:25:12Z</time>
      </trkpt>
      <trkpt lat="49.27549" lon="1.09215">
        <ele>79.9</ele>
        <time>2018-09-16T08:25:14Z</time>
      </trkpt>
      <trkpt lat="49.27557" lon="1.09201">
        <ele>79.5</ele>
        <time>2018-09-16T08:25:16Z</time>
      </trkpt>
      <trkpt lat="49.27562" lon="1.09186">
        <ele>78.9</ele>
        <time>2018-09-16T08:25:18Z</time>
      </trkpt>
      <trkpt lat="49.27566" lon="1.09164">
        <ele>78.2</ele>
        <time>2018-09-16T08:25:20Z</time>
      </trkpt>
      <trkpt lat="49.27575" lon="1.09147">
        <ele>77.6</ele>
        <time>2018-09-16T08:25:22Z</time>
      </trkpt>
      <trkpt lat="49.27586" lon="1.09134">
        <ele>76.9</ele>
        <time>2018-09-16T08:25:24Z</time>
      </trkpt>
      <trkpt lat="49.27595" lon="1.09116">
        <ele>76.2</ele>
        <time>2018-09-16T08:25:26Z</time>
      </trkpt>
      <trkpt lat="49.27607" lon="1.09095">
        <ele>75.5</ele>
        <time>2018-09-16T08:25:28Z</time>
      </trkpt>
      <trkpt lat="49.27616" lon="1.09079">
        <ele>74.1</ele>
        <time>2018-09-16T08:25:30Z</time>
      </trkpt>
      <trkpt lat="49.27623" lon="1.0906">
        <ele>73.2</ele>
        <time>2018-09-16T08:25:32Z</time>
      </trkpt>
      <trkpt lat="49.27623" lon="1.09045">
        <ele>72.9</ele>
        <time>2018-09-16T08:25:33Z</time>
      </trkpt>
      <trkpt lat="49.27625" lon="1.0903">
        <ele>72.4</ele>
        <time>2018-09-16T08:25:35Z</time>
      </trkpt>
      <trkpt lat="49.27622" lon="1.09014">
        <ele>72.1</ele>
        <time>2018-09-16T08:25:37Z</time>
      </trkpt>
      <trkpt lat="49.27619" lon="1.09">
        <ele>72</ele>
        <time>2018-09-16T08:25:39Z</time>
      </trkpt>
      <trkpt lat="49.27612" lon="1.08987">
        <ele>71.9</ele>
        <time>2018-09-16T08:25:42Z</time>
      </trkpt>
      <trkpt lat="49.27605" lon="1.08976">
        <ele>71.8</ele>
        <time>2018-09-16T08:25:44Z</time>
      </trkpt>
      <trkpt lat="49.27597" lon="1.08964">
        <ele>71.6</ele>
        <time>2018-09-16T08:25:47Z</time>
      </trkpt>
      <trkpt lat="49.27586" lon="1.08951">
        <ele>71.2</ele>
        <time>2018-09-16T08:25:50Z</time>
      </trkpt>
      <trkpt lat="49.27579" lon="1.08939">
        <ele>70.9</ele>
        <time>2018-09-16T08:25:52Z</time>
      </trkpt>
      <trkpt lat="49.27571" lon="1.08928">
        <ele>70.9</ele>
        <time>2018-09-16T08:25:54Z</time>
      </trkpt>
      <trkpt lat="49.27561" lon="1.08911">
        <ele>70.7</ele>
        <time>2018-09-16T08:25:56Z</time>
      </trkpt>
      <trkpt lat="49.27551" lon="1.08897">
        <ele>70.2</ele>
        <time>2018-09-16T08:25:58Z</time>
      </trkpt>
      <trkpt lat="49.2754" lon="1.0888">
        <ele>69.4</ele>
        <time>2018-09-16T08:26:00Z</time>
      </trkpt>
      <trkpt lat="49.2753" lon="1.08866">
        <ele>68.5</ele>
        <time>2018-09-16T08:26:02Z</time>
      </trkpt>
      <trkpt lat="49.27518" lon="1.08849">
        <ele>67.3</ele>
        <time>2018-09-16T08:26:04Z</time>
      </trkpt>
      <trkpt lat="49.27505" lon="1.08831">
        <ele>66.3</ele>
        <time>2018-09-16T08:26:06Z</time>
      </trkpt>
      <trkpt lat="49.27493" lon="1.08812">
        <ele>65.4</ele>
        <time>2018-09-16T08:26:08Z</time>
      </trkpt>
      <trkpt lat="49.2748" lon="1.08795">
        <ele>63.9</ele>
        <time>2018-09-16T08:26:10Z</time>
      </trkpt>
      <trkpt lat="49.27469" lon="1.08779">
        <ele>62.8</ele>
        <time>2018-09-16T08:26:12Z</time>
      </trkpt>
      <trkpt lat="49.27462" lon="1.0877">
        <ele>62.2</ele>
        <time>2018-09-16T08:26:13Z</time>
      </trkpt>
      <trkpt lat="49.27451" lon="1.08754">
        <ele>61.4</ele>
        <time>2018-09-16T08:26:15Z</time>
      </trkpt>
      <trkpt lat="49.27444" lon="1.08744">
        <ele>61.3</ele>
        <time>2018-09-16T08:26:16Z</time>
      </trkpt>
      <trkpt lat="49.27433" lon="1.08728">
        <ele>61.3</ele>
        <time>2018-09-16T08:26:18Z</time>
      </trkpt>
      <trkpt lat="49.27426" lon="1.08717">
        <ele>61.3</ele>
        <time>2018-09-16T08:26:19Z</time>
      </trkpt>
      <trkpt lat="49.27414" lon="1.08701">
        <ele>61.8</ele>
        <time>2018-09-16T08:26:21Z</time>
      </trkpt>
      <trkpt lat="49.27404" lon="1.08687">
        <ele>62.3</ele>
        <time>2018-09-16T08:26:23Z</time>
      </trkpt>
      <trkpt lat="49.27392" lon="1.08681">
        <ele>63.4</ele>
        <time>2018-09-16T08:26:26Z</time>
      </trkpt>
      <trkpt lat="49.27382" lon="1.08695">
        <ele>64.1</ele>
        <time>2018-09-16T08:26:29Z</time>
      </trkpt>
      <trkpt lat="49.27376" lon="1.08707">
        <ele>64.2</ele>
        <time>2018-09-16T08:26:31Z</time>
      </trkpt>
      <trkpt lat="49.27369" lon="1.08717">
        <ele>64.4</ele>
        <time>2018-09-16T08:26:33Z</time>
      </trkpt>
      <trkpt lat="49.27362" lon="1.0873">
        <ele>64.4</ele>
        <time>2018-09-16T08:26:35Z</time>
      </trkpt>
      <trkpt lat="49.27355" lon="1.08743">
        <ele>64.5</ele>
        <time>2018-09-16T08:26:37Z</time>
      </trkpt>
      <trkpt lat="49.27349" lon="1.08754">
        <ele>64.6</ele>
        <time>2018-09-16T08:26:39Z</time>
      </trkpt>
      <trkpt lat="49.27342" lon="1.08764">
        <ele>64.9</ele>
        <time>2018-09-16T08:26:42Z</time>
      </trkpt>
      <trkpt lat="49.27338" lon="1.08777">
        <ele>65.5</ele>
        <time>2018-09-16T08:26:48Z</time>
      </trkpt>
      <trkpt lat="49.27331" lon="1.08789">
        <ele>67.2</ele>
        <time>2018-09-16T08:26:55Z</time>
      </trkpt>
      <trkpt lat="49.27325" lon="1.08799">
        <ele>68.5</ele>
        <time>2018-09-16T08:27:01Z</time>
      </trkpt>
      <trkpt lat="49.2732" lon="1.08812">
        <ele>70.5</ele>
        <time>2018-09-16T08:27:08Z</time>
      </trkpt>
      <trkpt lat="49.27315" lon="1.08824">
        <ele>72</ele>
        <time>2018-09-16T08:27:14Z</time>
      </trkpt>
      <trkpt lat="49.27308" lon="1.08835">
        <ele>73.7</ele>
        <time>2018-09-16T08:27:22Z</time>
      </trkpt>
      <trkpt lat="49.27301" lon="1.08847">
        <ele>75.2</ele>
        <time>2018-09-16T08:27:28Z</time>
      </trkpt>
      <trkpt lat="49.273" lon="1.08861">
        <ele>76.1</ele>
        <time>2018-09-16T08:27:33Z</time>
      </trkpt>
      <trkpt lat="49.27299" lon="1.08877">
        <ele>77.7</ele>
        <time>2018-09-16T08:27:40Z</time>
      </trkpt>
      <trkpt lat="49.27303" lon="1.08891">
        <ele>78.7</ele>
        <time>2018-09-16T08:27:46Z</time>
      </trkpt>
      <trkpt lat="49.27306" lon="1.08906">
        <ele>79.9</ele>
        <time>2018-09-16T08:27:52Z</time>
      </trkpt>
      <trkpt lat="49.27308" lon="1.0892">
        <ele>81</ele>
        <time>2018-09-16T08:27:57Z</time>
      </trkpt>
      <trkpt lat="49.27311" lon="1.08935">
        <ele>82</ele>
        <time>2018-09-16T08:28:02Z</time>
      </trkpt>
      <trkpt lat="49.2731" lon="1.08949">
        <ele>82.9</ele>
        <time>2018-09-16T08:28:07Z</time>
      </trkpt>
      <trkpt lat="49.27306" lon="1.08964">
        <ele>84.4</ele>
        <time>2018-09-16T08:28:14Z</time>
      </trkpt>
      <trkpt lat="49.27301" lon="1.08979">
        <ele>85.4</ele>
        <time>2018-09-16T08:28:20Z</time>
      </trkpt>
      <trkpt lat="49.27297" lon="1.08992">
        <ele>86.1</ele>
        <time>2018-09-16T08:28:25Z</time>
      </trkpt>
      <trkpt lat="49.27291" lon="1.09003">
        <ele>86.4</ele>
        <time>2018-09-16T08:28:29Z</time>
      </trkpt>
      <trkpt lat="49.27282" lon="1.09013">
        <ele>86.5</ele>
        <time>2018-09-16T08:28:33Z</time>
      </trkpt>
      <trkpt lat="49.27274" lon="1.09006">
        <ele>86.2</ele>
        <time>2018-09-16T08:28:36Z</time>
      </trkpt>
      <trkpt lat="49.27267" lon="1.08998">
        <ele>85.8</ele>
        <time>2018-09-16T08:28:38Z</time>
      </trkpt>
      <trkpt lat="49.27258" lon="1.08987">
        <ele>85.3</ele>
        <time>2018-09-16T08:28:40Z</time>
      </trkpt>
      <trkpt lat="49.27245" lon="1.08972">
        <ele>84.2</ele>
        <time>2018-09-16T08:28:42Z</time>
      </trkpt>
      <trkpt lat="49.27233" lon="1.08959">
        <ele>83.1</ele>
        <time>2018-09-16T08:28:44Z</time>
      </trkpt>
      <trkpt lat="49.27223" lon="1.08948">
        <ele>81.8</ele>
        <time>2018-09-16T08:28:46Z</time>
      </trkpt>
      <trkpt lat="49.27211" lon="1.08949">
        <ele>80.1</ele>
        <time>2018-09-16T08:28:49Z</time>
      </trkpt>
      <trkpt lat="49.27204" lon="1.08959">
        <ele>79.3</ele>
        <time>2018-09-16T08:28:51Z</time>
      </trkpt>
      <trkpt lat="49.27196" lon="1.08969">
        <ele>78.6</ele>
        <time>2018-09-16T08:28:53Z</time>
      </trkpt>
      <trkpt lat="49.27189" lon="1.08979">
        <ele>78.2</ele>
        <time>2018-09-16T08:28:55Z</time>
      </trkpt>
      <trkpt lat="49.2718" lon="1.08991">
        <ele>77.7</ele>
        <time>2018-09-16T08:28:57Z</time>
      </trkpt>
      <trkpt lat="49.2717" lon="1.09002">
        <ele>77.2</ele>
        <time>2018-09-16T08:28:59Z</time>
      </trkpt>
      <trkpt lat="49.2716" lon="1.09014">
        <ele>76.9</ele>
        <time>2018-09-16T08:29:01Z</time>
      </trkpt>
      <trkpt lat="49.27149" lon="1.09025">
        <ele>76.4</ele>
        <time>2018-09-16T08:29:03Z</time>
      </trkpt>
      <trkpt lat="49.27138" lon="1.09035">
        <ele>75.9</ele>
        <time>2018-09-16T08:29:05Z</time>
      </trkpt>
      <trkpt lat="49.27124" lon="1.09041">
        <ele>75.2</ele>
        <time>2018-09-16T08:29:07Z</time>
      </trkpt>
      <trkpt lat="49.27112" lon="1.09046">
        <ele>74.9</ele>
        <time>2018-09-16T08:29:09Z</time>
      </trkpt>
      <trkpt lat="49.271" lon="1.09049">
        <ele>74.6</ele>
        <time>2018-09-16T08:29:11Z</time>
      </trkpt>
      <trkpt lat="49.27088" lon="1.0905">
        <ele>74.4</ele>
        <time>2018-09-16T08:29:13Z</time>
      </trkpt>
      <trkpt lat="49.27077" lon="1.09053">
        <ele>74.4</ele>
        <time>2018-09-16T08:29:15Z</time>
      </trkpt>
      <trkpt lat="49.27068" lon="1.09057">
        <ele>74.6</ele>
        <time>2018-09-16T08:29:17Z</time>
      </trkpt>
      <trkpt lat="49.27058" lon="1.09059">
        <ele>75</ele>
        <time>2018-09-16T08:29:19Z</time>
      </trkpt>
      <trkpt lat="49.27049" lon="1.09061">
        <ele>75.3</ele>
        <time>2018-09-16T08:29:21Z</time>
      </trkpt>
      <trkpt lat="49.2704" lon="1.09065">
        <ele>75.6</ele>
        <time>2018-09-16T08:29:23Z</time>
      </trkpt>
      <trkpt lat="49.27028" lon="1.0907">
        <ele>76</ele>
        <time>2018-09-16T08:29:26Z</time>
      </trkpt>
      <trkpt lat="49.27016" lon="1.09078">
        <ele>76.3</ele>
        <time>2018-09-16T08:29:29Z</time>
      </trkpt>
      <trkpt lat="49.27007" lon="1.09083">
        <ele>76.4</ele>
        <time>2018-09-16T08:29:31Z</time>
      </trkpt>
      <trkpt lat="49.26998" lon="1.09087">
        <ele>76.6</ele>
        <time>2018-09-16T08:29:33Z</time>
      </trkpt>
      <trkpt lat="49.26989" lon="1.09091">
        <ele>76.8</ele>
        <time>2018-09-16T08:29:35Z</time>
      </trkpt>
      <trkpt lat="49.2698" lon="1.09093">
        <ele>77</ele>
        <time>2018-09-16T08:29:37Z</time>
      </trkpt>
      <trkpt lat="49.26968" lon="1.09094">
        <ele>77.4</ele>
        <time>2018-09-16T08:29:40Z</time>
      </trkpt>
      <trkpt lat="49.26957" lon="1.09093">
        <ele>77.8</ele>
        <time>2018-09-16T08:29:43Z</time>
      </trkpt>
      <trkpt lat="49.26944" lon="1.09087">
        <ele>78.2</ele>
        <time>2018-09-16T08:29:46Z</time>
      </trkpt>
      <trkpt lat="49.26934" lon="1.0908">
        <ele>78.5</ele>
        <time>2018-09-16T08:29:49Z</time>
      </trkpt>
      <trkpt lat="49.26925" lon="1.09075">
        <ele>78.6</ele>
        <time>2018-09-16T08:29:51Z</time>
      </trkpt>
      <trkpt lat="49.26912" lon="1.09071">
        <ele>79.1</ele>
        <time>2018-09-16T08:29:54Z</time>
      </trkpt>
      <trkpt lat="49.26899" lon="1.0907">
        <ele>79.6</ele>
        <time>2018-09-16T08:29:57Z</time>
      </trkpt>
      <trkpt lat="49.26887" lon="1.09069">
        <ele>80</ele>
        <time>2018-09-16T08:30:00Z</time>
      </trkpt>
      <trkpt lat="49.26877" lon="1.09069">
        <ele>80.2</ele>
        <time>2018-09-16T08:30:02Z</time>
      </trkpt>
      <trkpt lat="49.26868" lon="1.09068">
        <ele>80.5</ele>
        <time>2018-09-16T08:30:04Z</time>
      </trkpt>
      <trkpt lat="49.26855" lon="1.09069">
        <ele>80.8</ele>
        <time>2018-09-16T08:30:07Z</time>
      </trkpt>
      <trkpt lat="49.26842" lon="1.09069">
        <ele>81.2</ele>
        <time>2018-09-16T08:30:10Z</time>
      </trkpt>
      <trkpt lat="49.2683" lon="1.09069">
        <ele>81.5</ele>
        <time>2018-09-16T08:30:13Z</time>
      </trkpt>
      <trkpt lat="49.26821" lon="1.0907">
        <ele>82.1</ele>
        <time>2018-09-16T08:30:16Z</time>
      </trkpt>
      <trkpt lat="49.2681" lon="1.09068">
        <ele>82.9</ele>
        <time>2018-09-16T08:30:20Z</time>
      </trkpt>
      <trkpt lat="49.26802" lon="1.09059">
        <ele>83.3</ele>
        <time>2018-09-16T08:30:23Z</time>
      </trkpt>
      <trkpt lat="49.26795" lon="1.0905">
        <ele>83.8</ele>
        <time>2018-09-16T08:30:26Z</time>
      </trkpt>
      <trkpt lat="49.26786" lon="1.09043">
        <ele>84.6</ele>
        <time>2018-09-16T08:30:30Z</time>
      </trkpt>
      <trkpt lat="49.26778" lon="1.09034">
        <ele>84.8</ele>
        <time>2018-09-16T08:30:32Z</time>
      </trkpt>
      <trkpt lat="49.2677" lon="1.09023">
        <ele>85.1</ele>
        <time>2018-09-16T08:30:35Z</time>
      </trkpt>
      <trkpt lat="49.26762" lon="1.09012">
        <ele>85.7</ele>
        <time>2018-09-16T08:30:38Z</time>
      </trkpt>
      <trkpt lat="49.26754" lon="1.09003">
        <ele>86</ele>
        <time>2018-09-16T08:30:41Z</time>
      </trkpt>
      <trkpt lat="49.26745" lon="1.08994">
        <ele>86.4</ele>
        <time>2018-09-16T08:30:44Z</time>
      </trkpt>
      <trkpt lat="49.26737" lon="1.08981">
        <ele>86.6</ele>
        <time>2018-09-16T08:30:47Z</time>
      </trkpt>
      <trkpt lat="49.26727" lon="1.08969">
        <ele>87</ele>
        <time>2018-09-16T08:30:50Z</time>
      </trkpt>
      <trkpt lat="49.26715" lon="1.08961">
        <ele>87.2</ele>
        <time>2018-09-16T08:30:53Z</time>
      </trkpt>
      <trkpt lat="49.26703" lon="1.08958">
        <ele>87.5</ele>
        <time>2018-09-16T08:30:56Z</time>
      </trkpt>
      <trkpt lat="49.26691" lon="1.08955">
        <ele>87.6</ele>
        <time>2018-09-16T08:30:59Z</time>
      </trkpt>
      <trkpt lat="49.26678" lon="1.08955">
        <ele>88.1</ele>
        <time>2018-09-16T08:31:02Z</time>
      </trkpt>
      <trkpt lat="49.26666" lon="1.08957">
        <ele>88.5</ele>
        <time>2018-09-16T08:31:05Z</time>
      </trkpt>
      <trkpt lat="49.26654" lon="1.08958">
        <ele>88.8</ele>
        <time>2018-09-16T08:31:08Z</time>
      </trkpt>
      <trkpt lat="49.26645" lon="1.08959">
        <ele>89.1</ele>
        <time>2018-09-16T08:31:11Z</time>
      </trkpt>
      <trkpt lat="49.26636" lon="1.08959">
        <ele>89.4</ele>
        <time>2018-09-16T08:31:13Z</time>
      </trkpt>
      <trkpt lat="49.26627" lon="1.08965">
        <ele>90</ele>
        <time>2018-09-16T08:31:17Z</time>
      </trkpt>
      <trkpt lat="49.26619" lon="1.08972">
        <ele>91</ele>
        <time>2018-09-16T08:31:21Z</time>
      </trkpt>
      <trkpt lat="49.2661" lon="1.08981">
        <ele>92.6</ele>
        <time>2018-09-16T08:31:26Z</time>
      </trkpt>
      <trkpt lat="49.26604" lon="1.08993">
        <ele>94.1</ele>
        <time>2018-09-16T08:31:31Z</time>
      </trkpt>
      <trkpt lat="49.26597" lon="1.09006">
        <ele>95.4</ele>
        <time>2018-09-16T08:31:36Z</time>
      </trkpt>
      <trkpt lat="49.26587" lon="1.09016">
        <ele>95.8</ele>
        <time>2018-09-16T08:31:40Z</time>
      </trkpt>
      <trkpt lat="49.26577" lon="1.09022">
        <ele>95.9</ele>
        <time>2018-09-16T08:31:43Z</time>
      </trkpt>
      <trkpt lat="49.26566" lon="1.09027">
        <ele>95.9</ele>
        <time>2018-09-16T08:31:46Z</time>
      </trkpt>
      <trkpt lat="49.26555" lon="1.09033">
        <ele>95.7</ele>
        <time>2018-09-16T08:31:48Z</time>
      </trkpt>
      <trkpt lat="49.26544" lon="1.09039">
        <ele>95.5</ele>
        <time>2018-09-16T08:31:50Z</time>
      </trkpt>
      <trkpt lat="49.26535" lon="1.09044">
        <ele>95.1</ele>
        <time>2018-09-16T08:31:52Z</time>
      </trkpt>
      <trkpt lat="49.26526" lon="1.09049">
        <ele>95</ele>
        <time>2018-09-16T08:31:54Z</time>
      </trkpt>
      <trkpt lat="49.26516" lon="1.09055">
        <ele>95.1</ele>
        <time>2018-09-16T08:31:56Z</time>
      </trkpt>
      <trkpt lat="49.26509" lon="1.09064">
        <ele>95</ele>
        <time>2018-09-16T08:31:58Z</time>
      </trkpt>
      <trkpt lat="49.26501" lon="1.09074">
        <ele>94.9</ele>
        <time>2018-09-16T08:32:00Z</time>
      </trkpt>
      <trkpt lat="49.26491" lon="1.09087">
        <ele>94.9</ele>
        <time>2018-09-16T08:32:03Z</time>
      </trkpt>
      <trkpt lat="49.26483" lon="1.09096">
        <ele>95</ele>
        <time>2018-09-16T08:32:05Z</time>
      </trkpt>
      <trkpt lat="49.26472" lon="1.09106">
        <ele>95.2</ele>
        <time>2018-09-16T08:32:08Z</time>
      </trkpt>
      <trkpt lat="49.26464" lon="1.09117">
        <ele>95.3</ele>
        <time>2018-09-16T08:32:10Z</time>
      </trkpt>
      <trkpt lat="49.26457" lon="1.09129">
        <ele>96</ele>
        <time>2018-09-16T08:32:13Z</time>
      </trkpt>
      <trkpt lat="49.26449" lon="1.0914">
        <ele>96.8</ele>
        <time>2018-09-16T08:32:16Z</time>
      </trkpt>
      <trkpt lat="49.26441" lon="1.09152">
        <ele>97.4</ele>
        <time>2018-09-16T08:32:19Z</time>
      </trkpt>
      <trkpt lat="49.26434" lon="1.09165">
        <ele>98.2</ele>
        <time>2018-09-16T08:32:22Z</time>
      </trkpt>
      <trkpt lat="49.26427" lon="1.09177">
        <ele>99.1</ele>
        <time>2018-09-16T08:32:25Z</time>
      </trkpt>
      <trkpt lat="49.2642" lon="1.09192">
        <ele>100.1</ele>
        <time>2018-09-16T08:32:29Z</time>
      </trkpt>
      <trkpt lat="49.26414" lon="1.09206">
        <ele>100.8</ele>
        <time>2018-09-16T08:32:32Z</time>
      </trkpt>
      <trkpt lat="49.2641" lon="1.0922">
        <ele>101.1</ele>
        <time>2018-09-16T08:32:35Z</time>
      </trkpt>
      <trkpt lat="49.26405" lon="1.09235">
        <ele>101.3</ele>
        <time>2018-09-16T08:32:38Z</time>
      </trkpt>
      <trkpt lat="49.26401" lon="1.09253">
        <ele>101.3</ele>
        <time>2018-09-16T08:32:41Z</time>
      </trkpt>
      <trkpt lat="49.26399" lon="1.09272">
        <ele>101.6</ele>
        <time>2018-09-16T08:32:44Z</time>
      </trkpt>
      <trkpt lat="49.26397" lon="1.09287">
        <ele>101.7</ele>
        <time>2018-09-16T08:32:47Z</time>
      </trkpt>
      <trkpt lat="49.26398" lon="1.09301">
        <ele>101.8</ele>
        <time>2018-09-16T08:32:50Z</time>
      </trkpt>
      <trkpt lat="49.26402" lon="1.09317">
        <ele>102.3</ele>
        <time>2018-09-16T08:32:54Z</time>
      </trkpt>
      <trkpt lat="49.26398" lon="1.09332">
        <ele>103.3</ele>
        <time>2018-09-16T08:32:59Z</time>
      </trkpt>
      <trkpt lat="49.26396" lon="1.09347">
        <ele>103.6</ele>
        <time>2018-09-16T08:33:02Z</time>
      </trkpt>
      <trkpt lat="49.26395" lon="1.09362">
        <ele>103.9</ele>
        <time>2018-09-16T08:33:05Z</time>
      </trkpt>
      <trkpt lat="49.26397" lon="1.09376">
        <ele>104.2</ele>
        <time>2018-09-16T08:33:08Z</time>
      </trkpt>
      <trkpt lat="49.26399" lon="1.09392">
        <ele>104.5</ele>
        <time>2018-09-16T08:33:13Z</time>
      </trkpt>
      <trkpt lat="49.26398" lon="1.09409">
        <ele>105</ele>
        <time>2018-09-16T08:33:17Z</time>
      </trkpt>
      <trkpt lat="49.264" lon="1.09427">
        <ele>105.3</ele>
        <time>2018-09-16T08:33:20Z</time>
      </trkpt>
      <trkpt lat="49.26402" lon="1.0944">
        <ele>105.8</ele>
        <time>2018-09-16T08:33:23Z</time>
      </trkpt>
      <trkpt lat="49.26404" lon="1.09459">
        <ele>106.4</ele>
        <time>2018-09-16T08:33:27Z</time>
      </trkpt>
      <trkpt lat="49.26405" lon="1.09476">
        <ele>106.8</ele>
        <time>2018-09-16T08:33:30Z</time>
      </trkpt>
      <trkpt lat="49.26406" lon="1.09491">
        <ele>107.3</ele>
        <time>2018-09-16T08:33:33Z</time>
      </trkpt>
      <trkpt lat="49.26408" lon="1.09509">
        <ele>107.9</ele>
        <time>2018-09-16T08:33:37Z</time>
      </trkpt>
      <trkpt lat="49.26408" lon="1.09525">
        <ele>108.4</ele>
        <time>2018-09-16T08:33:40Z</time>
      </trkpt>
      <trkpt lat="49.26411" lon="1.0954">
        <ele>109.2</ele>
        <time>2018-09-16T08:33:44Z</time>
      </trkpt>
      <trkpt lat="49.2641" lon="1.09557">
        <ele>109.8</ele>
        <time>2018-09-16T08:33:48Z</time>
      </trkpt>
      <trkpt lat="49.26411" lon="1.09574">
        <ele>110.5</ele>
        <time>2018-09-16T08:33:52Z</time>
      </trkpt>
      <trkpt lat="49.26411" lon="1.09589">
        <ele>111.1</ele>
        <time>2018-09-16T08:33:55Z</time>
      </trkpt>
      <trkpt lat="49.26414" lon="1.09603">
        <ele>111.8</ele>
        <time>2018-09-16T08:33:58Z</time>
      </trkpt>
      <trkpt lat="49.26415" lon="1.09618">
        <ele>112.9</ele>
        <time>2018-09-16T08:34:02Z</time>
      </trkpt>
      <trkpt lat="49.26417" lon="1.09635">
        <ele>113.6</ele>
        <time>2018-09-16T08:34:06Z</time>
      </trkpt>
      <trkpt lat="49.26417" lon="1.09651">
        <ele>114.2</ele>
        <time>2018-09-16T08:34:09Z</time>
      </trkpt>
      <trkpt lat="49.26417" lon="1.09668">
        <ele>115.2</ele>
        <time>2018-09-16T08:34:13Z</time>
      </trkpt>
      <trkpt lat="49.26418" lon="1.09683">
        <ele>115.7</ele>
        <time>2018-09-16T08:34:16Z</time>
      </trkpt>
      <trkpt lat="49.2642" lon="1.097">
        <ele>116.4</ele>
        <time>2018-09-16T08:34:20Z</time>
      </trkpt>
      <trkpt lat="49.26421" lon="1.09715">
        <ele>117</ele>
        <time>2018-09-16T08:34:23Z</time>
      </trkpt>
      <trkpt lat="49.26423" lon="1.09732">
        <ele>117.6</ele>
        <time>2018-09-16T08:34:27Z</time>
      </trkpt>
      <trkpt lat="49.26426" lon="1.09747">
        <ele>118</ele>
        <time>2018-09-16T08:34:30Z</time>
      </trkpt>
      <trkpt lat="49.26429" lon="1.09761">
        <ele>118.7</ele>
        <time>2018-09-16T08:34:33Z</time>
      </trkpt>
      <trkpt lat="49.26433" lon="1.09775">
        <ele>119.2</ele>
        <time>2018-09-16T08:34:36Z</time>
      </trkpt>
      <trkpt lat="49.26437" lon="1.09788">
        <ele>119.7</ele>
        <time>2018-09-16T08:34:39Z</time>
      </trkpt>
      <trkpt lat="49.26439" lon="1.09802">
        <ele>120.2</ele>
        <time>2018-09-16T08:34:42Z</time>
      </trkpt>
      <trkpt lat="49.26442" lon="1.0982">
        <ele>120.7</ele>
        <time>2018-09-16T08:34:46Z</time>
      </trkpt>
      <trkpt lat="49.26444" lon="1.09835">
        <ele>121.1</ele>
        <time>2018-09-16T08:34:49Z</time>
      </trkpt>
      <trkpt lat="49.26447" lon="1.09851">
        <ele>121.6</ele>
        <time>2018-09-16T08:34:52Z</time>
      </trkpt>
      <trkpt lat="49.26449" lon="1.09865">
        <ele>121.9</ele>
        <time>2018-09-16T08:34:55Z</time>
      </trkpt>
      <trkpt lat="49.26453" lon="1.0988">
        <ele>122.5</ele>
        <time>2018-09-16T08:34:58Z</time>
      </trkpt>
      <trkpt lat="49.26454" lon="1.09893">
        <ele>123.1</ele>
        <time>2018-09-16T08:35:01Z</time>
      </trkpt>
      <trkpt lat="49.26458" lon="1.0991">
        <ele>123.4</ele>
        <time>2018-09-16T08:35:04Z</time>
      </trkpt>
      <trkpt lat="49.26464" lon="1.09924">
        <ele>123.6</ele>
        <time>2018-09-16T08:35:07Z</time>
      </trkpt>
      <trkpt lat="49.26469" lon="1.09936">
        <ele>123.8</ele>
        <time>2018-09-16T08:35:09Z</time>
      </trkpt>
      <trkpt lat="49.26476" lon="1.09945">
        <ele>124.1</ele>
        <time>2018-09-16T08:35:11Z</time>
      </trkpt>
      <trkpt lat="49.26482" lon="1.09956">
        <ele>124.3</ele>
        <time>2018-09-16T08:35:13Z</time>
      </trkpt>
      <trkpt lat="49.26488" lon="1.09972">
        <ele>124.4</ele>
        <time>2018-09-16T08:35:16Z</time>
      </trkpt>
      <trkpt lat="49.26495" lon="1.09984">
        <ele>124.6</ele>
        <time>2018-09-16T08:35:18Z</time>
      </trkpt>
      <trkpt lat="49.26504" lon="1.09996">
        <ele>124.8</ele>
        <time>2018-09-16T08:35:21Z</time>
      </trkpt>
      <trkpt lat="49.26513" lon="1.10002">
        <ele>125.1</ele>
        <time>2018-09-16T08:35:23Z</time>
      </trkpt>
      <trkpt lat="49.26524" lon="1.10008">
        <ele>125.3</ele>
        <time>2018-09-16T08:35:25Z</time>
      </trkpt>
      <trkpt lat="49.26535" lon="1.10011">
        <ele>125.7</ele>
        <time>2018-09-16T08:35:27Z</time>
      </trkpt>
      <trkpt lat="49.26544" lon="1.10014">
        <ele>125.9</ele>
        <time>2018-09-16T08:35:29Z</time>
      </trkpt>
      <trkpt lat="49.26555" lon="1.10018">
        <ele>126.3</ele>
        <time>2018-09-16T08:35:31Z</time>
      </trkpt>
      <trkpt lat="49.26564" lon="1.10023">
        <ele>126.7</ele>
        <time>2018-09-16T08:35:33Z</time>
      </trkpt>
      <trkpt lat="49.26578" lon="1.10032">
        <ele>127</ele>
        <time>2018-09-16T08:35:36Z</time>
      </trkpt>
      <trkpt lat="49.26587" lon="1.10043">
        <ele>127.2</ele>
        <time>2018-09-16T08:35:38Z</time>
      </trkpt>
      <trkpt lat="49.26592" lon="1.10056">
        <ele>127.3</ele>
        <time>2018-09-16T08:35:40Z</time>
      </trkpt>
      <trkpt lat="49.26593" lon="1.10072">
        <ele>127.4</ele>
        <time>2018-09-16T08:35:42Z</time>
      </trkpt>
      <trkpt lat="49.26595" lon="1.10088">
        <ele>127.7</ele>
        <time>2018-09-16T08:35:44Z</time>
      </trkpt>
      <trkpt lat="49.26596" lon="1.10105">
        <ele>127.9</ele>
        <time>2018-09-16T08:35:46Z</time>
      </trkpt>
      <trkpt lat="49.26598" lon="1.10123">
        <ele>128</ele>
        <time>2018-09-16T08:35:48Z</time>
      </trkpt>
      <trkpt lat="49.26599" lon="1.10139">
        <ele>128.2</ele>
        <time>2018-09-16T08:35:50Z</time>
      </trkpt>
      <trkpt lat="49.26599" lon="1.10155">
        <ele>128.4</ele>
        <time>2018-09-16T08:35:52Z</time>
      </trkpt>
      <trkpt lat="49.26598" lon="1.10175">
        <ele>128.7</ele>
        <time>2018-09-16T08:35:55Z</time>
      </trkpt>
      <trkpt lat="49.26596" lon="1.10192">
        <ele>128.6</ele>
        <time>2018-09-16T08:35:57Z</time>
      </trkpt>
      <trkpt lat="49.26594" lon="1.10208">
        <ele>129</ele>
        <time>2018-09-16T08:35:59Z</time>
      </trkpt>
      <trkpt lat="49.2659" lon="1.10224">
        <ele>129.4</ele>
        <time>2018-09-16T08:36:01Z</time>
      </trkpt>
      <trkpt lat="49.26585" lon="1.10237">
        <ele>129.6</ele>
        <time>2018-09-16T08:36:03Z</time>
      </trkpt>
      <trkpt lat="49.26578" lon="1.10249">
        <ele>129.8</ele>
        <time>2018-09-16T08:36:05Z</time>
      </trkpt>
      <trkpt lat="49.26571" lon="1.10262">
        <ele>130.1</ele>
        <time>2018-09-16T08:36:07Z</time>
      </trkpt>
      <trkpt lat="49.26564" lon="1.10276">
        <ele>130.3</ele>
        <time>2018-09-16T08:36:09Z</time>
      </trkpt>
      <trkpt lat="49.26558" lon="1.1029">
        <ele>130.5</ele>
        <time>2018-09-16T08:36:11Z</time>
      </trkpt>
      <trkpt lat="49.26552" lon="1.10307">
        <ele>130.6</ele>
        <time>2018-09-16T08:36:13Z</time>
      </trkpt>
      <trkpt lat="49.26548" lon="1.10324">
        <ele>130.7</ele>
        <time>2018-09-16T08:36:15Z</time>
      </trkpt>
      <trkpt lat="49.26544" lon="1.1034">
        <ele>130.8</ele>
        <time>2018-09-16T08:36:17Z</time>
      </trkpt>
      <trkpt lat="49.2654" lon="1.10356">
        <ele>131.1</ele>
        <time>2018-09-16T08:36:19Z</time>
      </trkpt>
      <trkpt lat="49.26536" lon="1.10371">
        <ele>131.3</ele>
        <time>2018-09-16T08:36:21Z</time>
      </trkpt>
      <trkpt lat="49.26531" lon="1.10387">
        <ele>131.5</ele>
        <time>2018-09-16T08:36:23Z</time>
      </trkpt>
      <trkpt lat="49.26526" lon="1.10402">
        <ele>131.7</ele>
        <time>2018-09-16T08:36:25Z</time>
      </trkpt>
      <trkpt lat="49.2652" lon="1.10416">
        <ele>131.9</ele>
        <time>2018-09-16T08:36:27Z</time>
      </trkpt>
      <trkpt lat="49.26512" lon="1.10429">
        <ele>132.2</ele>
        <time>2018-09-16T08:36:29Z</time>
      </trkpt>
      <trkpt lat="49.26504" lon="1.10441">
        <ele>132.1</ele>
        <time>2018-09-16T08:36:31Z</time>
      </trkpt>
      <trkpt lat="49.26496" lon="1.10453">
        <ele>132.2</ele>
        <time>2018-09-16T08:36:33Z</time>
      </trkpt>
      <trkpt lat="49.26488" lon="1.10465">
        <ele>132.2</ele>
        <time>2018-09-16T08:36:35Z</time>
      </trkpt>
      <trkpt lat="49.2648" lon="1.10478">
        <ele>132.3</ele>
        <time>2018-09-16T08:36:37Z</time>
      </trkpt>
      <trkpt lat="49.26471" lon="1.1049">
        <ele>132.3</ele>
        <time>2018-09-16T08:36:39Z</time>
      </trkpt>
      <trkpt lat="49.26463" lon="1.10502">
        <ele>132.3</ele>
        <time>2018-09-16T08:36:41Z</time>
      </trkpt>
      <trkpt lat="49.26454" lon="1.10514">
        <ele>132.3</ele>
        <time>2018-09-16T08:36:43Z</time>
      </trkpt>
      <trkpt lat="49.26445" lon="1.10527">
        <ele>132.1</ele>
        <time>2018-09-16T08:36:45Z</time>
      </trkpt>
      <trkpt lat="49.26437" lon="1.1054">
        <ele>132.1</ele>
        <time>2018-09-16T08:36:47Z</time>
      </trkpt>
      <trkpt lat="49.26427" lon="1.10553">
        <ele>132</ele>
        <time>2018-09-16T08:36:49Z</time>
      </trkpt>
      <trkpt lat="49.26418" lon="1.10567">
        <ele>132.1</ele>
        <time>2018-09-16T08:36:51Z</time>
      </trkpt>
      <trkpt lat="49.26409" lon="1.10581">
        <ele>132.3</ele>
        <time>2018-09-16T08:36:53Z</time>
      </trkpt>
      <trkpt lat="49.26399" lon="1.10594">
        <ele>132.3</ele>
        <time>2018-09-16T08:36:55Z</time>
      </trkpt>
      <trkpt lat="49.26389" lon="1.10608">
        <ele>132.2</ele>
        <time>2018-09-16T08:36:57Z</time>
      </trkpt>
      <trkpt lat="49.2638" lon="1.10622">
        <ele>132.3</ele>
        <time>2018-09-16T08:36:59Z</time>
      </trkpt>
      <trkpt lat="49.2637" lon="1.10636">
        <ele>132.4</ele>
        <time>2018-09-16T08:37:01Z</time>
      </trkpt>
      <trkpt lat="49.2636" lon="1.1065">
        <ele>132.4</ele>
        <time>2018-09-16T08:37:03Z</time>
      </trkpt>
      <trkpt lat="49.26351" lon="1.10664">
        <ele>132.4</ele>
        <time>2018-09-16T08:37:05Z</time>
      </trkpt>
      <trkpt lat="49.26341" lon="1.10679">
        <ele>132.5</ele>
        <time>2018-09-16T08:37:07Z</time>
      </trkpt>
      <trkpt lat="49.26331" lon="1.10693">
        <ele>132.4</ele>
        <time>2018-09-16T08:37:09Z</time>
      </trkpt>
      <trkpt lat="49.26321" lon="1.10707">
        <ele>132.5</ele>
        <time>2018-09-16T08:37:11Z</time>
      </trkpt>
      <trkpt lat="49.26311" lon="1.10721">
        <ele>132.7</ele>
        <time>2018-09-16T08:37:13Z</time>
      </trkpt>
      <trkpt lat="49.26302" lon="1.10736">
        <ele>132.8</ele>
        <time>2018-09-16T08:37:15Z</time>
      </trkpt>
      <trkpt lat="49.26292" lon="1.1075">
        <ele>132.7</ele>
        <time>2018-09-16T08:37:17Z</time>
      </trkpt>
      <trkpt lat="49.26282" lon="1.10764">
        <ele>132.8</ele>
        <time>2018-09-16T08:37:19Z</time>
      </trkpt>
      <trkpt lat="49.26272" lon="1.10778">
        <ele>132.8</ele>
        <time>2018-09-16T08:37:21Z</time>
      </trkpt>
      <trkpt lat="49.26262" lon="1.10793">
        <ele>132.7</ele>
        <time>2018-09-16T08:37:23Z</time>
      </trkpt>
      <trkpt lat="49.26252" lon="1.10807">
        <ele>132.7</ele>
        <time>2018-09-16T08:37:25Z</time>
      </trkpt>
      <trkpt lat="49.26242" lon="1.10822">
        <ele>132.6</ele>
        <time>2018-09-16T08:37:27Z</time>
      </trkpt>
      <trkpt lat="49.26232" lon="1.10838">
        <ele>132.5</ele>
        <time>2018-09-16T08:37:29Z</time>
      </trkpt>
      <trkpt lat="49.26222" lon="1.10854">
        <ele>132.3</ele>
        <time>2018-09-16T08:37:31Z</time>
      </trkpt>
      <trkpt lat="49.26212" lon="1.1087">
        <ele>132</ele>
        <time>2018-09-16T08:37:33Z</time>
      </trkpt>
      <trkpt lat="49.26202" lon="1.10887">
        <ele>131.7</ele>
        <time>2018-09-16T08:37:35Z</time>
      </trkpt>
      <trkpt lat="49.26192" lon="1.10904">
        <ele>131.5</ele>
        <time>2018-09-16T08:37:37Z</time>
      </trkpt>
      <trkpt lat="49.26187" lon="1.10924">
        <ele>131.2</ele>
        <time>2018-09-16T08:37:39Z</time>
      </trkpt>
      <trkpt lat="49.26181" lon="1.10946">
        <ele>130.8</ele>
        <time>2018-09-16T08:37:41Z</time>
      </trkpt>
      <trkpt lat="49.26173" lon="1.10965">
        <ele>130.6</ele>
        <time>2018-09-16T08:37:43Z</time>
      </trkpt>
      <trkpt lat="49.26163" lon="1.10985">
        <ele>130.5</ele>
        <time>2018-09-16T08:37:45Z</time>
      </trkpt>
      <trkpt lat="49.26154" lon="1.11005">
        <ele>130.2</ele>
        <time>2018-09-16T08:37:47Z</time>
      </trkpt>
      <trkpt lat="49.26146" lon="1.11027">
        <ele>129.9</ele>
        <time>2018-09-16T08:37:49Z</time>
      </trkpt>
      <trkpt lat="49.26137" lon="1.11048">
        <ele>129.4</ele>
        <time>2018-09-16T08:37:51Z</time>
      </trkpt>
      <trkpt lat="49.26129" lon="1.1107">
        <ele>129</ele>
        <time>2018-09-16T08:37:53Z</time>
      </trkpt>
      <trkpt lat="49.2612" lon="1.11091">
        <ele>128.6</ele>
        <time>2018-09-16T08:37:55Z</time>
      </trkpt>
      <trkpt lat="49.26113" lon="1.11113">
        <ele>128.3</ele>
        <time>2018-09-16T08:37:57Z</time>
      </trkpt>
      <trkpt lat="49.26105" lon="1.11134">
        <ele>127.9</ele>
        <time>2018-09-16T08:37:59Z</time>
      </trkpt>
      <trkpt lat="49.26098" lon="1.11156">
        <ele>127.4</ele>
        <time>2018-09-16T08:38:01Z</time>
      </trkpt>
      <trkpt lat="49.26091" lon="1.11177">
        <ele>127.1</ele>
        <time>2018-09-16T08:38:03Z</time>
      </trkpt>
      <trkpt lat="49.26083" lon="1.11199">
        <ele>126.7</ele>
        <time>2018-09-16T08:38:05Z</time>
      </trkpt>
      <trkpt lat="49.26076" lon="1.1122">
        <ele>126.4</ele>
        <time>2018-09-16T08:38:07Z</time>
      </trkpt>
      <trkpt lat="49.26069" lon="1.11242">
        <ele>126.2</ele>
        <time>2018-09-16T08:38:09Z</time>
      </trkpt>
      <trkpt lat="49.26061" lon="1.11264">
        <ele>125.8</ele>
        <time>2018-09-16T08:38:11Z</time>
      </trkpt>
      <trkpt lat="49.26053" lon="1.11285">
        <ele>125.4</ele>
        <time>2018-09-16T08:38:13Z</time>
      </trkpt>
      <trkpt lat="49.26045" lon="1.11306">
        <ele>125.1</ele>
        <time>2018-09-16T08:38:15Z</time>
      </trkpt>
      <trkpt lat="49.26038" lon="1.11327">
        <ele>124.9</ele>
        <time>2018-09-16T08:38:17Z</time>
      </trkpt>
      <trkpt lat="49.2603" lon="1.11345">
        <ele>124.6</ele>
        <time>2018-09-16T08:38:19Z</time>
      </trkpt>
      <trkpt lat="49.26017" lon="1.11353">
        <ele>124.4</ele>
        <time>2018-09-16T08:38:21Z</time>
      </trkpt>
      <trkpt lat="49.26005" lon="1.11352">
        <ele>124.3</ele>
        <time>2018-09-16T08:38:23Z</time>
      </trkpt>
      <trkpt lat="49.25994" lon="1.11361">
        <ele>124.2</ele>
        <time>2018-09-16T08:38:25Z</time>
      </trkpt>
      <trkpt lat="49.25988" lon="1.11378">
        <ele>124.1</ele>
        <time>2018-09-16T08:38:27Z</time>
      </trkpt>
      <trkpt lat="49.25981" lon="1.11396">
        <ele>124</ele>
        <time>2018-09-16T08:38:29Z</time>
      </trkpt>
      <trkpt lat="49.25973" lon="1.11415">
        <ele>123.8</ele>
        <time>2018-09-16T08:38:31Z</time>
      </trkpt>
      <trkpt lat="49.25966" lon="1.11435">
        <ele>123.6</ele>
        <time>2018-09-16T08:38:33Z</time>
      </trkpt>
      <trkpt lat="49.25959" lon="1.11455">
        <ele>123.3</ele>
        <time>2018-09-16T08:38:35Z</time>
      </trkpt>
      <trkpt lat="49.25953" lon="1.11477">
        <ele>123.1</ele>
        <time>2018-09-16T08:38:37Z</time>
      </trkpt>
      <trkpt lat="49.25948" lon="1.11499">
        <ele>122.8</ele>
        <time>2018-09-16T08:38:39Z</time>
      </trkpt>
      <trkpt lat="49.25943" lon="1.11521">
        <ele>122.7</ele>
        <time>2018-09-16T08:38:41Z</time>
      </trkpt>
      <trkpt lat="49.25938" lon="1.11543">
        <ele>122.4</ele>
        <time>2018-09-16T08:38:43Z</time>
      </trkpt>
      <trkpt lat="49.25934" lon="1.11565">
        <ele>121.8</ele>
        <time>2018-09-16T08:38:45Z</time>
      </trkpt>
      <trkpt lat="49.25929" lon="1.11587">
        <ele>121.5</ele>
        <time>2018-09-16T08:38:47Z</time>
      </trkpt>
      <trkpt lat="49.25925" lon="1.11608">
        <ele>121.1</ele>
        <time>2018-09-16T08:38:49Z</time>
      </trkpt>
      <trkpt lat="49.25921" lon="1.11629">
        <ele>121.1</ele>
        <time>2018-09-16T08:38:51Z</time>
      </trkpt>
      <trkpt lat="49.25918" lon="1.1165">
        <ele>120.5</ele>
        <time>2018-09-16T08:38:53Z</time>
      </trkpt>
      <trkpt lat="49.25914" lon="1.11669">
        <ele>120.1</ele>
        <time>2018-09-16T08:38:55Z</time>
      </trkpt>
      <trkpt lat="49.25911" lon="1.11689">
        <ele>119.7</ele>
        <time>2018-09-16T08:38:57Z</time>
      </trkpt>
      <trkpt lat="49.25907" lon="1.11708">
        <ele>119.4</ele>
        <time>2018-09-16T08:38:59Z</time>
      </trkpt>
      <trkpt lat="49.25904" lon="1.11727">
        <ele>119.2</ele>
        <time>2018-09-16T08:39:01Z</time>
      </trkpt>
      <trkpt lat="49.259" lon="1.11746">
        <ele>119</ele>
        <time>2018-09-16T08:39:03Z</time>
      </trkpt>
      <trkpt lat="49.25897" lon="1.11764">
        <ele>118.6</ele>
        <time>2018-09-16T08:39:05Z</time>
      </trkpt>
      <trkpt lat="49.25893" lon="1.11782">
        <ele>118.3</ele>
        <time>2018-09-16T08:39:07Z</time>
      </trkpt>
      <trkpt lat="49.25889" lon="1.118">
        <ele>118.1</ele>
        <time>2018-09-16T08:39:09Z</time>
      </trkpt>
      <trkpt lat="49.25886" lon="1.11817">
        <ele>117.6</ele>
        <time>2018-09-16T08:39:11Z</time>
      </trkpt>
      <trkpt lat="49.25883" lon="1.11834">
        <ele>117.2</ele>
        <time>2018-09-16T08:39:13Z</time>
      </trkpt>
      <trkpt lat="49.2588" lon="1.1185">
        <ele>117.1</ele>
        <time>2018-09-16T08:39:15Z</time>
      </trkpt>
      <trkpt lat="49.25876" lon="1.11866">
        <ele>116.9</ele>
        <time>2018-09-16T08:39:17Z</time>
      </trkpt>
      <trkpt lat="49.25873" lon="1.11883">
        <ele>116.8</ele>
        <time>2018-09-16T08:39:19Z</time>
      </trkpt>
      <trkpt lat="49.25869" lon="1.11901">
        <ele>116.7</ele>
        <time>2018-09-16T08:39:21Z</time>
      </trkpt>
      <trkpt lat="49.25864" lon="1.11919">
        <ele>116.1</ele>
        <time>2018-09-16T08:39:23Z</time>
      </trkpt>
      <trkpt lat="49.25859" lon="1.11937">
        <ele>115.9</ele>
        <time>2018-09-16T08:39:25Z</time>
      </trkpt>
      <trkpt lat="49.25852" lon="1.11957">
        <ele>115.4</ele>
        <time>2018-09-16T08:39:27Z</time>
      </trkpt>
      <trkpt lat="49.25846" lon="1.11979">
        <ele>114.7</ele>
        <time>2018-09-16T08:39:29Z</time>
      </trkpt>
      <trkpt lat="49.25841" lon="1.11998">
        <ele>113.9</ele>
        <time>2018-09-16T08:39:31Z</time>
      </trkpt>
      <trkpt lat="49.25839" lon="1.12017">
        <ele>113.2</ele>
        <time>2018-09-16T08:39:33Z</time>
      </trkpt>
      <trkpt lat="49.25838" lon="1.12035">
        <ele>112.8</ele>
        <time>2018-09-16T08:39:35Z</time>
      </trkpt>
      <trkpt lat="49.25842" lon="1.12052">
        <ele>112.7</ele>
        <time>2018-09-16T08:39:37Z</time>
      </trkpt>
      <trkpt lat="49.25847" lon="1.12065">
        <ele>112.6</ele>
        <time>2018-09-16T08:39:39Z</time>
      </trkpt>
      <trkpt lat="49.2585" lon="1.12084">
        <ele>113</ele>
        <time>2018-09-16T08:39:42Z</time>
      </trkpt>
      <trkpt lat="49.25842" lon="1.12095">
        <ele>114.1</ele>
        <time>2018-09-16T08:39:46Z</time>
      </trkpt>
      <trkpt lat="49.25834" lon="1.12101">
        <ele>114.9</ele>
        <time>2018-09-16T08:39:49Z</time>
      </trkpt>
      <trkpt lat="49.25824" lon="1.12111">
        <ele>115.5</ele>
        <time>2018-09-16T08:39:52Z</time>
      </trkpt>
      <trkpt lat="49.25814" lon="1.12123">
        <ele>115.9</ele>
        <time>2018-09-16T08:39:55Z</time>
      </trkpt>
      <trkpt lat="49.25805" lon="1.12136">
        <ele>116.5</ele>
        <time>2018-09-16T08:39:58Z</time>
      </trkpt>
      <trkpt lat="49.25796" lon="1.12149">
        <ele>116.9</ele>
        <time>2018-09-16T08:40:01Z</time>
      </trkpt>
      <trkpt lat="49.25785" lon="1.12158">
        <ele>117.1</ele>
        <time>2018-09-16T08:40:04Z</time>
      </trkpt>
      <trkpt lat="49.25772" lon="1.12164">
        <ele>117.2</ele>
        <time>2018-09-16T08:40:07Z</time>
      </trkpt>
      <trkpt lat="49.25759" lon="1.12165">
        <ele>117.4</ele>
        <time>2018-09-16T08:40:10Z</time>
      </trkpt>
      <trkpt lat="49.25745" lon="1.12168">
        <ele>117.6</ele>
        <time>2018-09-16T08:40:13Z</time>
      </trkpt>
      <trkpt lat="49.25736" lon="1.12173">
        <ele>117.7</ele>
        <time>2018-09-16T08:40:15Z</time>
      </trkpt>
      <trkpt lat="49.25729" lon="1.12184">
        <ele>117.7</ele>
        <time>2018-09-16T08:40:17Z</time>
      </trkpt>
      <trkpt lat="49.25725" lon="1.12197">
        <ele>118</ele>
        <time>2018-09-16T08:40:19Z</time>
      </trkpt>
      <trkpt lat="49.25722" lon="1.12212">
        <ele>118.2</ele>
        <time>2018-09-16T08:40:21Z</time>
      </trkpt>
      <trkpt lat="49.25719" lon="1.12227">
        <ele>118.4</ele>
        <time>2018-09-16T08:40:23Z</time>
      </trkpt>
      <trkpt lat="49.25716" lon="1.12242">
        <ele>118.5</ele>
        <time>2018-09-16T08:40:25Z</time>
      </trkpt>
      <trkpt lat="49.25713" lon="1.12258">
        <ele>118.8</ele>
        <time>2018-09-16T08:40:27Z</time>
      </trkpt>
      <trkpt lat="49.2571" lon="1.12273">
        <ele>118.9</ele>
        <time>2018-09-16T08:40:29Z</time>
      </trkpt>
      <trkpt lat="49.25707" lon="1.12289">
        <ele>119.2</ele>
        <time>2018-09-16T08:40:31Z</time>
      </trkpt>
      <trkpt lat="49.25704" lon="1.12304">
        <ele>119.6</ele>
        <time>2018-09-16T08:40:33Z</time>
      </trkpt>
      <trkpt lat="49.25701" lon="1.1232">
        <ele>120</ele>
        <time>2018-09-16T08:40:35Z</time>
      </trkpt>
      <trkpt lat="49.25698" lon="1.12335">
        <ele>120.3</ele>
        <time>2018-09-16T08:40:37Z</time>
      </trkpt>
      <trkpt lat="49.25695" lon="1.12351">
        <ele>120.5</ele>
        <time>2018-09-16T08:40:39Z</time>
      </trkpt>
      <trkpt lat="49.25692" lon="1.12367">
        <ele>120.8</ele>
        <time>2018-09-16T08:40:41Z</time>
      </trkpt>
      <trkpt lat="49.25689" lon="1.12383">
        <ele>121</ele>
        <time>2018-09-16T08:40:43Z</time>
      </trkpt>
      <trkpt lat="49.25686" lon="1.12398">
        <ele>121.3</ele>
        <time>2018-09-16T08:40:45Z</time>
      </trkpt>
      <trkpt lat="49.25683" lon="1.12413">
        <ele>121.7</ele>
        <time>2018-09-16T08:40:47Z</time>
      </trkpt>
      <trkpt lat="49.2568" lon="1.12427">
        <ele>121.8</ele>
        <time>2018-09-16T08:40:49Z</time>
      </trkpt>
      <trkpt lat="49.25677" lon="1.12441">
        <ele>121.9</ele>
        <time>2018-09-16T08:40:51Z</time>
      </trkpt>
      <trkpt lat="49.25675" lon="1.12456">
        <ele>122</ele>
        <time>2018-09-16T08:40:53Z</time>
      </trkpt>
      <trkpt lat="49.25672" lon="1.1247">
        <ele>122.1</ele>
        <time>2018-09-16T08:40:55Z</time>
      </trkpt>
      <trkpt lat="49.25669" lon="1.12483">
        <ele>122.2</ele>
        <time>2018-09-16T08:40:57Z</time>
      </trkpt>
      <trkpt lat="49.25666" lon="1.12497">
        <ele>122.2</ele>
        <time>2018-09-16T08:40:59Z</time>
      </trkpt>
      <trkpt lat="49.25663" lon="1.12512">
        <ele>122.3</ele>
        <time>2018-09-16T08:41:01Z</time>
      </trkpt>
      <trkpt lat="49.2566" lon="1.12527">
        <ele>122.4</ele>
        <time>2018-09-16T08:41:03Z</time>
      </trkpt>
      <trkpt lat="49.25657" lon="1.12542">
        <ele>122.5</ele>
        <time>2018-09-16T08:41:05Z</time>
      </trkpt>
      <trkpt lat="49.25654" lon="1.12557">
        <ele>122.5</ele>
        <time>2018-09-16T08:41:07Z</time>
      </trkpt>
      <trkpt lat="49.2565" lon="1.12572">
        <ele>122.5</ele>
        <time>2018-09-16T08:41:09Z</time>
      </trkpt>
      <trkpt lat="49.25648" lon="1.12587">
        <ele>122.6</ele>
        <time>2018-09-16T08:41:11Z</time>
      </trkpt>
      <trkpt lat="49.25645" lon="1.126">
        <ele>122.4</ele>
        <time>2018-09-16T08:41:13Z</time>
      </trkpt>
      <trkpt lat="49.25643" lon="1.12614">
        <ele>122.4</ele>
        <time>2018-09-16T08:41:15Z</time>
      </trkpt>
      <trkpt lat="49.2564" lon="1.12628">
        <ele>122.4</ele>
        <time>2018-09-16T08:41:17Z</time>
      </trkpt>
      <trkpt lat="49.25637" lon="1.12642">
        <ele>122.4</ele>
        <time>2018-09-16T08:41:19Z</time>
      </trkpt>
      <trkpt lat="49.25634" lon="1.12657">
        <ele>122.5</ele>
        <time>2018-09-16T08:41:21Z</time>
      </trkpt>
      <trkpt lat="49.25631" lon="1.12671">
        <ele>122.5</ele>
        <time>2018-09-16T08:41:23Z</time>
      </trkpt>
      <trkpt lat="49.25628" lon="1.12686">
        <ele>122.4</ele>
        <time>2018-09-16T08:41:25Z</time>
      </trkpt>
      <trkpt lat="49.25625" lon="1.12701">
        <ele>122.3</ele>
        <time>2018-09-16T08:41:27Z</time>
      </trkpt>
      <trkpt lat="49.25623" lon="1.12716">
        <ele>122.1</ele>
        <time>2018-09-16T08:41:29Z</time>
      </trkpt>
      <trkpt lat="49.2562" lon="1.1273">
        <ele>121.9</ele>
        <time>2018-09-16T08:41:31Z</time>
      </trkpt>
      <trkpt lat="49.25617" lon="1.12744">
        <ele>121.9</ele>
        <time>2018-09-16T08:41:33Z</time>
      </trkpt>
      <trkpt lat="49.25614" lon="1.12759">
        <ele>121.8</ele>
        <time>2018-09-16T08:41:35Z</time>
      </trkpt>
      <trkpt lat="49.25611" lon="1.12774">
        <ele>121.9</ele>
        <time>2018-09-16T08:41:37Z</time>
      </trkpt>
      <trkpt lat="49.25608" lon="1.12789">
        <ele>122.1</ele>
        <time>2018-09-16T08:41:39Z</time>
      </trkpt>
      <trkpt lat="49.25605" lon="1.12805">
        <ele>122.1</ele>
        <time>2018-09-16T08:41:41Z</time>
      </trkpt>
      <trkpt lat="49.25602" lon="1.12821">
        <ele>122.1</ele>
        <time>2018-09-16T08:41:43Z</time>
      </trkpt>
      <trkpt lat="49.25599" lon="1.12838">
        <ele>122.1</ele>
        <time>2018-09-16T08:41:45Z</time>
      </trkpt>
      <trkpt lat="49.25595" lon="1.12854">
        <ele>121.9</ele>
        <time>2018-09-16T08:41:47Z</time>
      </trkpt>
      <trkpt lat="49.25592" lon="1.12872">
        <ele>121.6</ele>
        <time>2018-09-16T08:41:49Z</time>
      </trkpt>
      <trkpt lat="49.25588" lon="1.12889">
        <ele>121.8</ele>
        <time>2018-09-16T08:41:51Z</time>
      </trkpt>
      <trkpt lat="49.25585" lon="1.12906">
        <ele>121.7</ele>
        <time>2018-09-16T08:41:53Z</time>
      </trkpt>
      <trkpt lat="49.25582" lon="1.12922">
        <ele>121.5</ele>
        <time>2018-09-16T08:41:55Z</time>
      </trkpt>
      <trkpt lat="49.25579" lon="1.12938">
        <ele>121.5</ele>
        <time>2018-09-16T08:41:57Z</time>
      </trkpt>
      <trkpt lat="49.25576" lon="1.12954">
        <ele>121.4</ele>
        <time>2018-09-16T08:41:59Z</time>
      </trkpt>
      <trkpt lat="49.25573" lon="1.1297">
        <ele>121.4</ele>
        <time>2018-09-16T08:42:01Z</time>
      </trkpt>
      <trkpt lat="49.2557" lon="1.12986">
        <ele>121.5</ele>
        <time>2018-09-16T08:42:03Z</time>
      </trkpt>
      <trkpt lat="49.25568" lon="1.13003">
        <ele>121.7</ele>
        <time>2018-09-16T08:42:05Z</time>
      </trkpt>
      <trkpt lat="49.25564" lon="1.1302">
        <ele>122</ele>
        <time>2018-09-16T08:42:07Z</time>
      </trkpt>
      <trkpt lat="49.25561" lon="1.13037">
        <ele>122.2</ele>
        <time>2018-09-16T08:42:09Z</time>
      </trkpt>
      <trkpt lat="49.25558" lon="1.13053">
        <ele>122.3</ele>
        <time>2018-09-16T08:42:11Z</time>
      </trkpt>
      <trkpt lat="49.25555" lon="1.13069">
        <ele>122.4</ele>
        <time>2018-09-16T08:42:13Z</time>
      </trkpt>
      <trkpt lat="49.25552" lon="1.13086">
        <ele>122.5</ele>
        <time>2018-09-16T08:42:15Z</time>
      </trkpt>
      <trkpt lat="49.25548" lon="1.13102">
        <ele>122.4</ele>
        <time>2018-09-16T08:42:17Z</time>
      </trkpt>
      <trkpt lat="49.25545" lon="1.13118">
        <ele>122.4</ele>
        <time>2018-09-16T08:42:19Z</time>
      </trkpt>
      <trkpt lat="49.25542" lon="1.13132">
        <ele>122.5</ele>
        <time>2018-09-16T08:42:21Z</time>
      </trkpt>
      <trkpt lat="49.2554" lon="1.13147">
        <ele>122.6</ele>
        <time>2018-09-16T08:42:23Z</time>
      </trkpt>
      <trkpt lat="49.25536" lon="1.13162">
        <ele>122.8</ele>
        <time>2018-09-16T08:42:25Z</time>
      </trkpt>
      <trkpt lat="49.25535" lon="1.13178">
        <ele>122.8</ele>
        <time>2018-09-16T08:42:27Z</time>
      </trkpt>
      <trkpt lat="49.25532" lon="1.13194">
        <ele>122.8</ele>
        <time>2018-09-16T08:42:29Z</time>
      </trkpt>
      <trkpt lat="49.25529" lon="1.13209">
        <ele>122.9</ele>
        <time>2018-09-16T08:42:31Z</time>
      </trkpt>
      <trkpt lat="49.25525" lon="1.13228">
        <ele>123.2</ele>
        <time>2018-09-16T08:42:34Z</time>
      </trkpt>
      <trkpt lat="49.25522" lon="1.13248">
        <ele>123.3</ele>
        <time>2018-09-16T08:42:37Z</time>
      </trkpt>
      <trkpt lat="49.25519" lon="1.13262">
        <ele>123.4</ele>
        <time>2018-09-16T08:42:39Z</time>
      </trkpt>
      <trkpt lat="49.25521" lon="1.13279">
        <ele>123.6</ele>
        <time>2018-09-16T08:42:42Z</time>
      </trkpt>
      <trkpt lat="49.25532" lon="1.13288">
        <ele>123.6</ele>
        <time>2018-09-16T08:42:45Z</time>
      </trkpt>
      <trkpt lat="49.25541" lon="1.13293">
        <ele>123.8</ele>
        <time>2018-09-16T08:42:47Z</time>
      </trkpt>
      <trkpt lat="49.2555" lon="1.13298">
        <ele>123.9</ele>
        <time>2018-09-16T08:42:49Z</time>
      </trkpt>
      <trkpt lat="49.25563" lon="1.13305">
        <ele>124.2</ele>
        <time>2018-09-16T08:42:52Z</time>
      </trkpt>
      <trkpt lat="49.25572" lon="1.1331">
        <ele>124.3</ele>
        <time>2018-09-16T08:42:54Z</time>
      </trkpt>
      <trkpt lat="49.25581" lon="1.13314">
        <ele>124.3</ele>
        <time>2018-09-16T08:42:56Z</time>
      </trkpt>
      <trkpt lat="49.25592" lon="1.13319">
        <ele>124.4</ele>
        <time>2018-09-16T08:42:59Z</time>
      </trkpt>
      <trkpt lat="49.25602" lon="1.13323">
        <ele>124.6</ele>
        <time>2018-09-16T08:43:01Z</time>
      </trkpt>
      <trkpt lat="49.25614" lon="1.13329">
        <ele>124.7</ele>
        <time>2018-09-16T08:43:04Z</time>
      </trkpt>
      <trkpt lat="49.25627" lon="1.13336">
        <ele>125</ele>
        <time>2018-09-16T08:43:07Z</time>
      </trkpt>
      <trkpt lat="49.25637" lon="1.13341">
        <ele>125.1</ele>
        <time>2018-09-16T08:43:09Z</time>
      </trkpt>
      <trkpt lat="49.25648" lon="1.13346">
        <ele>125.2</ele>
        <time>2018-09-16T08:43:11Z</time>
      </trkpt>
      <trkpt lat="49.25657" lon="1.13349">
        <ele>125.2</ele>
        <time>2018-09-16T08:43:13Z</time>
      </trkpt>
      <trkpt lat="49.25667" lon="1.13355">
        <ele>125.2</ele>
        <time>2018-09-16T08:43:15Z</time>
      </trkpt>
      <trkpt lat="49.25678" lon="1.13359">
        <ele>125.3</ele>
        <time>2018-09-16T08:43:17Z</time>
      </trkpt>
      <trkpt lat="49.25688" lon="1.13362">
        <ele>125.5</ele>
        <time>2018-09-16T08:43:19Z</time>
      </trkpt>
      <trkpt lat="49.25696" lon="1.13368">
        <ele>125.5</ele>
        <time>2018-09-16T08:43:21Z</time>
      </trkpt>
      <trkpt lat="49.257" lon="1.13385">
        <ele>125.3</ele>
        <time>2018-09-16T08:43:24Z</time>
      </trkpt>
      <trkpt lat="49.25695" lon="1.13403">
        <ele>125.1</ele>
        <time>2018-09-16T08:43:27Z</time>
      </trkpt>
      <trkpt lat="49.25692" lon="1.13416">
        <ele>125.1</ele>
        <time>2018-09-16T08:43:29Z</time>
      </trkpt>
      <trkpt lat="49.2569" lon="1.1343">
        <ele>124.9</ele>
        <time>2018-09-16T08:43:31Z</time>
      </trkpt>
      <trkpt lat="49.25688" lon="1.13444">
        <ele>124.8</ele>
        <time>2018-09-16T08:43:33Z</time>
      </trkpt>
      <trkpt lat="49.25685" lon="1.13463">
        <ele>124.8</ele>
        <time>2018-09-16T08:43:36Z</time>
      </trkpt>
      <trkpt lat="49.25682" lon="1.13484">
        <ele>125.1</ele>
        <time>2018-09-16T08:43:39Z</time>
      </trkpt>
      <trkpt lat="49.25679" lon="1.135">
        <ele>125.1</ele>
        <time>2018-09-16T08:43:41Z</time>
      </trkpt>
      <trkpt lat="49.25677" lon="1.13516">
        <ele>124.7</ele>
        <time>2018-09-16T08:43:43Z</time>
      </trkpt>
      <trkpt lat="49.25673" lon="1.13533">
        <ele>124.4</ele>
        <time>2018-09-16T08:43:45Z</time>
      </trkpt>
      <trkpt lat="49.2567" lon="1.13548">
        <ele>124</ele>
        <time>2018-09-16T08:43:47Z</time>
      </trkpt>
      <trkpt lat="49.25667" lon="1.13563">
        <ele>124.1</ele>
        <time>2018-09-16T08:43:49Z</time>
      </trkpt>
      <trkpt lat="49.25665" lon="1.13576">
        <ele>124.1</ele>
        <time>2018-09-16T08:43:51Z</time>
      </trkpt>
      <trkpt lat="49.25663" lon="1.1359">
        <ele>124</ele>
        <time>2018-09-16T08:43:53Z</time>
      </trkpt>
      <trkpt lat="49.2566" lon="1.13607">
        <ele>123.8</ele>
        <time>2018-09-16T08:43:55Z</time>
      </trkpt>
      <trkpt lat="49.25656" lon="1.13623">
        <ele>123.7</ele>
        <time>2018-09-16T08:43:57Z</time>
      </trkpt>
      <trkpt lat="49.25653" lon="1.13638">
        <ele>123.5</ele>
        <time>2018-09-16T08:43:59Z</time>
      </trkpt>
      <trkpt lat="49.25651" lon="1.13655">
        <ele>123.3</ele>
        <time>2018-09-16T08:44:01Z</time>
      </trkpt>
      <trkpt lat="49.25647" lon="1.13671">
        <ele>123.1</ele>
        <time>2018-09-16T08:44:03Z</time>
      </trkpt>
      <trkpt lat="49.25644" lon="1.13685">
        <ele>122.7</ele>
        <time>2018-09-16T08:44:05Z</time>
      </trkpt>
      <trkpt lat="49.2564" lon="1.13702">
        <ele>122.5</ele>
        <time>2018-09-16T08:44:07Z</time>
      </trkpt>
      <trkpt lat="49.25637" lon="1.13718">
        <ele>122.1</ele>
        <time>2018-09-16T08:44:09Z</time>
      </trkpt>
      <trkpt lat="49.25635" lon="1.13733">
        <ele>121.9</ele>
        <time>2018-09-16T08:44:11Z</time>
      </trkpt>
      <trkpt lat="49.25631" lon="1.13748">
        <ele>121.4</ele>
        <time>2018-09-16T08:44:13Z</time>
      </trkpt>
      <trkpt lat="49.25629" lon="1.13765">
        <ele>121.3</ele>
        <time>2018-09-16T08:44:15Z</time>
      </trkpt>
      <trkpt lat="49.25628" lon="1.13783">
        <ele>120.9</ele>
        <time>2018-09-16T08:44:17Z</time>
      </trkpt>
      <trkpt lat="49.25625" lon="1.13797">
        <ele>120.5</ele>
        <time>2018-09-16T08:44:19Z</time>
      </trkpt>
      <trkpt lat="49.25622" lon="1.13812">
        <ele>120.4</ele>
        <time>2018-09-16T08:44:21Z</time>
      </trkpt>
      <trkpt lat="49.25619" lon="1.13828">
        <ele>120</ele>
        <time>2018-09-16T08:44:23Z</time>
      </trkpt>
      <trkpt lat="49.25616" lon="1.13842">
        <ele>119.6</ele>
        <time>2018-09-16T08:44:25Z</time>
      </trkpt>
      <trkpt lat="49.25616" lon="1.13856">
        <ele>119.4</ele>
        <time>2018-09-16T08:44:27Z</time>
      </trkpt>
      <trkpt lat="49.25615" lon="1.1387">
        <ele>118.6</ele>
        <time>2018-09-16T08:44:29Z</time>
      </trkpt>
      <trkpt lat="49.25611" lon="1.13888">
        <ele>118.3</ele>
        <time>2018-09-16T08:44:32Z</time>
      </trkpt>
      <trkpt lat="49.25611" lon="1.13903">
        <ele>118.2</ele>
        <time>2018-09-16T08:44:34Z</time>
      </trkpt>
      <trkpt lat="49.2561" lon="1.13919">
        <ele>117.9</ele>
        <time>2018-09-16T08:44:36Z</time>
      </trkpt>
      <trkpt lat="49.25607" lon="1.13934">
        <ele>117.6</ele>
        <time>2018-09-16T08:44:38Z</time>
      </trkpt>
      <trkpt lat="49.25604" lon="1.1395">
        <ele>117.3</ele>
        <time>2018-09-16T08:44:40Z</time>
      </trkpt>
      <trkpt lat="49.25602" lon="1.13968">
        <ele>117.2</ele>
        <time>2018-09-16T08:44:42Z</time>
      </trkpt>
      <trkpt lat="49.25598" lon="1.13987">
        <ele>116.8</ele>
        <time>2018-09-16T08:44:45Z</time>
      </trkpt>
      <trkpt lat="49.25596" lon="1.14002">
        <ele>116.7</ele>
        <time>2018-09-16T08:44:47Z</time>
      </trkpt>
      <trkpt lat="49.25594" lon="1.14016">
        <ele>116.5</ele>
        <time>2018-09-16T08:44:49Z</time>
      </trkpt>
      <trkpt lat="49.25594" lon="1.14033">
        <ele>116.5</ele>
        <time>2018-09-16T08:44:51Z</time>
      </trkpt>
      <trkpt lat="49.25594" lon="1.14051">
        <ele>116.2</ele>
        <time>2018-09-16T08:44:53Z</time>
      </trkpt>
      <trkpt lat="49.25592" lon="1.14067">
        <ele>116.2</ele>
        <time>2018-09-16T08:44:55Z</time>
      </trkpt>
      <trkpt lat="49.25592" lon="1.14083">
        <ele>116.2</ele>
        <time>2018-09-16T08:44:57Z</time>
      </trkpt>
      <trkpt lat="49.2559" lon="1.141">
        <ele>116</ele>
        <time>2018-09-16T08:44:59Z</time>
      </trkpt>
      <trkpt lat="49.25591" lon="1.14115">
        <ele>115.9</ele>
        <time>2018-09-16T08:45:01Z</time>
      </trkpt>
      <trkpt lat="49.2559" lon="1.14132">
        <ele>116.1</ele>
        <time>2018-09-16T08:45:03Z</time>
      </trkpt>
      <trkpt lat="49.2559" lon="1.14149">
        <ele>116</ele>
        <time>2018-09-16T08:45:05Z</time>
      </trkpt>
      <trkpt lat="49.25594" lon="1.14165">
        <ele>116.1</ele>
        <time>2018-09-16T08:45:07Z</time>
      </trkpt>
      <trkpt lat="49.25603" lon="1.14175">
        <ele>115.9</ele>
        <time>2018-09-16T08:45:09Z</time>
      </trkpt>
      <trkpt lat="49.25608" lon="1.14189">
        <ele>115.9</ele>
        <time>2018-09-16T08:45:11Z</time>
      </trkpt>
      <trkpt lat="49.25607" lon="1.14205">
        <ele>115.9</ele>
        <time>2018-09-16T08:45:13Z</time>
      </trkpt>
      <trkpt lat="49.25604" lon="1.14223">
        <ele>115.8</ele>
        <time>2018-09-16T08:45:15Z</time>
      </trkpt>
      <trkpt lat="49.256" lon="1.14243">
        <ele>115.8</ele>
        <time>2018-09-16T08:45:17Z</time>
      </trkpt>
      <trkpt lat="49.25596" lon="1.14262">
        <ele>115.5</ele>
        <time>2018-09-16T08:45:19Z</time>
      </trkpt>
      <trkpt lat="49.25593" lon="1.14278">
        <ele>115.3</ele>
        <time>2018-09-16T08:45:21Z</time>
      </trkpt>
      <trkpt lat="49.25589" lon="1.14291">
        <ele>114.8</ele>
        <time>2018-09-16T08:45:23Z</time>
      </trkpt>
      <trkpt lat="49.25586" lon="1.14305">
        <ele>114.6</ele>
        <time>2018-09-16T08:45:25Z</time>
      </trkpt>
      <trkpt lat="49.25583" lon="1.1432">
        <ele>114.5</ele>
        <time>2018-09-16T08:45:27Z</time>
      </trkpt>
      <trkpt lat="49.2558" lon="1.14335">
        <ele>114.4</ele>
        <time>2018-09-16T08:45:29Z</time>
      </trkpt>
      <trkpt lat="49.25577" lon="1.14349">
        <ele>114.5</ele>
        <time>2018-09-16T08:45:31Z</time>
      </trkpt>
      <trkpt lat="49.25574" lon="1.14363">
        <ele>114.4</ele>
        <time>2018-09-16T08:45:33Z</time>
      </trkpt>
      <trkpt lat="49.25571" lon="1.14377">
        <ele>114.2</ele>
        <time>2018-09-16T08:45:35Z</time>
      </trkpt>
      <trkpt lat="49.25568" lon="1.14391">
        <ele>114.1</ele>
        <time>2018-09-16T08:45:37Z</time>
      </trkpt>
      <trkpt lat="49.25565" lon="1.14406">
        <ele>114</ele>
        <time>2018-09-16T08:45:39Z</time>
      </trkpt>
      <trkpt lat="49.25562" lon="1.1442">
        <ele>114</ele>
        <time>2018-09-16T08:45:41Z</time>
      </trkpt>
      <trkpt lat="49.25559" lon="1.14436">
        <ele>113.9</ele>
        <time>2018-09-16T08:45:43Z</time>
      </trkpt>
      <trkpt lat="49.25558" lon="1.14452">
        <ele>113.7</ele>
        <time>2018-09-16T08:45:45Z</time>
      </trkpt>
      <trkpt lat="49.25556" lon="1.14466">
        <ele>113.7</ele>
        <time>2018-09-16T08:45:47Z</time>
      </trkpt>
      <trkpt lat="49.25553" lon="1.14481">
        <ele>113.3</ele>
        <time>2018-09-16T08:45:49Z</time>
      </trkpt>
      <trkpt lat="49.2555" lon="1.14495">
        <ele>113.2</ele>
        <time>2018-09-16T08:45:51Z</time>
      </trkpt>
      <trkpt lat="49.25548" lon="1.14509">
        <ele>113.4</ele>
        <time>2018-09-16T08:45:53Z</time>
      </trkpt>
      <trkpt lat="49.25545" lon="1.14522">
        <ele>113.3</ele>
        <time>2018-09-16T08:45:55Z</time>
      </trkpt>
      <trkpt lat="49.25542" lon="1.14536">
        <ele>113.2</ele>
        <time>2018-09-16T08:45:57Z</time>
      </trkpt>
      <trkpt lat="49.25539" lon="1.1455">
        <ele>113.1</ele>
        <time>2018-09-16T08:45:59Z</time>
      </trkpt>
      <trkpt lat="49.25536" lon="1.14564">
        <ele>112.9</ele>
        <time>2018-09-16T08:46:01Z</time>
      </trkpt>
      <trkpt lat="49.25534" lon="1.14578">
        <ele>112.9</ele>
        <time>2018-09-16T08:46:03Z</time>
      </trkpt>
      <trkpt lat="49.25531" lon="1.14591">
        <ele>112.9</ele>
        <time>2018-09-16T08:46:05Z</time>
      </trkpt>
      <trkpt lat="49.25527" lon="1.14605">
        <ele>112.9</ele>
        <time>2018-09-16T08:46:07Z</time>
      </trkpt>
      <trkpt lat="49.25524" lon="1.14618">
        <ele>112.9</ele>
        <time>2018-09-16T08:46:09Z</time>
      </trkpt>
      <trkpt lat="49.25524" lon="1.14637">
        <ele>113</ele>
        <time>2018-09-16T08:46:12Z</time>
      </trkpt>
      <trkpt lat="49.25529" lon="1.1465">
        <ele>112.9</ele>
        <time>2018-09-16T08:46:15Z</time>
      </trkpt>
      <trkpt lat="49.25538" lon="1.14656">
        <ele>112.9</ele>
        <time>2018-09-16T08:46:18Z</time>
      </trkpt>
      <trkpt lat="49.2555" lon="1.1466">
        <ele>113.2</ele>
        <time>2018-09-16T08:46:21Z</time>
      </trkpt>
      <trkpt lat="49.2556" lon="1.14666">
        <ele>113.4</ele>
        <time>2018-09-16T08:46:24Z</time>
      </trkpt>
      <trkpt lat="49.25571" lon="1.14671">
        <ele>113.9</ele>
        <time>2018-09-16T08:46:27Z</time>
      </trkpt>
      <trkpt lat="49.25579" lon="1.14679">
        <ele>114.2</ele>
        <time>2018-09-16T08:46:30Z</time>
      </trkpt>
      <trkpt lat="49.25581" lon="1.14696">
        <ele>114.5</ele>
        <time>2018-09-16T08:46:34Z</time>
      </trkpt>
      <trkpt lat="49.25577" lon="1.14715">
        <ele>114.6</ele>
        <time>2018-09-16T08:46:37Z</time>
      </trkpt>
      <trkpt lat="49.25574" lon="1.14736">
        <ele>114.4</ele>
        <time>2018-09-16T08:46:40Z</time>
      </trkpt>
      <trkpt lat="49.25574" lon="1.14751">
        <ele>114.5</ele>
        <time>2018-09-16T08:46:42Z</time>
      </trkpt>
      <trkpt lat="49.25572" lon="1.14767">
        <ele>114.4</ele>
        <time>2018-09-16T08:46:44Z</time>
      </trkpt>
      <trkpt lat="49.25571" lon="1.14785">
        <ele>114.5</ele>
        <time>2018-09-16T08:46:47Z</time>
      </trkpt>
      <trkpt lat="49.25569" lon="1.14807">
        <ele>114.3</ele>
        <time>2018-09-16T08:46:50Z</time>
      </trkpt>
      <trkpt lat="49.25566" lon="1.14821">
        <ele>114.1</ele>
        <time>2018-09-16T08:46:52Z</time>
      </trkpt>
      <trkpt lat="49.25563" lon="1.14836">
        <ele>114</ele>
        <time>2018-09-16T08:46:54Z</time>
      </trkpt>
      <trkpt lat="49.2556" lon="1.14851">
        <ele>114.2</ele>
        <time>2018-09-16T08:46:56Z</time>
      </trkpt>
      <trkpt lat="49.25557" lon="1.14865">
        <ele>114.1</ele>
        <time>2018-09-16T08:46:58Z</time>
      </trkpt>
      <trkpt lat="49.25555" lon="1.14881">
        <ele>114.1</ele>
        <time>2018-09-16T08:47:00Z</time>
      </trkpt>
      <trkpt lat="49.25553" lon="1.14897">
        <ele>113.8</ele>
        <time>2018-09-16T08:47:02Z</time>
      </trkpt>
      <trkpt lat="49.25549" lon="1.14915">
        <ele>113.8</ele>
        <time>2018-09-16T08:47:04Z</time>
      </trkpt>
      <trkpt lat="49.25546" lon="1.14931">
        <ele>113.6</ele>
        <time>2018-09-16T08:47:06Z</time>
      </trkpt>
      <trkpt lat="49.25543" lon="1.14948">
        <ele>113.3</ele>
        <time>2018-09-16T08:47:08Z</time>
      </trkpt>
      <trkpt lat="49.25539" lon="1.14967">
        <ele>113.2</ele>
        <time>2018-09-16T08:47:10Z</time>
      </trkpt>
      <trkpt lat="49.25534" lon="1.14986">
        <ele>113</ele>
        <time>2018-09-16T08:47:12Z</time>
      </trkpt>
      <trkpt lat="49.25531" lon="1.15004">
        <ele>113</ele>
        <time>2018-09-16T08:47:14Z</time>
      </trkpt>
      <trkpt lat="49.25526" lon="1.15021">
        <ele>112.9</ele>
        <time>2018-09-16T08:47:16Z</time>
      </trkpt>
      <trkpt lat="49.25523" lon="1.15038">
        <ele>112.9</ele>
        <time>2018-09-16T08:47:18Z</time>
      </trkpt>
      <trkpt lat="49.2552" lon="1.15052">
        <ele>112.8</ele>
        <time>2018-09-16T08:47:20Z</time>
      </trkpt>
      <trkpt lat="49.25519" lon="1.15066">
        <ele>112.6</ele>
        <time>2018-09-16T08:47:22Z</time>
      </trkpt>
      <trkpt lat="49.25517" lon="1.15081">
        <ele>112.5</ele>
        <time>2018-09-16T08:47:24Z</time>
      </trkpt>
      <trkpt lat="49.25512" lon="1.15098">
        <ele>112.4</ele>
        <time>2018-09-16T08:47:26Z</time>
      </trkpt>
      <trkpt lat="49.25502" lon="1.15109">
        <ele>111.9</ele>
        <time>2018-09-16T08:47:28Z</time>
      </trkpt>
      <trkpt lat="49.25491" lon="1.15112">
        <ele>111.4</ele>
        <time>2018-09-16T08:47:30Z</time>
      </trkpt>
      <trkpt lat="49.2548" lon="1.15108">
        <ele>111</ele>
        <time>2018-09-16T08:47:32Z</time>
      </trkpt>
      <trkpt lat="49.25468" lon="1.15103">
        <ele>111</ele>
        <time>2018-09-16T08:47:34Z</time>
      </trkpt>
      <trkpt lat="49.25455" lon="1.15098">
        <ele>110.9</ele>
        <time>2018-09-16T08:47:36Z</time>
      </trkpt>
      <trkpt lat="49.25442" lon="1.15094">
        <ele>110.5</ele>
        <time>2018-09-16T08:47:38Z</time>
      </trkpt>
      <trkpt lat="49.25429" lon="1.1509">
        <ele>110.3</ele>
        <time>2018-09-16T08:47:40Z</time>
      </trkpt>
      <trkpt lat="49.25416" lon="1.15085">
        <ele>109.8</ele>
        <time>2018-09-16T08:47:42Z</time>
      </trkpt>
      <trkpt lat="49.25402" lon="1.15079">
        <ele>109.5</ele>
        <time>2018-09-16T08:47:44Z</time>
      </trkpt>
      <trkpt lat="49.25387" lon="1.15074">
        <ele>109</ele>
        <time>2018-09-16T08:47:46Z</time>
      </trkpt>
      <trkpt lat="49.25371" lon="1.15069">
        <ele>108.4</ele>
        <time>2018-09-16T08:47:48Z</time>
      </trkpt>
      <trkpt lat="49.25355" lon="1.15063">
        <ele>107.8</ele>
        <time>2018-09-16T08:47:50Z</time>
      </trkpt>
      <trkpt lat="49.25339" lon="1.15056">
        <ele>107.3</ele>
        <time>2018-09-16T08:47:52Z</time>
      </trkpt>
      <trkpt lat="49.25323" lon="1.1505">
        <ele>106.5</ele>
        <time>2018-09-16T08:47:54Z</time>
      </trkpt>
      <trkpt lat="49.25307" lon="1.15043">
        <ele>105.8</ele>
        <time>2018-09-16T08:47:56Z</time>
      </trkpt>
      <trkpt lat="49.25292" lon="1.15038">
        <ele>105.4</ele>
        <time>2018-09-16T08:47:58Z</time>
      </trkpt>
      <trkpt lat="49.25278" lon="1.15033">
        <ele>105.1</ele>
        <time>2018-09-16T08:48:00Z</time>
      </trkpt>
      <trkpt lat="49.25265" lon="1.15028">
        <ele>105.1</ele>
        <time>2018-09-16T08:48:02Z</time>
      </trkpt>
      <trkpt lat="49.25254" lon="1.15025">
        <ele>105.5</ele>
        <time>2018-09-16T08:48:04Z</time>
      </trkpt>
      <trkpt lat="49.25243" lon="1.15021">
        <ele>106.1</ele>
        <time>2018-09-16T08:48:06Z</time>
      </trkpt>
      <trkpt lat="49.25233" lon="1.15018">
        <ele>106.5</ele>
        <time>2018-09-16T08:48:08Z</time>
      </trkpt>
      <trkpt lat="49.25223" lon="1.15014">
        <ele>107</ele>
        <time>2018-09-16T08:48:10Z</time>
      </trkpt>
      <trkpt lat="49.25214" lon="1.15011">
        <ele>107.5</ele>
        <time>2018-09-16T08:48:12Z</time>
      </trkpt>
      <trkpt lat="49.25205" lon="1.15007">
        <ele>108.1</ele>
        <time>2018-09-16T08:48:14Z</time>
      </trkpt>
      <trkpt lat="49.25196" lon="1.15004">
        <ele>108.7</ele>
        <time>2018-09-16T08:48:16Z</time>
      </trkpt>
      <trkpt lat="49.25184" lon="1.15">
        <ele>109.4</ele>
        <time>2018-09-16T08:48:19Z</time>
      </trkpt>
      <trkpt lat="49.25175" lon="1.14997">
        <ele>110.1</ele>
        <time>2018-09-16T08:48:22Z</time>
      </trkpt>
      <trkpt lat="49.25165" lon="1.14992">
        <ele>110.6</ele>
        <time>2018-09-16T08:48:25Z</time>
      </trkpt>
      <trkpt lat="49.25153" lon="1.14986">
        <ele>110.8</ele>
        <time>2018-09-16T08:48:28Z</time>
      </trkpt>
      <trkpt lat="49.25141" lon="1.14981">
        <ele>110.8</ele>
        <time>2018-09-16T08:48:31Z</time>
      </trkpt>
      <trkpt lat="49.25128" lon="1.14976">
        <ele>110.9</ele>
        <time>2018-09-16T08:48:34Z</time>
      </trkpt>
      <trkpt lat="49.25119" lon="1.1497">
        <ele>110.6</ele>
        <time>2018-09-16T08:48:36Z</time>
      </trkpt>
      <trkpt lat="49.25113" lon="1.1496">
        <ele>110.2</ele>
        <time>2018-09-16T08:48:38Z</time>
      </trkpt>
      <trkpt lat="49.2511" lon="1.14941">
        <ele>109.9</ele>
        <time>2018-09-16T08:48:41Z</time>
      </trkpt>
      <trkpt lat="49.25107" lon="1.14925">
        <ele>109.6</ele>
        <time>2018-09-16T08:48:44Z</time>
      </trkpt>
      <trkpt lat="49.25104" lon="1.1491">
        <ele>109.5</ele>
        <time>2018-09-16T08:48:46Z</time>
      </trkpt>
      <trkpt lat="49.25102" lon="1.14896">
        <ele>109.2</ele>
        <time>2018-09-16T08:48:48Z</time>
      </trkpt>
      <trkpt lat="49.25098" lon="1.14883">
        <ele>108.9</ele>
        <time>2018-09-16T08:48:50Z</time>
      </trkpt>
      <trkpt lat="49.25093" lon="1.14868">
        <ele>108.5</ele>
        <time>2018-09-16T08:48:52Z</time>
      </trkpt>
      <trkpt lat="49.25088" lon="1.14852">
        <ele>108.2</ele>
        <time>2018-09-16T08:48:54Z</time>
      </trkpt>
      <trkpt lat="49.25086" lon="1.14837">
        <ele>108</ele>
        <time>2018-09-16T08:48:56Z</time>
      </trkpt>
      <trkpt lat="49.25087" lon="1.14821">
        <ele>107.3</ele>
        <time>2018-09-16T08:48:58Z</time>
      </trkpt>
      <trkpt lat="49.25089" lon="1.14807">
        <ele>106.9</ele>
        <time>2018-09-16T08:49:00Z</time>
      </trkpt>
      <trkpt lat="49.25092" lon="1.14792">
        <ele>106.8</ele>
        <time>2018-09-16T08:49:02Z</time>
      </trkpt>
      <trkpt lat="49.25095" lon="1.14776">
        <ele>106.6</ele>
        <time>2018-09-16T08:49:04Z</time>
      </trkpt>
      <trkpt lat="49.25098" lon="1.14762">
        <ele>106.8</ele>
        <time>2018-09-16T08:49:06Z</time>
      </trkpt>
      <trkpt lat="49.25097" lon="1.14745">
        <ele>107.2</ele>
        <time>2018-09-16T08:49:08Z</time>
      </trkpt>
      <trkpt lat="49.25098" lon="1.14726">
        <ele>107.3</ele>
        <time>2018-09-16T08:49:11Z</time>
      </trkpt>
      <trkpt lat="49.25101" lon="1.1471">
        <ele>107.3</ele>
        <time>2018-09-16T08:49:13Z</time>
      </trkpt>
      <trkpt lat="49.25103" lon="1.14696">
        <ele>107.7</ele>
        <time>2018-09-16T08:49:15Z</time>
      </trkpt>
      <trkpt lat="49.25104" lon="1.14676">
        <ele>108</ele>
        <time>2018-09-16T08:49:18Z</time>
      </trkpt>
      <trkpt lat="49.25105" lon="1.14662">
        <ele>107.9</ele>
        <time>2018-09-16T08:49:20Z</time>
      </trkpt>
      <trkpt lat="49.25104" lon="1.14645">
        <ele>108.1</ele>
        <time>2018-09-16T08:49:22Z</time>
      </trkpt>
      <trkpt lat="49.25106" lon="1.14629">
        <ele>108.3</ele>
        <time>2018-09-16T08:49:24Z</time>
      </trkpt>
      <trkpt lat="49.25109" lon="1.14616">
        <ele>108.6</ele>
        <time>2018-09-16T08:49:26Z</time>
      </trkpt>
      <trkpt lat="49.2511" lon="1.14595">
        <ele>108.8</ele>
        <time>2018-09-16T08:49:29Z</time>
      </trkpt>
      <trkpt lat="49.2511" lon="1.14577">
        <ele>108.9</ele>
        <time>2018-09-16T08:49:31Z</time>
      </trkpt>
      <trkpt lat="49.25112" lon="1.14561">
        <ele>109.1</ele>
        <time>2018-09-16T08:49:33Z</time>
      </trkpt>
      <trkpt lat="49.25112" lon="1.14544">
        <ele>109.2</ele>
        <time>2018-09-16T08:49:35Z</time>
      </trkpt>
      <trkpt lat="49.25111" lon="1.14527">
        <ele>109.4</ele>
        <time>2018-09-16T08:49:37Z</time>
      </trkpt>
      <trkpt lat="49.2511" lon="1.1451">
        <ele>109.7</ele>
        <time>2018-09-16T08:49:39Z</time>
      </trkpt>
      <trkpt lat="49.2511" lon="1.14495">
        <ele>109.7</ele>
        <time>2018-09-16T08:49:41Z</time>
      </trkpt>
      <trkpt lat="49.2511" lon="1.14479">
        <ele>110</ele>
        <time>2018-09-16T08:49:43Z</time>
      </trkpt>
      <trkpt lat="49.2511" lon="1.14462">
        <ele>110</ele>
        <time>2018-09-16T08:49:45Z</time>
      </trkpt>
      <trkpt lat="49.25109" lon="1.14446">
        <ele>110</ele>
        <time>2018-09-16T08:49:47Z</time>
      </trkpt>
      <trkpt lat="49.25108" lon="1.14427">
        <ele>110.1</ele>
        <time>2018-09-16T08:49:49Z</time>
      </trkpt>
      <trkpt lat="49.25107" lon="1.14412">
        <ele>110</ele>
        <time>2018-09-16T08:49:51Z</time>
      </trkpt>
      <trkpt lat="49.25105" lon="1.14397">
        <ele>110.1</ele>
        <time>2018-09-16T08:49:53Z</time>
      </trkpt>
      <trkpt lat="49.25102" lon="1.1438">
        <ele>110.3</ele>
        <time>2018-09-16T08:49:55Z</time>
      </trkpt>
      <trkpt lat="49.25099" lon="1.14365">
        <ele>110.6</ele>
        <time>2018-09-16T08:49:57Z</time>
      </trkpt>
      <trkpt lat="49.25096" lon="1.14349">
        <ele>110.2</ele>
        <time>2018-09-16T08:49:59Z</time>
      </trkpt>
      <trkpt lat="49.25092" lon="1.14334">
        <ele>109.9</ele>
        <time>2018-09-16T08:50:01Z</time>
      </trkpt>
      <trkpt lat="49.25091" lon="1.14316">
        <ele>109.6</ele>
        <time>2018-09-16T08:50:03Z</time>
      </trkpt>
      <trkpt lat="49.2509" lon="1.14297">
        <ele>109.4</ele>
        <time>2018-09-16T08:50:05Z</time>
      </trkpt>
      <trkpt lat="49.2509" lon="1.1428">
        <ele>109.1</ele>
        <time>2018-09-16T08:50:07Z</time>
      </trkpt>
      <trkpt lat="49.2509" lon="1.14264">
        <ele>109</ele>
        <time>2018-09-16T08:50:09Z</time>
      </trkpt>
      <trkpt lat="49.25088" lon="1.14243">
        <ele>109.1</ele>
        <time>2018-09-16T08:50:11Z</time>
      </trkpt>
      <trkpt lat="49.25091" lon="1.14223">
        <ele>109.2</ele>
        <time>2018-09-16T08:50:13Z</time>
      </trkpt>
      <trkpt lat="49.25095" lon="1.14207">
        <ele>109.3</ele>
        <time>2018-09-16T08:50:15Z</time>
      </trkpt>
      <trkpt lat="49.25098" lon="1.1419">
        <ele>109.5</ele>
        <time>2018-09-16T08:50:17Z</time>
      </trkpt>
      <trkpt lat="49.25102" lon="1.14172">
        <ele>109.7</ele>
        <time>2018-09-16T08:50:19Z</time>
      </trkpt>
      <trkpt lat="49.25106" lon="1.14157">
        <ele>110.1</ele>
        <time>2018-09-16T08:50:21Z</time>
      </trkpt>
      <trkpt lat="49.25114" lon="1.1414">
        <ele>110.7</ele>
        <time>2018-09-16T08:50:24Z</time>
      </trkpt>
      <trkpt lat="49.25123" lon="1.14125">
        <ele>111.4</ele>
        <time>2018-09-16T08:50:27Z</time>
      </trkpt>
      <trkpt lat="49.25131" lon="1.14111">
        <ele>111.9</ele>
        <time>2018-09-16T08:50:30Z</time>
      </trkpt>
      <trkpt lat="49.2514" lon="1.14095">
        <ele>112.3</ele>
        <time>2018-09-16T08:50:33Z</time>
      </trkpt>
      <trkpt lat="49.25147" lon="1.14084">
        <ele>112.4</ele>
        <time>2018-09-16T08:50:35Z</time>
      </trkpt>
      <trkpt lat="49.25155" lon="1.14074">
        <ele>112.8</ele>
        <time>2018-09-16T08:50:38Z</time>
      </trkpt>
      <trkpt lat="49.25162" lon="1.1406">
        <ele>113.1</ele>
        <time>2018-09-16T08:50:41Z</time>
      </trkpt>
      <trkpt lat="49.2517" lon="1.14047">
        <ele>113.5</ele>
        <time>2018-09-16T08:50:44Z</time>
      </trkpt>
      <trkpt lat="49.25174" lon="1.14034">
        <ele>114</ele>
        <time>2018-09-16T08:50:47Z</time>
      </trkpt>
      <trkpt lat="49.25182" lon="1.14024">
        <ele>114.3</ele>
        <time>2018-09-16T08:50:50Z</time>
      </trkpt>
      <trkpt lat="49.25186" lon="1.14009">
        <ele>114.7</ele>
        <time>2018-09-16T08:50:53Z</time>
      </trkpt>
      <trkpt lat="49.25191" lon="1.13994">
        <ele>115.7</ele>
        <time>2018-09-16T08:50:57Z</time>
      </trkpt>
      <trkpt lat="49.25196" lon="1.13982">
        <ele>116.4</ele>
        <time>2018-09-16T08:51:01Z</time>
      </trkpt>
      <trkpt lat="49.25199" lon="1.13967">
        <ele>117</ele>
        <time>2018-09-16T08:51:05Z</time>
      </trkpt>
      <trkpt lat="49.25202" lon="1.13953">
        <ele>117</ele>
        <time>2018-09-16T08:51:09Z</time>
      </trkpt>
      <trkpt lat="49.25207" lon="1.13937">
        <ele>117.3</ele>
        <time>2018-09-16T08:51:13Z</time>
      </trkpt>
      <trkpt lat="49.2521" lon="1.13923">
        <ele>117.4</ele>
        <time>2018-09-16T08:51:16Z</time>
      </trkpt>
      <trkpt lat="49.25213" lon="1.13907">
        <ele>117.5</ele>
        <time>2018-09-16T08:51:19Z</time>
      </trkpt>
      <trkpt lat="49.25218" lon="1.13891">
        <ele>117.5</ele>
        <time>2018-09-16T08:51:22Z</time>
      </trkpt>
      <trkpt lat="49.25221" lon="1.13874">
        <ele>117.3</ele>
        <time>2018-09-16T08:51:24Z</time>
      </trkpt>
      <trkpt lat="49.25224" lon="1.1386">
        <ele>116.9</ele>
        <time>2018-09-16T08:51:26Z</time>
      </trkpt>
      <trkpt lat="49.25228" lon="1.13846">
        <ele>116.7</ele>
        <time>2018-09-16T08:51:28Z</time>
      </trkpt>
      <trkpt lat="49.25231" lon="1.13831">
        <ele>116.7</ele>
        <time>2018-09-16T08:51:30Z</time>
      </trkpt>
      <trkpt lat="49.25234" lon="1.13816">
        <ele>117</ele>
        <time>2018-09-16T08:51:33Z</time>
      </trkpt>
      <trkpt lat="49.25236" lon="1.13798">
        <ele>117.6</ele>
        <time>2018-09-16T08:51:36Z</time>
      </trkpt>
      <trkpt lat="49.25239" lon="1.13783">
        <ele>118</ele>
        <time>2018-09-16T08:51:39Z</time>
      </trkpt>
      <trkpt lat="49.25242" lon="1.13769">
        <ele>118.4</ele>
        <time>2018-09-16T08:51:42Z</time>
      </trkpt>
      <trkpt lat="49.25244" lon="1.13755">
        <ele>118.6</ele>
        <time>2018-09-16T08:51:44Z</time>
      </trkpt>
      <trkpt lat="49.25249" lon="1.13738">
        <ele>119.1</ele>
        <time>2018-09-16T08:51:47Z</time>
      </trkpt>
      <trkpt lat="49.25252" lon="1.13722">
        <ele>119.2</ele>
        <time>2018-09-16T08:51:49Z</time>
      </trkpt>
      <trkpt lat="49.25255" lon="1.13706">
        <ele>119.4</ele>
        <time>2018-09-16T08:51:51Z</time>
      </trkpt>
      <trkpt lat="49.25258" lon="1.13691">
        <ele>119.5</ele>
        <time>2018-09-16T08:51:53Z</time>
      </trkpt>
      <trkpt lat="49.25261" lon="1.13676">
        <ele>119.4</ele>
        <time>2018-09-16T08:51:55Z</time>
      </trkpt>
      <trkpt lat="49.25263" lon="1.13657">
        <ele>119.7</ele>
        <time>2018-09-16T08:51:58Z</time>
      </trkpt>
      <trkpt lat="49.25266" lon="1.13639">
        <ele>120</ele>
        <time>2018-09-16T08:52:01Z</time>
      </trkpt>
      <trkpt lat="49.25268" lon="1.13617">
        <ele>120.1</ele>
        <time>2018-09-16T08:52:04Z</time>
      </trkpt>
      <trkpt lat="49.2527" lon="1.13597">
        <ele>120.4</ele>
        <time>2018-09-16T08:52:07Z</time>
      </trkpt>
      <trkpt lat="49.25273" lon="1.13582">
        <ele>120.6</ele>
        <time>2018-09-16T08:52:09Z</time>
      </trkpt>
      <trkpt lat="49.25276" lon="1.13569">
        <ele>120.7</ele>
        <time>2018-09-16T08:52:11Z</time>
      </trkpt>
      <trkpt lat="49.25277" lon="1.13554">
        <ele>120.8</ele>
        <time>2018-09-16T08:52:14Z</time>
      </trkpt>
      <trkpt lat="49.25281" lon="1.13541">
        <ele>120.8</ele>
        <time>2018-09-16T08:52:17Z</time>
      </trkpt>
      <trkpt lat="49.25285" lon="1.13525">
        <ele>120.8</ele>
        <time>2018-09-16T08:52:20Z</time>
      </trkpt>
      <trkpt lat="49.25288" lon="1.13508">
        <ele>120.8</ele>
        <time>2018-09-16T08:52:23Z</time>
      </trkpt>
      <trkpt lat="49.25291" lon="1.13491">
        <ele>120.5</ele>
        <time>2018-09-16T08:52:27Z</time>
      </trkpt>
      <trkpt lat="49.25295" lon="1.13475">
        <ele>120.6</ele>
        <time>2018-09-16T08:52:30Z</time>
      </trkpt>
      <trkpt lat="49.25299" lon="1.13457">
        <ele>120.2</ele>
        <time>2018-09-16T08:52:33Z</time>
      </trkpt>
      <trkpt lat="49.25303" lon="1.13439">
        <ele>120</ele>
        <time>2018-09-16T08:52:36Z</time>
      </trkpt>
      <trkpt lat="49.25307" lon="1.13422">
        <ele>120</ele>
        <time>2018-09-16T08:52:39Z</time>
      </trkpt>
      <trkpt lat="49.25309" lon="1.13409">
        <ele>119.9</ele>
        <time>2018-09-16T08:52:41Z</time>
      </trkpt>
      <trkpt lat="49.25313" lon="1.1339">
        <ele>119.8</ele>
        <time>2018-09-16T08:52:44Z</time>
      </trkpt>
      <trkpt lat="49.25316" lon="1.13376">
        <ele>119.9</ele>
        <time>2018-09-16T08:52:46Z</time>
      </trkpt>
      <trkpt lat="49.25316" lon="1.13357">
        <ele>119.8</ele>
        <time>2018-09-16T08:52:48Z</time>
      </trkpt>
      <trkpt lat="49.25318" lon="1.13336">
        <ele>119.6</ele>
        <time>2018-09-16T08:52:51Z</time>
      </trkpt>
      <trkpt lat="49.25322" lon="1.13322">
        <ele>119.3</ele>
        <time>2018-09-16T08:52:53Z</time>
      </trkpt>
      <trkpt lat="49.25328" lon="1.1331">
        <ele>119.1</ele>
        <time>2018-09-16T08:52:55Z</time>
      </trkpt>
      <trkpt lat="49.25331" lon="1.1329">
        <ele>118.9</ele>
        <time>2018-09-16T08:52:58Z</time>
      </trkpt>
      <trkpt lat="49.25336" lon="1.13271">
        <ele>118.6</ele>
        <time>2018-09-16T08:53:01Z</time>
      </trkpt>
      <trkpt lat="49.25339" lon="1.13257">
        <ele>118.7</ele>
        <time>2018-09-16T08:53:03Z</time>
      </trkpt>
      <trkpt lat="49.25346" lon="1.13245">
        <ele>119</ele>
        <time>2018-09-16T08:53:06Z</time>
      </trkpt>
      <trkpt lat="49.25355" lon="1.13243">
        <ele>119.5</ele>
        <time>2018-09-16T08:53:09Z</time>
      </trkpt>
      <trkpt lat="49.25364" lon="1.13244">
        <ele>119.8</ele>
        <time>2018-09-16T08:53:11Z</time>
      </trkpt>
      <trkpt lat="49.25374" lon="1.13239">
        <ele>120.4</ele>
        <time>2018-09-16T08:53:15Z</time>
      </trkpt>
      <trkpt lat="49.25377" lon="1.13223">
        <ele>120.4</ele>
        <time>2018-09-16T08:53:18Z</time>
      </trkpt>
      <trkpt lat="49.25378" lon="1.13208">
        <ele>120.4</ele>
        <time>2018-09-16T08:53:20Z</time>
      </trkpt>
      <trkpt lat="49.25375" lon="1.13193">
        <ele>120.4</ele>
        <time>2018-09-16T08:53:22Z</time>
      </trkpt>
      <trkpt lat="49.25375" lon="1.13178">
        <ele>120.2</ele>
        <time>2018-09-16T08:53:24Z</time>
      </trkpt>
      <trkpt lat="49.25376" lon="1.13158">
        <ele>120</ele>
        <time>2018-09-16T08:53:27Z</time>
      </trkpt>
      <trkpt lat="49.25374" lon="1.13143">
        <ele>119.7</ele>
        <time>2018-09-16T08:53:29Z</time>
      </trkpt>
      <trkpt lat="49.25376" lon="1.13127">
        <ele>119.3</ele>
        <time>2018-09-16T08:53:31Z</time>
      </trkpt>
      <trkpt lat="49.25379" lon="1.13109">
        <ele>118.9</ele>
        <time>2018-09-16T08:53:33Z</time>
      </trkpt>
      <trkpt lat="49.2538" lon="1.13092">
        <ele>118.5</ele>
        <time>2018-09-16T08:53:35Z</time>
      </trkpt>
      <trkpt lat="49.25379" lon="1.13073">
        <ele>118.3</ele>
        <time>2018-09-16T08:53:37Z</time>
      </trkpt>
      <trkpt lat="49.25378" lon="1.13051">
        <ele>117.9</ele>
        <time>2018-09-16T08:53:40Z</time>
      </trkpt>
      <trkpt lat="49.25377" lon="1.13034">
        <ele>117.9</ele>
        <time>2018-09-16T08:53:42Z</time>
      </trkpt>
      <trkpt lat="49.25371" lon="1.13019">
        <ele>117.8</ele>
        <time>2018-09-16T08:53:44Z</time>
      </trkpt>
      <trkpt lat="49.25364" lon="1.13005">
        <ele>117.7</ele>
        <time>2018-09-16T08:53:46Z</time>
      </trkpt>
      <trkpt lat="49.25357" lon="1.12991">
        <ele>117.4</ele>
        <time>2018-09-16T08:53:48Z</time>
      </trkpt>
      <trkpt lat="49.2535" lon="1.12978">
        <ele>117</ele>
        <time>2018-09-16T08:53:50Z</time>
      </trkpt>
      <trkpt lat="49.25343" lon="1.12964">
        <ele>116.5</ele>
        <time>2018-09-16T08:53:52Z</time>
      </trkpt>
      <trkpt lat="49.25337" lon="1.12951">
        <ele>116.2</ele>
        <time>2018-09-16T08:53:54Z</time>
      </trkpt>
      <trkpt lat="49.25329" lon="1.12937">
        <ele>115.7</ele>
        <time>2018-09-16T08:53:56Z</time>
      </trkpt>
      <trkpt lat="49.2532" lon="1.12923">
        <ele>115.3</ele>
        <time>2018-09-16T08:53:58Z</time>
      </trkpt>
      <trkpt lat="49.25309" lon="1.12911">
        <ele>114.7</ele>
        <time>2018-09-16T08:54:00Z</time>
      </trkpt>
      <trkpt lat="49.25299" lon="1.12901">
        <ele>113.9</ele>
        <time>2018-09-16T08:54:02Z</time>
      </trkpt>
      <trkpt lat="49.25291" lon="1.12892">
        <ele>113.2</ele>
        <time>2018-09-16T08:54:04Z</time>
      </trkpt>
      <trkpt lat="49.25286" lon="1.12874">
        <ele>112.4</ele>
        <time>2018-09-16T08:54:07Z</time>
      </trkpt>
      <trkpt lat="49.2528" lon="1.1286">
        <ele>112.5</ele>
        <time>2018-09-16T08:54:10Z</time>
      </trkpt>
      <trkpt lat="49.25271" lon="1.12848">
        <ele>112.8</ele>
        <time>2018-09-16T08:54:13Z</time>
      </trkpt>
      <trkpt lat="49.25262" lon="1.1284">
        <ele>113</ele>
        <time>2018-09-16T08:54:15Z</time>
      </trkpt>
      <trkpt lat="49.25255" lon="1.12827">
        <ele>113.1</ele>
        <time>2018-09-16T08:54:17Z</time>
      </trkpt>
      <trkpt lat="49.25248" lon="1.1281">
        <ele>113.6</ele>
        <time>2018-09-16T08:54:20Z</time>
      </trkpt>
      <trkpt lat="49.25243" lon="1.12797">
        <ele>113.8</ele>
        <time>2018-09-16T08:54:22Z</time>
      </trkpt>
      <trkpt lat="49.25239" lon="1.12784">
        <ele>113.7</ele>
        <time>2018-09-16T08:54:24Z</time>
      </trkpt>
      <trkpt lat="49.25233" lon="1.1277">
        <ele>113.6</ele>
        <time>2018-09-16T08:54:26Z</time>
      </trkpt>
      <trkpt lat="49.25228" lon="1.12755">
        <ele>113.6</ele>
        <time>2018-09-16T08:54:28Z</time>
      </trkpt>
      <trkpt lat="49.2522" lon="1.12739">
        <ele>113.6</ele>
        <time>2018-09-16T08:54:30Z</time>
      </trkpt>
      <trkpt lat="49.25215" lon="1.12725">
        <ele>113.6</ele>
        <time>2018-09-16T08:54:32Z</time>
      </trkpt>
      <trkpt lat="49.25213" lon="1.1271">
        <ele>113.5</ele>
        <time>2018-09-16T08:54:34Z</time>
      </trkpt>
      <trkpt lat="49.25212" lon="1.1269">
        <ele>113.2</ele>
        <time>2018-09-16T08:54:37Z</time>
      </trkpt>
      <trkpt lat="49.2521" lon="1.12677">
        <ele>113.3</ele>
        <time>2018-09-16T08:54:39Z</time>
      </trkpt>
      <trkpt lat="49.25207" lon="1.12663">
        <ele>113.4</ele>
        <time>2018-09-16T08:54:41Z</time>
      </trkpt>
      <trkpt lat="49.25204" lon="1.12648">
        <ele>112.9</ele>
        <time>2018-09-16T08:54:43Z</time>
      </trkpt>
      <trkpt lat="49.252" lon="1.12624">
        <ele>112.3</ele>
        <time>2018-09-16T08:54:46Z</time>
      </trkpt>
      <trkpt lat="49.25198" lon="1.12606">
        <ele>111.8</ele>
        <time>2018-09-16T08:54:48Z</time>
      </trkpt>
      <trkpt lat="49.25194" lon="1.12587">
        <ele>111.5</ele>
        <time>2018-09-16T08:54:50Z</time>
      </trkpt>
      <trkpt lat="49.25186" lon="1.1257">
        <ele>111.2</ele>
        <time>2018-09-16T08:54:52Z</time>
      </trkpt>
      <trkpt lat="49.25173" lon="1.12552">
        <ele>110.9</ele>
        <time>2018-09-16T08:54:54Z</time>
      </trkpt>
      <trkpt lat="49.25161" lon="1.12538">
        <ele>110.1</ele>
        <time>2018-09-16T08:54:56Z</time>
      </trkpt>
      <trkpt lat="49.25151" lon="1.12532">
        <ele>109.5</ele>
        <time>2018-09-16T08:54:58Z</time>
      </trkpt>
      <trkpt lat="49.25142" lon="1.12529">
        <ele>108.3</ele>
        <time>2018-09-16T08:55:01Z</time>
      </trkpt>
      <trkpt lat="49.25139" lon="1.12515">
        <ele>107.5</ele>
        <time>2018-09-16T08:55:05Z</time>
      </trkpt>
      <trkpt lat="49.2513" lon="1.12509">
        <ele>107.1</ele>
        <time>2018-09-16T08:55:08Z</time>
      </trkpt>
      <trkpt lat="49.25118" lon="1.12497">
        <ele>105.5</ele>
        <time>2018-09-16T08:55:11Z</time>
      </trkpt>
      <trkpt lat="49.25107" lon="1.12487">
        <ele>104.9</ele>
        <time>2018-09-16T08:55:13Z</time>
      </trkpt>
      <trkpt lat="49.25093" lon="1.12474">
        <ele>103.9</ele>
        <time>2018-09-16T08:55:15Z</time>
      </trkpt>
      <trkpt lat="49.25082" lon="1.12462">
        <ele>102.9</ele>
        <time>2018-09-16T08:55:17Z</time>
      </trkpt>
      <trkpt lat="49.25072" lon="1.12445">
        <ele>102.1</ele>
        <time>2018-09-16T08:55:19Z</time>
      </trkpt>
      <trkpt lat="49.25062" lon="1.1243">
        <ele>101.2</ele>
        <time>2018-09-16T08:55:21Z</time>
      </trkpt>
      <trkpt lat="49.25053" lon="1.12417">
        <ele>99.8</ele>
        <time>2018-09-16T08:55:23Z</time>
      </trkpt>
      <trkpt lat="49.2504" lon="1.12405">
        <ele>97.9</ele>
        <time>2018-09-16T08:55:25Z</time>
      </trkpt>
      <trkpt lat="49.2503" lon="1.12393">
        <ele>95.7</ele>
        <time>2018-09-16T08:55:27Z</time>
      </trkpt>
      <trkpt lat="49.25016" lon="1.12384">
        <ele>93.2</ele>
        <time>2018-09-16T08:55:29Z</time>
      </trkpt>
      <trkpt lat="49.25003" lon="1.12378">
        <ele>90.6</ele>
        <time>2018-09-16T08:55:31Z</time>
      </trkpt>
      <trkpt lat="49.24988" lon="1.12384">
        <ele>88.6</ele>
        <time>2018-09-16T08:55:33Z</time>
      </trkpt>
      <trkpt lat="49.24977" lon="1.12393">
        <ele>87</ele>
        <time>2018-09-16T08:55:35Z</time>
      </trkpt>
      <trkpt lat="49.24971" lon="1.12404">
        <ele>85.9</ele>
        <time>2018-09-16T08:55:37Z</time>
      </trkpt>
      <trkpt lat="49.24968" lon="1.12424">
        <ele>84.8</ele>
        <time>2018-09-16T08:55:40Z</time>
      </trkpt>
      <trkpt lat="49.24967" lon="1.12443">
        <ele>84.4</ele>
        <time>2018-09-16T08:55:43Z</time>
      </trkpt>
      <trkpt lat="49.24967" lon="1.12458">
        <ele>84.4</ele>
        <time>2018-09-16T08:55:47Z</time>
      </trkpt>
      <trkpt lat="49.24967" lon="1.12476">
        <ele>84.3</ele>
        <time>2018-09-16T08:55:50Z</time>
      </trkpt>
      <trkpt lat="49.24968" lon="1.1249">
        <ele>84.3</ele>
        <time>2018-09-16T08:55:52Z</time>
      </trkpt>
      <trkpt lat="49.2497" lon="1.12505">
        <ele>84.1</ele>
        <time>2018-09-16T08:55:54Z</time>
      </trkpt>
      <trkpt lat="49.24972" lon="1.1252">
        <ele>84</ele>
        <time>2018-09-16T08:55:56Z</time>
      </trkpt>
      <trkpt lat="49.24975" lon="1.12534">
        <ele>83.8</ele>
        <time>2018-09-16T08:55:58Z</time>
      </trkpt>
      <trkpt lat="49.24977" lon="1.12548">
        <ele>83.9</ele>
        <time>2018-09-16T08:56:00Z</time>
      </trkpt>
      <trkpt lat="49.24979" lon="1.12562">
        <ele>83.9</ele>
        <time>2018-09-16T08:56:02Z</time>
      </trkpt>
      <trkpt lat="49.2498" lon="1.12577">
        <ele>83.8</ele>
        <time>2018-09-16T08:56:04Z</time>
      </trkpt>
      <trkpt lat="49.24983" lon="1.12596">
        <ele>83.7</ele>
        <time>2018-09-16T08:56:07Z</time>
      </trkpt>
      <trkpt lat="49.24985" lon="1.12611">
        <ele>83.2</ele>
        <time>2018-09-16T08:56:09Z</time>
      </trkpt>
      <trkpt lat="49.24989" lon="1.12626">
        <ele>83.3</ele>
        <time>2018-09-16T08:56:11Z</time>
      </trkpt>
      <trkpt lat="49.24991" lon="1.12641">
        <ele>83.1</ele>
        <time>2018-09-16T08:56:13Z</time>
      </trkpt>
      <trkpt lat="49.24995" lon="1.12655">
        <ele>82.7</ele>
        <time>2018-09-16T08:56:15Z</time>
      </trkpt>
      <trkpt lat="49.24998" lon="1.12671">
        <ele>82.4</ele>
        <time>2018-09-16T08:56:17Z</time>
      </trkpt>
      <trkpt lat="49.25" lon="1.12688">
        <ele>82</ele>
        <time>2018-09-16T08:56:19Z</time>
      </trkpt>
      <trkpt lat="49.25003" lon="1.12704">
        <ele>81.7</ele>
        <time>2018-09-16T08:56:21Z</time>
      </trkpt>
      <trkpt lat="49.25005" lon="1.1272">
        <ele>81.7</ele>
        <time>2018-09-16T08:56:23Z</time>
      </trkpt>
      <trkpt lat="49.25007" lon="1.12735">
        <ele>81.6</ele>
        <time>2018-09-16T08:56:25Z</time>
      </trkpt>
      <trkpt lat="49.25008" lon="1.12749">
        <ele>81.5</ele>
        <time>2018-09-16T08:56:27Z</time>
      </trkpt>
      <trkpt lat="49.25009" lon="1.12769">
        <ele>81.1</ele>
        <time>2018-09-16T08:56:30Z</time>
      </trkpt>
      <trkpt lat="49.25009" lon="1.1279">
        <ele>80.7</ele>
        <time>2018-09-16T08:56:33Z</time>
      </trkpt>
      <trkpt lat="49.25007" lon="1.12805">
        <ele>80.6</ele>
        <time>2018-09-16T08:56:35Z</time>
      </trkpt>
      <trkpt lat="49.25003" lon="1.12819">
        <ele>80.3</ele>
        <time>2018-09-16T08:56:37Z</time>
      </trkpt>
      <trkpt lat="49.24998" lon="1.12833">
        <ele>80.1</ele>
        <time>2018-09-16T08:56:39Z</time>
      </trkpt>
      <trkpt lat="49.24993" lon="1.12846">
        <ele>80</ele>
        <time>2018-09-16T08:56:41Z</time>
      </trkpt>
      <trkpt lat="49.24988" lon="1.1286">
        <ele>79.7</ele>
        <time>2018-09-16T08:56:43Z</time>
      </trkpt>
      <trkpt lat="49.24981" lon="1.12876">
        <ele>79.2</ele>
        <time>2018-09-16T08:56:45Z</time>
      </trkpt>
      <trkpt lat="49.24975" lon="1.12891">
        <ele>78.9</ele>
        <time>2018-09-16T08:56:47Z</time>
      </trkpt>
      <trkpt lat="49.2497" lon="1.12903">
        <ele>78.5</ele>
        <time>2018-09-16T08:56:49Z</time>
      </trkpt>
      <trkpt lat="49.24965" lon="1.12917">
        <ele>78.2</ele>
        <time>2018-09-16T08:56:51Z</time>
      </trkpt>
      <trkpt lat="49.24958" lon="1.1293">
        <ele>78.1</ele>
        <time>2018-09-16T08:56:53Z</time>
      </trkpt>
      <trkpt lat="49.2495" lon="1.12944">
        <ele>77.7</ele>
        <time>2018-09-16T08:56:55Z</time>
      </trkpt>
      <trkpt lat="49.24941" lon="1.12955">
        <ele>77.3</ele>
        <time>2018-09-16T08:56:57Z</time>
      </trkpt>
      <trkpt lat="49.24933" lon="1.12965">
        <ele>77</ele>
        <time>2018-09-16T08:56:59Z</time>
      </trkpt>
      <trkpt lat="49.24924" lon="1.12976">
        <ele>76.9</ele>
        <time>2018-09-16T08:57:01Z</time>
      </trkpt>
      <trkpt lat="49.24915" lon="1.12988">
        <ele>76.7</ele>
        <time>2018-09-16T08:57:03Z</time>
      </trkpt>
      <trkpt lat="49.24907" lon="1.12999">
        <ele>76.4</ele>
        <time>2018-09-16T08:57:05Z</time>
      </trkpt>
      <trkpt lat="49.24899" lon="1.1301">
        <ele>76.3</ele>
        <time>2018-09-16T08:57:07Z</time>
      </trkpt>
      <trkpt lat="49.24891" lon="1.13026">
        <ele>76</ele>
        <time>2018-09-16T08:57:10Z</time>
      </trkpt>
      <trkpt lat="49.24886" lon="1.13039">
        <ele>75.7</ele>
        <time>2018-09-16T08:57:12Z</time>
      </trkpt>
      <trkpt lat="49.24882" lon="1.13053">
        <ele>75.7</ele>
        <time>2018-09-16T08:57:14Z</time>
      </trkpt>
      <trkpt lat="49.24878" lon="1.13067">
        <ele>75.6</ele>
        <time>2018-09-16T08:57:16Z</time>
      </trkpt>
      <trkpt lat="49.24874" lon="1.13084">
        <ele>75.4</ele>
        <time>2018-09-16T08:57:19Z</time>
      </trkpt>
      <trkpt lat="49.24871" lon="1.131">
        <ele>75.1</ele>
        <time>2018-09-16T08:57:22Z</time>
      </trkpt>
      <trkpt lat="49.24868" lon="1.13114">
        <ele>74.7</ele>
        <time>2018-09-16T08:57:26Z</time>
      </trkpt>
      <trkpt lat="49.24863" lon="1.13126">
        <ele>74.3</ele>
        <time>2018-09-16T08:57:31Z</time>
      </trkpt>
      <trkpt lat="49.24855" lon="1.13134">
        <ele>74.7</ele>
        <time>2018-09-16T08:57:35Z</time>
      </trkpt>
      <trkpt lat="49.24856" lon="1.13149">
        <ele>75.2</ele>
        <time>2018-09-16T08:57:39Z</time>
      </trkpt>
      <trkpt lat="49.24858" lon="1.13164">
        <ele>74.8</ele>
        <time>2018-09-16T08:57:42Z</time>
      </trkpt>
      <trkpt lat="49.24856" lon="1.13183">
        <ele>74.5</ele>
        <time>2018-09-16T08:57:45Z</time>
      </trkpt>
      <trkpt lat="49.24855" lon="1.13201">
        <ele>74.2</ele>
        <time>2018-09-16T08:57:48Z</time>
      </trkpt>
      <trkpt lat="49.24853" lon="1.13216">
        <ele>73.9</ele>
        <time>2018-09-16T08:57:50Z</time>
      </trkpt>
      <trkpt lat="49.24851" lon="1.13234">
        <ele>73.7</ele>
        <time>2018-09-16T08:57:52Z</time>
      </trkpt>
      <trkpt lat="49.24851" lon="1.13253">
        <ele>73.4</ele>
        <time>2018-09-16T08:57:54Z</time>
      </trkpt>
      <trkpt lat="49.24851" lon="1.1327">
        <ele>73.1</ele>
        <time>2018-09-16T08:57:56Z</time>
      </trkpt>
      <trkpt lat="49.24849" lon="1.13284">
        <ele>72.9</ele>
        <time>2018-09-16T08:57:59Z</time>
      </trkpt>
      <trkpt lat="49.2485" lon="1.13302">
        <ele>73</ele>
        <time>2018-09-16T08:58:02Z</time>
      </trkpt>
      <trkpt lat="49.24854" lon="1.13317">
        <ele>72.6</ele>
        <time>2018-09-16T08:58:05Z</time>
      </trkpt>
      <trkpt lat="49.24859" lon="1.13336">
        <ele>72.5</ele>
        <time>2018-09-16T08:58:08Z</time>
      </trkpt>
      <trkpt lat="49.2486" lon="1.13351">
        <ele>72.4</ele>
        <time>2018-09-16T08:58:10Z</time>
      </trkpt>
      <trkpt lat="49.24861" lon="1.13366">
        <ele>72.2</ele>
        <time>2018-09-16T08:58:12Z</time>
      </trkpt>
      <trkpt lat="49.24864" lon="1.13383">
        <ele>72.4</ele>
        <time>2018-09-16T08:58:14Z</time>
      </trkpt>
      <trkpt lat="49.24867" lon="1.134">
        <ele>72.4</ele>
        <time>2018-09-16T08:58:16Z</time>
      </trkpt>
      <trkpt lat="49.24871" lon="1.13417">
        <ele>72.2</ele>
        <time>2018-09-16T08:58:18Z</time>
      </trkpt>
      <trkpt lat="49.24876" lon="1.13433">
        <ele>71.9</ele>
        <time>2018-09-16T08:58:20Z</time>
      </trkpt>
      <trkpt lat="49.24883" lon="1.13449">
        <ele>71.6</ele>
        <time>2018-09-16T08:58:22Z</time>
      </trkpt>
      <trkpt lat="49.24886" lon="1.13463">
        <ele>71.3</ele>
        <time>2018-09-16T08:58:24Z</time>
      </trkpt>
      <trkpt lat="49.24891" lon="1.13478">
        <ele>71.2</ele>
        <time>2018-09-16T08:58:26Z</time>
      </trkpt>
      <trkpt lat="49.24895" lon="1.13494">
        <ele>71</ele>
        <time>2018-09-16T08:58:28Z</time>
      </trkpt>
      <trkpt lat="49.24901" lon="1.13516">
        <ele>70.5</ele>
        <time>2018-09-16T08:58:30Z</time>
      </trkpt>
      <trkpt lat="49.24908" lon="1.13534">
        <ele>70.4</ele>
        <time>2018-09-16T08:58:32Z</time>
      </trkpt>
      <trkpt lat="49.24916" lon="1.13555">
        <ele>70.4</ele>
        <time>2018-09-16T08:58:34Z</time>
      </trkpt>
      <trkpt lat="49.24923" lon="1.13575">
        <ele>70.4</ele>
        <time>2018-09-16T08:58:36Z</time>
      </trkpt>
      <trkpt lat="49.24932" lon="1.13594">
        <ele>70.5</ele>
        <time>2018-09-16T08:58:38Z</time>
      </trkpt>
      <trkpt lat="49.2494" lon="1.13611">
        <ele>70.5</ele>
        <time>2018-09-16T08:58:40Z</time>
      </trkpt>
      <trkpt lat="49.24945" lon="1.13631">
        <ele>70.9</ele>
        <time>2018-09-16T08:58:42Z</time>
      </trkpt>
      <trkpt lat="49.24948" lon="1.13648">
        <ele>71.4</ele>
        <time>2018-09-16T08:58:44Z</time>
      </trkpt>
      <trkpt lat="49.24946" lon="1.13665">
        <ele>72.1</ele>
        <time>2018-09-16T08:58:46Z</time>
      </trkpt>
      <trkpt lat="49.24945" lon="1.1368">
        <ele>72.7</ele>
        <time>2018-09-16T08:58:48Z</time>
      </trkpt>
      <trkpt lat="49.24942" lon="1.13695">
        <ele>73.2</ele>
        <time>2018-09-16T08:58:50Z</time>
      </trkpt>
      <trkpt lat="49.24938" lon="1.1371">
        <ele>73.5</ele>
        <time>2018-09-16T08:58:52Z</time>
      </trkpt>
      <trkpt lat="49.24934" lon="1.13723">
        <ele>73.8</ele>
        <time>2018-09-16T08:58:54Z</time>
      </trkpt>
      <trkpt lat="49.24929" lon="1.13735">
        <ele>74.1</ele>
        <time>2018-09-16T08:58:57Z</time>
      </trkpt>
      <trkpt lat="49.24921" lon="1.13744">
        <ele>74.3</ele>
        <time>2018-09-16T08:59:06Z</time>
      </trkpt>
      <trkpt lat="49.24919" lon="1.13759">
        <ele>74.8</ele>
        <time>2018-09-16T08:59:10Z</time>
      </trkpt>
      <trkpt lat="49.24914" lon="1.13775">
        <ele>75.1</ele>
        <time>2018-09-16T08:59:14Z</time>
      </trkpt>
      <trkpt lat="49.24905" lon="1.13788">
        <ele>75.2</ele>
        <time>2018-09-16T08:59:17Z</time>
      </trkpt>
      <trkpt lat="49.24898" lon="1.13796">
        <ele>75.3</ele>
        <time>2018-09-16T08:59:19Z</time>
      </trkpt>
      <trkpt lat="49.24887" lon="1.13805">
        <ele>75.5</ele>
        <time>2018-09-16T08:59:22Z</time>
      </trkpt>
      <trkpt lat="49.24875" lon="1.13811">
        <ele>75.9</ele>
        <time>2018-09-16T08:59:25Z</time>
      </trkpt>
      <trkpt lat="49.24862" lon="1.13816">
        <ele>76.5</ele>
        <time>2018-09-16T08:59:28Z</time>
      </trkpt>
      <trkpt lat="49.24853" lon="1.13818">
        <ele>76.5</ele>
        <time>2018-09-16T08:59:30Z</time>
      </trkpt>
      <trkpt lat="49.24843" lon="1.13821">
        <ele>76.4</ele>
        <time>2018-09-16T08:59:32Z</time>
      </trkpt>
      <trkpt lat="49.24834" lon="1.13824">
        <ele>75.9</ele>
        <time>2018-09-16T08:59:34Z</time>
      </trkpt>
      <trkpt lat="49.24824" lon="1.13823">
        <ele>75.9</ele>
        <time>2018-09-16T08:59:36Z</time>
      </trkpt>
      <trkpt lat="49.24814" lon="1.13818">
        <ele>76.1</ele>
        <time>2018-09-16T08:59:38Z</time>
      </trkpt>
      <trkpt lat="49.24805" lon="1.13813">
        <ele>76.3</ele>
        <time>2018-09-16T08:59:40Z</time>
      </trkpt>
      <trkpt lat="49.24795" lon="1.13809">
        <ele>76.6</ele>
        <time>2018-09-16T08:59:42Z</time>
      </trkpt>
      <trkpt lat="49.24785" lon="1.13807">
        <ele>76.8</ele>
        <time>2018-09-16T08:59:44Z</time>
      </trkpt>
      <trkpt lat="49.24776" lon="1.13809">
        <ele>77.1</ele>
        <time>2018-09-16T08:59:46Z</time>
      </trkpt>
      <trkpt lat="49.24769" lon="1.13822">
        <ele>77.5</ele>
        <time>2018-09-16T08:59:48Z</time>
      </trkpt>
      <trkpt lat="49.24765" lon="1.13835">
        <ele>77.8</ele>
        <time>2018-09-16T08:59:50Z</time>
      </trkpt>
      <trkpt lat="49.24762" lon="1.13849">
        <ele>78.4</ele>
        <time>2018-09-16T08:59:52Z</time>
      </trkpt>
      <trkpt lat="49.24756" lon="1.13862">
        <ele>79.4</ele>
        <time>2018-09-16T08:59:55Z</time>
      </trkpt>
      <trkpt lat="49.24749" lon="1.13872">
        <ele>80.4</ele>
        <time>2018-09-16T08:59:58Z</time>
      </trkpt>
      <trkpt lat="49.24744" lon="1.13883">
        <ele>82.9</ele>
        <time>2018-09-16T09:00:14Z</time>
      </trkpt>
      <trkpt lat="49.24735" lon="1.13884">
        <ele>83.3</ele>
        <time>2018-09-16T09:05:12Z</time>
      </trkpt>
      <trkpt lat="49.24732" lon="1.13867">
        <ele>83.7</ele>
        <time>2018-09-16T09:05:49Z</time>
      </trkpt>
      <trkpt lat="49.24736" lon="1.13852">
        <ele>83.8</ele>
        <time>2018-09-16T09:05:52Z</time>
      </trkpt>
      <trkpt lat="49.24738" lon="1.13838">
        <ele>83.7</ele>
        <time>2018-09-16T09:05:55Z</time>
      </trkpt>
      <trkpt lat="49.2474" lon="1.13821">
        <ele>83.8</ele>
        <time>2018-09-16T09:05:58Z</time>
      </trkpt>
      <trkpt lat="49.24743" lon="1.13805">
        <ele>83.9</ele>
        <time>2018-09-16T09:06:01Z</time>
      </trkpt>
      <trkpt lat="49.24748" lon="1.13787">
        <ele>84</ele>
        <time>2018-09-16T09:06:05Z</time>
      </trkpt>
      <trkpt lat="49.24749" lon="1.13772">
        <ele>84.2</ele>
        <time>2018-09-16T09:06:07Z</time>
      </trkpt>
      <trkpt lat="49.24751" lon="1.13754">
        <ele>84.5</ele>
        <time>2018-09-16T09:06:10Z</time>
      </trkpt>
      <trkpt lat="49.24753" lon="1.13735">
        <ele>84.8</ele>
        <time>2018-09-16T09:06:13Z</time>
      </trkpt>
      <trkpt lat="49.24756" lon="1.13716">
        <ele>85.2</ele>
        <time>2018-09-16T09:06:16Z</time>
      </trkpt>
      <trkpt lat="49.24759" lon="1.13697">
        <ele>85.6</ele>
        <time>2018-09-16T09:06:19Z</time>
      </trkpt>
      <trkpt lat="49.2476" lon="1.13682">
        <ele>85.6</ele>
        <time>2018-09-16T09:06:21Z</time>
      </trkpt>
      <trkpt lat="49.24761" lon="1.13667">
        <ele>85.7</ele>
        <time>2018-09-16T09:06:23Z</time>
      </trkpt>
      <trkpt lat="49.24762" lon="1.13653">
        <ele>85.8</ele>
        <time>2018-09-16T09:06:25Z</time>
      </trkpt>
      <trkpt lat="49.24764" lon="1.13636">
        <ele>86.3</ele>
        <time>2018-09-16T09:06:28Z</time>
      </trkpt>
      <trkpt lat="49.24764" lon="1.13617">
        <ele>86.5</ele>
        <time>2018-09-16T09:06:31Z</time>
      </trkpt>
      <trkpt lat="49.24765" lon="1.13599">
        <ele>86.6</ele>
        <time>2018-09-16T09:06:34Z</time>
      </trkpt>
      <trkpt lat="49.24767" lon="1.13583">
        <ele>86.9</ele>
        <time>2018-09-16T09:06:37Z</time>
      </trkpt>
      <trkpt lat="49.24767" lon="1.13564">
        <ele>87.1</ele>
        <time>2018-09-16T09:06:40Z</time>
      </trkpt>
      <trkpt lat="49.24767" lon="1.13544">
        <ele>87.2</ele>
        <time>2018-09-16T09:06:43Z</time>
      </trkpt>
      <trkpt lat="49.24767" lon="1.13526">
        <ele>87.3</ele>
        <time>2018-09-16T09:06:46Z</time>
      </trkpt>
      <trkpt lat="49.24767" lon="1.13506">
        <ele>87.4</ele>
        <time>2018-09-16T09:06:49Z</time>
      </trkpt>
      <trkpt lat="49.2477" lon="1.13489">
        <ele>87.6</ele>
        <time>2018-09-16T09:06:52Z</time>
      </trkpt>
      <trkpt lat="49.24772" lon="1.13472">
        <ele>87.7</ele>
        <time>2018-09-16T09:06:55Z</time>
      </trkpt>
      <trkpt lat="49.24775" lon="1.13451">
        <ele>87.9</ele>
        <time>2018-09-16T09:06:58Z</time>
      </trkpt>
      <trkpt lat="49.24776" lon="1.13436">
        <ele>88.3</ele>
        <time>2018-09-16T09:07:00Z</time>
      </trkpt>
      <trkpt lat="49.24777" lon="1.13417">
        <ele>88.7</ele>
        <time>2018-09-16T09:07:04Z</time>
      </trkpt>
      <trkpt lat="49.24777" lon="1.13398">
        <ele>89</ele>
        <time>2018-09-16T09:07:07Z</time>
      </trkpt>
      <trkpt lat="49.24777" lon="1.13379">
        <ele>89.1</ele>
        <time>2018-09-16T09:07:10Z</time>
      </trkpt>
      <trkpt lat="49.24778" lon="1.13365">
        <ele>89.4</ele>
        <time>2018-09-16T09:07:12Z</time>
      </trkpt>
      <trkpt lat="49.24779" lon="1.13351">
        <ele>89.7</ele>
        <time>2018-09-16T09:07:14Z</time>
      </trkpt>
      <trkpt lat="49.24778" lon="1.13334">
        <ele>89.6</ele>
        <time>2018-09-16T09:07:16Z</time>
      </trkpt>
      <trkpt lat="49.24779" lon="1.13317">
        <ele>89.9</ele>
        <time>2018-09-16T09:07:18Z</time>
      </trkpt>
      <trkpt lat="49.24777" lon="1.13302">
        <ele>90.1</ele>
        <time>2018-09-16T09:07:20Z</time>
      </trkpt>
      <trkpt lat="49.24778" lon="1.1328">
        <ele>90.3</ele>
        <time>2018-09-16T09:07:23Z</time>
      </trkpt>
      <trkpt lat="49.24778" lon="1.13265">
        <ele>90.5</ele>
        <time>2018-09-16T09:07:25Z</time>
      </trkpt>
      <trkpt lat="49.24779" lon="1.13247">
        <ele>90.8</ele>
        <time>2018-09-16T09:07:28Z</time>
      </trkpt>
      <trkpt lat="49.24779" lon="1.13228">
        <ele>90.9</ele>
        <time>2018-09-16T09:07:31Z</time>
      </trkpt>
      <trkpt lat="49.24778" lon="1.13209">
        <ele>91.2</ele>
        <time>2018-09-16T09:07:34Z</time>
      </trkpt>
      <trkpt lat="49.24773" lon="1.13196">
        <ele>91.5</ele>
        <time>2018-09-16T09:07:37Z</time>
      </trkpt>
      <trkpt lat="49.24766" lon="1.13186">
        <ele>92.1</ele>
        <time>2018-09-16T09:07:41Z</time>
      </trkpt>
      <trkpt lat="49.24759" lon="1.13175">
        <ele>93.4</ele>
        <time>2018-09-16T09:07:46Z</time>
      </trkpt>
      <trkpt lat="49.2475" lon="1.13166">
        <ele>95.8</ele>
        <time>2018-09-16T09:07:53Z</time>
      </trkpt>
      <trkpt lat="49.24742" lon="1.13159">
        <ele>97.6</ele>
        <time>2018-09-16T09:07:59Z</time>
      </trkpt>
      <trkpt lat="49.24734" lon="1.13152">
        <ele>99.6</ele>
        <time>2018-09-16T09:08:05Z</time>
      </trkpt>
      <trkpt lat="49.24725" lon="1.13146">
        <ele>101.4</ele>
        <time>2018-09-16T09:08:12Z</time>
      </trkpt>
      <trkpt lat="49.24716" lon="1.13141">
        <ele>102.7</ele>
        <time>2018-09-16T09:08:18Z</time>
      </trkpt>
      <trkpt lat="49.24706" lon="1.13137">
        <ele>103.9</ele>
        <time>2018-09-16T09:08:23Z</time>
      </trkpt>
      <trkpt lat="49.24697" lon="1.13132">
        <ele>105.2</ele>
        <time>2018-09-16T09:08:28Z</time>
      </trkpt>
      <trkpt lat="49.24687" lon="1.13127">
        <ele>106.1</ele>
        <time>2018-09-16T09:08:33Z</time>
      </trkpt>
      <trkpt lat="49.24678" lon="1.13123">
        <ele>106.8</ele>
        <time>2018-09-16T09:08:37Z</time>
      </trkpt>
      <trkpt lat="49.24669" lon="1.13119">
        <ele>107.3</ele>
        <time>2018-09-16T09:08:41Z</time>
      </trkpt>
      <trkpt lat="49.24659" lon="1.13114">
        <ele>107.9</ele>
        <time>2018-09-16T09:08:45Z</time>
      </trkpt>
      <trkpt lat="49.2465" lon="1.1311">
        <ele>108.3</ele>
        <time>2018-09-16T09:08:48Z</time>
      </trkpt>
      <trkpt lat="49.24641" lon="1.13105">
        <ele>108.8</ele>
        <time>2018-09-16T09:08:51Z</time>
      </trkpt>
      <trkpt lat="49.24631" lon="1.13101">
        <ele>109.4</ele>
        <time>2018-09-16T09:08:54Z</time>
      </trkpt>
      <trkpt lat="49.24622" lon="1.13097">
        <ele>109.8</ele>
        <time>2018-09-16T09:08:57Z</time>
      </trkpt>
      <trkpt lat="49.24612" lon="1.1309">
        <ele>110.3</ele>
        <time>2018-09-16T09:09:00Z</time>
      </trkpt>
      <trkpt lat="49.24602" lon="1.13086">
        <ele>110.7</ele>
        <time>2018-09-16T09:09:03Z</time>
      </trkpt>
      <trkpt lat="49.24591" lon="1.13081">
        <ele>111</ele>
        <time>2018-09-16T09:09:06Z</time>
      </trkpt>
      <trkpt lat="49.2458" lon="1.13076">
        <ele>111.4</ele>
        <time>2018-09-16T09:09:09Z</time>
      </trkpt>
      <trkpt lat="49.24568" lon="1.13071">
        <ele>111.8</ele>
        <time>2018-09-16T09:09:12Z</time>
      </trkpt>
      <trkpt lat="49.24556" lon="1.13066">
        <ele>112.4</ele>
        <time>2018-09-16T09:09:15Z</time>
      </trkpt>
      <trkpt lat="49.24544" lon="1.1306">
        <ele>112.7</ele>
        <time>2018-09-16T09:09:18Z</time>
      </trkpt>
      <trkpt lat="49.24532" lon="1.13054">
        <ele>113.1</ele>
        <time>2018-09-16T09:09:21Z</time>
      </trkpt>
      <trkpt lat="49.2452" lon="1.13049">
        <ele>113.4</ele>
        <time>2018-09-16T09:09:24Z</time>
      </trkpt>
      <trkpt lat="49.24509" lon="1.13044">
        <ele>113.7</ele>
        <time>2018-09-16T09:09:27Z</time>
      </trkpt>
      <trkpt lat="49.24498" lon="1.13039">
        <ele>114</ele>
        <time>2018-09-16T09:09:30Z</time>
      </trkpt>
      <trkpt lat="49.24487" lon="1.13033">
        <ele>114.3</ele>
        <time>2018-09-16T09:09:33Z</time>
      </trkpt>
      <trkpt lat="49.24478" lon="1.13029">
        <ele>114.5</ele>
        <time>2018-09-16T09:09:35Z</time>
      </trkpt>
      <trkpt lat="49.24469" lon="1.13025">
        <ele>114.7</ele>
        <time>2018-09-16T09:09:37Z</time>
      </trkpt>
      <trkpt lat="49.24461" lon="1.13021">
        <ele>114.9</ele>
        <time>2018-09-16T09:09:39Z</time>
      </trkpt>
      <trkpt lat="49.24452" lon="1.13017">
        <ele>114.8</ele>
        <time>2018-09-16T09:09:41Z</time>
      </trkpt>
      <trkpt lat="49.24443" lon="1.13013">
        <ele>115</ele>
        <time>2018-09-16T09:09:43Z</time>
      </trkpt>
      <trkpt lat="49.2443" lon="1.13008">
        <ele>115.4</ele>
        <time>2018-09-16T09:09:46Z</time>
      </trkpt>
      <trkpt lat="49.24418" lon="1.13002">
        <ele>115.8</ele>
        <time>2018-09-16T09:09:49Z</time>
      </trkpt>
      <trkpt lat="49.24406" lon="1.12996">
        <ele>116.1</ele>
        <time>2018-09-16T09:09:52Z</time>
      </trkpt>
      <trkpt lat="49.24394" lon="1.1299">
        <ele>116.4</ele>
        <time>2018-09-16T09:09:55Z</time>
      </trkpt>
      <trkpt lat="49.24382" lon="1.12982">
        <ele>116.9</ele>
        <time>2018-09-16T09:09:58Z</time>
      </trkpt>
      <trkpt lat="49.24373" lon="1.12979">
        <ele>117.1</ele>
        <time>2018-09-16T09:10:00Z</time>
      </trkpt>
      <trkpt lat="49.24364" lon="1.12977">
        <ele>117.4</ele>
        <time>2018-09-16T09:10:02Z</time>
      </trkpt>
      <trkpt lat="49.24355" lon="1.12972">
        <ele>117.5</ele>
        <time>2018-09-16T09:10:04Z</time>
      </trkpt>
      <trkpt lat="49.24346" lon="1.12967">
        <ele>117.6</ele>
        <time>2018-09-16T09:10:06Z</time>
      </trkpt>
      <trkpt lat="49.24337" lon="1.12963">
        <ele>117.9</ele>
        <time>2018-09-16T09:10:08Z</time>
      </trkpt>
      <trkpt lat="49.24329" lon="1.12959">
        <ele>118.1</ele>
        <time>2018-09-16T09:10:10Z</time>
      </trkpt>
      <trkpt lat="49.24316" lon="1.12954">
        <ele>118.5</ele>
        <time>2018-09-16T09:10:13Z</time>
      </trkpt>
      <trkpt lat="49.24307" lon="1.1295">
        <ele>118.7</ele>
        <time>2018-09-16T09:10:15Z</time>
      </trkpt>
      <trkpt lat="49.24298" lon="1.12946">
        <ele>118.8</ele>
        <time>2018-09-16T09:10:17Z</time>
      </trkpt>
      <trkpt lat="49.24289" lon="1.12942">
        <ele>119</ele>
        <time>2018-09-16T09:10:19Z</time>
      </trkpt>
      <trkpt lat="49.2428" lon="1.12938">
        <ele>119.3</ele>
        <time>2018-09-16T09:10:21Z</time>
      </trkpt>
      <trkpt lat="49.24271" lon="1.12933">
        <ele>119.6</ele>
        <time>2018-09-16T09:10:23Z</time>
      </trkpt>
      <trkpt lat="49.24262" lon="1.12929">
        <ele>119.8</ele>
        <time>2018-09-16T09:10:25Z</time>
      </trkpt>
      <trkpt lat="49.24253" lon="1.12924">
        <ele>120.2</ele>
        <time>2018-09-16T09:10:27Z</time>
      </trkpt>
      <trkpt lat="49.24244" lon="1.1292">
        <ele>120.5</ele>
        <time>2018-09-16T09:10:29Z</time>
      </trkpt>
      <trkpt lat="49.24234" lon="1.12916">
        <ele>120.7</ele>
        <time>2018-09-16T09:10:31Z</time>
      </trkpt>
      <trkpt lat="49.24226" lon="1.12912">
        <ele>120.8</ele>
        <time>2018-09-16T09:10:33Z</time>
      </trkpt>
      <trkpt lat="49.24216" lon="1.12908">
        <ele>121.1</ele>
        <time>2018-09-16T09:10:35Z</time>
      </trkpt>
      <trkpt lat="49.24204" lon="1.12901">
        <ele>121.3</ele>
        <time>2018-09-16T09:10:38Z</time>
      </trkpt>
      <trkpt lat="49.24192" lon="1.12893">
        <ele>121.6</ele>
        <time>2018-09-16T09:10:41Z</time>
      </trkpt>
      <trkpt lat="49.2418" lon="1.12885">
        <ele>121.9</ele>
        <time>2018-09-16T09:10:44Z</time>
      </trkpt>
      <trkpt lat="49.24167" lon="1.12882">
        <ele>122.4</ele>
        <time>2018-09-16T09:10:47Z</time>
      </trkpt>
      <trkpt lat="49.24154" lon="1.12879">
        <ele>122.4</ele>
        <time>2018-09-16T09:10:50Z</time>
      </trkpt>
      <trkpt lat="49.24145" lon="1.12875">
        <ele>122.6</ele>
        <time>2018-09-16T09:10:52Z</time>
      </trkpt>
      <trkpt lat="49.24136" lon="1.12869">
        <ele>122.7</ele>
        <time>2018-09-16T09:10:54Z</time>
      </trkpt>
      <trkpt lat="49.24128" lon="1.12864">
        <ele>122.8</ele>
        <time>2018-09-16T09:10:56Z</time>
      </trkpt>
      <trkpt lat="49.24118" lon="1.1286">
        <ele>122.9</ele>
        <time>2018-09-16T09:10:58Z</time>
      </trkpt>
      <trkpt lat="49.24109" lon="1.12855">
        <ele>123.1</ele>
        <time>2018-09-16T09:11:00Z</time>
      </trkpt>
      <trkpt lat="49.241" lon="1.12852">
        <ele>123.2</ele>
        <time>2018-09-16T09:11:02Z</time>
      </trkpt>
      <trkpt lat="49.2409" lon="1.12849">
        <ele>123.3</ele>
        <time>2018-09-16T09:11:04Z</time>
      </trkpt>
      <trkpt lat="49.2408" lon="1.12846">
        <ele>123.5</ele>
        <time>2018-09-16T09:11:06Z</time>
      </trkpt>
      <trkpt lat="49.24071" lon="1.12843">
        <ele>123.6</ele>
        <time>2018-09-16T09:11:08Z</time>
      </trkpt>
      <trkpt lat="49.24062" lon="1.12839">
        <ele>123.6</ele>
        <time>2018-09-16T09:11:10Z</time>
      </trkpt>
      <trkpt lat="49.24053" lon="1.12835">
        <ele>123.5</ele>
        <time>2018-09-16T09:11:12Z</time>
      </trkpt>
      <trkpt lat="49.24043" lon="1.12833">
        <ele>123.3</ele>
        <time>2018-09-16T09:11:14Z</time>
      </trkpt>
      <trkpt lat="49.24033" lon="1.12827">
        <ele>123.5</ele>
        <time>2018-09-16T09:11:16Z</time>
      </trkpt>
      <trkpt lat="49.24024" lon="1.12824">
        <ele>123.4</ele>
        <time>2018-09-16T09:11:18Z</time>
      </trkpt>
      <trkpt lat="49.24016" lon="1.1282">
        <ele>123.5</ele>
        <time>2018-09-16T09:11:20Z</time>
      </trkpt>
      <trkpt lat="49.24003" lon="1.12815">
        <ele>123.7</ele>
        <time>2018-09-16T09:11:23Z</time>
      </trkpt>
      <trkpt lat="49.2399" lon="1.12809">
        <ele>123.6</ele>
        <time>2018-09-16T09:11:26Z</time>
      </trkpt>
      <trkpt lat="49.23977" lon="1.12802">
        <ele>123.6</ele>
        <time>2018-09-16T09:11:29Z</time>
      </trkpt>
      <trkpt lat="49.23968" lon="1.12796">
        <ele>123.7</ele>
        <time>2018-09-16T09:11:31Z</time>
      </trkpt>
      <trkpt lat="49.23959" lon="1.1279">
        <ele>123.6</ele>
        <time>2018-09-16T09:11:33Z</time>
      </trkpt>
      <trkpt lat="49.23949" lon="1.12786">
        <ele>123.5</ele>
        <time>2018-09-16T09:11:35Z</time>
      </trkpt>
      <trkpt lat="49.23939" lon="1.12783">
        <ele>123.5</ele>
        <time>2018-09-16T09:11:37Z</time>
      </trkpt>
      <trkpt lat="49.23929" lon="1.12777">
        <ele>123.4</ele>
        <time>2018-09-16T09:11:39Z</time>
      </trkpt>
      <trkpt lat="49.23919" lon="1.1277">
        <ele>123.2</ele>
        <time>2018-09-16T09:11:41Z</time>
      </trkpt>
      <trkpt lat="49.23909" lon="1.12768">
        <ele>123.1</ele>
        <time>2018-09-16T09:11:43Z</time>
      </trkpt>
      <trkpt lat="49.23899" lon="1.12765">
        <ele>123</ele>
        <time>2018-09-16T09:11:45Z</time>
      </trkpt>
      <trkpt lat="49.23888" lon="1.12761">
        <ele>123</ele>
        <time>2018-09-16T09:11:47Z</time>
      </trkpt>
      <trkpt lat="49.23877" lon="1.12756">
        <ele>123</ele>
        <time>2018-09-16T09:11:49Z</time>
      </trkpt>
      <trkpt lat="49.23867" lon="1.12752">
        <ele>122.9</ele>
        <time>2018-09-16T09:11:51Z</time>
      </trkpt>
      <trkpt lat="49.23856" lon="1.12748">
        <ele>122.7</ele>
        <time>2018-09-16T09:11:53Z</time>
      </trkpt>
      <trkpt lat="49.23846" lon="1.12739">
        <ele>122.2</ele>
        <time>2018-09-16T09:11:55Z</time>
      </trkpt>
      <trkpt lat="49.23835" lon="1.12732">
        <ele>122.2</ele>
        <time>2018-09-16T09:11:57Z</time>
      </trkpt>
      <trkpt lat="49.23823" lon="1.12727">
        <ele>122.1</ele>
        <time>2018-09-16T09:11:59Z</time>
      </trkpt>
      <trkpt lat="49.23812" lon="1.12725">
        <ele>121.9</ele>
        <time>2018-09-16T09:12:01Z</time>
      </trkpt>
      <trkpt lat="49.23801" lon="1.12721">
        <ele>121.8</ele>
        <time>2018-09-16T09:12:03Z</time>
      </trkpt>
      <trkpt lat="49.23792" lon="1.12714">
        <ele>121.7</ele>
        <time>2018-09-16T09:12:05Z</time>
      </trkpt>
      <trkpt lat="49.23782" lon="1.12713">
        <ele>121.5</ele>
        <time>2018-09-16T09:12:07Z</time>
      </trkpt>
      <trkpt lat="49.23772" lon="1.1271">
        <ele>121.2</ele>
        <time>2018-09-16T09:12:09Z</time>
      </trkpt>
      <trkpt lat="49.23763" lon="1.12706">
        <ele>120.9</ele>
        <time>2018-09-16T09:12:11Z</time>
      </trkpt>
      <trkpt lat="49.23753" lon="1.12701">
        <ele>120.8</ele>
        <time>2018-09-16T09:12:13Z</time>
      </trkpt>
      <trkpt lat="49.23745" lon="1.12694">
        <ele>120.5</ele>
        <time>2018-09-16T09:12:15Z</time>
      </trkpt>
      <trkpt lat="49.23736" lon="1.12686">
        <ele>120.3</ele>
        <time>2018-09-16T09:12:17Z</time>
      </trkpt>
      <trkpt lat="49.23727" lon="1.12684">
        <ele>120.1</ele>
        <time>2018-09-16T09:12:19Z</time>
      </trkpt>
      <trkpt lat="49.23718" lon="1.12681">
        <ele>119.9</ele>
        <time>2018-09-16T09:12:21Z</time>
      </trkpt>
      <trkpt lat="49.23713" lon="1.12669">
        <ele>119.4</ele>
        <time>2018-09-16T09:12:23Z</time>
      </trkpt>
      <trkpt lat="49.23712" lon="1.12653">
        <ele>119.4</ele>
        <time>2018-09-16T09:12:25Z</time>
      </trkpt>
      <trkpt lat="49.2371" lon="1.12633">
        <ele>119.2</ele>
        <time>2018-09-16T09:12:27Z</time>
      </trkpt>
      <trkpt lat="49.23707" lon="1.12614">
        <ele>119.2</ele>
        <time>2018-09-16T09:12:29Z</time>
      </trkpt>
      <trkpt lat="49.23705" lon="1.12594">
        <ele>119.1</ele>
        <time>2018-09-16T09:12:31Z</time>
      </trkpt>
      <trkpt lat="49.23702" lon="1.12573">
        <ele>119.1</ele>
        <time>2018-09-16T09:12:33Z</time>
      </trkpt>
      <trkpt lat="49.237" lon="1.12553">
        <ele>119.2</ele>
        <time>2018-09-16T09:12:35Z</time>
      </trkpt>
      <trkpt lat="49.23697" lon="1.12533">
        <ele>118.8</ele>
        <time>2018-09-16T09:12:37Z</time>
      </trkpt>
      <trkpt lat="49.23695" lon="1.12512">
        <ele>118.6</ele>
        <time>2018-09-16T09:12:39Z</time>
      </trkpt>
      <trkpt lat="49.23693" lon="1.12491">
        <ele>118.4</ele>
        <time>2018-09-16T09:12:41Z</time>
      </trkpt>
      <trkpt lat="49.23692" lon="1.1247">
        <ele>118.5</ele>
        <time>2018-09-16T09:12:43Z</time>
      </trkpt>
      <trkpt lat="49.2369" lon="1.12448">
        <ele>118.5</ele>
        <time>2018-09-16T09:12:45Z</time>
      </trkpt>
      <trkpt lat="49.23685" lon="1.12427">
        <ele>118.5</ele>
        <time>2018-09-16T09:12:47Z</time>
      </trkpt>
      <trkpt lat="49.23679" lon="1.12417">
        <ele>118.6</ele>
        <time>2018-09-16T09:12:49Z</time>
      </trkpt>
      <trkpt lat="49.23667" lon="1.1242">
        <ele>118.4</ele>
        <time>2018-09-16T09:12:52Z</time>
      </trkpt>
      <trkpt lat="49.23659" lon="1.12427">
        <ele>118.2</ele>
        <time>2018-09-16T09:12:54Z</time>
      </trkpt>
      <trkpt lat="49.2365" lon="1.12434">
        <ele>118.3</ele>
        <time>2018-09-16T09:12:56Z</time>
      </trkpt>
      <trkpt lat="49.2364" lon="1.12439">
        <ele>118.2</ele>
        <time>2018-09-16T09:12:58Z</time>
      </trkpt>
      <trkpt lat="49.23631" lon="1.12443">
        <ele>118.1</ele>
        <time>2018-09-16T09:13:00Z</time>
      </trkpt>
      <trkpt lat="49.23623" lon="1.12448">
        <ele>117.9</ele>
        <time>2018-09-16T09:13:02Z</time>
      </trkpt>
      <trkpt lat="49.23611" lon="1.12457">
        <ele>117.6</ele>
        <time>2018-09-16T09:13:05Z</time>
      </trkpt>
      <trkpt lat="49.23603" lon="1.12465">
        <ele>117.4</ele>
        <time>2018-09-16T09:13:07Z</time>
      </trkpt>
      <trkpt lat="49.23594" lon="1.12476">
        <ele>117.2</ele>
        <time>2018-09-16T09:13:10Z</time>
      </trkpt>
      <trkpt lat="49.23586" lon="1.12484">
        <ele>117</ele>
        <time>2018-09-16T09:13:13Z</time>
      </trkpt>
      <trkpt lat="49.23577" lon="1.12495">
        <ele>116.8</ele>
        <time>2018-09-16T09:13:16Z</time>
      </trkpt>
      <trkpt lat="49.23566" lon="1.12502">
        <ele>116.7</ele>
        <time>2018-09-16T09:13:19Z</time>
      </trkpt>
      <trkpt lat="49.23556" lon="1.12503">
        <ele>116.5</ele>
        <time>2018-09-16T09:13:21Z</time>
      </trkpt>
      <trkpt lat="49.23547" lon="1.12504">
        <ele>116.5</ele>
        <time>2018-09-16T09:13:23Z</time>
      </trkpt>
      <trkpt lat="49.23535" lon="1.12503">
        <ele>115.7</ele>
        <time>2018-09-16T09:13:26Z</time>
      </trkpt>
      <trkpt lat="49.23526" lon="1.12501">
        <ele>115.1</ele>
        <time>2018-09-16T09:13:29Z</time>
      </trkpt>
      <trkpt lat="49.23516" lon="1.12496">
        <ele>114.7</ele>
        <time>2018-09-16T09:13:32Z</time>
      </trkpt>
      <trkpt lat="49.23511" lon="1.12482">
        <ele>114.1</ele>
        <time>2018-09-16T09:13:37Z</time>
      </trkpt>
      <trkpt lat="49.23516" lon="1.12464">
        <ele>114</ele>
        <time>2018-09-16T09:13:40Z</time>
      </trkpt>
      <trkpt lat="49.23519" lon="1.12449">
        <ele>114.2</ele>
        <time>2018-09-16T09:13:43Z</time>
      </trkpt>
      <trkpt lat="49.23523" lon="1.12431">
        <ele>114.6</ele>
        <time>2018-09-16T09:13:46Z</time>
      </trkpt>
      <trkpt lat="49.23527" lon="1.12418">
        <ele>114.7</ele>
        <time>2018-09-16T09:13:48Z</time>
      </trkpt>
      <trkpt lat="49.2353" lon="1.124">
        <ele>115.1</ele>
        <time>2018-09-16T09:13:51Z</time>
      </trkpt>
      <trkpt lat="49.23534" lon="1.12384">
        <ele>115.7</ele>
        <time>2018-09-16T09:13:54Z</time>
      </trkpt>
      <trkpt lat="49.23537" lon="1.12366">
        <ele>115.8</ele>
        <time>2018-09-16T09:13:57Z</time>
      </trkpt>
      <trkpt lat="49.23541" lon="1.12352">
        <ele>116.1</ele>
        <time>2018-09-16T09:14:00Z</time>
      </trkpt>
      <trkpt lat="49.23543" lon="1.12333">
        <ele>116.3</ele>
        <time>2018-09-16T09:14:03Z</time>
      </trkpt>
      <trkpt lat="49.23547" lon="1.12319">
        <ele>116.7</ele>
        <time>2018-09-16T09:14:08Z</time>
      </trkpt>
      <trkpt lat="49.2355" lon="1.12305">
        <ele>117</ele>
        <time>2018-09-16T09:14:13Z</time>
      </trkpt>
      <trkpt lat="49.23554" lon="1.12291">
        <ele>117.1</ele>
        <time>2018-09-16T09:14:17Z</time>
      </trkpt>
      <trkpt lat="49.2356" lon="1.12276">
        <ele>117.2</ele>
        <time>2018-09-16T09:14:20Z</time>
      </trkpt>
      <trkpt lat="49.23563" lon="1.12263">
        <ele>117.4</ele>
        <time>2018-09-16T09:14:23Z</time>
      </trkpt>
      <trkpt lat="49.23566" lon="1.12249">
        <ele>117.6</ele>
        <time>2018-09-16T09:14:26Z</time>
      </trkpt>
      <trkpt lat="49.2357" lon="1.12234">
        <ele>117.9</ele>
        <time>2018-09-16T09:14:30Z</time>
      </trkpt>
      <trkpt lat="49.23572" lon="1.1222">
        <ele>118</ele>
        <time>2018-09-16T09:14:33Z</time>
      </trkpt>
      <trkpt lat="49.23577" lon="1.12203">
        <ele>118.1</ele>
        <time>2018-09-16T09:14:37Z</time>
      </trkpt>
      <trkpt lat="49.23582" lon="1.12189">
        <ele>118.1</ele>
        <time>2018-09-16T09:14:41Z</time>
      </trkpt>
      <trkpt lat="49.23584" lon="1.12171">
        <ele>118.1</ele>
        <time>2018-09-16T09:14:45Z</time>
      </trkpt>
      <trkpt lat="49.23587" lon="1.12153">
        <ele>118.1</ele>
        <time>2018-09-16T09:14:49Z</time>
      </trkpt>
      <trkpt lat="49.23589" lon="1.12136">
        <ele>118.3</ele>
        <time>2018-09-16T09:14:52Z</time>
      </trkpt>
      <trkpt lat="49.23591" lon="1.12122">
        <ele>118.4</ele>
        <time>2018-09-16T09:14:55Z</time>
      </trkpt>
      <trkpt lat="49.23595" lon="1.12106">
        <ele>118.7</ele>
        <time>2018-09-16T09:14:59Z</time>
      </trkpt>
      <trkpt lat="49.236" lon="1.12092">
        <ele>119.2</ele>
        <time>2018-09-16T09:15:11Z</time>
      </trkpt>
      <trkpt lat="49.236" lon="1.12079">
        <ele>119.3</ele>
        <time>2018-09-16T09:15:25Z</time>
      </trkpt>
      <trkpt lat="49.23603" lon="1.12064">
        <ele>119.5</ele>
        <time>2018-09-16T09:15:38Z</time>
      </trkpt>
      <trkpt lat="49.23607" lon="1.1205">
        <ele>119.7</ele>
        <time>2018-09-16T09:15:43Z</time>
      </trkpt>
      <trkpt lat="49.23599" lon="1.12036">
        <ele>120</ele>
        <time>2018-09-16T09:15:47Z</time>
      </trkpt>
      <trkpt lat="49.2359" lon="1.12031">
        <ele>120.1</ele>
        <time>2018-09-16T09:15:49Z</time>
      </trkpt>
      <trkpt lat="49.23579" lon="1.12022">
        <ele>120.1</ele>
        <time>2018-09-16T09:15:51Z</time>
      </trkpt>
      <trkpt lat="49.23567" lon="1.12013">
        <ele>119.9</ele>
        <time>2018-09-16T09:15:53Z</time>
      </trkpt>
      <trkpt lat="49.23556" lon="1.12003">
        <ele>119.6</ele>
        <time>2018-09-16T09:15:55Z</time>
      </trkpt>
      <trkpt lat="49.23545" lon="1.11989">
        <ele>119.3</ele>
        <time>2018-09-16T09:15:57Z</time>
      </trkpt>
      <trkpt lat="49.23534" lon="1.11972">
        <ele>118.9</ele>
        <time>2018-09-16T09:15:59Z</time>
      </trkpt>
      <trkpt lat="49.23529" lon="1.11951">
        <ele>118.4</ele>
        <time>2018-09-16T09:16:01Z</time>
      </trkpt>
      <trkpt lat="49.23527" lon="1.11931">
        <ele>117.8</ele>
        <time>2018-09-16T09:16:03Z</time>
      </trkpt>
      <trkpt lat="49.23525" lon="1.11913">
        <ele>117.5</ele>
        <time>2018-09-16T09:16:05Z</time>
      </trkpt>
      <trkpt lat="49.2352" lon="1.11891">
        <ele>117.1</ele>
        <time>2018-09-16T09:16:07Z</time>
      </trkpt>
      <trkpt lat="49.23515" lon="1.11869">
        <ele>116.8</ele>
        <time>2018-09-16T09:16:09Z</time>
      </trkpt>
      <trkpt lat="49.23508" lon="1.11845">
        <ele>116.5</ele>
        <time>2018-09-16T09:16:11Z</time>
      </trkpt>
      <trkpt lat="49.235" lon="1.11821">
        <ele>115.7</ele>
        <time>2018-09-16T09:16:13Z</time>
      </trkpt>
      <trkpt lat="49.23496" lon="1.11808">
        <ele>115.3</ele>
        <time>2018-09-16T09:16:14Z</time>
      </trkpt>
      <trkpt lat="49.23492" lon="1.11796">
        <ele>114.9</ele>
        <time>2018-09-16T09:16:15Z</time>
      </trkpt>
      <trkpt lat="49.23484" lon="1.11776">
        <ele>114</ele>
        <time>2018-09-16T09:16:17Z</time>
      </trkpt>
      <trkpt lat="49.23472" lon="1.11759">
        <ele>113.2</ele>
        <time>2018-09-16T09:16:19Z</time>
      </trkpt>
      <trkpt lat="49.23455" lon="1.11754">
        <ele>112</ele>
        <time>2018-09-16T09:16:21Z</time>
      </trkpt>
      <trkpt lat="49.23437" lon="1.11757">
        <ele>110.3</ele>
        <time>2018-09-16T09:16:23Z</time>
      </trkpt>
      <trkpt lat="49.23428" lon="1.1176">
        <ele>109.2</ele>
        <time>2018-09-16T09:16:24Z</time>
      </trkpt>
      <trkpt lat="49.23419" lon="1.11763">
        <ele>108.2</ele>
        <time>2018-09-16T09:16:25Z</time>
      </trkpt>
      <trkpt lat="49.23403" lon="1.11767">
        <ele>106.1</ele>
        <time>2018-09-16T09:16:27Z</time>
      </trkpt>
      <trkpt lat="49.23395" lon="1.1176">
        <ele>104.3</ele>
        <time>2018-09-16T09:16:29Z</time>
      </trkpt>
      <trkpt lat="49.23387" lon="1.11744">
        <ele>102.7</ele>
        <time>2018-09-16T09:16:32Z</time>
      </trkpt>
      <trkpt lat="49.23383" lon="1.11728">
        <ele>102.3</ele>
        <time>2018-09-16T09:16:34Z</time>
      </trkpt>
      <trkpt lat="49.2338" lon="1.11714">
        <ele>102.1</ele>
        <time>2018-09-16T09:16:36Z</time>
      </trkpt>
      <trkpt lat="49.23371" lon="1.11706">
        <ele>102</ele>
        <time>2018-09-16T09:16:39Z</time>
      </trkpt>
      <trkpt lat="49.23362" lon="1.11716">
        <ele>101.9</ele>
        <time>2018-09-16T09:16:42Z</time>
      </trkpt>
      <trkpt lat="49.2336" lon="1.11729">
        <ele>102.2</ele>
        <time>2018-09-16T09:16:44Z</time>
      </trkpt>
      <trkpt lat="49.23356" lon="1.11748">
        <ele>102.6</ele>
        <time>2018-09-16T09:16:47Z</time>
      </trkpt>
      <trkpt lat="49.23354" lon="1.11762">
        <ele>103.6</ele>
        <time>2018-09-16T09:16:50Z</time>
      </trkpt>
      <trkpt lat="49.23351" lon="1.1178">
        <ele>104.7</ele>
        <time>2018-09-16T09:16:53Z</time>
      </trkpt>
      <trkpt lat="49.23346" lon="1.11795">
        <ele>105.7</ele>
        <time>2018-09-16T09:16:56Z</time>
      </trkpt>
      <trkpt lat="49.23342" lon="1.11812">
        <ele>107.4</ele>
        <time>2018-09-16T09:17:00Z</time>
      </trkpt>
      <trkpt lat="49.2334" lon="1.11828">
        <ele>108.3</ele>
        <time>2018-09-16T09:17:03Z</time>
      </trkpt>
      <trkpt lat="49.23336" lon="1.11842">
        <ele>109</ele>
        <time>2018-09-16T09:17:06Z</time>
      </trkpt>
      <trkpt lat="49.23326" lon="1.11849">
        <ele>110.1</ele>
        <time>2018-09-16T09:17:10Z</time>
      </trkpt>
      <trkpt lat="49.23317" lon="1.11855">
        <ele>110.9</ele>
        <time>2018-09-16T09:17:13Z</time>
      </trkpt>
      <trkpt lat="49.23309" lon="1.11863">
        <ele>111.7</ele>
        <time>2018-09-16T09:17:16Z</time>
      </trkpt>
      <trkpt lat="49.233" lon="1.11865">
        <ele>112.2</ele>
        <time>2018-09-16T09:17:19Z</time>
      </trkpt>
      <trkpt lat="49.2329" lon="1.11856">
        <ele>113.1</ele>
        <time>2018-09-16T09:17:23Z</time>
      </trkpt>
      <trkpt lat="49.23284" lon="1.11844">
        <ele>114</ele>
        <time>2018-09-16T09:17:27Z</time>
      </trkpt>
      <trkpt lat="49.23278" lon="1.11831">
        <ele>114.6</ele>
        <time>2018-09-16T09:17:31Z</time>
      </trkpt>
      <trkpt lat="49.2327" lon="1.11819">
        <ele>115.1</ele>
        <time>2018-09-16T09:17:34Z</time>
      </trkpt>
      <trkpt lat="49.23262" lon="1.11808">
        <ele>115.4</ele>
        <time>2018-09-16T09:17:37Z</time>
      </trkpt>
      <trkpt lat="49.23255" lon="1.11796">
        <ele>115.8</ele>
        <time>2018-09-16T09:17:40Z</time>
      </trkpt>
      <trkpt lat="49.23249" lon="1.1178">
        <ele>116.1</ele>
        <time>2018-09-16T09:17:43Z</time>
      </trkpt>
      <trkpt lat="49.2324" lon="1.11764">
        <ele>116.4</ele>
        <time>2018-09-16T09:17:46Z</time>
      </trkpt>
      <trkpt lat="49.23231" lon="1.11755">
        <ele>116.7</ele>
        <time>2018-09-16T09:17:49Z</time>
      </trkpt>
      <trkpt lat="49.23224" lon="1.11744">
        <ele>117.2</ele>
        <time>2018-09-16T09:17:52Z</time>
      </trkpt>
      <trkpt lat="49.23215" lon="1.11737">
        <ele>117.5</ele>
        <time>2018-09-16T09:17:54Z</time>
      </trkpt>
      <trkpt lat="49.23204" lon="1.11741">
        <ele>117.8</ele>
        <time>2018-09-16T09:17:57Z</time>
      </trkpt>
      <trkpt lat="49.23197" lon="1.1175">
        <ele>118.2</ele>
        <time>2018-09-16T09:18:00Z</time>
      </trkpt>
      <trkpt lat="49.23188" lon="1.11762">
        <ele>118.7</ele>
        <time>2018-09-16T09:18:03Z</time>
      </trkpt>
      <trkpt lat="49.23176" lon="1.11773">
        <ele>118.7</ele>
        <time>2018-09-16T09:18:06Z</time>
      </trkpt>
      <trkpt lat="49.23169" lon="1.1178">
        <ele>119</ele>
        <time>2018-09-16T09:18:08Z</time>
      </trkpt>
      <trkpt lat="49.23158" lon="1.1179">
        <ele>119.2</ele>
        <time>2018-09-16T09:18:11Z</time>
      </trkpt>
      <trkpt lat="49.23148" lon="1.11802">
        <ele>119.3</ele>
        <time>2018-09-16T09:18:14Z</time>
      </trkpt>
      <trkpt lat="49.23138" lon="1.11813">
        <ele>119.3</ele>
        <time>2018-09-16T09:18:17Z</time>
      </trkpt>
      <trkpt lat="49.23127" lon="1.11823">
        <ele>119.4</ele>
        <time>2018-09-16T09:18:20Z</time>
      </trkpt>
      <trkpt lat="49.23116" lon="1.11835">
        <ele>119.3</ele>
        <time>2018-09-16T09:18:23Z</time>
      </trkpt>
      <trkpt lat="49.23108" lon="1.11843">
        <ele>119.4</ele>
        <time>2018-09-16T09:18:25Z</time>
      </trkpt>
      <trkpt lat="49.231" lon="1.11851">
        <ele>119.5</ele>
        <time>2018-09-16T09:18:27Z</time>
      </trkpt>
      <trkpt lat="49.23092" lon="1.11859">
        <ele>119.5</ele>
        <time>2018-09-16T09:18:29Z</time>
      </trkpt>
      <trkpt lat="49.23082" lon="1.11868">
        <ele>119.5</ele>
        <time>2018-09-16T09:18:31Z</time>
      </trkpt>
      <trkpt lat="49.23072" lon="1.11878">
        <ele>119.4</ele>
        <time>2018-09-16T09:18:33Z</time>
      </trkpt>
      <trkpt lat="49.23061" lon="1.11886">
        <ele>119.4</ele>
        <time>2018-09-16T09:18:35Z</time>
      </trkpt>
      <trkpt lat="49.23051" lon="1.11896">
        <ele>119.4</ele>
        <time>2018-09-16T09:18:37Z</time>
      </trkpt>
      <trkpt lat="49.2304" lon="1.11907">
        <ele>119.5</ele>
        <time>2018-09-16T09:18:39Z</time>
      </trkpt>
      <trkpt lat="49.23028" lon="1.11915">
        <ele>119.5</ele>
        <time>2018-09-16T09:18:41Z</time>
      </trkpt>
      <trkpt lat="49.23015" lon="1.11921">
        <ele>119.3</ele>
        <time>2018-09-16T09:18:43Z</time>
      </trkpt>
      <trkpt lat="49.23001" lon="1.11926">
        <ele>119</ele>
        <time>2018-09-16T09:18:45Z</time>
      </trkpt>
      <trkpt lat="49.22988" lon="1.11925">
        <ele>118.1</ele>
        <time>2018-09-16T09:18:47Z</time>
      </trkpt>
      <trkpt lat="49.22974" lon="1.11925">
        <ele>117.8</ele>
        <time>2018-09-16T09:18:49Z</time>
      </trkpt>
      <trkpt lat="49.22959" lon="1.11931">
        <ele>117.1</ele>
        <time>2018-09-16T09:18:51Z</time>
      </trkpt>
      <trkpt lat="49.22947" lon="1.11937">
        <ele>116.3</ele>
        <time>2018-09-16T09:18:53Z</time>
      </trkpt>
      <trkpt lat="49.22931" lon="1.11947">
        <ele>115.2</ele>
        <time>2018-09-16T09:18:55Z</time>
      </trkpt>
      <trkpt lat="49.22922" lon="1.1195">
        <ele>114.6</ele>
        <time>2018-09-16T09:18:56Z</time>
      </trkpt>
      <trkpt lat="49.22907" lon="1.11959">
        <ele>113</ele>
        <time>2018-09-16T09:18:58Z</time>
      </trkpt>
      <trkpt lat="49.22892" lon="1.11969">
        <ele>111</ele>
        <time>2018-09-16T09:19:00Z</time>
      </trkpt>
      <trkpt lat="49.22886" lon="1.11978">
        <ele>110.1</ele>
        <time>2018-09-16T09:19:01Z</time>
      </trkpt>
      <trkpt lat="49.22875" lon="1.11997">
        <ele>108.6</ele>
        <time>2018-09-16T09:19:03Z</time>
      </trkpt>
      <trkpt lat="49.22867" lon="1.12015">
        <ele>107.3</ele>
        <time>2018-09-16T09:19:05Z</time>
      </trkpt>
      <trkpt lat="49.22861" lon="1.12033">
        <ele>105.6</ele>
        <time>2018-09-16T09:19:07Z</time>
      </trkpt>
      <trkpt lat="49.22854" lon="1.12052">
        <ele>103.4</ele>
        <time>2018-09-16T09:19:09Z</time>
      </trkpt>
      <trkpt lat="49.22852" lon="1.12069">
        <ele>100.9</ele>
        <time>2018-09-16T09:19:11Z</time>
      </trkpt>
      <trkpt lat="49.2285" lon="1.12086">
        <ele>98.5</ele>
        <time>2018-09-16T09:19:13Z</time>
      </trkpt>
      <trkpt lat="49.22848" lon="1.12105">
        <ele>96.1</ele>
        <time>2018-09-16T09:19:15Z</time>
      </trkpt>
      <trkpt lat="49.22846" lon="1.1212">
        <ele>93.6</ele>
        <time>2018-09-16T09:19:17Z</time>
      </trkpt>
      <trkpt lat="49.22845" lon="1.12138">
        <ele>91.1</ele>
        <time>2018-09-16T09:19:19Z</time>
      </trkpt>
      <trkpt lat="49.22843" lon="1.12156">
        <ele>88.9</ele>
        <time>2018-09-16T09:19:21Z</time>
      </trkpt>
      <trkpt lat="49.22841" lon="1.12173">
        <ele>86.7</ele>
        <time>2018-09-16T09:19:23Z</time>
      </trkpt>
      <trkpt lat="49.22842" lon="1.1219">
        <ele>84.7</ele>
        <time>2018-09-16T09:19:25Z</time>
      </trkpt>
      <trkpt lat="49.22842" lon="1.12208">
        <ele>82.4</ele>
        <time>2018-09-16T09:19:27Z</time>
      </trkpt>
      <trkpt lat="49.22839" lon="1.12225">
        <ele>79.8</ele>
        <time>2018-09-16T09:19:29Z</time>
      </trkpt>
      <trkpt lat="49.22839" lon="1.12241">
        <ele>78.1</ele>
        <time>2018-09-16T09:19:31Z</time>
      </trkpt>
      <trkpt lat="49.22838" lon="1.12256">
        <ele>76.8</ele>
        <time>2018-09-16T09:19:33Z</time>
      </trkpt>
      <trkpt lat="49.22835" lon="1.12274">
        <ele>75.2</ele>
        <time>2018-09-16T09:19:35Z</time>
      </trkpt>
      <trkpt lat="49.22832" lon="1.12291">
        <ele>73.9</ele>
        <time>2018-09-16T09:19:37Z</time>
      </trkpt>
      <trkpt lat="49.22824" lon="1.12301">
        <ele>72.9</ele>
        <time>2018-09-16T09:19:39Z</time>
      </trkpt>
      <trkpt lat="49.22812" lon="1.12298">
        <ele>72.2</ele>
        <time>2018-09-16T09:19:42Z</time>
      </trkpt>
      <trkpt lat="49.22803" lon="1.12291">
        <ele>71.9</ele>
        <time>2018-09-16T09:19:44Z</time>
      </trkpt>
      <trkpt lat="49.22795" lon="1.12284">
        <ele>71.8</ele>
        <time>2018-09-16T09:19:46Z</time>
      </trkpt>
      <trkpt lat="49.22787" lon="1.12275">
        <ele>71.9</ele>
        <time>2018-09-16T09:19:48Z</time>
      </trkpt>
      <trkpt lat="49.22778" lon="1.12263">
        <ele>72.1</ele>
        <time>2018-09-16T09:19:51Z</time>
      </trkpt>
      <trkpt lat="49.22769" lon="1.1225">
        <ele>72.1</ele>
        <time>2018-09-16T09:19:54Z</time>
      </trkpt>
      <trkpt lat="49.22762" lon="1.12239">
        <ele>72.5</ele>
        <time>2018-09-16T09:19:56Z</time>
      </trkpt>
      <trkpt lat="49.22753" lon="1.12226">
        <ele>72.7</ele>
        <time>2018-09-16T09:19:58Z</time>
      </trkpt>
      <trkpt lat="49.22745" lon="1.12213">
        <ele>72.8</ele>
        <time>2018-09-16T09:20:00Z</time>
      </trkpt>
      <trkpt lat="49.22738" lon="1.12195">
        <ele>72.8</ele>
        <time>2018-09-16T09:20:02Z</time>
      </trkpt>
      <trkpt lat="49.22733" lon="1.12178">
        <ele>73.2</ele>
        <time>2018-09-16T09:20:04Z</time>
      </trkpt>
      <trkpt lat="49.2273" lon="1.12161">
        <ele>73.5</ele>
        <time>2018-09-16T09:20:06Z</time>
      </trkpt>
      <trkpt lat="49.22727" lon="1.12144">
        <ele>73.8</ele>
        <time>2018-09-16T09:20:08Z</time>
      </trkpt>
      <trkpt lat="49.22726" lon="1.12127">
        <ele>74.1</ele>
        <time>2018-09-16T09:20:10Z</time>
      </trkpt>
      <trkpt lat="49.22725" lon="1.1211">
        <ele>74.2</ele>
        <time>2018-09-16T09:20:12Z</time>
      </trkpt>
      <trkpt lat="49.22724" lon="1.12094">
        <ele>74.4</ele>
        <time>2018-09-16T09:20:14Z</time>
      </trkpt>
      <trkpt lat="49.22724" lon="1.12078">
        <ele>74.6</ele>
        <time>2018-09-16T09:20:16Z</time>
      </trkpt>
      <trkpt lat="49.22725" lon="1.12064">
        <ele>74.7</ele>
        <time>2018-09-16T09:20:18Z</time>
      </trkpt>
      <trkpt lat="49.22725" lon="1.12042">
        <ele>74.8</ele>
        <time>2018-09-16T09:20:21Z</time>
      </trkpt>
      <trkpt lat="49.22725" lon="1.12025">
        <ele>75</ele>
        <time>2018-09-16T09:20:23Z</time>
      </trkpt>
      <trkpt lat="49.22723" lon="1.12008">
        <ele>75.1</ele>
        <time>2018-09-16T09:20:25Z</time>
      </trkpt>
      <trkpt lat="49.22719" lon="1.11988">
        <ele>75.1</ele>
        <time>2018-09-16T09:20:27Z</time>
      </trkpt>
      <trkpt lat="49.22713" lon="1.11968">
        <ele>75.3</ele>
        <time>2018-09-16T09:20:29Z</time>
      </trkpt>
      <trkpt lat="49.2271" lon="1.11954">
        <ele>75.6</ele>
        <time>2018-09-16T09:20:31Z</time>
      </trkpt>
      <trkpt lat="49.22706" lon="1.11939">
        <ele>75.8</ele>
        <time>2018-09-16T09:20:33Z</time>
      </trkpt>
      <trkpt lat="49.22702" lon="1.11926">
        <ele>76.2</ele>
        <time>2018-09-16T09:20:35Z</time>
      </trkpt>
      <trkpt lat="49.22697" lon="1.11909">
        <ele>77</ele>
        <time>2018-09-16T09:20:38Z</time>
      </trkpt>
      <trkpt lat="49.22693" lon="1.11892">
        <ele>77.6</ele>
        <time>2018-09-16T09:20:41Z</time>
      </trkpt>
      <trkpt lat="49.22688" lon="1.11875">
        <ele>78.5</ele>
        <time>2018-09-16T09:20:44Z</time>
      </trkpt>
      <trkpt lat="49.22684" lon="1.1186">
        <ele>79.1</ele>
        <time>2018-09-16T09:20:47Z</time>
      </trkpt>
      <trkpt lat="49.2268" lon="1.11844">
        <ele>79.8</ele>
        <time>2018-09-16T09:20:50Z</time>
      </trkpt>
      <trkpt lat="49.22675" lon="1.11828">
        <ele>80.7</ele>
        <time>2018-09-16T09:20:53Z</time>
      </trkpt>
      <trkpt lat="49.22671" lon="1.11811">
        <ele>81.6</ele>
        <time>2018-09-16T09:20:56Z</time>
      </trkpt>
      <trkpt lat="49.22669" lon="1.11793">
        <ele>82.3</ele>
        <time>2018-09-16T09:20:59Z</time>
      </trkpt>
      <trkpt lat="49.22667" lon="1.11774">
        <ele>83</ele>
        <time>2018-09-16T09:21:02Z</time>
      </trkpt>
      <trkpt lat="49.22667" lon="1.11756">
        <ele>83.5</ele>
        <time>2018-09-16T09:21:05Z</time>
      </trkpt>
      <trkpt lat="49.22667" lon="1.11738">
        <ele>83.9</ele>
        <time>2018-09-16T09:21:08Z</time>
      </trkpt>
      <trkpt lat="49.22666" lon="1.11721">
        <ele>84.1</ele>
        <time>2018-09-16T09:21:11Z</time>
      </trkpt>
      <trkpt lat="49.22667" lon="1.11703">
        <ele>84.4</ele>
        <time>2018-09-16T09:21:14Z</time>
      </trkpt>
      <trkpt lat="49.22667" lon="1.11683">
        <ele>85</ele>
        <time>2018-09-16T09:21:17Z</time>
      </trkpt>
      <trkpt lat="49.22666" lon="1.11664">
        <ele>85.5</ele>
        <time>2018-09-16T09:21:20Z</time>
      </trkpt>
      <trkpt lat="49.22666" lon="1.11648">
        <ele>86.2</ele>
        <time>2018-09-16T09:21:23Z</time>
      </trkpt>
      <trkpt lat="49.22666" lon="1.11633">
        <ele>86.9</ele>
        <time>2018-09-16T09:21:27Z</time>
      </trkpt>
      <trkpt lat="49.22665" lon="1.11613">
        <ele>87.7</ele>
        <time>2018-09-16T09:21:31Z</time>
      </trkpt>
      <trkpt lat="49.22663" lon="1.11597">
        <ele>88.3</ele>
        <time>2018-09-16T09:21:34Z</time>
      </trkpt>
      <trkpt lat="49.2266" lon="1.11584">
        <ele>89.1</ele>
        <time>2018-09-16T09:21:37Z</time>
      </trkpt>
      <trkpt lat="49.22658" lon="1.1157">
        <ele>90.6</ele>
        <time>2018-09-16T09:21:41Z</time>
      </trkpt>
      <trkpt lat="49.22652" lon="1.11555">
        <ele>92.2</ele>
        <time>2018-09-16T09:21:46Z</time>
      </trkpt>
      <trkpt lat="49.22644" lon="1.11543">
        <ele>93.5</ele>
        <time>2018-09-16T09:21:51Z</time>
      </trkpt>
      <trkpt lat="49.22635" lon="1.11535">
        <ele>95.2</ele>
        <time>2018-09-16T09:21:56Z</time>
      </trkpt>
      <trkpt lat="49.22626" lon="1.1153">
        <ele>96.7</ele>
        <time>2018-09-16T09:22:01Z</time>
      </trkpt>
      <trkpt lat="49.22616" lon="1.11527">
        <ele>98.4</ele>
        <time>2018-09-16T09:22:07Z</time>
      </trkpt>
      <trkpt lat="49.22607" lon="1.11529">
        <ele>99.7</ele>
        <time>2018-09-16T09:22:12Z</time>
      </trkpt>
      <trkpt lat="49.22597" lon="1.11533">
        <ele>101.4</ele>
        <time>2018-09-16T09:22:18Z</time>
      </trkpt>
      <trkpt lat="49.22587" lon="1.11539">
        <ele>103.1</ele>
        <time>2018-09-16T09:22:24Z</time>
      </trkpt>
      <trkpt lat="49.22578" lon="1.11545">
        <ele>104.4</ele>
        <time>2018-09-16T09:22:29Z</time>
      </trkpt>
      <trkpt lat="49.2257" lon="1.11553">
        <ele>105.6</ele>
        <time>2018-09-16T09:22:34Z</time>
      </trkpt>
      <trkpt lat="49.22562" lon="1.1156">
        <ele>106.9</ele>
        <time>2018-09-16T09:22:39Z</time>
      </trkpt>
      <trkpt lat="49.22553" lon="1.11569">
        <ele>108.5</ele>
        <time>2018-09-16T09:22:45Z</time>
      </trkpt>
      <trkpt lat="49.22545" lon="1.11579">
        <ele>109.9</ele>
        <time>2018-09-16T09:22:50Z</time>
      </trkpt>
      <trkpt lat="49.22537" lon="1.11588">
        <ele>111</ele>
        <time>2018-09-16T09:22:55Z</time>
      </trkpt>
      <trkpt lat="49.22529" lon="1.11597">
        <ele>112</ele>
        <time>2018-09-16T09:23:00Z</time>
      </trkpt>
      <trkpt lat="49.2252" lon="1.11607">
        <ele>112.9</ele>
        <time>2018-09-16T09:23:05Z</time>
      </trkpt>
      <trkpt lat="49.22512" lon="1.11618">
        <ele>113.8</ele>
        <time>2018-09-16T09:23:10Z</time>
      </trkpt>
      <trkpt lat="49.22504" lon="1.1163">
        <ele>114.9</ele>
        <time>2018-09-16T09:23:15Z</time>
      </trkpt>
      <trkpt lat="49.22496" lon="1.11641">
        <ele>115.9</ele>
        <time>2018-09-16T09:23:20Z</time>
      </trkpt>
      <trkpt lat="49.22489" lon="1.1165">
        <ele>116.8</ele>
        <time>2018-09-16T09:23:24Z</time>
      </trkpt>
      <trkpt lat="49.22481" lon="1.1166">
        <ele>117.6</ele>
        <time>2018-09-16T09:23:28Z</time>
      </trkpt>
      <trkpt lat="49.22474" lon="1.11672">
        <ele>118.6</ele>
        <time>2018-09-16T09:23:33Z</time>
      </trkpt>
      <trkpt lat="49.22466" lon="1.11683">
        <ele>119.6</ele>
        <time>2018-09-16T09:23:37Z</time>
      </trkpt>
      <trkpt lat="49.22458" lon="1.11694">
        <ele>120.3</ele>
        <time>2018-09-16T09:23:41Z</time>
      </trkpt>
      <trkpt lat="49.2245" lon="1.11706">
        <ele>121.2</ele>
        <time>2018-09-16T09:23:45Z</time>
      </trkpt>
      <trkpt lat="49.22442" lon="1.11718">
        <ele>121.8</ele>
        <time>2018-09-16T09:23:49Z</time>
      </trkpt>
      <trkpt lat="49.22434" lon="1.11729">
        <ele>122.7</ele>
        <time>2018-09-16T09:23:53Z</time>
      </trkpt>
      <trkpt lat="49.22426" lon="1.11741">
        <ele>123.7</ele>
        <time>2018-09-16T09:23:58Z</time>
      </trkpt>
      <trkpt lat="49.22416" lon="1.11751">
        <ele>124.8</ele>
        <time>2018-09-16T09:24:02Z</time>
      </trkpt>
      <trkpt lat="49.22407" lon="1.11761">
        <ele>126</ele>
        <time>2018-09-16T09:24:06Z</time>
      </trkpt>
      <trkpt lat="49.22399" lon="1.11767">
        <ele>126.7</ele>
        <time>2018-09-16T09:24:10Z</time>
      </trkpt>
      <trkpt lat="49.2239" lon="1.11779">
        <ele>128</ele>
        <time>2018-09-16T09:24:14Z</time>
      </trkpt>
      <trkpt lat="49.22384" lon="1.1179">
        <ele>128.9</ele>
        <time>2018-09-16T09:24:17Z</time>
      </trkpt>
      <trkpt lat="49.22378" lon="1.11801">
        <ele>129.6</ele>
        <time>2018-09-16T09:24:20Z</time>
      </trkpt>
      <trkpt lat="49.22372" lon="1.11811">
        <ele>130.1</ele>
        <time>2018-09-16T09:24:23Z</time>
      </trkpt>
      <trkpt lat="49.22364" lon="1.11824">
        <ele>130.7</ele>
        <time>2018-09-16T09:24:26Z</time>
      </trkpt>
      <trkpt lat="49.22357" lon="1.11836">
        <ele>131.3</ele>
        <time>2018-09-16T09:24:29Z</time>
      </trkpt>
      <trkpt lat="49.2235" lon="1.11848">
        <ele>131.7</ele>
        <time>2018-09-16T09:24:32Z</time>
      </trkpt>
      <trkpt lat="49.22342" lon="1.11862">
        <ele>132</ele>
        <time>2018-09-16T09:24:35Z</time>
      </trkpt>
      <trkpt lat="49.22335" lon="1.11876">
        <ele>132.2</ele>
        <time>2018-09-16T09:24:38Z</time>
      </trkpt>
      <trkpt lat="49.22325" lon="1.1189">
        <ele>132.5</ele>
        <time>2018-09-16T09:24:41Z</time>
      </trkpt>
      <trkpt lat="49.22317" lon="1.11899">
        <ele>132.3</ele>
        <time>2018-09-16T09:24:43Z</time>
      </trkpt>
      <trkpt lat="49.22309" lon="1.11907">
        <ele>132.2</ele>
        <time>2018-09-16T09:24:45Z</time>
      </trkpt>
      <trkpt lat="49.22301" lon="1.11913">
        <ele>132.3</ele>
        <time>2018-09-16T09:24:47Z</time>
      </trkpt>
      <trkpt lat="49.22292" lon="1.11921">
        <ele>132.5</ele>
        <time>2018-09-16T09:24:49Z</time>
      </trkpt>
      <trkpt lat="49.22282" lon="1.11928">
        <ele>132.4</ele>
        <time>2018-09-16T09:24:51Z</time>
      </trkpt>
      <trkpt lat="49.22272" lon="1.11934">
        <ele>132.3</ele>
        <time>2018-09-16T09:24:53Z</time>
      </trkpt>
      <trkpt lat="49.22262" lon="1.11941">
        <ele>132.2</ele>
        <time>2018-09-16T09:24:55Z</time>
      </trkpt>
      <trkpt lat="49.22251" lon="1.11944">
        <ele>132.3</ele>
        <time>2018-09-16T09:24:57Z</time>
      </trkpt>
      <trkpt lat="49.22241" lon="1.11939">
        <ele>132.3</ele>
        <time>2018-09-16T09:24:59Z</time>
      </trkpt>
      <trkpt lat="49.22234" lon="1.11928">
        <ele>132.4</ele>
        <time>2018-09-16T09:25:01Z</time>
      </trkpt>
      <trkpt lat="49.22229" lon="1.11914">
        <ele>132.5</ele>
        <time>2018-09-16T09:25:03Z</time>
      </trkpt>
      <trkpt lat="49.22224" lon="1.119">
        <ele>132.3</ele>
        <time>2018-09-16T09:25:05Z</time>
      </trkpt>
      <trkpt lat="49.22218" lon="1.11885">
        <ele>132.3</ele>
        <time>2018-09-16T09:25:07Z</time>
      </trkpt>
      <trkpt lat="49.22212" lon="1.11871">
        <ele>132.5</ele>
        <time>2018-09-16T09:25:09Z</time>
      </trkpt>
      <trkpt lat="49.22205" lon="1.11855">
        <ele>132.6</ele>
        <time>2018-09-16T09:25:11Z</time>
      </trkpt>
      <trkpt lat="49.22201" lon="1.11838">
        <ele>132.8</ele>
        <time>2018-09-16T09:25:13Z</time>
      </trkpt>
      <trkpt lat="49.22202" lon="1.11823">
        <ele>133</ele>
        <time>2018-09-16T09:25:15Z</time>
      </trkpt>
      <trkpt lat="49.22201" lon="1.11808">
        <ele>133.1</ele>
        <time>2018-09-16T09:25:17Z</time>
      </trkpt>
      <trkpt lat="49.22198" lon="1.11792">
        <ele>133.1</ele>
        <time>2018-09-16T09:25:19Z</time>
      </trkpt>
      <trkpt lat="49.22194" lon="1.11776">
        <ele>133.2</ele>
        <time>2018-09-16T09:25:21Z</time>
      </trkpt>
      <trkpt lat="49.22187" lon="1.11761">
        <ele>133.4</ele>
        <time>2018-09-16T09:25:23Z</time>
      </trkpt>
      <trkpt lat="49.22179" lon="1.11748">
        <ele>133.6</ele>
        <time>2018-09-16T09:25:25Z</time>
      </trkpt>
      <trkpt lat="49.22171" lon="1.11735">
        <ele>133.6</ele>
        <time>2018-09-16T09:25:27Z</time>
      </trkpt>
      <trkpt lat="49.22163" lon="1.11722">
        <ele>133.9</ele>
        <time>2018-09-16T09:25:29Z</time>
      </trkpt>
      <trkpt lat="49.22155" lon="1.11712">
        <ele>134.2</ele>
        <time>2018-09-16T09:25:31Z</time>
      </trkpt>
      <trkpt lat="49.22144" lon="1.11699">
        <ele>134.4</ele>
        <time>2018-09-16T09:25:33Z</time>
      </trkpt>
      <trkpt lat="49.22134" lon="1.11687">
        <ele>134.7</ele>
        <time>2018-09-16T09:25:35Z</time>
      </trkpt>
      <trkpt lat="49.22126" lon="1.11674">
        <ele>135</ele>
        <time>2018-09-16T09:25:37Z</time>
      </trkpt>
      <trkpt lat="49.22118" lon="1.1166">
        <ele>135.1</ele>
        <time>2018-09-16T09:25:39Z</time>
      </trkpt>
      <trkpt lat="49.22111" lon="1.11646">
        <ele>135.4</ele>
        <time>2018-09-16T09:25:41Z</time>
      </trkpt>
      <trkpt lat="49.22104" lon="1.11632">
        <ele>135.7</ele>
        <time>2018-09-16T09:25:43Z</time>
      </trkpt>
      <trkpt lat="49.22097" lon="1.11619">
        <ele>136</ele>
        <time>2018-09-16T09:25:45Z</time>
      </trkpt>
      <trkpt lat="49.22092" lon="1.11607">
        <ele>136.2</ele>
        <time>2018-09-16T09:25:47Z</time>
      </trkpt>
      <trkpt lat="49.22084" lon="1.1159">
        <ele>136.5</ele>
        <time>2018-09-16T09:25:50Z</time>
      </trkpt>
      <trkpt lat="49.22078" lon="1.11578">
        <ele>136.8</ele>
        <time>2018-09-16T09:25:52Z</time>
      </trkpt>
      <trkpt lat="49.22071" lon="1.11566">
        <ele>136.9</ele>
        <time>2018-09-16T09:25:54Z</time>
      </trkpt>
      <trkpt lat="49.22065" lon="1.11555">
        <ele>137.3</ele>
        <time>2018-09-16T09:25:56Z</time>
      </trkpt>
      <trkpt lat="49.22058" lon="1.11543">
        <ele>137.5</ele>
        <time>2018-09-16T09:25:58Z</time>
      </trkpt>
      <trkpt lat="49.2205" lon="1.11532">
        <ele>137.8</ele>
        <time>2018-09-16T09:26:00Z</time>
      </trkpt>
      <trkpt lat="49.22042" lon="1.1152">
        <ele>138</ele>
        <time>2018-09-16T09:26:02Z</time>
      </trkpt>
      <trkpt lat="49.22034" lon="1.11508">
        <ele>138.1</ele>
        <time>2018-09-16T09:26:04Z</time>
      </trkpt>
      <trkpt lat="49.22026" lon="1.11494">
        <ele>138.3</ele>
        <time>2018-09-16T09:26:06Z</time>
      </trkpt>
      <trkpt lat="49.2202" lon="1.1148">
        <ele>138.6</ele>
        <time>2018-09-16T09:26:08Z</time>
      </trkpt>
      <trkpt lat="49.22016" lon="1.11466">
        <ele>138.8</ele>
        <time>2018-09-16T09:26:10Z</time>
      </trkpt>
      <trkpt lat="49.22011" lon="1.11453">
        <ele>139.2</ele>
        <time>2018-09-16T09:26:12Z</time>
      </trkpt>
      <trkpt lat="49.22006" lon="1.11439">
        <ele>139.4</ele>
        <time>2018-09-16T09:26:14Z</time>
      </trkpt>
      <trkpt lat="49.22001" lon="1.11425">
        <ele>139.8</ele>
        <time>2018-09-16T09:26:16Z</time>
      </trkpt>
      <trkpt lat="49.21997" lon="1.1141">
        <ele>139.9</ele>
        <time>2018-09-16T09:26:18Z</time>
      </trkpt>
      <trkpt lat="49.21993" lon="1.11396">
        <ele>140</ele>
        <time>2018-09-16T09:26:20Z</time>
      </trkpt>
      <trkpt lat="49.21988" lon="1.11383">
        <ele>140.2</ele>
        <time>2018-09-16T09:26:22Z</time>
      </trkpt>
      <trkpt lat="49.21983" lon="1.11371">
        <ele>140.3</ele>
        <time>2018-09-16T09:26:24Z</time>
      </trkpt>
      <trkpt lat="49.21976" lon="1.11353">
        <ele>140.8</ele>
        <time>2018-09-16T09:26:27Z</time>
      </trkpt>
      <trkpt lat="49.21971" lon="1.11341">
        <ele>141</ele>
        <time>2018-09-16T09:26:29Z</time>
      </trkpt>
      <trkpt lat="49.21965" lon="1.11323">
        <ele>141.3</ele>
        <time>2018-09-16T09:26:32Z</time>
      </trkpt>
      <trkpt lat="49.21959" lon="1.11311">
        <ele>141.6</ele>
        <time>2018-09-16T09:26:34Z</time>
      </trkpt>
      <trkpt lat="49.21952" lon="1.11298">
        <ele>142</ele>
        <time>2018-09-16T09:26:36Z</time>
      </trkpt>
      <trkpt lat="49.21947" lon="1.11284">
        <ele>142.3</ele>
        <time>2018-09-16T09:26:38Z</time>
      </trkpt>
      <trkpt lat="49.21941" lon="1.11271">
        <ele>142.6</ele>
        <time>2018-09-16T09:26:40Z</time>
      </trkpt>
      <trkpt lat="49.21935" lon="1.11259">
        <ele>142.9</ele>
        <time>2018-09-16T09:26:42Z</time>
      </trkpt>
      <trkpt lat="49.21928" lon="1.11246">
        <ele>143.1</ele>
        <time>2018-09-16T09:26:44Z</time>
      </trkpt>
      <trkpt lat="49.21923" lon="1.11233">
        <ele>143.6</ele>
        <time>2018-09-16T09:26:46Z</time>
      </trkpt>
      <trkpt lat="49.21917" lon="1.11219">
        <ele>144</ele>
        <time>2018-09-16T09:26:48Z</time>
      </trkpt>
      <trkpt lat="49.21913" lon="1.11206">
        <ele>144.3</ele>
        <time>2018-09-16T09:26:50Z</time>
      </trkpt>
      <trkpt lat="49.2191" lon="1.11193">
        <ele>144.5</ele>
        <time>2018-09-16T09:26:52Z</time>
      </trkpt>
      <trkpt lat="49.21907" lon="1.1118">
        <ele>144.6</ele>
        <time>2018-09-16T09:26:54Z</time>
      </trkpt>
      <trkpt lat="49.21902" lon="1.11164">
        <ele>144.7</ele>
        <time>2018-09-16T09:26:56Z</time>
      </trkpt>
      <trkpt lat="49.21898" lon="1.1115">
        <ele>144.9</ele>
        <time>2018-09-16T09:26:58Z</time>
      </trkpt>
      <trkpt lat="49.21893" lon="1.11131">
        <ele>145.4</ele>
        <time>2018-09-16T09:27:01Z</time>
      </trkpt>
      <trkpt lat="49.21889" lon="1.11115">
        <ele>145.6</ele>
        <time>2018-09-16T09:27:04Z</time>
      </trkpt>
      <trkpt lat="49.21883" lon="1.11098">
        <ele>145.9</ele>
        <time>2018-09-16T09:27:07Z</time>
      </trkpt>
      <trkpt lat="49.21879" lon="1.11084">
        <ele>146.1</ele>
        <time>2018-09-16T09:27:10Z</time>
      </trkpt>
      <trkpt lat="49.21873" lon="1.11072">
        <ele>146.4</ele>
        <time>2018-09-16T09:27:12Z</time>
      </trkpt>
      <trkpt lat="49.21867" lon="1.11058">
        <ele>146.8</ele>
        <time>2018-09-16T09:27:14Z</time>
      </trkpt>
      <trkpt lat="49.2186" lon="1.11044">
        <ele>147.3</ele>
        <time>2018-09-16T09:27:16Z</time>
      </trkpt>
      <trkpt lat="49.21853" lon="1.11028">
        <ele>147.8</ele>
        <time>2018-09-16T09:27:19Z</time>
      </trkpt>
      <trkpt lat="49.21846" lon="1.11018">
        <ele>148.1</ele>
        <time>2018-09-16T09:27:21Z</time>
      </trkpt>
      <trkpt lat="49.21838" lon="1.11007">
        <ele>148.4</ele>
        <time>2018-09-16T09:27:23Z</time>
      </trkpt>
      <trkpt lat="49.2183" lon="1.10997">
        <ele>148.7</ele>
        <time>2018-09-16T09:27:25Z</time>
      </trkpt>
      <trkpt lat="49.21823" lon="1.10987">
        <ele>148.8</ele>
        <time>2018-09-16T09:27:27Z</time>
      </trkpt>
      <trkpt lat="49.21814" lon="1.10976">
        <ele>149</ele>
        <time>2018-09-16T09:27:30Z</time>
      </trkpt>
      <trkpt lat="49.21805" lon="1.10965">
        <ele>149.2</ele>
        <time>2018-09-16T09:27:33Z</time>
      </trkpt>
      <trkpt lat="49.21795" lon="1.10951">
        <ele>149.5</ele>
        <time>2018-09-16T09:27:36Z</time>
      </trkpt>
      <trkpt lat="49.21783" lon="1.10945">
        <ele>149.8</ele>
        <time>2018-09-16T09:27:39Z</time>
      </trkpt>
      <trkpt lat="49.21774" lon="1.10954">
        <ele>150.2</ele>
        <time>2018-09-16T09:27:42Z</time>
      </trkpt>
      <trkpt lat="49.21763" lon="1.10952">
        <ele>150.3</ele>
        <time>2018-09-16T09:27:46Z</time>
      </trkpt>
      <trkpt lat="49.21751" lon="1.10947">
        <ele>150.5</ele>
        <time>2018-09-16T09:27:49Z</time>
      </trkpt>
      <trkpt lat="49.21742" lon="1.10942">
        <ele>150.6</ele>
        <time>2018-09-16T09:27:51Z</time>
      </trkpt>
      <trkpt lat="49.21732" lon="1.1094">
        <ele>150.9</ele>
        <time>2018-09-16T09:27:53Z</time>
      </trkpt>
      <trkpt lat="49.21722" lon="1.10935">
        <ele>151.1</ele>
        <time>2018-09-16T09:27:55Z</time>
      </trkpt>
      <trkpt lat="49.21711" lon="1.1093">
        <ele>151.2</ele>
        <time>2018-09-16T09:27:57Z</time>
      </trkpt>
      <trkpt lat="49.21701" lon="1.10927">
        <ele>151.5</ele>
        <time>2018-09-16T09:27:59Z</time>
      </trkpt>
      <trkpt lat="49.2169" lon="1.10925">
        <ele>151.6</ele>
        <time>2018-09-16T09:28:01Z</time>
      </trkpt>
      <trkpt lat="49.21681" lon="1.10921">
        <ele>151.7</ele>
        <time>2018-09-16T09:28:03Z</time>
      </trkpt>
      <trkpt lat="49.21671" lon="1.1092">
        <ele>151.9</ele>
        <time>2018-09-16T09:28:05Z</time>
      </trkpt>
      <trkpt lat="49.21661" lon="1.10917">
        <ele>152</ele>
        <time>2018-09-16T09:28:07Z</time>
      </trkpt>
      <trkpt lat="49.21652" lon="1.10915">
        <ele>152.1</ele>
        <time>2018-09-16T09:28:09Z</time>
      </trkpt>
      <trkpt lat="49.21642" lon="1.10912">
        <ele>152</ele>
        <time>2018-09-16T09:28:11Z</time>
      </trkpt>
      <trkpt lat="49.21633" lon="1.1091">
        <ele>151.8</ele>
        <time>2018-09-16T09:28:13Z</time>
      </trkpt>
      <trkpt lat="49.21624" lon="1.10908">
        <ele>151.8</ele>
        <time>2018-09-16T09:28:15Z</time>
      </trkpt>
      <trkpt lat="49.21614" lon="1.10906">
        <ele>152</ele>
        <time>2018-09-16T09:28:17Z</time>
      </trkpt>
      <trkpt lat="49.21604" lon="1.10904">
        <ele>152.1</ele>
        <time>2018-09-16T09:28:19Z</time>
      </trkpt>
      <trkpt lat="49.21592" lon="1.10899">
        <ele>152.2</ele>
        <time>2018-09-16T09:28:21Z</time>
      </trkpt>
      <trkpt lat="49.21582" lon="1.10898">
        <ele>152.2</ele>
        <time>2018-09-16T09:28:23Z</time>
      </trkpt>
      <trkpt lat="49.21572" lon="1.10896">
        <ele>152.1</ele>
        <time>2018-09-16T09:28:25Z</time>
      </trkpt>
      <trkpt lat="49.21562" lon="1.10896">
        <ele>152.1</ele>
        <time>2018-09-16T09:28:27Z</time>
      </trkpt>
      <trkpt lat="49.21553" lon="1.109">
        <ele>151.7</ele>
        <time>2018-09-16T09:28:29Z</time>
      </trkpt>
      <trkpt lat="49.21543" lon="1.10904">
        <ele>151.6</ele>
        <time>2018-09-16T09:28:31Z</time>
      </trkpt>
      <trkpt lat="49.21534" lon="1.10911">
        <ele>151.3</ele>
        <time>2018-09-16T09:28:33Z</time>
      </trkpt>
      <trkpt lat="49.21526" lon="1.10918">
        <ele>151.1</ele>
        <time>2018-09-16T09:28:35Z</time>
      </trkpt>
      <trkpt lat="49.21515" lon="1.10924">
        <ele>150.9</ele>
        <time>2018-09-16T09:28:37Z</time>
      </trkpt>
      <trkpt lat="49.21505" lon="1.1093">
        <ele>150.4</ele>
        <time>2018-09-16T09:28:39Z</time>
      </trkpt>
      <trkpt lat="49.21497" lon="1.10944">
        <ele>150</ele>
        <time>2018-09-16T09:28:41Z</time>
      </trkpt>
      <trkpt lat="49.2149" lon="1.10953">
        <ele>149.7</ele>
        <time>2018-09-16T09:28:43Z</time>
      </trkpt>
      <trkpt lat="49.21481" lon="1.10956">
        <ele>149.4</ele>
        <time>2018-09-16T09:28:45Z</time>
      </trkpt>
      <trkpt lat="49.21471" lon="1.10952">
        <ele>149.1</ele>
        <time>2018-09-16T09:28:47Z</time>
      </trkpt>
      <trkpt lat="49.21459" lon="1.10948">
        <ele>148.7</ele>
        <time>2018-09-16T09:28:49Z</time>
      </trkpt>
      <trkpt lat="49.21445" lon="1.10947">
        <ele>148.5</ele>
        <time>2018-09-16T09:28:51Z</time>
      </trkpt>
      <trkpt lat="49.21433" lon="1.10954">
        <ele>148.2</ele>
        <time>2018-09-16T09:28:53Z</time>
      </trkpt>
      <trkpt lat="49.21419" lon="1.10959">
        <ele>147.9</ele>
        <time>2018-09-16T09:28:55Z</time>
      </trkpt>
      <trkpt lat="49.21407" lon="1.10957">
        <ele>147.6</ele>
        <time>2018-09-16T09:28:57Z</time>
      </trkpt>
      <trkpt lat="49.21395" lon="1.10962">
        <ele>147.1</ele>
        <time>2018-09-16T09:28:59Z</time>
      </trkpt>
      <trkpt lat="49.21389" lon="1.10973">
        <ele>146.8</ele>
        <time>2018-09-16T09:29:01Z</time>
      </trkpt>
      <trkpt lat="49.21385" lon="1.1099">
        <ele>146.6</ele>
        <time>2018-09-16T09:29:03Z</time>
      </trkpt>
      <trkpt lat="49.21379" lon="1.11009">
        <ele>146.1</ele>
        <time>2018-09-16T09:29:05Z</time>
      </trkpt>
      <trkpt lat="49.21377" lon="1.11025">
        <ele>145.4</ele>
        <time>2018-09-16T09:29:07Z</time>
      </trkpt>
      <trkpt lat="49.21381" lon="1.11041">
        <ele>145.1</ele>
        <time>2018-09-16T09:29:09Z</time>
      </trkpt>
      <trkpt lat="49.21385" lon="1.11056">
        <ele>144.8</ele>
        <time>2018-09-16T09:29:11Z</time>
      </trkpt>
      <trkpt lat="49.21388" lon="1.11074">
        <ele>144.6</ele>
        <time>2018-09-16T09:29:13Z</time>
      </trkpt>
      <trkpt lat="49.21392" lon="1.11091">
        <ele>144.3</ele>
        <time>2018-09-16T09:29:15Z</time>
      </trkpt>
      <trkpt lat="49.21395" lon="1.11108">
        <ele>144.1</ele>
        <time>2018-09-16T09:29:17Z</time>
      </trkpt>
      <trkpt lat="49.21396" lon="1.11125">
        <ele>143.8</ele>
        <time>2018-09-16T09:29:19Z</time>
      </trkpt>
      <trkpt lat="49.21399" lon="1.11145">
        <ele>143.4</ele>
        <time>2018-09-16T09:29:21Z</time>
      </trkpt>
      <trkpt lat="49.21403" lon="1.11165">
        <ele>143.2</ele>
        <time>2018-09-16T09:29:23Z</time>
      </trkpt>
      <trkpt lat="49.21406" lon="1.11186">
        <ele>142.9</ele>
        <time>2018-09-16T09:29:25Z</time>
      </trkpt>
      <trkpt lat="49.21408" lon="1.11206">
        <ele>142.8</ele>
        <time>2018-09-16T09:29:27Z</time>
      </trkpt>
      <trkpt lat="49.21409" lon="1.11226">
        <ele>142.4</ele>
        <time>2018-09-16T09:29:29Z</time>
      </trkpt>
      <trkpt lat="49.2141" lon="1.11245">
        <ele>142.1</ele>
        <time>2018-09-16T09:29:31Z</time>
      </trkpt>
      <trkpt lat="49.21409" lon="1.11265">
        <ele>142.1</ele>
        <time>2018-09-16T09:29:33Z</time>
      </trkpt>
      <trkpt lat="49.21411" lon="1.11285">
        <ele>142</ele>
        <time>2018-09-16T09:29:35Z</time>
      </trkpt>
      <trkpt lat="49.21411" lon="1.11305">
        <ele>142.1</ele>
        <time>2018-09-16T09:29:37Z</time>
      </trkpt>
      <trkpt lat="49.21412" lon="1.11326">
        <ele>141.9</ele>
        <time>2018-09-16T09:29:39Z</time>
      </trkpt>
      <trkpt lat="49.21414" lon="1.11345">
        <ele>141.7</ele>
        <time>2018-09-16T09:29:41Z</time>
      </trkpt>
      <trkpt lat="49.21414" lon="1.11363">
        <ele>141.5</ele>
        <time>2018-09-16T09:29:43Z</time>
      </trkpt>
      <trkpt lat="49.21414" lon="1.11383">
        <ele>141.4</ele>
        <time>2018-09-16T09:29:45Z</time>
      </trkpt>
      <trkpt lat="49.21414" lon="1.11403">
        <ele>141.4</ele>
        <time>2018-09-16T09:29:47Z</time>
      </trkpt>
      <trkpt lat="49.21416" lon="1.11422">
        <ele>141.5</ele>
        <time>2018-09-16T09:29:49Z</time>
      </trkpt>
      <trkpt lat="49.21413" lon="1.11436">
        <ele>141.6</ele>
        <time>2018-09-16T09:29:51Z</time>
      </trkpt>
      <trkpt lat="49.21405" lon="1.11449">
        <ele>141.5</ele>
        <time>2018-09-16T09:29:53Z</time>
      </trkpt>
      <trkpt lat="49.21397" lon="1.1146">
        <ele>141.2</ele>
        <time>2018-09-16T09:29:55Z</time>
      </trkpt>
      <trkpt lat="49.21386" lon="1.11476">
        <ele>140.6</ele>
        <time>2018-09-16T09:29:57Z</time>
      </trkpt>
      <trkpt lat="49.21376" lon="1.11489">
        <ele>139.1</ele>
        <time>2018-09-16T09:29:59Z</time>
      </trkpt>
      <trkpt lat="49.21367" lon="1.11503">
        <ele>138.3</ele>
        <time>2018-09-16T09:30:01Z</time>
      </trkpt>
      <trkpt lat="49.21354" lon="1.11522">
        <ele>136.7</ele>
        <time>2018-09-16T09:30:03Z</time>
      </trkpt>
      <trkpt lat="49.21343" lon="1.11544">
        <ele>135</ele>
        <time>2018-09-16T09:30:05Z</time>
      </trkpt>
      <trkpt lat="49.21333" lon="1.11567">
        <ele>133.2</ele>
        <time>2018-09-16T09:30:07Z</time>
      </trkpt>
      <trkpt lat="49.21329" lon="1.11579">
        <ele>132.2</ele>
        <time>2018-09-16T09:30:08Z</time>
      </trkpt>
      <trkpt lat="49.21325" lon="1.11592">
        <ele>131.3</ele>
        <time>2018-09-16T09:30:09Z</time>
      </trkpt>
      <trkpt lat="49.21321" lon="1.11604">
        <ele>130.4</ele>
        <time>2018-09-16T09:30:10Z</time>
      </trkpt>
      <trkpt lat="49.21312" lon="1.11625">
        <ele>128.5</ele>
        <time>2018-09-16T09:30:12Z</time>
      </trkpt>
      <trkpt lat="49.21301" lon="1.11645">
        <ele>126.6</ele>
        <time>2018-09-16T09:30:14Z</time>
      </trkpt>
      <trkpt lat="49.21292" lon="1.11663">
        <ele>124.6</ele>
        <time>2018-09-16T09:30:16Z</time>
      </trkpt>
      <trkpt lat="49.21283" lon="1.11678">
        <ele>123</ele>
        <time>2018-09-16T09:30:18Z</time>
      </trkpt>
      <trkpt lat="49.21276" lon="1.11695">
        <ele>121.5</ele>
        <time>2018-09-16T09:30:20Z</time>
      </trkpt>
      <trkpt lat="49.21269" lon="1.11712">
        <ele>120.4</ele>
        <time>2018-09-16T09:30:22Z</time>
      </trkpt>
      <trkpt lat="49.21264" lon="1.1173">
        <ele>119.6</ele>
        <time>2018-09-16T09:30:24Z</time>
      </trkpt>
      <trkpt lat="49.21261" lon="1.11745">
        <ele>118.7</ele>
        <time>2018-09-16T09:30:26Z</time>
      </trkpt>
      <trkpt lat="49.21255" lon="1.11759">
        <ele>118</ele>
        <time>2018-09-16T09:30:28Z</time>
      </trkpt>
      <trkpt lat="49.2125" lon="1.11772">
        <ele>117.4</ele>
        <time>2018-09-16T09:30:30Z</time>
      </trkpt>
      <trkpt lat="49.21246" lon="1.11785">
        <ele>116.8</ele>
        <time>2018-09-16T09:30:32Z</time>
      </trkpt>
      <trkpt lat="49.21243" lon="1.118">
        <ele>116.2</ele>
        <time>2018-09-16T09:30:34Z</time>
      </trkpt>
      <trkpt lat="49.21239" lon="1.11816">
        <ele>115.5</ele>
        <time>2018-09-16T09:30:36Z</time>
      </trkpt>
      <trkpt lat="49.21235" lon="1.11832">
        <ele>115</ele>
        <time>2018-09-16T09:30:38Z</time>
      </trkpt>
      <trkpt lat="49.21229" lon="1.11848">
        <ele>114.6</ele>
        <time>2018-09-16T09:30:40Z</time>
      </trkpt>
      <trkpt lat="49.21224" lon="1.11863">
        <ele>114.2</ele>
        <time>2018-09-16T09:30:42Z</time>
      </trkpt>
      <trkpt lat="49.21219" lon="1.11878">
        <ele>113.8</ele>
        <time>2018-09-16T09:30:44Z</time>
      </trkpt>
      <trkpt lat="49.21215" lon="1.11892">
        <ele>113.3</ele>
        <time>2018-09-16T09:30:46Z</time>
      </trkpt>
      <trkpt lat="49.21212" lon="1.11911">
        <ele>112.8</ele>
        <time>2018-09-16T09:30:48Z</time>
      </trkpt>
      <trkpt lat="49.21209" lon="1.1193">
        <ele>112.4</ele>
        <time>2018-09-16T09:30:50Z</time>
      </trkpt>
      <trkpt lat="49.21208" lon="1.11949">
        <ele>111.8</ele>
        <time>2018-09-16T09:30:52Z</time>
      </trkpt>
      <trkpt lat="49.21209" lon="1.11965">
        <ele>111.2</ele>
        <time>2018-09-16T09:30:54Z</time>
      </trkpt>
      <trkpt lat="49.21207" lon="1.11984">
        <ele>110.8</ele>
        <time>2018-09-16T09:30:56Z</time>
      </trkpt>
      <trkpt lat="49.21205" lon="1.12002">
        <ele>110.5</ele>
        <time>2018-09-16T09:30:58Z</time>
      </trkpt>
      <trkpt lat="49.21204" lon="1.12018">
        <ele>109.9</ele>
        <time>2018-09-16T09:31:00Z</time>
      </trkpt>
      <trkpt lat="49.21206" lon="1.12035">
        <ele>109.8</ele>
        <time>2018-09-16T09:31:02Z</time>
      </trkpt>
      <trkpt lat="49.21205" lon="1.12054">
        <ele>109.6</ele>
        <time>2018-09-16T09:31:05Z</time>
      </trkpt>
      <trkpt lat="49.21204" lon="1.12072">
        <ele>110.1</ele>
        <time>2018-09-16T09:31:08Z</time>
      </trkpt>
      <trkpt lat="49.21202" lon="1.12088">
        <ele>110.3</ele>
        <time>2018-09-16T09:31:10Z</time>
      </trkpt>
      <trkpt lat="49.21199" lon="1.12105">
        <ele>110.3</ele>
        <time>2018-09-16T09:31:12Z</time>
      </trkpt>
      <trkpt lat="49.21196" lon="1.12124">
        <ele>109.9</ele>
        <time>2018-09-16T09:31:14Z</time>
      </trkpt>
      <trkpt lat="49.21191" lon="1.12145">
        <ele>108.9</ele>
        <time>2018-09-16T09:31:16Z</time>
      </trkpt>
      <trkpt lat="49.21187" lon="1.12164">
        <ele>107.9</ele>
        <time>2018-09-16T09:31:18Z</time>
      </trkpt>
      <trkpt lat="49.21177" lon="1.12169">
        <ele>106.3</ele>
        <time>2018-09-16T09:31:22Z</time>
      </trkpt>
      <trkpt lat="49.21168" lon="1.12174">
        <ele>105.8</ele>
        <time>2018-09-16T09:31:25Z</time>
      </trkpt>
      <trkpt lat="49.21157" lon="1.12173">
        <ele>105.7</ele>
        <time>2018-09-16T09:31:28Z</time>
      </trkpt>
      <trkpt lat="49.21156" lon="1.12155">
        <ele>105.8</ele>
        <time>2018-09-16T09:31:33Z</time>
      </trkpt>
      <trkpt lat="49.2116" lon="1.12141">
        <ele>105.9</ele>
        <time>2018-09-16T09:31:36Z</time>
      </trkpt>
      <trkpt lat="49.21162" lon="1.12126">
        <ele>106.2</ele>
        <time>2018-09-16T09:31:40Z</time>
      </trkpt>
      <trkpt lat="49.21163" lon="1.12109">
        <ele>106.2</ele>
        <time>2018-09-16T09:31:44Z</time>
      </trkpt>
      <trkpt lat="49.21166" lon="1.12092">
        <ele>106.5</ele>
        <time>2018-09-16T09:31:48Z</time>
      </trkpt>
      <trkpt lat="49.21166" lon="1.12077">
        <ele>106.7</ele>
        <time>2018-09-16T09:31:52Z</time>
      </trkpt>
      <trkpt lat="49.21171" lon="1.12063">
        <ele>107.4</ele>
        <time>2018-09-16T09:32:01Z</time>
      </trkpt>
      <trkpt lat="49.21166" lon="1.12051">
        <ele>107.7</ele>
        <time>2018-09-16T09:32:08Z</time>
      </trkpt>
      <trkpt lat="49.21164" lon="1.12037">
        <ele>108.1</ele>
        <time>2018-09-16T09:32:14Z</time>
      </trkpt>
      <trkpt lat="49.2116" lon="1.12024">
        <ele>109.2</ele>
        <time>2018-09-16T09:32:19Z</time>
      </trkpt>
      <trkpt lat="49.21158" lon="1.1201">
        <ele>110.6</ele>
        <time>2018-09-16T09:32:26Z</time>
      </trkpt>
      <trkpt lat="49.21161" lon="1.11994">
        <ele>111.2</ele>
        <time>2018-09-16T09:32:32Z</time>
      </trkpt>
      <trkpt lat="49.21166" lon="1.11979">
        <ele>111.3</ele>
        <time>2018-09-16T09:32:36Z</time>
      </trkpt>
      <trkpt lat="49.21169" lon="1.11966">
        <ele>111.5</ele>
        <time>2018-09-16T09:32:39Z</time>
      </trkpt>
      <trkpt lat="49.21171" lon="1.11949">
        <ele>111.9</ele>
        <time>2018-09-16T09:32:43Z</time>
      </trkpt>
      <trkpt lat="49.21176" lon="1.11934">
        <ele>112.1</ele>
        <time>2018-09-16T09:32:46Z</time>
      </trkpt>
      <trkpt lat="49.21178" lon="1.11919">
        <ele>112.2</ele>
        <time>2018-09-16T09:32:50Z</time>
      </trkpt>
      <trkpt lat="49.21179" lon="1.11904">
        <ele>112.6</ele>
        <time>2018-09-16T09:32:54Z</time>
      </trkpt>
      <trkpt lat="49.21181" lon="1.11889">
        <ele>113.1</ele>
        <time>2018-09-16T09:32:59Z</time>
      </trkpt>
      <trkpt lat="49.21182" lon="1.11872">
        <ele>113.8</ele>
        <time>2018-09-16T09:33:03Z</time>
      </trkpt>
      <trkpt lat="49.21186" lon="1.11857">
        <ele>114.1</ele>
        <time>2018-09-16T09:33:06Z</time>
      </trkpt>
      <trkpt lat="49.21189" lon="1.11842">
        <ele>114.5</ele>
        <time>2018-09-16T09:33:10Z</time>
      </trkpt>
      <trkpt lat="49.21192" lon="1.11826">
        <ele>114.7</ele>
        <time>2018-09-16T09:33:15Z</time>
      </trkpt>
      <trkpt lat="49.21195" lon="1.1181">
        <ele>115</ele>
        <time>2018-09-16T09:33:20Z</time>
      </trkpt>
      <trkpt lat="49.21198" lon="1.11796">
        <ele>115.1</ele>
        <time>2018-09-16T09:33:25Z</time>
      </trkpt>
      <trkpt lat="49.21199" lon="1.11779">
        <ele>115.4</ele>
        <time>2018-09-16T09:33:30Z</time>
      </trkpt>
      <trkpt lat="49.21205" lon="1.11764">
        <ele>115.5</ele>
        <time>2018-09-16T09:33:35Z</time>
      </trkpt>
      <trkpt lat="49.2121" lon="1.11751">
        <ele>115.4</ele>
        <time>2018-09-16T09:33:39Z</time>
      </trkpt>
      <trkpt lat="49.21216" lon="1.11739">
        <ele>115.1</ele>
        <time>2018-09-16T09:33:43Z</time>
      </trkpt>
      <trkpt lat="49.21222" lon="1.11726">
        <ele>115.1</ele>
        <time>2018-09-16T09:33:47Z</time>
      </trkpt>
      <trkpt lat="49.21229" lon="1.11711">
        <ele>115.4</ele>
        <time>2018-09-16T09:33:51Z</time>
      </trkpt>
      <trkpt lat="49.21233" lon="1.11697">
        <ele>115.6</ele>
        <time>2018-09-16T09:33:55Z</time>
      </trkpt>
      <trkpt lat="49.21239" lon="1.11681">
        <ele>116</ele>
        <time>2018-09-16T09:33:59Z</time>
      </trkpt>
      <trkpt lat="49.21242" lon="1.11667">
        <ele>116.3</ele>
        <time>2018-09-16T09:34:02Z</time>
      </trkpt>
      <trkpt lat="49.21247" lon="1.11656">
        <ele>116.6</ele>
        <time>2018-09-16T09:34:05Z</time>
      </trkpt>
      <trkpt lat="49.21252" lon="1.11643">
        <ele>117.1</ele>
        <time>2018-09-16T09:34:08Z</time>
      </trkpt>
      <trkpt lat="49.21256" lon="1.1163">
        <ele>117.5</ele>
        <time>2018-09-16T09:34:11Z</time>
      </trkpt>
      <trkpt lat="49.2126" lon="1.11617">
        <ele>117.8</ele>
        <time>2018-09-16T09:34:14Z</time>
      </trkpt>
      <trkpt lat="49.21261" lon="1.11601">
        <ele>118.5</ele>
        <time>2018-09-16T09:34:20Z</time>
      </trkpt>
      <trkpt lat="49.21255" lon="1.11589">
        <ele>119.2</ele>
        <time>2018-09-16T09:34:26Z</time>
      </trkpt>
      <trkpt lat="49.21246" lon="1.11583">
        <ele>120.3</ele>
        <time>2018-09-16T09:34:31Z</time>
      </trkpt>
      <trkpt lat="49.21237" lon="1.11581">
        <ele>121.6</ele>
        <time>2018-09-16T09:34:36Z</time>
      </trkpt>
      <trkpt lat="49.21227" lon="1.11584">
        <ele>123.3</ele>
        <time>2018-09-16T09:34:44Z</time>
      </trkpt>
      <trkpt lat="49.21218" lon="1.11587">
        <ele>124.7</ele>
        <time>2018-09-16T09:34:53Z</time>
      </trkpt>
      <trkpt lat="49.2121" lon="1.11593">
        <ele>125.8</ele>
        <time>2018-09-16T09:35:05Z</time>
      </trkpt>
      <trkpt lat="49.21202" lon="1.11599">
        <ele>127.1</ele>
        <time>2018-09-16T09:35:11Z</time>
      </trkpt>
      <trkpt lat="49.21194" lon="1.11604">
        <ele>129.1</ele>
        <time>2018-09-16T09:35:18Z</time>
      </trkpt>
      <trkpt lat="49.21184" lon="1.11609">
        <ele>131.2</ele>
        <time>2018-09-16T09:35:25Z</time>
      </trkpt>
      <trkpt lat="49.21175" lon="1.11614">
        <ele>132.5</ele>
        <time>2018-09-16T09:35:30Z</time>
      </trkpt>
      <trkpt lat="49.21166" lon="1.11619">
        <ele>133.6</ele>
        <time>2018-09-16T09:35:35Z</time>
      </trkpt>
      <trkpt lat="49.21156" lon="1.1162">
        <ele>134.7</ele>
        <time>2018-09-16T09:35:41Z</time>
      </trkpt>
      <trkpt lat="49.21145" lon="1.11622">
        <ele>135.6</ele>
        <time>2018-09-16T09:35:46Z</time>
      </trkpt>
      <trkpt lat="49.21135" lon="1.11623">
        <ele>136.3</ele>
        <time>2018-09-16T09:35:50Z</time>
      </trkpt>
      <trkpt lat="49.21127" lon="1.11627">
        <ele>136.6</ele>
        <time>2018-09-16T09:35:54Z</time>
      </trkpt>
      <trkpt lat="49.21115" lon="1.11629">
        <ele>137</ele>
        <time>2018-09-16T09:35:58Z</time>
      </trkpt>
      <trkpt lat="49.21104" lon="1.11633">
        <ele>137.4</ele>
        <time>2018-09-16T09:36:02Z</time>
      </trkpt>
      <trkpt lat="49.21094" lon="1.11635">
        <ele>137.7</ele>
        <time>2018-09-16T09:36:05Z</time>
      </trkpt>
      <trkpt lat="49.21082" lon="1.11637">
        <ele>137.9</ele>
        <time>2018-09-16T09:36:08Z</time>
      </trkpt>
      <trkpt lat="49.21072" lon="1.11639">
        <ele>138</ele>
        <time>2018-09-16T09:36:11Z</time>
      </trkpt>
      <trkpt lat="49.21062" lon="1.11648">
        <ele>138.1</ele>
        <time>2018-09-16T09:36:14Z</time>
      </trkpt>
      <trkpt lat="49.21054" lon="1.1166">
        <ele>137.9</ele>
        <time>2018-09-16T09:36:17Z</time>
      </trkpt>
      <trkpt lat="49.21046" lon="1.11667">
        <ele>137.8</ele>
        <time>2018-09-16T09:36:19Z</time>
      </trkpt>
      <trkpt lat="49.21034" lon="1.11675">
        <ele>137.5</ele>
        <time>2018-09-16T09:36:22Z</time>
      </trkpt>
      <trkpt lat="49.21024" lon="1.11683">
        <ele>137.2</ele>
        <time>2018-09-16T09:36:24Z</time>
      </trkpt>
      <trkpt lat="49.21022" lon="1.11699">
        <ele>136.8</ele>
        <time>2018-09-16T09:36:27Z</time>
      </trkpt>
      <trkpt lat="49.21024" lon="1.11715">
        <ele>136.4</ele>
        <time>2018-09-16T09:36:29Z</time>
      </trkpt>
      <trkpt lat="49.21029" lon="1.1173">
        <ele>136.2</ele>
        <time>2018-09-16T09:36:31Z</time>
      </trkpt>
      <trkpt lat="49.21032" lon="1.11746">
        <ele>135.9</ele>
        <time>2018-09-16T09:36:33Z</time>
      </trkpt>
      <trkpt lat="49.21036" lon="1.1176">
        <ele>135.4</ele>
        <time>2018-09-16T09:36:35Z</time>
      </trkpt>
      <trkpt lat="49.21041" lon="1.11776">
        <ele>135.3</ele>
        <time>2018-09-16T09:36:37Z</time>
      </trkpt>
      <trkpt lat="49.21042" lon="1.11794">
        <ele>135.2</ele>
        <time>2018-09-16T09:36:39Z</time>
      </trkpt>
      <trkpt lat="49.21044" lon="1.11811">
        <ele>134.7</ele>
        <time>2018-09-16T09:36:41Z</time>
      </trkpt>
      <trkpt lat="49.21043" lon="1.11829">
        <ele>134.2</ele>
        <time>2018-09-16T09:36:43Z</time>
      </trkpt>
      <trkpt lat="49.21044" lon="1.11846">
        <ele>133.9</ele>
        <time>2018-09-16T09:36:45Z</time>
      </trkpt>
      <trkpt lat="49.21046" lon="1.11862">
        <ele>133.6</ele>
        <time>2018-09-16T09:36:47Z</time>
      </trkpt>
      <trkpt lat="49.21048" lon="1.11878">
        <ele>133</ele>
        <time>2018-09-16T09:36:49Z</time>
      </trkpt>
      <trkpt lat="49.21051" lon="1.11892">
        <ele>132.6</ele>
        <time>2018-09-16T09:36:51Z</time>
      </trkpt>
      <trkpt lat="49.21054" lon="1.11911">
        <ele>132.1</ele>
        <time>2018-09-16T09:36:53Z</time>
      </trkpt>
      <trkpt lat="49.21056" lon="1.11926">
        <ele>131.5</ele>
        <time>2018-09-16T09:36:55Z</time>
      </trkpt>
      <trkpt lat="49.21059" lon="1.11943">
        <ele>131</ele>
        <time>2018-09-16T09:36:57Z</time>
      </trkpt>
      <trkpt lat="49.21065" lon="1.11961">
        <ele>130.3</ele>
        <time>2018-09-16T09:36:59Z</time>
      </trkpt>
      <trkpt lat="49.21068" lon="1.11978">
        <ele>129.5</ele>
        <time>2018-09-16T09:37:01Z</time>
      </trkpt>
      <trkpt lat="49.21069" lon="1.12001">
        <ele>128.5</ele>
        <time>2018-09-16T09:37:03Z</time>
      </trkpt>
      <trkpt lat="49.21066" lon="1.12021">
        <ele>127.4</ele>
        <time>2018-09-16T09:37:05Z</time>
      </trkpt>
      <trkpt lat="49.21063" lon="1.12042">
        <ele>126.4</ele>
        <time>2018-09-16T09:37:07Z</time>
      </trkpt>
      <trkpt lat="49.21064" lon="1.12063">
        <ele>125.5</ele>
        <time>2018-09-16T09:37:09Z</time>
      </trkpt>
      <trkpt lat="49.21063" lon="1.12084">
        <ele>124.7</ele>
        <time>2018-09-16T09:37:11Z</time>
      </trkpt>
      <trkpt lat="49.21065" lon="1.12103">
        <ele>123.4</ele>
        <time>2018-09-16T09:37:13Z</time>
      </trkpt>
      <trkpt lat="49.21068" lon="1.12116">
        <ele>122.1</ele>
        <time>2018-09-16T09:37:15Z</time>
      </trkpt>
      <trkpt lat="49.2107" lon="1.12133">
        <ele>120.2</ele>
        <time>2018-09-16T09:37:17Z</time>
      </trkpt>
      <trkpt lat="49.21074" lon="1.12153">
        <ele>117.5</ele>
        <time>2018-09-16T09:37:20Z</time>
      </trkpt>
      <trkpt lat="49.21079" lon="1.12168">
        <ele>115.5</ele>
        <time>2018-09-16T09:37:22Z</time>
      </trkpt>
      <trkpt lat="49.21082" lon="1.12182">
        <ele>113.5</ele>
        <time>2018-09-16T09:37:24Z</time>
      </trkpt>
      <trkpt lat="49.2108" lon="1.12198">
        <ele>111.5</ele>
        <time>2018-09-16T09:37:26Z</time>
      </trkpt>
      <trkpt lat="49.21077" lon="1.12219">
        <ele>109.5</ele>
        <time>2018-09-16T09:37:28Z</time>
      </trkpt>
      <trkpt lat="49.21072" lon="1.1224">
        <ele>107.2</ele>
        <time>2018-09-16T09:37:30Z</time>
      </trkpt>
      <trkpt lat="49.21067" lon="1.1226">
        <ele>104.8</ele>
        <time>2018-09-16T09:37:32Z</time>
      </trkpt>
      <trkpt lat="49.21064" lon="1.12279">
        <ele>103</ele>
        <time>2018-09-16T09:37:34Z</time>
      </trkpt>
      <trkpt lat="49.21062" lon="1.12297">
        <ele>101.3</ele>
        <time>2018-09-16T09:37:36Z</time>
      </trkpt>
      <trkpt lat="49.21064" lon="1.12314">
        <ele>99.7</ele>
        <time>2018-09-16T09:37:39Z</time>
      </trkpt>
      <trkpt lat="49.21067" lon="1.12328">
        <ele>99</ele>
        <time>2018-09-16T09:37:41Z</time>
      </trkpt>
      <trkpt lat="49.21069" lon="1.12343">
        <ele>98.4</ele>
        <time>2018-09-16T09:37:43Z</time>
      </trkpt>
      <trkpt lat="49.21072" lon="1.12356">
        <ele>98</ele>
        <time>2018-09-16T09:37:45Z</time>
      </trkpt>
      <trkpt lat="49.21075" lon="1.12372">
        <ele>97.3</ele>
        <time>2018-09-16T09:37:48Z</time>
      </trkpt>
      <trkpt lat="49.21071" lon="1.12391">
        <ele>96.5</ele>
        <time>2018-09-16T09:37:51Z</time>
      </trkpt>
      <trkpt lat="49.21066" lon="1.12407">
        <ele>95.6</ele>
        <time>2018-09-16T09:37:55Z</time>
      </trkpt>
      <trkpt lat="49.21059" lon="1.12423">
        <ele>94.9</ele>
        <time>2018-09-16T09:37:58Z</time>
      </trkpt>
      <trkpt lat="49.21056" lon="1.12437">
        <ele>94.6</ele>
        <time>2018-09-16T09:38:00Z</time>
      </trkpt>
      <trkpt lat="49.21054" lon="1.12454">
        <ele>94.2</ele>
        <time>2018-09-16T09:38:02Z</time>
      </trkpt>
      <trkpt lat="49.21049" lon="1.12469">
        <ele>93.7</ele>
        <time>2018-09-16T09:38:04Z</time>
      </trkpt>
      <trkpt lat="49.21046" lon="1.12486">
        <ele>92.8</ele>
        <time>2018-09-16T09:38:07Z</time>
      </trkpt>
      <trkpt lat="49.21045" lon="1.12501">
        <ele>92.2</ele>
        <time>2018-09-16T09:38:11Z</time>
      </trkpt>
      <trkpt lat="49.21045" lon="1.12517">
        <ele>91.8</ele>
        <time>2018-09-16T09:38:15Z</time>
      </trkpt>
      <trkpt lat="49.21047" lon="1.12533">
        <ele>91.9</ele>
        <time>2018-09-16T09:38:18Z</time>
      </trkpt>
      <trkpt lat="49.21041" lon="1.12547">
        <ele>92</ele>
        <time>2018-09-16T09:38:21Z</time>
      </trkpt>
      <trkpt lat="49.21034" lon="1.12563">
        <ele>91.5</ele>
        <time>2018-09-16T09:38:24Z</time>
      </trkpt>
      <trkpt lat="49.21035" lon="1.12579">
        <ele>91.1</ele>
        <time>2018-09-16T09:38:26Z</time>
      </trkpt>
      <trkpt lat="49.21043" lon="1.12586">
        <ele>91</ele>
        <time>2018-09-16T09:38:28Z</time>
      </trkpt>
      <trkpt lat="49.21048" lon="1.12602">
        <ele>91.2</ele>
        <time>2018-09-16T09:38:31Z</time>
      </trkpt>
      <trkpt lat="49.21052" lon="1.12622">
        <ele>91.7</ele>
        <time>2018-09-16T09:38:34Z</time>
      </trkpt>
      <trkpt lat="49.2105" lon="1.12637">
        <ele>91.8</ele>
        <time>2018-09-16T09:38:36Z</time>
      </trkpt>
      <trkpt lat="49.21047" lon="1.12658">
        <ele>90.9</ele>
        <time>2018-09-16T09:38:39Z</time>
      </trkpt>
      <trkpt lat="49.21046" lon="1.12673">
        <ele>90.3</ele>
        <time>2018-09-16T09:38:41Z</time>
      </trkpt>
      <trkpt lat="49.21047" lon="1.12695">
        <ele>89.6</ele>
        <time>2018-09-16T09:38:44Z</time>
      </trkpt>
      <trkpt lat="49.2105" lon="1.1271">
        <ele>89.3</ele>
        <time>2018-09-16T09:38:46Z</time>
      </trkpt>
      <trkpt lat="49.21051" lon="1.12729">
        <ele>89.2</ele>
        <time>2018-09-16T09:38:49Z</time>
      </trkpt>
      <trkpt lat="49.21048" lon="1.12746">
        <ele>89.1</ele>
        <time>2018-09-16T09:38:52Z</time>
      </trkpt>
      <trkpt lat="49.21053" lon="1.12762">
        <ele>89.1</ele>
        <time>2018-09-16T09:38:54Z</time>
      </trkpt>
      <trkpt lat="49.21058" lon="1.12779">
        <ele>89.2</ele>
        <time>2018-09-16T09:38:57Z</time>
      </trkpt>
      <trkpt lat="49.21058" lon="1.12798">
        <ele>89.4</ele>
        <time>2018-09-16T09:39:00Z</time>
      </trkpt>
      <trkpt lat="49.21056" lon="1.12813">
        <ele>89.6</ele>
        <time>2018-09-16T09:39:02Z</time>
      </trkpt>
      <trkpt lat="49.21057" lon="1.12831">
        <ele>90</ele>
        <time>2018-09-16T09:39:05Z</time>
      </trkpt>
      <trkpt lat="49.21061" lon="1.12847">
        <ele>91.5</ele>
        <time>2018-09-16T09:39:10Z</time>
      </trkpt>
      <trkpt lat="49.21064" lon="1.1286">
        <ele>92.5</ele>
        <time>2018-09-16T09:39:14Z</time>
      </trkpt>
      <trkpt lat="49.21069" lon="1.12874">
        <ele>94</ele>
        <time>2018-09-16T09:39:19Z</time>
      </trkpt>
      <trkpt lat="49.21073" lon="1.12887">
        <ele>95.8</ele>
        <time>2018-09-16T09:39:25Z</time>
      </trkpt>
      <trkpt lat="49.21078" lon="1.12901">
        <ele>98.5</ele>
        <time>2018-09-16T09:39:32Z</time>
      </trkpt>
      <trkpt lat="49.21074" lon="1.12915">
        <ele>99.6</ele>
        <time>2018-09-16T09:39:37Z</time>
      </trkpt>
      <trkpt lat="49.21065" lon="1.1292">
        <ele>99.6</ele>
        <time>2018-09-16T09:39:41Z</time>
      </trkpt>
      <trkpt lat="49.21057" lon="1.1293">
        <ele>97.9</ele>
        <time>2018-09-16T09:39:45Z</time>
      </trkpt>
      <trkpt lat="49.21051" lon="1.12945">
        <ele>96.9</ele>
        <time>2018-09-16T09:39:48Z</time>
      </trkpt>
      <trkpt lat="49.21046" lon="1.12962">
        <ele>96.2</ele>
        <time>2018-09-16T09:39:51Z</time>
      </trkpt>
      <trkpt lat="49.21039" lon="1.12977">
        <ele>95.8</ele>
        <time>2018-09-16T09:39:54Z</time>
      </trkpt>
      <trkpt lat="49.21034" lon="1.12991">
        <ele>95.2</ele>
        <time>2018-09-16T09:39:57Z</time>
      </trkpt>
      <trkpt lat="49.21029" lon="1.13006">
        <ele>95.2</ele>
        <time>2018-09-16T09:40:00Z</time>
      </trkpt>
      <trkpt lat="49.21019" lon="1.13019">
        <ele>94.7</ele>
        <time>2018-09-16T09:40:03Z</time>
      </trkpt>
      <trkpt lat="49.21012" lon="1.13031">
        <ele>94</ele>
        <time>2018-09-16T09:40:05Z</time>
      </trkpt>
      <trkpt lat="49.21006" lon="1.13048">
        <ele>93.4</ele>
        <time>2018-09-16T09:40:08Z</time>
      </trkpt>
      <trkpt lat="49.21003" lon="1.13061">
        <ele>93.4</ele>
        <time>2018-09-16T09:40:10Z</time>
      </trkpt>
      <trkpt lat="49.21" lon="1.13075">
        <ele>93.5</ele>
        <time>2018-09-16T09:40:13Z</time>
      </trkpt>
      <trkpt lat="49.20994" lon="1.1309">
        <ele>93.5</ele>
        <time>2018-09-16T09:40:17Z</time>
      </trkpt>
      <trkpt lat="49.2099" lon="1.13106">
        <ele>93.9</ele>
        <time>2018-09-16T09:40:21Z</time>
      </trkpt>
      <trkpt lat="49.20987" lon="1.13122">
        <ele>94.1</ele>
        <time>2018-09-16T09:40:24Z</time>
      </trkpt>
      <trkpt lat="49.20984" lon="1.13135">
        <ele>94.6</ele>
        <time>2018-09-16T09:40:27Z</time>
      </trkpt>
      <trkpt lat="49.2098" lon="1.13147">
        <ele>94.5</ele>
        <time>2018-09-16T09:40:34Z</time>
      </trkpt>
      <trkpt lat="49.20975" lon="1.1316">
        <ele>94.1</ele>
        <time>2018-09-16T09:40:43Z</time>
      </trkpt>
      <trkpt lat="49.20967" lon="1.13173">
        <ele>93.1</ele>
        <time>2018-09-16T09:40:47Z</time>
      </trkpt>
      <trkpt lat="49.20963" lon="1.13188">
        <ele>92.4</ele>
        <time>2018-09-16T09:40:52Z</time>
      </trkpt>
      <trkpt lat="49.20959" lon="1.132">
        <ele>92.3</ele>
        <time>2018-09-16T09:40:55Z</time>
      </trkpt>
      <trkpt lat="49.20957" lon="1.13217">
        <ele>92.3</ele>
        <time>2018-09-16T09:40:59Z</time>
      </trkpt>
      <trkpt lat="49.20953" lon="1.1323">
        <ele>92.4</ele>
        <time>2018-09-16T09:41:02Z</time>
      </trkpt>
      <trkpt lat="49.20951" lon="1.13245">
        <ele>93.2</ele>
        <time>2018-09-16T09:41:09Z</time>
      </trkpt>
      <trkpt lat="49.20954" lon="1.1326">
        <ele>95.1</ele>
        <time>2018-09-16T09:41:26Z</time>
      </trkpt>
      <trkpt lat="49.20962" lon="1.1327">
        <ele>98.1</ele>
        <time>2018-09-16T09:41:36Z</time>
      </trkpt>
      <trkpt lat="49.2097" lon="1.13278">
        <ele>100.8</ele>
        <time>2018-09-16T09:41:46Z</time>
      </trkpt>
      <trkpt lat="49.20977" lon="1.13286">
        <ele>102.2</ele>
        <time>2018-09-16T09:41:56Z</time>
      </trkpt>
      <trkpt lat="49.20985" lon="1.13294">
        <ele>103.3</ele>
        <time>2018-09-16T09:42:03Z</time>
      </trkpt>
      <trkpt lat="49.20994" lon="1.13301">
        <ele>104.8</ele>
        <time>2018-09-16T09:42:09Z</time>
      </trkpt>
      <trkpt lat="49.21002" lon="1.13309">
        <ele>105.6</ele>
        <time>2018-09-16T09:42:14Z</time>
      </trkpt>
      <trkpt lat="49.2101" lon="1.13318">
        <ele>106.3</ele>
        <time>2018-09-16T09:42:19Z</time>
      </trkpt>
      <trkpt lat="49.21013" lon="1.13332">
        <ele>106.4</ele>
        <time>2018-09-16T09:42:27Z</time>
      </trkpt>
      <trkpt lat="49.21008" lon="1.13346">
        <ele>104.6</ele>
        <time>2018-09-16T09:42:34Z</time>
      </trkpt>
      <trkpt lat="49.21003" lon="1.13358">
        <ele>102.5</ele>
        <time>2018-09-16T09:42:39Z</time>
      </trkpt>
      <trkpt lat="49.20997" lon="1.1337">
        <ele>100.6</ele>
        <time>2018-09-16T09:42:43Z</time>
      </trkpt>
      <trkpt lat="49.20989" lon="1.13381">
        <ele>99</ele>
        <time>2018-09-16T09:42:47Z</time>
      </trkpt>
      <trkpt lat="49.2098" lon="1.13392">
        <ele>97.4</ele>
        <time>2018-09-16T09:42:51Z</time>
      </trkpt>
      <trkpt lat="49.20972" lon="1.13403">
        <ele>96.4</ele>
        <time>2018-09-16T09:42:55Z</time>
      </trkpt>
      <trkpt lat="49.20964" lon="1.13412">
        <ele>95.2</ele>
        <time>2018-09-16T09:42:59Z</time>
      </trkpt>
      <trkpt lat="49.20954" lon="1.13418">
        <ele>94</ele>
        <time>2018-09-16T09:43:03Z</time>
      </trkpt>
      <trkpt lat="49.20946" lon="1.13427">
        <ele>93</ele>
        <time>2018-09-16T09:43:06Z</time>
      </trkpt>
      <trkpt lat="49.20939" lon="1.1344">
        <ele>91.9</ele>
        <time>2018-09-16T09:43:10Z</time>
      </trkpt>
      <trkpt lat="49.20935" lon="1.13453">
        <ele>91.2</ele>
        <time>2018-09-16T09:43:14Z</time>
      </trkpt>
      <trkpt lat="49.2093" lon="1.13466">
        <ele>90.3</ele>
        <time>2018-09-16T09:43:19Z</time>
      </trkpt>
      <trkpt lat="49.20922" lon="1.13481">
        <ele>89.7</ele>
        <time>2018-09-16T09:43:23Z</time>
      </trkpt>
      <trkpt lat="49.20917" lon="1.13494">
        <ele>89.5</ele>
        <time>2018-09-16T09:43:26Z</time>
      </trkpt>
      <trkpt lat="49.20914" lon="1.13513">
        <ele>89</ele>
        <time>2018-09-16T09:43:29Z</time>
      </trkpt>
      <trkpt lat="49.20913" lon="1.1353">
        <ele>88.4</ele>
        <time>2018-09-16T09:43:33Z</time>
      </trkpt>
      <trkpt lat="49.20909" lon="1.13547">
        <ele>87.8</ele>
        <time>2018-09-16T09:43:37Z</time>
      </trkpt>
      <trkpt lat="49.20905" lon="1.13563">
        <ele>87.9</ele>
        <time>2018-09-16T09:43:40Z</time>
      </trkpt>
      <trkpt lat="49.20899" lon="1.1358">
        <ele>87.4</ele>
        <time>2018-09-16T09:43:44Z</time>
      </trkpt>
      <trkpt lat="49.20892" lon="1.13594">
        <ele>86.9</ele>
        <time>2018-09-16T09:43:48Z</time>
      </trkpt>
      <trkpt lat="49.20888" lon="1.13607">
        <ele>86.6</ele>
        <time>2018-09-16T09:43:51Z</time>
      </trkpt>
      <trkpt lat="49.20881" lon="1.1362">
        <ele>86.2</ele>
        <time>2018-09-16T09:43:54Z</time>
      </trkpt>
      <trkpt lat="49.20875" lon="1.13633">
        <ele>85.4</ele>
        <time>2018-09-16T09:43:57Z</time>
      </trkpt>
      <trkpt lat="49.20871" lon="1.13646">
        <ele>84.7</ele>
        <time>2018-09-16T09:44:00Z</time>
      </trkpt>
      <trkpt lat="49.20866" lon="1.13662">
        <ele>84</ele>
        <time>2018-09-16T09:44:03Z</time>
      </trkpt>
      <trkpt lat="49.2086" lon="1.13678">
        <ele>83.5</ele>
        <time>2018-09-16T09:44:06Z</time>
      </trkpt>
      <trkpt lat="49.20854" lon="1.13696">
        <ele>83</ele>
        <time>2018-09-16T09:44:09Z</time>
      </trkpt>
      <trkpt lat="49.2085" lon="1.13711">
        <ele>82.6</ele>
        <time>2018-09-16T09:44:12Z</time>
      </trkpt>
      <trkpt lat="49.20845" lon="1.13726">
        <ele>82</ele>
        <time>2018-09-16T09:44:15Z</time>
      </trkpt>
      <trkpt lat="49.2084" lon="1.13744">
        <ele>81.2</ele>
        <time>2018-09-16T09:44:18Z</time>
      </trkpt>
      <trkpt lat="49.20836" lon="1.13762">
        <ele>79.8</ele>
        <time>2018-09-16T09:44:21Z</time>
      </trkpt>
      <trkpt lat="49.20832" lon="1.13777">
        <ele>79.2</ele>
        <time>2018-09-16T09:44:23Z</time>
      </trkpt>
      <trkpt lat="49.20827" lon="1.13794">
        <ele>77.9</ele>
        <time>2018-09-16T09:44:26Z</time>
      </trkpt>
      <trkpt lat="49.20821" lon="1.13808">
        <ele>76.8</ele>
        <time>2018-09-16T09:44:29Z</time>
      </trkpt>
      <trkpt lat="49.20812" lon="1.13823">
        <ele>75.5</ele>
        <time>2018-09-16T09:44:32Z</time>
      </trkpt>
      <trkpt lat="49.20806" lon="1.13835">
        <ele>74.7</ele>
        <time>2018-09-16T09:44:34Z</time>
      </trkpt>
      <trkpt lat="49.20798" lon="1.1385">
        <ele>73.7</ele>
        <time>2018-09-16T09:44:36Z</time>
      </trkpt>
      <trkpt lat="49.20792" lon="1.13862">
        <ele>72.2</ele>
        <time>2018-09-16T09:44:39Z</time>
      </trkpt>
      <trkpt lat="49.20785" lon="1.13878">
        <ele>71.1</ele>
        <time>2018-09-16T09:44:42Z</time>
      </trkpt>
      <trkpt lat="49.20778" lon="1.13896">
        <ele>69.7</ele>
        <time>2018-09-16T09:44:45Z</time>
      </trkpt>
      <trkpt lat="49.20772" lon="1.13911">
        <ele>68.2</ele>
        <time>2018-09-16T09:44:48Z</time>
      </trkpt>
      <trkpt lat="49.20768" lon="1.13925">
        <ele>67.1</ele>
        <time>2018-09-16T09:44:50Z</time>
      </trkpt>
      <trkpt lat="49.20762" lon="1.13938">
        <ele>66.1</ele>
        <time>2018-09-16T09:44:52Z</time>
      </trkpt>
      <trkpt lat="49.20755" lon="1.13951">
        <ele>64.8</ele>
        <time>2018-09-16T09:44:54Z</time>
      </trkpt>
      <trkpt lat="49.20742" lon="1.13967">
        <ele>63.7</ele>
        <time>2018-09-16T09:44:56Z</time>
      </trkpt>
      <trkpt lat="49.2073" lon="1.13985">
        <ele>62.3</ele>
        <time>2018-09-16T09:44:58Z</time>
      </trkpt>
      <trkpt lat="49.20722" lon="1.13992">
        <ele>61.2</ele>
        <time>2018-09-16T09:44:59Z</time>
      </trkpt>
      <trkpt lat="49.20716" lon="1.14001">
        <ele>60.5</ele>
        <time>2018-09-16T09:45:00Z</time>
      </trkpt>
      <trkpt lat="49.20707" lon="1.1402">
        <ele>58.7</ele>
        <time>2018-09-16T09:45:02Z</time>
      </trkpt>
      <trkpt lat="49.20701" lon="1.14041">
        <ele>56.8</ele>
        <time>2018-09-16T09:45:04Z</time>
      </trkpt>
      <trkpt lat="49.20698" lon="1.1406">
        <ele>54.3</ele>
        <time>2018-09-16T09:45:06Z</time>
      </trkpt>
      <trkpt lat="49.20697" lon="1.14082">
        <ele>52</ele>
        <time>2018-09-16T09:45:08Z</time>
      </trkpt>
      <trkpt lat="49.20696" lon="1.14105">
        <ele>49.9</ele>
        <time>2018-09-16T09:45:10Z</time>
      </trkpt>
      <trkpt lat="49.20696" lon="1.1413">
        <ele>48.1</ele>
        <time>2018-09-16T09:45:12Z</time>
      </trkpt>
      <trkpt lat="49.20699" lon="1.14148">
        <ele>46.4</ele>
        <time>2018-09-16T09:45:14Z</time>
      </trkpt>
      <trkpt lat="49.20703" lon="1.14161">
        <ele>45.3</ele>
        <time>2018-09-16T09:45:16Z</time>
      </trkpt>
      <trkpt lat="49.20709" lon="1.14177">
        <ele>44.2</ele>
        <time>2018-09-16T09:45:19Z</time>
      </trkpt>
      <trkpt lat="49.20719" lon="1.14177">
        <ele>46</ele>
        <time>2018-09-16T09:45:29Z</time>
      </trkpt>
      <trkpt lat="49.20726" lon="1.14188">
        <ele>48.6</ele>
        <time>2018-09-16T09:45:39Z</time>
      </trkpt>
      <trkpt lat="49.20733" lon="1.14198">
        <ele>49.7</ele>
        <time>2018-09-16T09:45:43Z</time>
      </trkpt>
      <trkpt lat="49.20741" lon="1.14208">
        <ele>51.4</ele>
        <time>2018-09-16T09:45:49Z</time>
      </trkpt>
      <trkpt lat="49.20749" lon="1.14221">
        <ele>52.4</ele>
        <time>2018-09-16T09:45:54Z</time>
      </trkpt>
      <trkpt lat="49.20754" lon="1.14234">
        <ele>52.8</ele>
        <time>2018-09-16T09:45:57Z</time>
      </trkpt>
      <trkpt lat="49.20758" lon="1.14247">
        <ele>52.9</ele>
        <time>2018-09-16T09:46:00Z</time>
      </trkpt>
      <trkpt lat="49.20763" lon="1.14258">
        <ele>53.4</ele>
        <time>2018-09-16T09:46:03Z</time>
      </trkpt>
      <trkpt lat="49.20767" lon="1.14271">
        <ele>53.8</ele>
        <time>2018-09-16T09:46:07Z</time>
      </trkpt>
      <trkpt lat="49.20774" lon="1.14284">
        <ele>54.5</ele>
        <time>2018-09-16T09:46:12Z</time>
      </trkpt>
      <trkpt lat="49.2078" lon="1.14298">
        <ele>55.2</ele>
        <time>2018-09-16T09:46:16Z</time>
      </trkpt>
      <trkpt lat="49.20787" lon="1.14311">
        <ele>56.1</ele>
        <time>2018-09-16T09:46:20Z</time>
      </trkpt>
      <trkpt lat="49.20793" lon="1.14326">
        <ele>56.7</ele>
        <time>2018-09-16T09:46:24Z</time>
      </trkpt>
      <trkpt lat="49.20797" lon="1.1434">
        <ele>57.3</ele>
        <time>2018-09-16T09:46:28Z</time>
      </trkpt>
      <trkpt lat="49.20803" lon="1.14352">
        <ele>57.7</ele>
        <time>2018-09-16T09:46:31Z</time>
      </trkpt>
      <trkpt lat="49.2081" lon="1.14367">
        <ele>57.9</ele>
        <time>2018-09-16T09:46:34Z</time>
      </trkpt>
      <trkpt lat="49.20815" lon="1.14383">
        <ele>57.9</ele>
        <time>2018-09-16T09:46:37Z</time>
      </trkpt>
      <trkpt lat="49.20822" lon="1.14397">
        <ele>58.2</ele>
        <time>2018-09-16T09:46:40Z</time>
      </trkpt>
      <trkpt lat="49.20827" lon="1.14409">
        <ele>58.3</ele>
        <time>2018-09-16T09:46:43Z</time>
      </trkpt>
      <trkpt lat="49.20832" lon="1.14423">
        <ele>58.6</ele>
        <time>2018-09-16T09:46:46Z</time>
      </trkpt>
      <trkpt lat="49.20838" lon="1.14434">
        <ele>58.8</ele>
        <time>2018-09-16T09:46:49Z</time>
      </trkpt>
      <trkpt lat="49.20845" lon="1.14445">
        <ele>59.1</ele>
        <time>2018-09-16T09:46:53Z</time>
      </trkpt>
      <trkpt lat="49.20852" lon="1.14453">
        <ele>60.3</ele>
        <time>2018-09-16T09:46:59Z</time>
      </trkpt>
      <trkpt lat="49.20861" lon="1.14463">
        <ele>62.1</ele>
        <time>2018-09-16T09:47:06Z</time>
      </trkpt>
      <trkpt lat="49.20868" lon="1.14472">
        <ele>63</ele>
        <time>2018-09-16T09:47:12Z</time>
      </trkpt>
      <trkpt lat="49.20874" lon="1.14482">
        <ele>63.6</ele>
        <time>2018-09-16T09:47:16Z</time>
      </trkpt>
      <trkpt lat="49.20881" lon="1.14497">
        <ele>63.9</ele>
        <time>2018-09-16T09:47:19Z</time>
      </trkpt>
      <trkpt lat="49.20888" lon="1.14511">
        <ele>63.9</ele>
        <time>2018-09-16T09:47:22Z</time>
      </trkpt>
      <trkpt lat="49.20893" lon="1.14523">
        <ele>63.8</ele>
        <time>2018-09-16T09:47:25Z</time>
      </trkpt>
      <trkpt lat="49.20896" lon="1.14539">
        <ele>63.7</ele>
        <time>2018-09-16T09:47:29Z</time>
      </trkpt>
      <trkpt lat="49.209" lon="1.14551">
        <ele>63.2</ele>
        <time>2018-09-16T09:47:32Z</time>
      </trkpt>
      <trkpt lat="49.20903" lon="1.14567">
        <ele>62.2</ele>
        <time>2018-09-16T09:47:36Z</time>
      </trkpt>
      <trkpt lat="49.20909" lon="1.14582">
        <ele>61.2</ele>
        <time>2018-09-16T09:47:40Z</time>
      </trkpt>
      <trkpt lat="49.20915" lon="1.14592">
        <ele>60.7</ele>
        <time>2018-09-16T09:47:44Z</time>
      </trkpt>
      <trkpt lat="49.20922" lon="1.14609">
        <ele>60.8</ele>
        <time>2018-09-16T09:47:48Z</time>
      </trkpt>
      <trkpt lat="49.20928" lon="1.14623">
        <ele>60.7</ele>
        <time>2018-09-16T09:47:52Z</time>
      </trkpt>
      <trkpt lat="49.20932" lon="1.14638">
        <ele>60.1</ele>
        <time>2018-09-16T09:47:56Z</time>
      </trkpt>
      <trkpt lat="49.20938" lon="1.14655">
        <ele>60</ele>
        <time>2018-09-16T09:48:01Z</time>
      </trkpt>
      <trkpt lat="49.20942" lon="1.14669">
        <ele>59.9</ele>
        <time>2018-09-16T09:48:05Z</time>
      </trkpt>
      <trkpt lat="49.20944" lon="1.14685">
        <ele>60.1</ele>
        <time>2018-09-16T09:48:09Z</time>
      </trkpt>
      <trkpt lat="49.20945" lon="1.14702">
        <ele>59.6</ele>
        <time>2018-09-16T09:48:12Z</time>
      </trkpt>
      <trkpt lat="49.20948" lon="1.14719">
        <ele>58.8</ele>
        <time>2018-09-16T09:48:15Z</time>
      </trkpt>
      <trkpt lat="49.20952" lon="1.14732">
        <ele>58.1</ele>
        <time>2018-09-16T09:48:18Z</time>
      </trkpt>
      <trkpt lat="49.20956" lon="1.14747">
        <ele>57.3</ele>
        <time>2018-09-16T09:48:22Z</time>
      </trkpt>
      <trkpt lat="49.20961" lon="1.14761">
        <ele>56.8</ele>
        <time>2018-09-16T09:48:25Z</time>
      </trkpt>
      <trkpt lat="49.20968" lon="1.14775">
        <ele>56.8</ele>
        <time>2018-09-16T09:48:29Z</time>
      </trkpt>
      <trkpt lat="49.20973" lon="1.14788">
        <ele>56.9</ele>
        <time>2018-09-16T09:48:32Z</time>
      </trkpt>
      <trkpt lat="49.20977" lon="1.14806">
        <ele>56.6</ele>
        <time>2018-09-16T09:48:35Z</time>
      </trkpt>
      <trkpt lat="49.20983" lon="1.14822">
        <ele>56.2</ele>
        <time>2018-09-16T09:48:38Z</time>
      </trkpt>
      <trkpt lat="49.20989" lon="1.14835">
        <ele>56.5</ele>
        <time>2018-09-16T09:48:43Z</time>
      </trkpt>
      <trkpt lat="49.20994" lon="1.1485">
        <ele>57.4</ele>
        <time>2018-09-16T09:48:48Z</time>
      </trkpt>
      <trkpt lat="49.20998" lon="1.14866">
        <ele>58.5</ele>
        <time>2018-09-16T09:48:53Z</time>
      </trkpt>
      <trkpt lat="49.20997" lon="1.14881">
        <ele>59.1</ele>
        <time>2018-09-16T09:48:57Z</time>
      </trkpt>
      <trkpt lat="49.21001" lon="1.14897">
        <ele>59.9</ele>
        <time>2018-09-16T09:49:02Z</time>
      </trkpt>
      <trkpt lat="49.21005" lon="1.14911">
        <ele>60.8</ele>
        <time>2018-09-16T09:49:06Z</time>
      </trkpt>
      <trkpt lat="49.21007" lon="1.14928">
        <ele>61.2</ele>
        <time>2018-09-16T09:49:10Z</time>
      </trkpt>
      <trkpt lat="49.21007" lon="1.14945">
        <ele>60.8</ele>
        <time>2018-09-16T09:49:13Z</time>
      </trkpt>
      <trkpt lat="49.21006" lon="1.14959">
        <ele>60.2</ele>
        <time>2018-09-16T09:49:15Z</time>
      </trkpt>
      <trkpt lat="49.2101" lon="1.14974">
        <ele>59.7</ele>
        <time>2018-09-16T09:49:17Z</time>
      </trkpt>
      <trkpt lat="49.21015" lon="1.14984">
        <ele>58.9</ele>
        <time>2018-09-16T09:49:20Z</time>
      </trkpt>
      <trkpt lat="49.21021" lon="1.15002">
        <ele>58.2</ele>
        <time>2018-09-16T09:49:24Z</time>
      </trkpt>
      <trkpt lat="49.21024" lon="1.15015">
        <ele>57.5</ele>
        <time>2018-09-16T09:49:26Z</time>
      </trkpt>
      <trkpt lat="49.21031" lon="1.15029">
        <ele>56.9</ele>
        <time>2018-09-16T09:49:28Z</time>
      </trkpt>
      <trkpt lat="49.2104" lon="1.15045">
        <ele>56.2</ele>
        <time>2018-09-16T09:49:30Z</time>
      </trkpt>
      <trkpt lat="49.21049" lon="1.15063">
        <ele>55.2</ele>
        <time>2018-09-16T09:49:32Z</time>
      </trkpt>
      <trkpt lat="49.21059" lon="1.15078">
        <ele>54.4</ele>
        <time>2018-09-16T09:49:34Z</time>
      </trkpt>
      <trkpt lat="49.21069" lon="1.15086">
        <ele>53.8</ele>
        <time>2018-09-16T09:49:36Z</time>
      </trkpt>
      <trkpt lat="49.2108" lon="1.15093">
        <ele>53.6</ele>
        <time>2018-09-16T09:49:39Z</time>
      </trkpt>
      <trkpt lat="49.21088" lon="1.15102">
        <ele>54.3</ele>
        <time>2018-09-16T09:49:43Z</time>
      </trkpt>
      <trkpt lat="49.21098" lon="1.15116">
        <ele>55.2</ele>
        <time>2018-09-16T09:49:46Z</time>
      </trkpt>
      <trkpt lat="49.21106" lon="1.15127">
        <ele>56</ele>
        <time>2018-09-16T09:49:49Z</time>
      </trkpt>
      <trkpt lat="49.21113" lon="1.15138">
        <ele>56.5</ele>
        <time>2018-09-16T09:49:52Z</time>
      </trkpt>
      <trkpt lat="49.2112" lon="1.15148">
        <ele>57</ele>
        <time>2018-09-16T09:49:55Z</time>
      </trkpt>
      <trkpt lat="49.21129" lon="1.15156">
        <ele>58.2</ele>
        <time>2018-09-16T09:49:59Z</time>
      </trkpt>
      <trkpt lat="49.21137" lon="1.15164">
        <ele>59.8</ele>
        <time>2018-09-16T09:50:03Z</time>
      </trkpt>
      <trkpt lat="49.21139" lon="1.15182">
        <ele>60.3</ele>
        <time>2018-09-16T09:50:06Z</time>
      </trkpt>
      <trkpt lat="49.21139" lon="1.15201">
        <ele>60.1</ele>
        <time>2018-09-16T09:50:08Z</time>
      </trkpt>
      <trkpt lat="49.21142" lon="1.15224">
        <ele>59.4</ele>
        <time>2018-09-16T09:50:10Z</time>
      </trkpt>
      <trkpt lat="49.21146" lon="1.15236">
        <ele>58.9</ele>
        <time>2018-09-16T09:50:11Z</time>
      </trkpt>
      <trkpt lat="49.21151" lon="1.15248">
        <ele>58.3</ele>
        <time>2018-09-16T09:50:12Z</time>
      </trkpt>
      <trkpt lat="49.21156" lon="1.1526">
        <ele>57.6</ele>
        <time>2018-09-16T09:50:13Z</time>
      </trkpt>
      <trkpt lat="49.21163" lon="1.15272">
        <ele>56.8</ele>
        <time>2018-09-16T09:50:14Z</time>
      </trkpt>
      <trkpt lat="49.21171" lon="1.15282">
        <ele>56</ele>
        <time>2018-09-16T09:50:15Z</time>
      </trkpt>
      <trkpt lat="49.21178" lon="1.15292">
        <ele>55</ele>
        <time>2018-09-16T09:50:16Z</time>
      </trkpt>
      <trkpt lat="49.21186" lon="1.15314">
        <ele>52.6</ele>
        <time>2018-09-16T09:50:18Z</time>
      </trkpt>
      <trkpt lat="49.21187" lon="1.15341">
        <ele>50.3</ele>
        <time>2018-09-16T09:50:20Z</time>
      </trkpt>
      <trkpt lat="49.21185" lon="1.15356">
        <ele>49.2</ele>
        <time>2018-09-16T09:50:21Z</time>
      </trkpt>
      <trkpt lat="49.21182" lon="1.15372">
        <ele>48</ele>
        <time>2018-09-16T09:50:22Z</time>
      </trkpt>
      <trkpt lat="49.21179" lon="1.15388">
        <ele>46.9</ele>
        <time>2018-09-16T09:50:23Z</time>
      </trkpt>
      <trkpt lat="49.21176" lon="1.15405">
        <ele>45.6</ele>
        <time>2018-09-16T09:50:24Z</time>
      </trkpt>
      <trkpt lat="49.21173" lon="1.15422">
        <ele>44.4</ele>
        <time>2018-09-16T09:50:25Z</time>
      </trkpt>
      <trkpt lat="49.2117" lon="1.1544">
        <ele>43.2</ele>
        <time>2018-09-16T09:50:26Z</time>
      </trkpt>
      <trkpt lat="49.21167" lon="1.15458">
        <ele>42</ele>
        <time>2018-09-16T09:50:27Z</time>
      </trkpt>
      <trkpt lat="49.21164" lon="1.15476">
        <ele>40.8</ele>
        <time>2018-09-16T09:50:28Z</time>
      </trkpt>
      <trkpt lat="49.21161" lon="1.15494">
        <ele>39.6</ele>
        <time>2018-09-16T09:50:29Z</time>
      </trkpt>
      <trkpt lat="49.21158" lon="1.15512">
        <ele>38.3</ele>
        <time>2018-09-16T09:50:30Z</time>
      </trkpt>
      <trkpt lat="49.21154" lon="1.1553">
        <ele>37.1</ele>
        <time>2018-09-16T09:50:31Z</time>
      </trkpt>
      <trkpt lat="49.21151" lon="1.15547">
        <ele>36</ele>
        <time>2018-09-16T09:50:32Z</time>
      </trkpt>
      <trkpt lat="49.21148" lon="1.15565">
        <ele>34.8</ele>
        <time>2018-09-16T09:50:33Z</time>
      </trkpt>
      <trkpt lat="49.21145" lon="1.15583">
        <ele>33.7</ele>
        <time>2018-09-16T09:50:34Z</time>
      </trkpt>
      <trkpt lat="49.21143" lon="1.15601">
        <ele>32.7</ele>
        <time>2018-09-16T09:50:35Z</time>
      </trkpt>
      <trkpt lat="49.2114" lon="1.15619">
        <ele>31.9</ele>
        <time>2018-09-16T09:50:36Z</time>
      </trkpt>
      <trkpt lat="49.21138" lon="1.15637">
        <ele>31.1</ele>
        <time>2018-09-16T09:50:37Z</time>
      </trkpt>
      <trkpt lat="49.21135" lon="1.15655">
        <ele>30.3</ele>
        <time>2018-09-16T09:50:38Z</time>
      </trkpt>
      <trkpt lat="49.21133" lon="1.15672">
        <ele>29.6</ele>
        <time>2018-09-16T09:50:39Z</time>
      </trkpt>
      <trkpt lat="49.21131" lon="1.15689">
        <ele>28.7</ele>
        <time>2018-09-16T09:50:40Z</time>
      </trkpt>
      <trkpt lat="49.21129" lon="1.15706">
        <ele>27.9</ele>
        <time>2018-09-16T09:50:41Z</time>
      </trkpt>
      <trkpt lat="49.21127" lon="1.15722">
        <ele>27.4</ele>
        <time>2018-09-16T09:50:42Z</time>
      </trkpt>
      <trkpt lat="49.21125" lon="1.15739">
        <ele>26.8</ele>
        <time>2018-09-16T09:50:43Z</time>
      </trkpt>
      <trkpt lat="49.21123" lon="1.15755">
        <ele>26.2</ele>
        <time>2018-09-16T09:50:44Z</time>
      </trkpt>
      <trkpt lat="49.21121" lon="1.1577">
        <ele>25.8</ele>
        <time>2018-09-16T09:50:45Z</time>
      </trkpt>
      <trkpt lat="49.21119" lon="1.15786">
        <ele>25.3</ele>
        <time>2018-09-16T09:50:46Z</time>
      </trkpt>
      <trkpt lat="49.21118" lon="1.15802">
        <ele>24.8</ele>
        <time>2018-09-16T09:50:47Z</time>
      </trkpt>
      <trkpt lat="49.21117" lon="1.15817">
        <ele>24.5</ele>
        <time>2018-09-16T09:50:48Z</time>
      </trkpt>
      <trkpt lat="49.21116" lon="1.15833">
        <ele>24.1</ele>
        <time>2018-09-16T09:50:49Z</time>
      </trkpt>
      <trkpt lat="49.21114" lon="1.15848">
        <ele>23.8</ele>
        <time>2018-09-16T09:50:50Z</time>
      </trkpt>
      <trkpt lat="49.21113" lon="1.15864">
        <ele>23.6</ele>
        <time>2018-09-16T09:50:51Z</time>
      </trkpt>
      <trkpt lat="49.21112" lon="1.15879">
        <ele>23.4</ele>
        <time>2018-09-16T09:50:52Z</time>
      </trkpt>
      <trkpt lat="49.21111" lon="1.15893">
        <ele>23.1</ele>
        <time>2018-09-16T09:50:53Z</time>
      </trkpt>
      <trkpt lat="49.2111" lon="1.15908">
        <ele>23</ele>
        <time>2018-09-16T09:50:54Z</time>
      </trkpt>
      <trkpt lat="49.21109" lon="1.15923">
        <ele>22.8</ele>
        <time>2018-09-16T09:50:55Z</time>
      </trkpt>
      <trkpt lat="49.21108" lon="1.15937">
        <ele>22.5</ele>
        <time>2018-09-16T09:50:56Z</time>
      </trkpt>
      <trkpt lat="49.21106" lon="1.15952">
        <ele>22.3</ele>
        <time>2018-09-16T09:50:57Z</time>
      </trkpt>
      <trkpt lat="49.21105" lon="1.15966">
        <ele>22</ele>
        <time>2018-09-16T09:50:58Z</time>
      </trkpt>
      <trkpt lat="49.21104" lon="1.1598">
        <ele>21.7</ele>
        <time>2018-09-16T09:50:59Z</time>
      </trkpt>
      <trkpt lat="49.21103" lon="1.15995">
        <ele>21.6</ele>
        <time>2018-09-16T09:51:00Z</time>
      </trkpt>
      <trkpt lat="49.21103" lon="1.16009">
        <ele>21.5</ele>
        <time>2018-09-16T09:51:01Z</time>
      </trkpt>
      <trkpt lat="49.21102" lon="1.16023">
        <ele>21.6</ele>
        <time>2018-09-16T09:51:02Z</time>
      </trkpt>
      <trkpt lat="49.21102" lon="1.16037">
        <ele>21.4</ele>
        <time>2018-09-16T09:51:03Z</time>
      </trkpt>
      <trkpt lat="49.21101" lon="1.16051">
        <ele>21.2</ele>
        <time>2018-09-16T09:51:04Z</time>
      </trkpt>
      <trkpt lat="49.211" lon="1.16079">
        <ele>20.9</ele>
        <time>2018-09-16T09:51:06Z</time>
      </trkpt>
      <trkpt lat="49.21099" lon="1.16093">
        <ele>20.7</ele>
        <time>2018-09-16T09:51:07Z</time>
      </trkpt>
      <trkpt lat="49.21098" lon="1.16119">
        <ele>20.3</ele>
        <time>2018-09-16T09:51:09Z</time>
      </trkpt>
      <trkpt lat="49.21096" lon="1.16146">
        <ele>20.1</ele>
        <time>2018-09-16T09:51:11Z</time>
      </trkpt>
      <trkpt lat="49.21094" lon="1.16172">
        <ele>20</ele>
        <time>2018-09-16T09:51:13Z</time>
      </trkpt>
      <trkpt lat="49.2109" lon="1.16198">
        <ele>19.7</ele>
        <time>2018-09-16T09:51:15Z</time>
      </trkpt>
      <trkpt lat="49.21086" lon="1.16223">
        <ele>19.6</ele>
        <time>2018-09-16T09:51:17Z</time>
      </trkpt>
      <trkpt lat="49.21081" lon="1.16247">
        <ele>19.5</ele>
        <time>2018-09-16T09:51:19Z</time>
      </trkpt>
      <trkpt lat="49.21075" lon="1.16271">
        <ele>19.4</ele>
        <time>2018-09-16T09:51:21Z</time>
      </trkpt>
      <trkpt lat="49.2107" lon="1.16295">
        <ele>19.2</ele>
        <time>2018-09-16T09:51:23Z</time>
      </trkpt>
      <trkpt lat="49.21065" lon="1.16319">
        <ele>19.2</ele>
        <time>2018-09-16T09:51:25Z</time>
      </trkpt>
      <trkpt lat="49.21059" lon="1.16342">
        <ele>18.9</ele>
        <time>2018-09-16T09:51:27Z</time>
      </trkpt>
      <trkpt lat="49.21054" lon="1.16366">
        <ele>18.7</ele>
        <time>2018-09-16T09:51:29Z</time>
      </trkpt>
      <trkpt lat="49.21049" lon="1.16388">
        <ele>18.4</ele>
        <time>2018-09-16T09:51:31Z</time>
      </trkpt>
      <trkpt lat="49.21047" lon="1.16411">
        <ele>18</ele>
        <time>2018-09-16T09:51:33Z</time>
      </trkpt>
      <trkpt lat="49.2105" lon="1.16434">
        <ele>17.7</ele>
        <time>2018-09-16T09:51:35Z</time>
      </trkpt>
      <trkpt lat="49.21058" lon="1.16455">
        <ele>17.4</ele>
        <time>2018-09-16T09:51:37Z</time>
      </trkpt>
      <trkpt lat="49.21066" lon="1.16475">
        <ele>17.1</ele>
        <time>2018-09-16T09:51:39Z</time>
      </trkpt>
      <trkpt lat="49.21073" lon="1.16495">
        <ele>16.9</ele>
        <time>2018-09-16T09:51:41Z</time>
      </trkpt>
      <trkpt lat="49.2108" lon="1.16515">
        <ele>17</ele>
        <time>2018-09-16T09:51:43Z</time>
      </trkpt>
      <trkpt lat="49.21084" lon="1.1653">
        <ele>16.8</ele>
        <time>2018-09-16T09:51:45Z</time>
      </trkpt>
      <trkpt lat="49.21075" lon="1.16544">
        <ele>16.4</ele>
        <time>2018-09-16T09:51:49Z</time>
      </trkpt>
      <trkpt lat="49.21065" lon="1.16549">
        <ele>16.2</ele>
        <time>2018-09-16T09:51:51Z</time>
      </trkpt>
      <trkpt lat="49.21054" lon="1.16551">
        <ele>16.1</ele>
        <time>2018-09-16T09:51:53Z</time>
      </trkpt>
      <trkpt lat="49.21042" lon="1.16549">
        <ele>15.9</ele>
        <time>2018-09-16T09:51:55Z</time>
      </trkpt>
      <trkpt lat="49.2103" lon="1.16551">
        <ele>16</ele>
        <time>2018-09-16T09:51:57Z</time>
      </trkpt>
      <trkpt lat="49.21022" lon="1.16565">
        <ele>16</ele>
        <time>2018-09-16T09:51:59Z</time>
      </trkpt>
      <trkpt lat="49.21015" lon="1.16584">
        <ele>15.9</ele>
        <time>2018-09-16T09:52:01Z</time>
      </trkpt>
      <trkpt lat="49.21008" lon="1.16603">
        <ele>16.1</ele>
        <time>2018-09-16T09:52:03Z</time>
      </trkpt>
      <trkpt lat="49.21004" lon="1.16624">
        <ele>16</ele>
        <time>2018-09-16T09:52:05Z</time>
      </trkpt>
      <trkpt lat="49.21001" lon="1.16647">
        <ele>15.9</ele>
        <time>2018-09-16T09:52:07Z</time>
      </trkpt>
      <trkpt lat="49.20999" lon="1.16669">
        <ele>16</ele>
        <time>2018-09-16T09:52:09Z</time>
      </trkpt>
      <trkpt lat="49.21" lon="1.16691">
        <ele>16.2</ele>
        <time>2018-09-16T09:52:11Z</time>
      </trkpt>
      <trkpt lat="49.21001" lon="1.16713">
        <ele>16.5</ele>
        <time>2018-09-16T09:52:13Z</time>
      </trkpt>
      <trkpt lat="49.21001" lon="1.16735">
        <ele>16.7</ele>
        <time>2018-09-16T09:52:15Z</time>
      </trkpt>
      <trkpt lat="49.21002" lon="1.16757">
        <ele>16.9</ele>
        <time>2018-09-16T09:52:17Z</time>
      </trkpt>
      <trkpt lat="49.21003" lon="1.16778">
        <ele>17.1</ele>
        <time>2018-09-16T09:52:19Z</time>
      </trkpt>
      <trkpt lat="49.21004" lon="1.16798">
        <ele>17.1</ele>
        <time>2018-09-16T09:52:21Z</time>
      </trkpt>
      <trkpt lat="49.21004" lon="1.1682">
        <ele>17.1</ele>
        <time>2018-09-16T09:52:23Z</time>
      </trkpt>
      <trkpt lat="49.21005" lon="1.16841">
        <ele>16.9</ele>
        <time>2018-09-16T09:52:25Z</time>
      </trkpt>
      <trkpt lat="49.21006" lon="1.16862">
        <ele>16.8</ele>
        <time>2018-09-16T09:52:27Z</time>
      </trkpt>
      <trkpt lat="49.21007" lon="1.16884">
        <ele>16.9</ele>
        <time>2018-09-16T09:52:29Z</time>
      </trkpt>
      <trkpt lat="49.21008" lon="1.16906">
        <ele>16.7</ele>
        <time>2018-09-16T09:52:31Z</time>
      </trkpt>
      <trkpt lat="49.21009" lon="1.16929">
        <ele>16.5</ele>
        <time>2018-09-16T09:52:33Z</time>
      </trkpt>
      <trkpt lat="49.2101" lon="1.16952">
        <ele>16.1</ele>
        <time>2018-09-16T09:52:35Z</time>
      </trkpt>
      <trkpt lat="49.21011" lon="1.16976">
        <ele>15.6</ele>
        <time>2018-09-16T09:52:37Z</time>
      </trkpt>
      <trkpt lat="49.21011" lon="1.17001">
        <ele>15</ele>
        <time>2018-09-16T09:52:39Z</time>
      </trkpt>
      <trkpt lat="49.21012" lon="1.17025">
        <ele>14.3</ele>
        <time>2018-09-16T09:52:41Z</time>
      </trkpt>
      <trkpt lat="49.21012" lon="1.17049">
        <ele>13.8</ele>
        <time>2018-09-16T09:52:43Z</time>
      </trkpt>
      <trkpt lat="49.21013" lon="1.17071">
        <ele>13.3</ele>
        <time>2018-09-16T09:52:45Z</time>
      </trkpt>
      <trkpt lat="49.21021" lon="1.17088">
        <ele>12.9</ele>
        <time>2018-09-16T09:52:47Z</time>
      </trkpt>
      <trkpt lat="49.21024" lon="1.17108">
        <ele>12.5</ele>
        <time>2018-09-16T09:52:49Z</time>
      </trkpt>
      <trkpt lat="49.21026" lon="1.17129">
        <ele>12.2</ele>
        <time>2018-09-16T09:52:51Z</time>
      </trkpt>
      <trkpt lat="49.21028" lon="1.17149">
        <ele>11.9</ele>
        <time>2018-09-16T09:52:53Z</time>
      </trkpt>
      <trkpt lat="49.2103" lon="1.17167">
        <ele>11.6</ele>
        <time>2018-09-16T09:52:55Z</time>
      </trkpt>
      <trkpt lat="49.21028" lon="1.1716">
        <ele>9.8</ele>
        <time>2018-09-16T09:53:26Z</time>
      </trkpt>
    </trkseg>
  </trk>
</gpx>